<?xml version="1.0" encoding="UTF-8" standalone="no" ?>
<gpx xmlns="http://www.topografix.com/GPX/1/1" xmlns:xsi="http://www.w3.org/2001/XMLSchema-instance" xsi:schemaLocation="http://www.topografix.com/GPX/1/1 http://www.topografix.com/GPX/1/1/gpx.xsd" version="1.1" creator="VisuGPX - https://www.visugpx.com">
  <metadata>
    <name>1004 Les Gorges de la Vingeanne</name>
    <desc><![CDATA[philman52
amicale santé loisirs]]></desc>
  </metadata>
  <wpt lat="47.76575" lon="5.18621">
    <ele>450</ele>
    <name><![CDATA[Départ]]></name>
    <type><![CDATA[pk]]></type>
  </wpt>
  <trk>
    <name><![CDATA[1004 Les Gorges de la Vingeanne_1]]></name>
    <trkseg>
      <trkpt lat="47.7654" lon="5.18646">
        <ele>458</ele>
        <time>2019-02-12T14:17:49.009Z</time>
      </trkpt>
      <trkpt lat="47.76535" lon="5.18648">
        <ele>458</ele>
        <time>2019-02-12T14:17:59.009Z</time>
      </trkpt>
      <trkpt lat="47.76532" lon="5.18649">
        <ele>458</ele>
        <time>2019-02-12T14:18:02.009Z</time>
      </trkpt>
      <trkpt lat="47.76527" lon="5.18648">
        <ele>458</ele>
        <time>2019-02-12T14:18:05.009Z</time>
      </trkpt>
      <trkpt lat="47.76523" lon="5.18648">
        <ele>458</ele>
        <time>2019-02-12T14:18:08.009Z</time>
      </trkpt>
      <trkpt lat="47.76519" lon="5.1865">
        <ele>458</ele>
        <time>2019-02-12T14:18:11.009Z</time>
      </trkpt>
      <trkpt lat="47.76515" lon="5.18653">
        <ele>458</ele>
        <time>2019-02-12T14:18:15.009Z</time>
      </trkpt>
      <trkpt lat="47.76511" lon="5.18656">
        <ele>458</ele>
        <time>2019-02-12T14:18:19.009Z</time>
      </trkpt>
      <trkpt lat="47.76507" lon="5.18657">
        <ele>458</ele>
        <time>2019-02-12T14:18:22.009Z</time>
      </trkpt>
      <trkpt lat="47.76503" lon="5.1866">
        <ele>458</ele>
        <time>2019-02-12T14:18:25.009Z</time>
      </trkpt>
      <trkpt lat="47.76498" lon="5.18661">
        <ele>458</ele>
        <time>2019-02-12T14:18:28.009Z</time>
      </trkpt>
      <trkpt lat="47.76494" lon="5.18662">
        <ele>458</ele>
        <time>2019-02-12T14:18:31.009Z</time>
      </trkpt>
      <trkpt lat="47.76489" lon="5.18662">
        <ele>458</ele>
        <time>2019-02-12T14:18:34.009Z</time>
      </trkpt>
      <trkpt lat="47.76485" lon="5.18663">
        <ele>458</ele>
        <time>2019-02-12T14:18:37.009Z</time>
      </trkpt>
      <trkpt lat="47.76481" lon="5.18665">
        <ele>458</ele>
        <time>2019-02-12T14:18:40.009Z</time>
      </trkpt>
      <trkpt lat="47.76476" lon="5.18667">
        <ele>458</ele>
        <time>2019-02-12T14:18:43.009Z</time>
      </trkpt>
      <trkpt lat="47.76469" lon="5.18668">
        <ele>458</ele>
        <time>2019-02-12T14:18:47.009Z</time>
      </trkpt>
      <trkpt lat="47.76464" lon="5.1867">
        <ele>458</ele>
        <time>2019-02-12T14:18:51.009Z</time>
      </trkpt>
      <trkpt lat="47.76459" lon="5.18671">
        <ele>458.31268447849</ele>
        <time>2019-02-12T14:18:54.009Z</time>
      </trkpt>
      <trkpt lat="47.76454" lon="5.18673">
        <ele>459</ele>
        <time>2019-02-12T14:18:58.009Z</time>
      </trkpt>
      <trkpt lat="47.76449" lon="5.18674">
        <ele>459</ele>
        <time>2019-02-12T14:19:01.009Z</time>
      </trkpt>
      <trkpt lat="47.76444" lon="5.18675">
        <ele>459</ele>
        <time>2019-02-12T14:19:04.009Z</time>
      </trkpt>
      <trkpt lat="47.76438" lon="5.18676">
        <ele>459</ele>
        <time>2019-02-12T14:19:08.009Z</time>
      </trkpt>
      <trkpt lat="47.76434" lon="5.18678">
        <ele>459</ele>
        <time>2019-02-12T14:19:11.009Z</time>
      </trkpt>
      <trkpt lat="47.76429" lon="5.18678">
        <ele>459</ele>
        <time>2019-02-12T14:19:14.009Z</time>
      </trkpt>
      <trkpt lat="47.76425" lon="5.18678">
        <ele>459</ele>
        <time>2019-02-12T14:19:17.009Z</time>
      </trkpt>
      <trkpt lat="47.76421" lon="5.18679">
        <ele>459</ele>
        <time>2019-02-12T14:19:20.009Z</time>
      </trkpt>
      <trkpt lat="47.76417" lon="5.1868">
        <ele>459</ele>
        <time>2019-02-12T14:19:23.009Z</time>
      </trkpt>
      <trkpt lat="47.76413" lon="5.18682">
        <ele>459</ele>
        <time>2019-02-12T14:19:26.009Z</time>
      </trkpt>
      <trkpt lat="47.76409" lon="5.18683">
        <ele>459</ele>
        <time>2019-02-12T14:19:29.009Z</time>
      </trkpt>
      <trkpt lat="47.76405" lon="5.18685">
        <ele>459</ele>
        <time>2019-02-12T14:19:32.009Z</time>
      </trkpt>
      <trkpt lat="47.764" lon="5.18685">
        <ele>459</ele>
        <time>2019-02-12T14:19:35.009Z</time>
      </trkpt>
      <trkpt lat="47.76396" lon="5.18685">
        <ele>459</ele>
        <time>2019-02-12T14:19:38.009Z</time>
      </trkpt>
      <trkpt lat="47.76391" lon="5.18685">
        <ele>459</ele>
        <time>2019-02-12T14:19:41.009Z</time>
      </trkpt>
      <trkpt lat="47.76387" lon="5.18686">
        <ele>459</ele>
        <time>2019-02-12T14:19:44.009Z</time>
      </trkpt>
      <trkpt lat="47.76383" lon="5.18688">
        <ele>459</ele>
        <time>2019-02-12T14:19:47.009Z</time>
      </trkpt>
      <trkpt lat="47.76378" lon="5.18689">
        <ele>459</ele>
        <time>2019-02-12T14:19:50.009Z</time>
      </trkpt>
      <trkpt lat="47.76375" lon="5.1869">
        <ele>459</ele>
        <time>2019-02-12T14:19:53.009Z</time>
      </trkpt>
      <trkpt lat="47.7637" lon="5.18691">
        <ele>459</ele>
        <time>2019-02-12T14:19:56.009Z</time>
      </trkpt>
      <trkpt lat="47.76366" lon="5.18692">
        <ele>459</ele>
        <time>2019-02-12T14:19:59.009Z</time>
      </trkpt>
      <trkpt lat="47.76361" lon="5.18693">
        <ele>459</ele>
        <time>2019-02-12T14:20:02.009Z</time>
      </trkpt>
      <trkpt lat="47.76356" lon="5.18693">
        <ele>459</ele>
        <time>2019-02-12T14:20:05.009Z</time>
      </trkpt>
      <trkpt lat="47.76352" lon="5.18694">
        <ele>459</ele>
        <time>2019-02-12T14:20:08.009Z</time>
      </trkpt>
      <trkpt lat="47.76346" lon="5.18696">
        <ele>459</ele>
        <time>2019-02-12T14:20:12.009Z</time>
      </trkpt>
      <trkpt lat="47.76341" lon="5.18698">
        <ele>459</ele>
        <time>2019-02-12T14:20:15.009Z</time>
      </trkpt>
      <trkpt lat="47.76337" lon="5.18698">
        <ele>459</ele>
        <time>2019-02-12T14:20:18.009Z</time>
      </trkpt>
      <trkpt lat="47.76332" lon="5.18699">
        <ele>459</ele>
        <time>2019-02-12T14:20:21.009Z</time>
      </trkpt>
      <trkpt lat="47.76328" lon="5.187">
        <ele>459</ele>
        <time>2019-02-12T14:20:24.009Z</time>
      </trkpt>
      <trkpt lat="47.76324" lon="5.18701">
        <ele>459</ele>
        <time>2019-02-12T14:20:27.009Z</time>
      </trkpt>
      <trkpt lat="47.7632" lon="5.18701">
        <ele>459</ele>
        <time>2019-02-12T14:20:30.009Z</time>
      </trkpt>
      <trkpt lat="47.76316" lon="5.18702">
        <ele>459</ele>
        <time>2019-02-12T14:20:33.009Z</time>
      </trkpt>
      <trkpt lat="47.76312" lon="5.18702">
        <ele>459</ele>
        <time>2019-02-12T14:20:36.009Z</time>
      </trkpt>
      <trkpt lat="47.76306" lon="5.18702">
        <ele>459</ele>
        <time>2019-02-12T14:20:40.009Z</time>
      </trkpt>
      <trkpt lat="47.76302" lon="5.18703">
        <ele>459</ele>
        <time>2019-02-12T14:20:43.009Z</time>
      </trkpt>
      <trkpt lat="47.76297" lon="5.18704">
        <ele>459</ele>
        <time>2019-02-12T14:20:46.009Z</time>
      </trkpt>
      <trkpt lat="47.76293" lon="5.18705">
        <ele>459</ele>
        <time>2019-02-12T14:20:49.009Z</time>
      </trkpt>
      <trkpt lat="47.76289" lon="5.18706">
        <ele>459</ele>
        <time>2019-02-12T14:20:52.009Z</time>
      </trkpt>
      <trkpt lat="47.76284" lon="5.18707">
        <ele>459</ele>
        <time>2019-02-12T14:20:55.009Z</time>
      </trkpt>
      <trkpt lat="47.7628" lon="5.18707">
        <ele>459</ele>
        <time>2019-02-12T14:20:58.009Z</time>
      </trkpt>
      <trkpt lat="47.76275" lon="5.18707">
        <ele>459</ele>
        <time>2019-02-12T14:21:01.009Z</time>
      </trkpt>
      <trkpt lat="47.76271" lon="5.18707">
        <ele>459</ele>
        <time>2019-02-12T14:21:04.009Z</time>
      </trkpt>
      <trkpt lat="47.76267" lon="5.18708">
        <ele>459</ele>
        <time>2019-02-12T14:21:07.009Z</time>
      </trkpt>
      <trkpt lat="47.76263" lon="5.18707">
        <ele>459</ele>
        <time>2019-02-12T14:21:10.009Z</time>
      </trkpt>
      <trkpt lat="47.76258" lon="5.18708">
        <ele>459</ele>
        <time>2019-02-12T14:21:13.009Z</time>
      </trkpt>
      <trkpt lat="47.76253" lon="5.18708">
        <ele>459</ele>
        <time>2019-02-12T14:21:16.009Z</time>
      </trkpt>
      <trkpt lat="47.76249" lon="5.18709">
        <ele>459</ele>
        <time>2019-02-12T14:21:20.009Z</time>
      </trkpt>
      <trkpt lat="47.76243" lon="5.1871">
        <ele>459</ele>
        <time>2019-02-12T14:21:24.009Z</time>
      </trkpt>
      <trkpt lat="47.76238" lon="5.1871">
        <ele>459</ele>
        <time>2019-02-12T14:21:27.009Z</time>
      </trkpt>
      <trkpt lat="47.76234" lon="5.18709">
        <ele>459</ele>
        <time>2019-02-12T14:21:30.009Z</time>
      </trkpt>
      <trkpt lat="47.7623" lon="5.18709">
        <ele>459</ele>
        <time>2019-02-12T14:21:33.009Z</time>
      </trkpt>
      <trkpt lat="47.76225" lon="5.18709">
        <ele>459</ele>
        <time>2019-02-12T14:21:36.009Z</time>
      </trkpt>
      <trkpt lat="47.76221" lon="5.18709">
        <ele>459</ele>
        <time>2019-02-12T14:21:39.009Z</time>
      </trkpt>
      <trkpt lat="47.76216" lon="5.18709">
        <ele>459</ele>
        <time>2019-02-12T14:21:42.009Z</time>
      </trkpt>
      <trkpt lat="47.76212" lon="5.18708">
        <ele>459</ele>
        <time>2019-02-12T14:21:45.009Z</time>
      </trkpt>
      <trkpt lat="47.76208" lon="5.18708">
        <ele>459</ele>
        <time>2019-02-12T14:21:48.009Z</time>
      </trkpt>
      <trkpt lat="47.76203" lon="5.18707">
        <ele>459</ele>
        <time>2019-02-12T14:21:51.009Z</time>
      </trkpt>
      <trkpt lat="47.76199" lon="5.18707">
        <ele>459</ele>
        <time>2019-02-12T14:21:54.009Z</time>
      </trkpt>
      <trkpt lat="47.76194" lon="5.18706">
        <ele>459</ele>
        <time>2019-02-12T14:21:57.009Z</time>
      </trkpt>
      <trkpt lat="47.76188" lon="5.18706">
        <ele>459</ele>
        <time>2019-02-12T14:22:01.009Z</time>
      </trkpt>
      <trkpt lat="47.76183" lon="5.18705">
        <ele>459</ele>
        <time>2019-02-12T14:22:04.009Z</time>
      </trkpt>
      <trkpt lat="47.76179" lon="5.18705">
        <ele>459</ele>
        <time>2019-02-12T14:22:07.009Z</time>
      </trkpt>
      <trkpt lat="47.76174" lon="5.18705">
        <ele>459</ele>
        <time>2019-02-12T14:22:10.009Z</time>
      </trkpt>
      <trkpt lat="47.76171" lon="5.18705">
        <ele>459</ele>
        <time>2019-02-12T14:22:13.009Z</time>
      </trkpt>
      <trkpt lat="47.76167" lon="5.18705">
        <ele>459</ele>
        <time>2019-02-12T14:22:16.009Z</time>
      </trkpt>
      <trkpt lat="47.76162" lon="5.18704">
        <ele>459</ele>
        <time>2019-02-12T14:22:19.009Z</time>
      </trkpt>
      <trkpt lat="47.76158" lon="5.18703">
        <ele>459</ele>
        <time>2019-02-12T14:22:22.009Z</time>
      </trkpt>
      <trkpt lat="47.76153" lon="5.18703">
        <ele>458</ele>
        <time>2019-02-12T14:22:25.009Z</time>
      </trkpt>
      <trkpt lat="47.76149" lon="5.18702">
        <ele>458</ele>
        <time>2019-02-12T14:22:28.009Z</time>
      </trkpt>
      <trkpt lat="47.76144" lon="5.18702">
        <ele>458</ele>
        <time>2019-02-12T14:22:31.009Z</time>
      </trkpt>
      <trkpt lat="47.76139" lon="5.18702">
        <ele>458</ele>
        <time>2019-02-12T14:22:34.009Z</time>
      </trkpt>
      <trkpt lat="47.76135" lon="5.18702">
        <ele>458</ele>
        <time>2019-02-12T14:22:37.009Z</time>
      </trkpt>
      <trkpt lat="47.7613" lon="5.18701">
        <ele>458</ele>
        <time>2019-02-12T14:22:40.009Z</time>
      </trkpt>
      <trkpt lat="47.76126" lon="5.187">
        <ele>458</ele>
        <time>2019-02-12T14:22:43.009Z</time>
      </trkpt>
      <trkpt lat="47.76122" lon="5.18699">
        <ele>458</ele>
        <time>2019-02-12T14:22:46.009Z</time>
      </trkpt>
      <trkpt lat="47.76118" lon="5.18699">
        <ele>458</ele>
        <time>2019-02-12T14:22:49.009Z</time>
      </trkpt>
      <trkpt lat="47.76112" lon="5.18698">
        <ele>458</ele>
        <time>2019-02-12T14:22:53.009Z</time>
      </trkpt>
      <trkpt lat="47.76107" lon="5.18697">
        <ele>459</ele>
        <time>2019-02-12T14:22:56.009Z</time>
      </trkpt>
      <trkpt lat="47.76103" lon="5.18697">
        <ele>459</ele>
        <time>2019-02-12T14:22:59.009Z</time>
      </trkpt>
      <trkpt lat="47.76099" lon="5.18697">
        <ele>459</ele>
        <time>2019-02-12T14:23:02.009Z</time>
      </trkpt>
      <trkpt lat="47.76093" lon="5.18696">
        <ele>459</ele>
        <time>2019-02-12T14:23:05.009Z</time>
      </trkpt>
      <trkpt lat="47.7609" lon="5.18695">
        <ele>459</ele>
        <time>2019-02-12T14:23:07.009Z</time>
      </trkpt>
      <trkpt lat="47.76086" lon="5.18694">
        <ele>459</ele>
        <time>2019-02-12T14:23:09.009Z</time>
      </trkpt>
      <trkpt lat="47.76082" lon="5.18694">
        <ele>459</ele>
        <time>2019-02-12T14:23:11.009Z</time>
      </trkpt>
      <trkpt lat="47.76078" lon="5.18694">
        <ele>459</ele>
        <time>2019-02-12T14:23:13.009Z</time>
      </trkpt>
      <trkpt lat="47.76075" lon="5.18694">
        <ele>459</ele>
        <time>2019-02-12T14:23:15.009Z</time>
      </trkpt>
      <trkpt lat="47.7607" lon="5.18693">
        <ele>459</ele>
        <time>2019-02-12T14:23:17.009Z</time>
      </trkpt>
      <trkpt lat="47.76066" lon="5.18692">
        <ele>459</ele>
        <time>2019-02-12T14:23:19.009Z</time>
      </trkpt>
      <trkpt lat="47.76063" lon="5.18691">
        <ele>459</ele>
        <time>2019-02-12T14:23:21.009Z</time>
      </trkpt>
      <trkpt lat="47.76059" lon="5.18691">
        <ele>459</ele>
        <time>2019-02-12T14:23:23.009Z</time>
      </trkpt>
      <trkpt lat="47.76053" lon="5.18689">
        <ele>459</ele>
        <time>2019-02-12T14:23:26.009Z</time>
      </trkpt>
      <trkpt lat="47.76049" lon="5.18688">
        <ele>459</ele>
        <time>2019-02-12T14:23:28.009Z</time>
      </trkpt>
      <trkpt lat="47.76044" lon="5.18687">
        <ele>459</ele>
        <time>2019-02-12T14:23:31.009Z</time>
      </trkpt>
      <trkpt lat="47.76039" lon="5.18684">
        <ele>459.19411188917</ele>
        <time>2019-02-12T14:23:34.009Z</time>
      </trkpt>
      <trkpt lat="47.76034" lon="5.18682">
        <ele>460</ele>
        <time>2019-02-12T14:23:37.009Z</time>
      </trkpt>
      <trkpt lat="47.76029" lon="5.18681">
        <ele>460</ele>
        <time>2019-02-12T14:23:40.009Z</time>
      </trkpt>
      <trkpt lat="47.76024" lon="5.18678">
        <ele>460</ele>
        <time>2019-02-12T14:23:43.009Z</time>
      </trkpt>
      <trkpt lat="47.76018" lon="5.18674">
        <ele>460</ele>
        <time>2019-02-12T14:23:47.009Z</time>
      </trkpt>
      <trkpt lat="47.76014" lon="5.18671">
        <ele>460</ele>
        <time>2019-02-12T14:23:50.009Z</time>
      </trkpt>
      <trkpt lat="47.76007" lon="5.18666">
        <ele>459.41084757264</ele>
        <time>2019-02-12T14:23:54.009Z</time>
      </trkpt>
      <trkpt lat="47.76003" lon="5.18662">
        <ele>459</ele>
        <time>2019-02-12T14:23:57.009Z</time>
      </trkpt>
      <trkpt lat="47.76" lon="5.18659">
        <ele>459</ele>
        <time>2019-02-12T14:23:59.009Z</time>
      </trkpt>
      <trkpt lat="47.75996" lon="5.18654">
        <ele>459</ele>
        <time>2019-02-12T14:24:02.009Z</time>
      </trkpt>
      <trkpt lat="47.75991" lon="5.18648">
        <ele>458</ele>
        <time>2019-02-12T14:24:06.009Z</time>
      </trkpt>
      <trkpt lat="47.75987" lon="5.18642">
        <ele>458</ele>
        <time>2019-02-12T14:24:09.009Z</time>
      </trkpt>
      <trkpt lat="47.75984" lon="5.18637">
        <ele>458</ele>
        <time>2019-02-12T14:24:12.009Z</time>
      </trkpt>
      <trkpt lat="47.7598" lon="5.18632">
        <ele>458</ele>
        <time>2019-02-12T14:24:15.009Z</time>
      </trkpt>
      <trkpt lat="47.75977" lon="5.18627">
        <ele>458</ele>
        <time>2019-02-12T14:24:18.009Z</time>
      </trkpt>
      <trkpt lat="47.75973" lon="5.18621">
        <ele>458</ele>
        <time>2019-02-12T14:24:21.009Z</time>
      </trkpt>
      <trkpt lat="47.7597" lon="5.18616">
        <ele>458</ele>
        <time>2019-02-12T14:24:24.009Z</time>
      </trkpt>
      <trkpt lat="47.75967" lon="5.1861">
        <ele>457</ele>
        <time>2019-02-12T14:24:27.009Z</time>
      </trkpt>
      <trkpt lat="47.75964" lon="5.18604">
        <ele>457</ele>
        <time>2019-02-12T14:24:30.009Z</time>
      </trkpt>
      <trkpt lat="47.75958" lon="5.18593">
        <ele>457</ele>
        <time>2019-02-12T14:24:36.009Z</time>
      </trkpt>
      <trkpt lat="47.75955" lon="5.18588">
        <ele>457</ele>
        <time>2019-02-12T14:24:39.009Z</time>
      </trkpt>
      <trkpt lat="47.75952" lon="5.18582">
        <ele>456.30714574925</ele>
        <time>2019-02-12T14:24:42.009Z</time>
      </trkpt>
      <trkpt lat="47.75949" lon="5.18577">
        <ele>456</ele>
        <time>2019-02-12T14:24:46.009Z</time>
      </trkpt>
      <trkpt lat="47.75945" lon="5.18571">
        <ele>455</ele>
        <time>2019-02-12T14:24:49.009Z</time>
      </trkpt>
      <trkpt lat="47.75941" lon="5.18564">
        <ele>455</ele>
        <time>2019-02-12T14:24:53.009Z</time>
      </trkpt>
      <trkpt lat="47.75938" lon="5.18559">
        <ele>455</ele>
        <time>2019-02-12T14:24:56.009Z</time>
      </trkpt>
      <trkpt lat="47.75933" lon="5.18553">
        <ele>454</ele>
        <time>2019-02-12T14:25:00.009Z</time>
      </trkpt>
      <trkpt lat="47.75931" lon="5.18548">
        <ele>453</ele>
        <time>2019-02-12T14:25:03.009Z</time>
      </trkpt>
      <trkpt lat="47.75928" lon="5.18543">
        <ele>453</ele>
        <time>2019-02-12T14:25:06.009Z</time>
      </trkpt>
      <trkpt lat="47.75924" lon="5.18539">
        <ele>453</ele>
        <time>2019-02-12T14:25:09.009Z</time>
      </trkpt>
      <trkpt lat="47.75921" lon="5.18534">
        <ele>453</ele>
        <time>2019-02-12T14:25:12.009Z</time>
      </trkpt>
      <trkpt lat="47.75917" lon="5.18529">
        <ele>452</ele>
        <time>2019-02-12T14:25:15.009Z</time>
      </trkpt>
      <trkpt lat="47.75914" lon="5.18525">
        <ele>452</ele>
        <time>2019-02-12T14:25:18.009Z</time>
      </trkpt>
      <trkpt lat="47.7591" lon="5.18521">
        <ele>452</ele>
        <time>2019-02-12T14:25:21.009Z</time>
      </trkpt>
      <trkpt lat="47.75905" lon="5.18515">
        <ele>451.43646658434</ele>
        <time>2019-02-12T14:25:25.009Z</time>
      </trkpt>
      <trkpt lat="47.75902" lon="5.18511">
        <ele>451</ele>
        <time>2019-02-12T14:25:28.009Z</time>
      </trkpt>
      <trkpt lat="47.75898" lon="5.18507">
        <ele>451</ele>
        <time>2019-02-12T14:25:31.009Z</time>
      </trkpt>
      <trkpt lat="47.75895" lon="5.18503">
        <ele>451</ele>
        <time>2019-02-12T14:25:34.009Z</time>
      </trkpt>
      <trkpt lat="47.75891" lon="5.18499">
        <ele>451</ele>
        <time>2019-02-12T14:25:37.009Z</time>
      </trkpt>
      <trkpt lat="47.75888" lon="5.18495">
        <ele>451</ele>
        <time>2019-02-12T14:25:40.009Z</time>
      </trkpt>
      <trkpt lat="47.75884" lon="5.18492">
        <ele>451</ele>
        <time>2019-02-12T14:25:43.009Z</time>
      </trkpt>
      <trkpt lat="47.7588" lon="5.18488">
        <ele>451</ele>
        <time>2019-02-12T14:25:46.009Z</time>
      </trkpt>
      <trkpt lat="47.75876" lon="5.18484">
        <ele>451</ele>
        <time>2019-02-12T14:25:49.009Z</time>
      </trkpt>
      <trkpt lat="47.75872" lon="5.18481">
        <ele>451</ele>
        <time>2019-02-12T14:25:52.009Z</time>
      </trkpt>
      <trkpt lat="47.75868" lon="5.18477">
        <ele>451</ele>
        <time>2019-02-12T14:25:55.009Z</time>
      </trkpt>
      <trkpt lat="47.75865" lon="5.18474">
        <ele>451</ele>
        <time>2019-02-12T14:25:58.009Z</time>
      </trkpt>
      <trkpt lat="47.75859" lon="5.18469">
        <ele>451</ele>
        <time>2019-02-12T14:26:02.009Z</time>
      </trkpt>
      <trkpt lat="47.75856" lon="5.18466">
        <ele>450</ele>
        <time>2019-02-12T14:26:05.009Z</time>
      </trkpt>
      <trkpt lat="47.75853" lon="5.18462">
        <ele>450</ele>
        <time>2019-02-12T14:26:14.009Z</time>
      </trkpt>
      <trkpt lat="47.75848" lon="5.18459">
        <ele>450</ele>
        <time>2019-02-12T14:26:17.009Z</time>
      </trkpt>
      <trkpt lat="47.75845" lon="5.18457">
        <ele>450</ele>
        <time>2019-02-12T14:26:20.009Z</time>
      </trkpt>
      <trkpt lat="47.75841" lon="5.18454">
        <ele>450</ele>
        <time>2019-02-12T14:26:23.009Z</time>
      </trkpt>
      <trkpt lat="47.75836" lon="5.18451">
        <ele>449</ele>
        <time>2019-02-12T14:26:26.009Z</time>
      </trkpt>
      <trkpt lat="47.75833" lon="5.18448">
        <ele>449</ele>
        <time>2019-02-12T14:26:29.009Z</time>
      </trkpt>
      <trkpt lat="47.75829" lon="5.18445">
        <ele>449</ele>
        <time>2019-02-12T14:26:32.009Z</time>
      </trkpt>
      <trkpt lat="47.75825" lon="5.18442">
        <ele>449</ele>
        <time>2019-02-12T14:26:35.009Z</time>
      </trkpt>
      <trkpt lat="47.75821" lon="5.1844">
        <ele>449</ele>
        <time>2019-02-12T14:26:38.009Z</time>
      </trkpt>
      <trkpt lat="47.75816" lon="5.18437">
        <ele>449</ele>
        <time>2019-02-12T14:26:41.009Z</time>
      </trkpt>
      <trkpt lat="47.75812" lon="5.18434">
        <ele>449</ele>
        <time>2019-02-12T14:26:44.009Z</time>
      </trkpt>
      <trkpt lat="47.75807" lon="5.18431">
        <ele>449</ele>
        <time>2019-02-12T14:26:47.009Z</time>
      </trkpt>
      <trkpt lat="47.75803" lon="5.18428">
        <ele>449</ele>
        <time>2019-02-12T14:26:50.009Z</time>
      </trkpt>
      <trkpt lat="47.75799" lon="5.18425">
        <ele>449</ele>
        <time>2019-02-12T14:26:53.009Z</time>
      </trkpt>
      <trkpt lat="47.75795" lon="5.18421">
        <ele>449</ele>
        <time>2019-02-12T14:26:56.009Z</time>
      </trkpt>
      <trkpt lat="47.75791" lon="5.18419">
        <ele>449</ele>
        <time>2019-02-12T14:26:59.009Z</time>
      </trkpt>
      <trkpt lat="47.75787" lon="5.18417">
        <ele>449</ele>
        <time>2019-02-12T14:27:02.009Z</time>
      </trkpt>
      <trkpt lat="47.75782" lon="5.18413">
        <ele>449</ele>
        <time>2019-02-12T14:27:06.009Z</time>
      </trkpt>
      <trkpt lat="47.75778" lon="5.1841">
        <ele>449</ele>
        <time>2019-02-12T14:27:09.009Z</time>
      </trkpt>
      <trkpt lat="47.75775" lon="5.18409">
        <ele>449</ele>
        <time>2019-02-12T14:27:12.009Z</time>
      </trkpt>
      <trkpt lat="47.7577" lon="5.18409">
        <ele>449</ele>
        <time>2019-02-12T14:27:15.009Z</time>
      </trkpt>
      <trkpt lat="47.75766" lon="5.18417">
        <ele>448</ele>
        <time>2019-02-12T14:27:44.009Z</time>
      </trkpt>
      <trkpt lat="47.75765" lon="5.18425">
        <ele>448</ele>
        <time>2019-02-12T14:27:47.009Z</time>
      </trkpt>
      <trkpt lat="47.75764" lon="5.18431">
        <ele>448</ele>
        <time>2019-02-12T14:27:50.009Z</time>
      </trkpt>
      <trkpt lat="47.75763" lon="5.18437">
        <ele>448.59237202642</ele>
        <time>2019-02-12T14:27:53.009Z</time>
      </trkpt>
      <trkpt lat="47.75762" lon="5.18445">
        <ele>449</ele>
        <time>2019-02-12T14:27:56.009Z</time>
      </trkpt>
      <trkpt lat="47.75761" lon="5.18452">
        <ele>449</ele>
        <time>2019-02-12T14:27:59.009Z</time>
      </trkpt>
      <trkpt lat="47.75759" lon="5.1846">
        <ele>449</ele>
        <time>2019-02-12T14:28:03.009Z</time>
      </trkpt>
      <trkpt lat="47.75758" lon="5.18467">
        <ele>449</ele>
        <time>2019-02-12T14:28:06.009Z</time>
      </trkpt>
      <trkpt lat="47.75756" lon="5.18474">
        <ele>449</ele>
        <time>2019-02-12T14:28:09.009Z</time>
      </trkpt>
      <trkpt lat="47.75754" lon="5.1848">
        <ele>449</ele>
        <time>2019-02-12T14:28:12.009Z</time>
      </trkpt>
      <trkpt lat="47.75752" lon="5.18485">
        <ele>449</ele>
        <time>2019-02-12T14:28:15.009Z</time>
      </trkpt>
      <trkpt lat="47.7575" lon="5.1849">
        <ele>449</ele>
        <time>2019-02-12T14:28:18.009Z</time>
      </trkpt>
      <trkpt lat="47.75747" lon="5.18495">
        <ele>449</ele>
        <time>2019-02-12T14:28:21.009Z</time>
      </trkpt>
      <trkpt lat="47.75745" lon="5.18501">
        <ele>449</ele>
        <time>2019-02-12T14:28:24.009Z</time>
      </trkpt>
      <trkpt lat="47.75742" lon="5.18506">
        <ele>449</ele>
        <time>2019-02-12T14:28:27.009Z</time>
      </trkpt>
      <trkpt lat="47.75739" lon="5.18511">
        <ele>449</ele>
        <time>2019-02-12T14:28:30.009Z</time>
      </trkpt>
      <trkpt lat="47.75735" lon="5.18516">
        <ele>449</ele>
        <time>2019-02-12T14:28:33.009Z</time>
      </trkpt>
      <trkpt lat="47.75731" lon="5.18522">
        <ele>449</ele>
        <time>2019-02-12T14:28:36.009Z</time>
      </trkpt>
      <trkpt lat="47.75727" lon="5.18528">
        <ele>449</ele>
        <time>2019-02-12T14:28:40.009Z</time>
      </trkpt>
      <trkpt lat="47.75723" lon="5.18532">
        <ele>449</ele>
        <time>2019-02-12T14:28:43.009Z</time>
      </trkpt>
      <trkpt lat="47.75719" lon="5.18536">
        <ele>449</ele>
        <time>2019-02-12T14:28:46.009Z</time>
      </trkpt>
      <trkpt lat="47.75715" lon="5.18543">
        <ele>450</ele>
        <time>2019-02-12T14:28:50.009Z</time>
      </trkpt>
      <trkpt lat="47.75711" lon="5.18547">
        <ele>450</ele>
        <time>2019-02-12T14:28:53.009Z</time>
      </trkpt>
      <trkpt lat="47.75707" lon="5.18552">
        <ele>450</ele>
        <time>2019-02-12T14:28:56.009Z</time>
      </trkpt>
      <trkpt lat="47.75704" lon="5.18558">
        <ele>450</ele>
        <time>2019-02-12T14:28:58.009Z</time>
      </trkpt>
      <trkpt lat="47.75701" lon="5.18561">
        <ele>450</ele>
        <time>2019-02-12T14:29:00.009Z</time>
      </trkpt>
      <trkpt lat="47.75697" lon="5.18567">
        <ele>450</ele>
        <time>2019-02-12T14:29:03.009Z</time>
      </trkpt>
      <trkpt lat="47.75693" lon="5.18571">
        <ele>450</ele>
        <time>2019-02-12T14:29:06.009Z</time>
      </trkpt>
      <trkpt lat="47.75689" lon="5.18575">
        <ele>450</ele>
        <time>2019-02-12T14:29:09.009Z</time>
      </trkpt>
      <trkpt lat="47.75686" lon="5.18578">
        <ele>450</ele>
        <time>2019-02-12T14:29:12.009Z</time>
      </trkpt>
      <trkpt lat="47.75682" lon="5.18582">
        <ele>449.52924696904</ele>
        <time>2019-02-12T14:29:15.009Z</time>
      </trkpt>
      <trkpt lat="47.75679" lon="5.18587">
        <ele>449</ele>
        <time>2019-02-12T14:29:18.009Z</time>
      </trkpt>
      <trkpt lat="47.75676" lon="5.18593">
        <ele>449</ele>
        <time>2019-02-12T14:29:21.009Z</time>
      </trkpt>
      <trkpt lat="47.75675" lon="5.18599">
        <ele>448.34555979065</ele>
        <time>2019-02-12T14:29:24.009Z</time>
      </trkpt>
      <trkpt lat="47.75674" lon="5.18606">
        <ele>448</ele>
        <time>2019-02-12T14:29:27.009Z</time>
      </trkpt>
      <trkpt lat="47.75676" lon="5.18611">
        <ele>448</ele>
        <time>2019-02-12T14:29:30.009Z</time>
      </trkpt>
      <trkpt lat="47.75679" lon="5.18616">
        <ele>448</ele>
        <time>2019-02-12T14:29:33.009Z</time>
      </trkpt>
      <trkpt lat="47.75683" lon="5.1862">
        <ele>446</ele>
        <time>2019-02-12T14:29:36.009Z</time>
      </trkpt>
      <trkpt lat="47.75685" lon="5.18624">
        <ele>446</ele>
        <time>2019-02-12T14:29:38.009Z</time>
      </trkpt>
      <trkpt lat="47.75688" lon="5.1863">
        <ele>446</ele>
        <time>2019-02-12T14:29:41.009Z</time>
      </trkpt>
      <trkpt lat="47.75691" lon="5.18635">
        <ele>445</ele>
        <time>2019-02-12T14:29:44.009Z</time>
      </trkpt>
      <trkpt lat="47.75693" lon="5.18641">
        <ele>445</ele>
        <time>2019-02-12T14:29:47.009Z</time>
      </trkpt>
      <trkpt lat="47.75695" lon="5.18645">
        <ele>445</ele>
        <time>2019-02-12T14:29:49.009Z</time>
      </trkpt>
      <trkpt lat="47.75699" lon="5.18653">
        <ele>445</ele>
        <time>2019-02-12T14:29:53.009Z</time>
      </trkpt>
      <trkpt lat="47.75701" lon="5.1866">
        <ele>445</ele>
        <time>2019-02-12T14:29:56.009Z</time>
      </trkpt>
      <trkpt lat="47.75705" lon="5.18665">
        <ele>444.39561883161</ele>
        <time>2019-02-12T14:30:00.009Z</time>
      </trkpt>
      <trkpt lat="47.75708" lon="5.1867">
        <ele>444</ele>
        <time>2019-02-12T14:30:04.009Z</time>
      </trkpt>
      <trkpt lat="47.75711" lon="5.18676">
        <ele>443</ele>
        <time>2019-02-12T14:30:07.009Z</time>
      </trkpt>
      <trkpt lat="47.75714" lon="5.18681">
        <ele>443</ele>
        <time>2019-02-12T14:30:10.009Z</time>
      </trkpt>
      <trkpt lat="47.75718" lon="5.18685">
        <ele>443</ele>
        <time>2019-02-12T14:30:13.009Z</time>
      </trkpt>
      <trkpt lat="47.75722" lon="5.18689">
        <ele>443</ele>
        <time>2019-02-12T14:30:15.009Z</time>
      </trkpt>
      <trkpt lat="47.75726" lon="5.18694">
        <ele>445</ele>
        <time>2019-02-12T14:30:18.009Z</time>
      </trkpt>
      <trkpt lat="47.75731" lon="5.18699">
        <ele>445</ele>
        <time>2019-02-12T14:30:20.009Z</time>
      </trkpt>
      <trkpt lat="47.75735" lon="5.18703">
        <ele>445</ele>
        <time>2019-02-12T14:30:22.009Z</time>
      </trkpt>
      <trkpt lat="47.75738" lon="5.18707">
        <ele>445</ele>
        <time>2019-02-12T14:30:24.009Z</time>
      </trkpt>
      <trkpt lat="47.75742" lon="5.18711">
        <ele>445</ele>
        <time>2019-02-12T14:30:26.009Z</time>
      </trkpt>
      <trkpt lat="47.75745" lon="5.18713">
        <ele>445</ele>
        <time>2019-02-12T14:30:28.009Z</time>
      </trkpt>
      <trkpt lat="47.75749" lon="5.18716">
        <ele>445</ele>
        <time>2019-02-12T14:30:30.009Z</time>
      </trkpt>
      <trkpt lat="47.75753" lon="5.18719">
        <ele>445</ele>
        <time>2019-02-12T14:30:32.009Z</time>
      </trkpt>
      <trkpt lat="47.75756" lon="5.18722">
        <ele>445</ele>
        <time>2019-02-12T14:30:34.009Z</time>
      </trkpt>
      <trkpt lat="47.75758" lon="5.18726">
        <ele>445</ele>
        <time>2019-02-12T14:30:36.009Z</time>
      </trkpt>
      <trkpt lat="47.75759" lon="5.18732">
        <ele>445.31285314609</ele>
        <time>2019-02-12T14:30:38.009Z</time>
      </trkpt>
      <trkpt lat="47.7576" lon="5.18738">
        <ele>446</ele>
        <time>2019-02-12T14:30:41.009Z</time>
      </trkpt>
      <trkpt lat="47.75763" lon="5.18742">
        <ele>446</ele>
        <time>2019-02-12T14:30:43.009Z</time>
      </trkpt>
      <trkpt lat="47.75766" lon="5.18748">
        <ele>446</ele>
        <time>2019-02-12T14:30:46.009Z</time>
      </trkpt>
      <trkpt lat="47.75769" lon="5.18755">
        <ele>446</ele>
        <time>2019-02-12T14:30:50.009Z</time>
      </trkpt>
      <trkpt lat="47.7577" lon="5.18762">
        <ele>446</ele>
        <time>2019-02-12T14:30:53.009Z</time>
      </trkpt>
      <trkpt lat="47.75771" lon="5.18769">
        <ele>446</ele>
        <time>2019-02-12T14:30:56.009Z</time>
      </trkpt>
      <trkpt lat="47.75773" lon="5.18775">
        <ele>446</ele>
        <time>2019-02-12T14:30:59.009Z</time>
      </trkpt>
      <trkpt lat="47.75775" lon="5.18781">
        <ele>446</ele>
        <time>2019-02-12T14:31:02.009Z</time>
      </trkpt>
      <trkpt lat="47.75777" lon="5.18787">
        <ele>446</ele>
        <time>2019-02-12T14:31:05.009Z</time>
      </trkpt>
      <trkpt lat="47.75778" lon="5.18795">
        <ele>446</ele>
        <time>2019-02-12T14:31:09.009Z</time>
      </trkpt>
      <trkpt lat="47.75778" lon="5.18801">
        <ele>446</ele>
        <time>2019-02-12T14:31:12.009Z</time>
      </trkpt>
      <trkpt lat="47.75779" lon="5.18808">
        <ele>446</ele>
        <time>2019-02-12T14:31:15.009Z</time>
      </trkpt>
      <trkpt lat="47.7578" lon="5.18817">
        <ele>446</ele>
        <time>2019-02-12T14:31:19.009Z</time>
      </trkpt>
      <trkpt lat="47.75781" lon="5.18824">
        <ele>446</ele>
        <time>2019-02-12T14:31:22.009Z</time>
      </trkpt>
      <trkpt lat="47.75781" lon="5.1883">
        <ele>446</ele>
        <time>2019-02-12T14:31:25.009Z</time>
      </trkpt>
      <trkpt lat="47.75782" lon="5.18837">
        <ele>446</ele>
        <time>2019-02-12T14:31:29.009Z</time>
      </trkpt>
      <trkpt lat="47.75783" lon="5.18843">
        <ele>446</ele>
        <time>2019-02-12T14:31:32.009Z</time>
      </trkpt>
      <trkpt lat="47.75786" lon="5.1886">
        <ele>446</ele>
        <time>2019-02-12T14:31:40.009Z</time>
      </trkpt>
      <trkpt lat="47.75791" lon="5.18876">
        <ele>446</ele>
        <time>2019-02-12T14:31:49.009Z</time>
      </trkpt>
      <trkpt lat="47.75801" lon="5.18901">
        <ele>446</ele>
        <time>2019-02-12T14:32:21.009Z</time>
      </trkpt>
      <trkpt lat="47.75803" lon="5.18905">
        <ele>446</ele>
        <time>2019-02-12T14:32:29.009Z</time>
      </trkpt>
      <trkpt lat="47.75805" lon="5.1891">
        <ele>446</ele>
        <time>2019-02-12T14:32:34.009Z</time>
      </trkpt>
      <trkpt lat="47.75809" lon="5.18913">
        <ele>446</ele>
        <time>2019-02-12T14:32:40.009Z</time>
      </trkpt>
      <trkpt lat="47.75814" lon="5.18914">
        <ele>443</ele>
        <time>2019-02-12T14:32:50.009Z</time>
      </trkpt>
      <trkpt lat="47.75818" lon="5.18915">
        <ele>442</ele>
        <time>2019-02-12T14:32:57.009Z</time>
      </trkpt>
      <trkpt lat="47.75821" lon="5.18916">
        <ele>442</ele>
        <time>2019-02-12T14:33:01.009Z</time>
      </trkpt>
      <trkpt lat="47.75826" lon="5.18916">
        <ele>440</ele>
        <time>2019-02-12T14:33:06.009Z</time>
      </trkpt>
      <trkpt lat="47.75829" lon="5.18913">
        <ele>440</ele>
        <time>2019-02-12T14:33:10.009Z</time>
      </trkpt>
      <trkpt lat="47.75831" lon="5.18908">
        <ele>439</ele>
        <time>2019-02-12T14:33:15.009Z</time>
      </trkpt>
      <trkpt lat="47.75833" lon="5.18902">
        <ele>438</ele>
        <time>2019-02-12T14:33:21.009Z</time>
      </trkpt>
      <trkpt lat="47.75832" lon="5.18896">
        <ele>437</ele>
        <time>2019-02-12T14:33:29.009Z</time>
      </trkpt>
      <trkpt lat="47.75839" lon="5.18903">
        <ele>435</ele>
        <time>2019-02-12T14:34:11.009Z</time>
      </trkpt>
      <trkpt lat="47.75839" lon="5.18904">
        <ele>433.89737494944</ele>
        <time>2019-02-12T14:34:24.009Z</time>
      </trkpt>
      <trkpt lat="47.75847" lon="5.18928">
        <ele>431</ele>
        <time>2019-02-12T14:35:27.009Z</time>
      </trkpt>
      <trkpt lat="47.75847" lon="5.1893">
        <ele>431</ele>
        <time>2019-02-12T14:35:29.009Z</time>
      </trkpt>
      <trkpt lat="47.75848" lon="5.18936">
        <ele>431</ele>
        <time>2019-02-12T14:35:34.009Z</time>
      </trkpt>
      <trkpt lat="47.75849" lon="5.18942">
        <ele>430</ele>
        <time>2019-02-12T14:35:43.009Z</time>
      </trkpt>
      <trkpt lat="47.7585" lon="5.18947">
        <ele>429</ele>
        <time>2019-02-12T14:35:47.009Z</time>
      </trkpt>
      <trkpt lat="47.75849" lon="5.18953">
        <ele>429</ele>
        <time>2019-02-12T14:35:50.009Z</time>
      </trkpt>
      <trkpt lat="47.75848" lon="5.18955">
        <ele>429</ele>
        <time>2019-02-12T14:36:03.009Z</time>
      </trkpt>
      <trkpt lat="47.75851" lon="5.18963">
        <ele>429</ele>
        <time>2019-02-12T14:36:12.009Z</time>
      </trkpt>
      <trkpt lat="47.75854" lon="5.18967">
        <ele>429</ele>
        <time>2019-02-12T14:36:19.009Z</time>
      </trkpt>
      <trkpt lat="47.75857" lon="5.1897">
        <ele>428</ele>
        <time>2019-02-12T14:36:28.009Z</time>
      </trkpt>
      <trkpt lat="47.75861" lon="5.18975">
        <ele>428</ele>
        <time>2019-02-12T14:36:35.009Z</time>
      </trkpt>
      <trkpt lat="47.75861" lon="5.18981">
        <ele>428</ele>
        <time>2019-02-12T14:36:41.009Z</time>
      </trkpt>
      <trkpt lat="47.75861" lon="5.18986">
        <ele>427</ele>
        <time>2019-02-12T14:36:45.009Z</time>
      </trkpt>
      <trkpt lat="47.7586" lon="5.18992">
        <ele>427</ele>
        <time>2019-02-12T14:36:48.009Z</time>
      </trkpt>
      <trkpt lat="47.7586" lon="5.18999">
        <ele>427</ele>
        <time>2019-02-12T14:36:52.009Z</time>
      </trkpt>
      <trkpt lat="47.75861" lon="5.19005">
        <ele>427</ele>
        <time>2019-02-12T14:36:55.009Z</time>
      </trkpt>
      <trkpt lat="47.75864" lon="5.19011">
        <ele>427</ele>
        <time>2019-02-12T14:36:59.009Z</time>
      </trkpt>
      <trkpt lat="47.75864" lon="5.19018">
        <ele>426.73948192812</ele>
        <time>2019-02-12T14:37:03.009Z</time>
      </trkpt>
      <trkpt lat="47.75867" lon="5.19022">
        <ele>426</ele>
        <time>2019-02-12T14:37:07.009Z</time>
      </trkpt>
      <trkpt lat="47.75869" lon="5.19027">
        <ele>426</ele>
        <time>2019-02-12T14:37:12.009Z</time>
      </trkpt>
      <trkpt lat="47.75869" lon="5.19033">
        <ele>426</ele>
        <time>2019-02-12T14:37:15.009Z</time>
      </trkpt>
      <trkpt lat="47.7587" lon="5.1904">
        <ele>426</ele>
        <time>2019-02-12T14:37:19.009Z</time>
      </trkpt>
      <trkpt lat="47.75873" lon="5.19045">
        <ele>426</ele>
        <time>2019-02-12T14:37:24.009Z</time>
      </trkpt>
      <trkpt lat="47.7587" lon="5.19055">
        <ele>425</ele>
        <time>2019-02-12T14:37:33.009Z</time>
      </trkpt>
      <trkpt lat="47.75868" lon="5.19065">
        <ele>425</ele>
        <time>2019-02-12T14:37:37.009Z</time>
      </trkpt>
      <trkpt lat="47.75867" lon="5.19071">
        <ele>425</ele>
        <time>2019-02-12T14:37:40.009Z</time>
      </trkpt>
      <trkpt lat="47.75866" lon="5.19077">
        <ele>425</ele>
        <time>2019-02-12T14:37:44.009Z</time>
      </trkpt>
      <trkpt lat="47.75869" lon="5.19081">
        <ele>424</ele>
        <time>2019-02-12T14:37:47.009Z</time>
      </trkpt>
      <trkpt lat="47.75874" lon="5.19096">
        <ele>424</ele>
        <time>2019-02-12T14:37:56.009Z</time>
      </trkpt>
      <trkpt lat="47.75874" lon="5.19102">
        <ele>423</ele>
        <time>2019-02-12T14:37:59.009Z</time>
      </trkpt>
      <trkpt lat="47.75875" lon="5.19108">
        <ele>423</ele>
        <time>2019-02-12T14:38:02.009Z</time>
      </trkpt>
      <trkpt lat="47.75876" lon="5.19114">
        <ele>423</ele>
        <time>2019-02-12T14:38:05.009Z</time>
      </trkpt>
      <trkpt lat="47.75877" lon="5.1912">
        <ele>423</ele>
        <time>2019-02-12T14:38:09.009Z</time>
      </trkpt>
      <trkpt lat="47.75877" lon="5.19126">
        <ele>423</ele>
        <time>2019-02-12T14:38:12.009Z</time>
      </trkpt>
      <trkpt lat="47.75877" lon="5.19131">
        <ele>423</ele>
        <time>2019-02-12T14:38:15.009Z</time>
      </trkpt>
      <trkpt lat="47.75877" lon="5.19138">
        <ele>422</ele>
        <time>2019-02-12T14:38:19.009Z</time>
      </trkpt>
      <trkpt lat="47.75879" lon="5.19144">
        <ele>422</ele>
        <time>2019-02-12T14:38:23.009Z</time>
      </trkpt>
      <trkpt lat="47.75882" lon="5.19148">
        <ele>421</ele>
        <time>2019-02-12T14:38:28.009Z</time>
      </trkpt>
      <trkpt lat="47.75878" lon="5.19148">
        <ele>421</ele>
        <time>2019-02-12T14:38:32.009Z</time>
      </trkpt>
      <trkpt lat="47.75877" lon="5.1915">
        <ele>422</ele>
        <time>2019-02-12T14:38:44.009Z</time>
      </trkpt>
      <trkpt lat="47.75879" lon="5.19144">
        <ele>422</ele>
        <time>2019-02-12T14:38:52.009Z</time>
      </trkpt>
      <trkpt lat="47.75877" lon="5.19142">
        <ele>422</ele>
        <time>2019-02-12T14:38:53.009Z</time>
      </trkpt>
      <trkpt lat="47.75876" lon="5.19136">
        <ele>421</ele>
        <time>2019-02-12T14:38:58.009Z</time>
      </trkpt>
      <trkpt lat="47.75876" lon="5.19135">
        <ele>421.02843134391</ele>
        <time>2019-02-12T14:39:06.009Z</time>
      </trkpt>
      <trkpt lat="47.75867" lon="5.19131">
        <ele>422</ele>
        <time>2019-02-12T14:40:08.009Z</time>
      </trkpt>
      <trkpt lat="47.75866" lon="5.19129">
        <ele>422</ele>
        <time>2019-02-12T14:40:09.009Z</time>
      </trkpt>
      <trkpt lat="47.75866" lon="5.19123">
        <ele>422</ele>
        <time>2019-02-12T14:40:13.009Z</time>
      </trkpt>
      <trkpt lat="47.75863" lon="5.19118">
        <ele>422</ele>
        <time>2019-02-12T14:40:19.009Z</time>
      </trkpt>
      <trkpt lat="47.75859" lon="5.19116">
        <ele>423</ele>
        <time>2019-02-12T14:40:31.009Z</time>
      </trkpt>
      <trkpt lat="47.75862" lon="5.19121">
        <ele>423</ele>
        <time>2019-02-12T14:40:45.009Z</time>
      </trkpt>
      <trkpt lat="47.75863" lon="5.19127">
        <ele>423</ele>
        <time>2019-02-12T14:40:48.009Z</time>
      </trkpt>
      <trkpt lat="47.75862" lon="5.19134">
        <ele>423</ele>
        <time>2019-02-12T14:40:51.009Z</time>
      </trkpt>
      <trkpt lat="47.75861" lon="5.19141">
        <ele>423</ele>
        <time>2019-02-12T14:40:54.009Z</time>
      </trkpt>
      <trkpt lat="47.75861" lon="5.19147">
        <ele>423</ele>
        <time>2019-02-12T14:40:56.009Z</time>
      </trkpt>
      <trkpt lat="47.7586" lon="5.19154">
        <ele>423</ele>
        <time>2019-02-12T14:40:59.009Z</time>
      </trkpt>
      <trkpt lat="47.75859" lon="5.1916">
        <ele>423</ele>
        <time>2019-02-12T14:41:02.009Z</time>
      </trkpt>
      <trkpt lat="47.75859" lon="5.19165">
        <ele>423</ele>
        <time>2019-02-12T14:41:05.009Z</time>
      </trkpt>
      <trkpt lat="47.7586" lon="5.19172">
        <ele>423</ele>
        <time>2019-02-12T14:41:08.009Z</time>
      </trkpt>
      <trkpt lat="47.75862" lon="5.19177">
        <ele>423</ele>
        <time>2019-02-12T14:41:11.009Z</time>
      </trkpt>
      <trkpt lat="47.75866" lon="5.19183">
        <ele>423</ele>
        <time>2019-02-12T14:41:14.009Z</time>
      </trkpt>
      <trkpt lat="47.75868" lon="5.19187">
        <ele>423</ele>
        <time>2019-02-12T14:41:17.009Z</time>
      </trkpt>
      <trkpt lat="47.75872" lon="5.19189">
        <ele>423</ele>
        <time>2019-02-12T14:41:20.009Z</time>
      </trkpt>
      <trkpt lat="47.75874" lon="5.19197">
        <ele>423</ele>
        <time>2019-02-12T14:41:24.009Z</time>
      </trkpt>
      <trkpt lat="47.75874" lon="5.19205">
        <ele>421</ele>
        <time>2019-02-12T14:41:29.009Z</time>
      </trkpt>
      <trkpt lat="47.75872" lon="5.19213">
        <ele>421</ele>
        <time>2019-02-12T14:41:33.009Z</time>
      </trkpt>
      <trkpt lat="47.7587" lon="5.19219">
        <ele>421</ele>
        <time>2019-02-12T14:41:35.009Z</time>
      </trkpt>
      <trkpt lat="47.75868" lon="5.19227">
        <ele>421</ele>
        <time>2019-02-12T14:41:38.009Z</time>
      </trkpt>
      <trkpt lat="47.75864" lon="5.19236">
        <ele>421</ele>
        <time>2019-02-12T14:41:42.009Z</time>
      </trkpt>
      <trkpt lat="47.75862" lon="5.19244">
        <ele>421</ele>
        <time>2019-02-12T14:41:45.009Z</time>
      </trkpt>
      <trkpt lat="47.7586" lon="5.19253">
        <ele>421</ele>
        <time>2019-02-12T14:41:49.009Z</time>
      </trkpt>
      <trkpt lat="47.75858" lon="5.19259">
        <ele>421</ele>
        <time>2019-02-12T14:41:52.009Z</time>
      </trkpt>
      <trkpt lat="47.7586" lon="5.19266">
        <ele>421</ele>
        <time>2019-02-12T14:41:56.009Z</time>
      </trkpt>
      <trkpt lat="47.75862" lon="5.19271">
        <ele>420</ele>
        <time>2019-02-12T14:42:00.009Z</time>
      </trkpt>
      <trkpt lat="47.75863" lon="5.19277">
        <ele>420</ele>
        <time>2019-02-12T14:42:05.009Z</time>
      </trkpt>
      <trkpt lat="47.75864" lon="5.19283">
        <ele>420</ele>
        <time>2019-02-12T14:42:09.009Z</time>
      </trkpt>
      <trkpt lat="47.75862" lon="5.19288">
        <ele>420</ele>
        <time>2019-02-12T14:42:12.009Z</time>
      </trkpt>
      <trkpt lat="47.75861" lon="5.19293">
        <ele>420</ele>
        <time>2019-02-12T14:42:16.009Z</time>
      </trkpt>
      <trkpt lat="47.7586" lon="5.193">
        <ele>420</ele>
        <time>2019-02-12T14:42:19.009Z</time>
      </trkpt>
      <trkpt lat="47.75859" lon="5.19306">
        <ele>420</ele>
        <time>2019-02-12T14:42:23.009Z</time>
      </trkpt>
      <trkpt lat="47.75856" lon="5.19312">
        <ele>420</ele>
        <time>2019-02-12T14:42:26.009Z</time>
      </trkpt>
      <trkpt lat="47.75854" lon="5.19318">
        <ele>419</ele>
        <time>2019-02-12T14:42:28.009Z</time>
      </trkpt>
      <trkpt lat="47.75854" lon="5.19325">
        <ele>419</ele>
        <time>2019-02-12T14:42:31.009Z</time>
      </trkpt>
      <trkpt lat="47.75853" lon="5.19331">
        <ele>419</ele>
        <time>2019-02-12T14:42:33.009Z</time>
      </trkpt>
      <trkpt lat="47.75853" lon="5.19338">
        <ele>419</ele>
        <time>2019-02-12T14:42:36.009Z</time>
      </trkpt>
      <trkpt lat="47.75853" lon="5.19345">
        <ele>419</ele>
        <time>2019-02-12T14:42:39.009Z</time>
      </trkpt>
      <trkpt lat="47.75854" lon="5.19352">
        <ele>419</ele>
        <time>2019-02-12T14:42:43.009Z</time>
      </trkpt>
      <trkpt lat="47.75857" lon="5.19357">
        <ele>418.53475001898</ele>
        <time>2019-02-12T14:42:47.009Z</time>
      </trkpt>
      <trkpt lat="47.75857" lon="5.19364">
        <ele>418</ele>
        <time>2019-02-12T14:42:51.009Z</time>
      </trkpt>
      <trkpt lat="47.75855" lon="5.19369">
        <ele>418</ele>
        <time>2019-02-12T14:42:54.009Z</time>
      </trkpt>
      <trkpt lat="47.75855" lon="5.19375">
        <ele>416</ele>
        <time>2019-02-12T14:42:57.009Z</time>
      </trkpt>
      <trkpt lat="47.75855" lon="5.19382">
        <ele>416</ele>
        <time>2019-02-12T14:43:01.009Z</time>
      </trkpt>
      <trkpt lat="47.75853" lon="5.19389">
        <ele>416</ele>
        <time>2019-02-12T14:43:04.009Z</time>
      </trkpt>
      <trkpt lat="47.75853" lon="5.19395">
        <ele>416</ele>
        <time>2019-02-12T14:43:08.009Z</time>
      </trkpt>
      <trkpt lat="47.75853" lon="5.19401">
        <ele>416</ele>
        <time>2019-02-12T14:43:11.009Z</time>
      </trkpt>
      <trkpt lat="47.75852" lon="5.19409">
        <ele>416</ele>
        <time>2019-02-12T14:43:15.009Z</time>
      </trkpt>
      <trkpt lat="47.75852" lon="5.19414">
        <ele>416</ele>
        <time>2019-02-12T14:43:18.009Z</time>
      </trkpt>
      <trkpt lat="47.75853" lon="5.1942">
        <ele>416</ele>
        <time>2019-02-12T14:43:21.009Z</time>
      </trkpt>
      <trkpt lat="47.75852" lon="5.19429">
        <ele>416</ele>
        <time>2019-02-12T14:43:25.009Z</time>
      </trkpt>
      <trkpt lat="47.75851" lon="5.19435">
        <ele>416</ele>
        <time>2019-02-12T14:43:28.009Z</time>
      </trkpt>
      <trkpt lat="47.75851" lon="5.19442">
        <ele>415</ele>
        <time>2019-02-12T14:43:31.009Z</time>
      </trkpt>
      <trkpt lat="47.7585" lon="5.19448">
        <ele>416</ele>
        <time>2019-02-12T14:43:35.009Z</time>
      </trkpt>
      <trkpt lat="47.75849" lon="5.19454">
        <ele>416</ele>
        <time>2019-02-12T14:43:39.009Z</time>
      </trkpt>
      <trkpt lat="47.75847" lon="5.19464">
        <ele>416</ele>
        <time>2019-02-12T14:43:43.009Z</time>
      </trkpt>
      <trkpt lat="47.75846" lon="5.19471">
        <ele>416</ele>
        <time>2019-02-12T14:43:46.009Z</time>
      </trkpt>
      <trkpt lat="47.75846" lon="5.19477">
        <ele>416</ele>
        <time>2019-02-12T14:43:49.009Z</time>
      </trkpt>
      <trkpt lat="47.75845" lon="5.19483">
        <ele>416</ele>
        <time>2019-02-12T14:43:52.009Z</time>
      </trkpt>
      <trkpt lat="47.75845" lon="5.19489">
        <ele>415</ele>
        <time>2019-02-12T14:43:56.009Z</time>
      </trkpt>
      <trkpt lat="47.75845" lon="5.19496">
        <ele>415</ele>
        <time>2019-02-12T14:44:00.009Z</time>
      </trkpt>
      <trkpt lat="47.75843" lon="5.19502">
        <ele>415</ele>
        <time>2019-02-12T14:44:03.009Z</time>
      </trkpt>
      <trkpt lat="47.75843" lon="5.19508">
        <ele>415</ele>
        <time>2019-02-12T14:44:07.009Z</time>
      </trkpt>
      <trkpt lat="47.75843" lon="5.19516">
        <ele>415</ele>
        <time>2019-02-12T14:44:11.009Z</time>
      </trkpt>
      <trkpt lat="47.75844" lon="5.19522">
        <ele>415</ele>
        <time>2019-02-12T14:44:14.009Z</time>
      </trkpt>
      <trkpt lat="47.75842" lon="5.19528">
        <ele>415</ele>
        <time>2019-02-12T14:44:17.009Z</time>
      </trkpt>
      <trkpt lat="47.75842" lon="5.19534">
        <ele>415</ele>
        <time>2019-02-12T14:44:20.009Z</time>
      </trkpt>
      <trkpt lat="47.75843" lon="5.19541">
        <ele>415</ele>
        <time>2019-02-12T14:44:23.009Z</time>
      </trkpt>
      <trkpt lat="47.75842" lon="5.19548">
        <ele>415</ele>
        <time>2019-02-12T14:44:26.009Z</time>
      </trkpt>
      <trkpt lat="47.75842" lon="5.19555">
        <ele>415</ele>
        <time>2019-02-12T14:44:30.009Z</time>
      </trkpt>
      <trkpt lat="47.75843" lon="5.19562">
        <ele>415</ele>
        <time>2019-02-12T14:44:33.009Z</time>
      </trkpt>
      <trkpt lat="47.75842" lon="5.1957">
        <ele>415</ele>
        <time>2019-02-12T14:44:36.009Z</time>
      </trkpt>
      <trkpt lat="47.7584" lon="5.19575">
        <ele>415</ele>
        <time>2019-02-12T14:44:39.009Z</time>
      </trkpt>
      <trkpt lat="47.7584" lon="5.19581">
        <ele>415</ele>
        <time>2019-02-12T14:44:42.009Z</time>
      </trkpt>
      <trkpt lat="47.75839" lon="5.19587">
        <ele>415</ele>
        <time>2019-02-12T14:44:46.009Z</time>
      </trkpt>
      <trkpt lat="47.7584" lon="5.19593">
        <ele>415</ele>
        <time>2019-02-12T14:44:50.009Z</time>
      </trkpt>
      <trkpt lat="47.75841" lon="5.19602">
        <ele>415</ele>
        <time>2019-02-12T14:44:54.009Z</time>
      </trkpt>
      <trkpt lat="47.75843" lon="5.19608">
        <ele>414</ele>
        <time>2019-02-12T14:44:58.009Z</time>
      </trkpt>
      <trkpt lat="47.75844" lon="5.19616">
        <ele>414</ele>
        <time>2019-02-12T14:45:03.009Z</time>
      </trkpt>
      <trkpt lat="47.75843" lon="5.19623">
        <ele>413</ele>
        <time>2019-02-12T14:45:06.009Z</time>
      </trkpt>
      <trkpt lat="47.75843" lon="5.1963">
        <ele>413</ele>
        <time>2019-02-12T14:45:09.009Z</time>
      </trkpt>
      <trkpt lat="47.75841" lon="5.19636">
        <ele>413</ele>
        <time>2019-02-12T14:45:11.009Z</time>
      </trkpt>
      <trkpt lat="47.75841" lon="5.19642">
        <ele>413</ele>
        <time>2019-02-12T14:45:13.009Z</time>
      </trkpt>
      <trkpt lat="47.75839" lon="5.19649">
        <ele>413</ele>
        <time>2019-02-12T14:45:16.009Z</time>
      </trkpt>
      <trkpt lat="47.75838" lon="5.19656">
        <ele>413</ele>
        <time>2019-02-12T14:45:19.009Z</time>
      </trkpt>
      <trkpt lat="47.75837" lon="5.19661">
        <ele>413</ele>
        <time>2019-02-12T14:45:26.009Z</time>
      </trkpt>
      <trkpt lat="47.75836" lon="5.19662">
        <ele>413.9923647307</ele>
        <time>2019-02-12T14:45:41.009Z</time>
      </trkpt>
      <trkpt lat="47.75827" lon="5.1966">
        <ele>413</ele>
        <time>2019-02-12T14:46:24.009Z</time>
      </trkpt>
      <trkpt lat="47.75823" lon="5.19663">
        <ele>414.24053829655</ele>
        <time>2019-02-12T14:46:27.009Z</time>
      </trkpt>
      <trkpt lat="47.75819" lon="5.19666">
        <ele>415</ele>
        <time>2019-02-12T14:46:30.009Z</time>
      </trkpt>
      <trkpt lat="47.75815" lon="5.19667">
        <ele>415</ele>
        <time>2019-02-12T14:46:34.009Z</time>
      </trkpt>
      <trkpt lat="47.7581" lon="5.19669">
        <ele>416</ele>
        <time>2019-02-12T14:46:39.009Z</time>
      </trkpt>
      <trkpt lat="47.75806" lon="5.1967">
        <ele>416</ele>
        <time>2019-02-12T14:46:41.009Z</time>
      </trkpt>
      <trkpt lat="47.75799" lon="5.19673">
        <ele>416</ele>
        <time>2019-02-12T14:46:44.009Z</time>
      </trkpt>
      <trkpt lat="47.75794" lon="5.19673">
        <ele>416</ele>
        <time>2019-02-12T14:46:47.009Z</time>
      </trkpt>
      <trkpt lat="47.7579" lon="5.19671">
        <ele>417</ele>
        <time>2019-02-12T14:46:52.009Z</time>
      </trkpt>
      <trkpt lat="47.75785" lon="5.19672">
        <ele>418.3979904</ele>
        <time>2019-02-12T14:46:56.009Z</time>
      </trkpt>
      <trkpt lat="47.75781" lon="5.19672">
        <ele>419</ele>
        <time>2019-02-12T14:46:59.009Z</time>
      </trkpt>
      <trkpt lat="47.75776" lon="5.19675">
        <ele>419.31370108009</ele>
        <time>2019-02-12T14:47:02.009Z</time>
      </trkpt>
      <trkpt lat="47.75772" lon="5.19677">
        <ele>420</ele>
        <time>2019-02-12T14:47:05.009Z</time>
      </trkpt>
      <trkpt lat="47.75768" lon="5.19679">
        <ele>420</ele>
        <time>2019-02-12T14:47:08.009Z</time>
      </trkpt>
      <trkpt lat="47.75764" lon="5.19678">
        <ele>421</ele>
        <time>2019-02-12T14:47:11.009Z</time>
      </trkpt>
      <trkpt lat="47.7576" lon="5.1968">
        <ele>421.4445352752</ele>
        <time>2019-02-12T14:47:15.009Z</time>
      </trkpt>
      <trkpt lat="47.75757" lon="5.19682">
        <ele>422</ele>
        <time>2019-02-12T14:47:18.009Z</time>
      </trkpt>
      <trkpt lat="47.75753" lon="5.19679">
        <ele>422</ele>
        <time>2019-02-12T14:47:25.009Z</time>
      </trkpt>
      <trkpt lat="47.75748" lon="5.19681">
        <ele>423</ele>
        <time>2019-02-12T14:47:28.009Z</time>
      </trkpt>
      <trkpt lat="47.75743" lon="5.19681">
        <ele>423</ele>
        <time>2019-02-12T14:47:32.009Z</time>
      </trkpt>
      <trkpt lat="47.75739" lon="5.19683">
        <ele>423</ele>
        <time>2019-02-12T14:47:34.009Z</time>
      </trkpt>
      <trkpt lat="47.75735" lon="5.19682">
        <ele>424</ele>
        <time>2019-02-12T14:47:39.009Z</time>
      </trkpt>
      <trkpt lat="47.75731" lon="5.19683">
        <ele>424</ele>
        <time>2019-02-12T14:47:44.009Z</time>
      </trkpt>
      <trkpt lat="47.75728" lon="5.19685">
        <ele>426</ele>
        <time>2019-02-12T14:47:47.009Z</time>
      </trkpt>
      <trkpt lat="47.75724" lon="5.19686">
        <ele>426</ele>
        <time>2019-02-12T14:47:49.009Z</time>
      </trkpt>
      <trkpt lat="47.7572" lon="5.19687">
        <ele>426</ele>
        <time>2019-02-12T14:47:52.009Z</time>
      </trkpt>
      <trkpt lat="47.75714" lon="5.19689">
        <ele>426.61506899756</ele>
        <time>2019-02-12T14:47:56.009Z</time>
      </trkpt>
      <trkpt lat="47.75708" lon="5.19689">
        <ele>427</ele>
        <time>2019-02-12T14:48:02.009Z</time>
      </trkpt>
      <trkpt lat="47.75703" lon="5.19686">
        <ele>428</ele>
        <time>2019-02-12T14:48:07.009Z</time>
      </trkpt>
      <trkpt lat="47.757" lon="5.19684">
        <ele>428</ele>
        <time>2019-02-12T14:48:11.009Z</time>
      </trkpt>
      <trkpt lat="47.75696" lon="5.19681">
        <ele>431</ele>
        <time>2019-02-12T14:48:17.009Z</time>
      </trkpt>
      <trkpt lat="47.75693" lon="5.19677">
        <ele>431</ele>
        <time>2019-02-12T14:48:21.009Z</time>
      </trkpt>
      <trkpt lat="47.75691" lon="5.19673">
        <ele>432.53287627998</ele>
        <time>2019-02-12T14:48:26.009Z</time>
      </trkpt>
      <trkpt lat="47.75688" lon="5.19668">
        <ele>435</ele>
        <time>2019-02-12T14:48:31.009Z</time>
      </trkpt>
      <trkpt lat="47.75687" lon="5.1966">
        <ele>435</ele>
        <time>2019-02-12T14:48:34.009Z</time>
      </trkpt>
      <trkpt lat="47.75684" lon="5.19657">
        <ele>435</ele>
        <time>2019-02-12T14:48:38.009Z</time>
      </trkpt>
      <trkpt lat="47.75679" lon="5.19649">
        <ele>437</ele>
        <time>2019-02-12T14:48:50.009Z</time>
      </trkpt>
      <trkpt lat="47.75673" lon="5.19636">
        <ele>438</ele>
        <time>2019-02-12T14:49:07.009Z</time>
      </trkpt>
      <trkpt lat="47.7567" lon="5.1962">
        <ele>441.56764591464</ele>
        <time>2019-02-12T14:49:16.009Z</time>
      </trkpt>
      <trkpt lat="47.75667" lon="5.19616">
        <ele>442</ele>
        <time>2019-02-12T14:49:21.009Z</time>
      </trkpt>
      <trkpt lat="47.75667" lon="5.19615">
        <ele>443</ele>
        <time>2019-02-12T14:49:29.009Z</time>
      </trkpt>
      <trkpt lat="47.75664" lon="5.19609">
        <ele>443</ele>
        <time>2019-02-12T14:49:34.009Z</time>
      </trkpt>
      <trkpt lat="47.75663" lon="5.19605">
        <ele>443</ele>
        <time>2019-02-12T14:49:39.009Z</time>
      </trkpt>
      <trkpt lat="47.75661" lon="5.196">
        <ele>443</ele>
        <time>2019-02-12T14:49:43.009Z</time>
      </trkpt>
      <trkpt lat="47.75658" lon="5.19596">
        <ele>443</ele>
        <time>2019-02-12T14:49:46.009Z</time>
      </trkpt>
      <trkpt lat="47.75655" lon="5.19591">
        <ele>443</ele>
        <time>2019-02-12T14:49:49.009Z</time>
      </trkpt>
      <trkpt lat="47.75653" lon="5.19585">
        <ele>444</ele>
        <time>2019-02-12T14:49:54.009Z</time>
      </trkpt>
      <trkpt lat="47.7565" lon="5.19579">
        <ele>444</ele>
        <time>2019-02-12T14:49:58.009Z</time>
      </trkpt>
      <trkpt lat="47.75648" lon="5.19574">
        <ele>444</ele>
        <time>2019-02-12T14:50:02.009Z</time>
      </trkpt>
      <trkpt lat="47.75646" lon="5.19569">
        <ele>444</ele>
        <time>2019-02-12T14:50:05.009Z</time>
      </trkpt>
      <trkpt lat="47.75644" lon="5.19564">
        <ele>444</ele>
        <time>2019-02-12T14:50:08.009Z</time>
      </trkpt>
      <trkpt lat="47.75643" lon="5.19559">
        <ele>444</ele>
        <time>2019-02-12T14:50:11.009Z</time>
      </trkpt>
      <trkpt lat="47.75642" lon="5.19553">
        <ele>444</ele>
        <time>2019-02-12T14:50:14.009Z</time>
      </trkpt>
      <trkpt lat="47.7564" lon="5.19547">
        <ele>444</ele>
        <time>2019-02-12T14:50:18.009Z</time>
      </trkpt>
      <trkpt lat="47.7564" lon="5.1954">
        <ele>444</ele>
        <time>2019-02-12T14:50:22.009Z</time>
      </trkpt>
      <trkpt lat="47.75637" lon="5.19532">
        <ele>444</ele>
        <time>2019-02-12T14:50:26.009Z</time>
      </trkpt>
      <trkpt lat="47.75633" lon="5.19528">
        <ele>445</ele>
        <time>2019-02-12T14:50:29.009Z</time>
      </trkpt>
      <trkpt lat="47.7563" lon="5.19522">
        <ele>445</ele>
        <time>2019-02-12T14:50:32.009Z</time>
      </trkpt>
      <trkpt lat="47.75629" lon="5.19517">
        <ele>445</ele>
        <time>2019-02-12T14:50:36.009Z</time>
      </trkpt>
      <trkpt lat="47.75628" lon="5.19512">
        <ele>445</ele>
        <time>2019-02-12T14:50:40.009Z</time>
      </trkpt>
      <trkpt lat="47.75627" lon="5.19505">
        <ele>445</ele>
        <time>2019-02-12T14:50:44.009Z</time>
      </trkpt>
      <trkpt lat="47.75626" lon="5.19499">
        <ele>445</ele>
        <time>2019-02-12T14:50:46.009Z</time>
      </trkpt>
      <trkpt lat="47.75624" lon="5.19494">
        <ele>447</ele>
        <time>2019-02-12T14:50:49.009Z</time>
      </trkpt>
      <trkpt lat="47.75623" lon="5.19488">
        <ele>447</ele>
        <time>2019-02-12T14:50:52.009Z</time>
      </trkpt>
      <trkpt lat="47.75622" lon="5.19482">
        <ele>447</ele>
        <time>2019-02-12T14:50:55.009Z</time>
      </trkpt>
      <trkpt lat="47.75622" lon="5.19475">
        <ele>447.42017448323</ele>
        <time>2019-02-12T14:50:57.009Z</time>
      </trkpt>
      <trkpt lat="47.75622" lon="5.19465">
        <ele>448</ele>
        <time>2019-02-12T14:51:01.009Z</time>
      </trkpt>
      <trkpt lat="47.7562" lon="5.19461">
        <ele>449.05087410036</ele>
        <time>2019-02-12T14:51:03.009Z</time>
      </trkpt>
      <trkpt lat="47.75615" lon="5.19457">
        <ele>450</ele>
        <time>2019-02-12T14:51:06.009Z</time>
      </trkpt>
      <trkpt lat="47.75612" lon="5.19453">
        <ele>450</ele>
        <time>2019-02-12T14:51:09.009Z</time>
      </trkpt>
      <trkpt lat="47.75607" lon="5.1945">
        <ele>450</ele>
        <time>2019-02-12T14:51:12.009Z</time>
      </trkpt>
      <trkpt lat="47.75603" lon="5.19447">
        <ele>450</ele>
        <time>2019-02-12T14:51:16.009Z</time>
      </trkpt>
      <trkpt lat="47.75598" lon="5.19447">
        <ele>450</ele>
        <time>2019-02-12T14:51:19.009Z</time>
      </trkpt>
      <trkpt lat="47.75594" lon="5.19446">
        <ele>450</ele>
        <time>2019-02-12T14:51:22.009Z</time>
      </trkpt>
      <trkpt lat="47.75587" lon="5.19444">
        <ele>450.38809199699</ele>
        <time>2019-02-12T14:51:26.009Z</time>
      </trkpt>
      <trkpt lat="47.75584" lon="5.19442">
        <ele>451</ele>
        <time>2019-02-12T14:51:29.009Z</time>
      </trkpt>
      <trkpt lat="47.7558" lon="5.19439">
        <ele>451</ele>
        <time>2019-02-12T14:51:32.009Z</time>
      </trkpt>
      <trkpt lat="47.75577" lon="5.19435">
        <ele>451</ele>
        <time>2019-02-12T14:51:34.009Z</time>
      </trkpt>
      <trkpt lat="47.75575" lon="5.1943">
        <ele>451</ele>
        <time>2019-02-12T14:51:37.009Z</time>
      </trkpt>
      <trkpt lat="47.75574" lon="5.19425">
        <ele>451</ele>
        <time>2019-02-12T14:51:39.009Z</time>
      </trkpt>
      <trkpt lat="47.75572" lon="5.19419">
        <ele>451</ele>
        <time>2019-02-12T14:51:42.009Z</time>
      </trkpt>
      <trkpt lat="47.7557" lon="5.19413">
        <ele>452</ele>
        <time>2019-02-12T14:51:46.009Z</time>
      </trkpt>
      <trkpt lat="47.75567" lon="5.19409">
        <ele>452</ele>
        <time>2019-02-12T14:51:48.009Z</time>
      </trkpt>
      <trkpt lat="47.75565" lon="5.19403">
        <ele>452</ele>
        <time>2019-02-12T14:51:51.009Z</time>
      </trkpt>
      <trkpt lat="47.75562" lon="5.19397">
        <ele>452</ele>
        <time>2019-02-12T14:51:54.009Z</time>
      </trkpt>
      <trkpt lat="47.75559" lon="5.19391">
        <ele>452.62533706523</ele>
        <time>2019-02-12T14:51:58.009Z</time>
      </trkpt>
      <trkpt lat="47.75555" lon="5.19387">
        <ele>453</ele>
        <time>2019-02-12T14:52:01.009Z</time>
      </trkpt>
      <trkpt lat="47.75553" lon="5.19382">
        <ele>453</ele>
        <time>2019-02-12T14:52:04.009Z</time>
      </trkpt>
      <trkpt lat="47.7555" lon="5.19377">
        <ele>453</ele>
        <time>2019-02-12T14:52:07.009Z</time>
      </trkpt>
      <trkpt lat="47.75547" lon="5.19372">
        <ele>453</ele>
        <time>2019-02-12T14:52:10.009Z</time>
      </trkpt>
      <trkpt lat="47.75545" lon="5.19368">
        <ele>453</ele>
        <time>2019-02-12T14:52:13.009Z</time>
      </trkpt>
      <trkpt lat="47.75542" lon="5.19362">
        <ele>453</ele>
        <time>2019-02-12T14:52:17.009Z</time>
      </trkpt>
      <trkpt lat="47.75539" lon="5.19357">
        <ele>454</ele>
        <time>2019-02-12T14:52:20.009Z</time>
      </trkpt>
      <trkpt lat="47.75536" lon="5.19352">
        <ele>454</ele>
        <time>2019-02-12T14:52:24.009Z</time>
      </trkpt>
      <trkpt lat="47.75534" lon="5.19347">
        <ele>454</ele>
        <time>2019-02-12T14:52:27.009Z</time>
      </trkpt>
      <trkpt lat="47.75532" lon="5.19342">
        <ele>455</ele>
        <time>2019-02-12T14:52:31.009Z</time>
      </trkpt>
      <trkpt lat="47.75529" lon="5.19338">
        <ele>455</ele>
        <time>2019-02-12T14:52:35.009Z</time>
      </trkpt>
      <trkpt lat="47.75525" lon="5.19339">
        <ele>455</ele>
        <time>2019-02-12T14:52:39.009Z</time>
      </trkpt>
      <trkpt lat="47.75524" lon="5.19344">
        <ele>455</ele>
        <time>2019-02-12T14:52:42.009Z</time>
      </trkpt>
      <trkpt lat="47.75523" lon="5.1935">
        <ele>455</ele>
        <time>2019-02-12T14:52:47.009Z</time>
      </trkpt>
      <trkpt lat="47.75517" lon="5.19368">
        <ele>452</ele>
        <time>2019-02-12T15:01:33.009Z</time>
      </trkpt>
      <trkpt lat="47.75516" lon="5.19372">
        <ele>452</ele>
        <time>2019-02-12T15:01:35.009Z</time>
      </trkpt>
      <trkpt lat="47.75514" lon="5.19376">
        <ele>452</ele>
        <time>2019-02-12T15:01:38.009Z</time>
      </trkpt>
      <trkpt lat="47.75513" lon="5.19381">
        <ele>452</ele>
        <time>2019-02-12T15:01:41.009Z</time>
      </trkpt>
      <trkpt lat="47.75511" lon="5.19386">
        <ele>451.44879986893</ele>
        <time>2019-02-12T15:01:44.009Z</time>
      </trkpt>
      <trkpt lat="47.7551" lon="5.19392">
        <ele>451</ele>
        <time>2019-02-12T15:01:47.009Z</time>
      </trkpt>
      <trkpt lat="47.75509" lon="5.19399">
        <ele>451</ele>
        <time>2019-02-12T15:01:50.009Z</time>
      </trkpt>
      <trkpt lat="47.75509" lon="5.19405">
        <ele>451</ele>
        <time>2019-02-12T15:01:53.009Z</time>
      </trkpt>
      <trkpt lat="47.75508" lon="5.19411">
        <ele>451</ele>
        <time>2019-02-12T15:01:55.009Z</time>
      </trkpt>
      <trkpt lat="47.75508" lon="5.19418">
        <ele>450</ele>
        <time>2019-02-12T15:01:58.009Z</time>
      </trkpt>
      <trkpt lat="47.75509" lon="5.19424">
        <ele>450</ele>
        <time>2019-02-12T15:02:01.009Z</time>
      </trkpt>
      <trkpt lat="47.7551" lon="5.19431">
        <ele>449</ele>
        <time>2019-02-12T15:02:05.009Z</time>
      </trkpt>
      <trkpt lat="47.75513" lon="5.19438">
        <ele>449</ele>
        <time>2019-02-12T15:02:08.009Z</time>
      </trkpt>
      <trkpt lat="47.75514" lon="5.19443">
        <ele>449</ele>
        <time>2019-02-12T15:02:11.009Z</time>
      </trkpt>
      <trkpt lat="47.75516" lon="5.1945">
        <ele>449</ele>
        <time>2019-02-12T15:02:14.009Z</time>
      </trkpt>
      <trkpt lat="47.75519" lon="5.19461">
        <ele>449</ele>
        <time>2019-02-12T15:02:19.009Z</time>
      </trkpt>
      <trkpt lat="47.75522" lon="5.19468">
        <ele>449</ele>
        <time>2019-02-12T15:02:23.009Z</time>
      </trkpt>
      <trkpt lat="47.75523" lon="5.19474">
        <ele>449.4944924609</ele>
        <time>2019-02-12T15:02:27.009Z</time>
      </trkpt>
      <trkpt lat="47.75524" lon="5.19481">
        <ele>450</ele>
        <time>2019-02-12T15:02:31.009Z</time>
      </trkpt>
      <trkpt lat="47.75526" lon="5.19488">
        <ele>450</ele>
        <time>2019-02-12T15:02:34.009Z</time>
      </trkpt>
      <trkpt lat="47.75527" lon="5.19494">
        <ele>450</ele>
        <time>2019-02-12T15:02:36.009Z</time>
      </trkpt>
      <trkpt lat="47.7553" lon="5.19501">
        <ele>450</ele>
        <time>2019-02-12T15:02:39.009Z</time>
      </trkpt>
      <trkpt lat="47.75531" lon="5.19507">
        <ele>450</ele>
        <time>2019-02-12T15:02:41.009Z</time>
      </trkpt>
      <trkpt lat="47.75532" lon="5.19516">
        <ele>450</ele>
        <time>2019-02-12T15:02:45.009Z</time>
      </trkpt>
      <trkpt lat="47.75532" lon="5.19524">
        <ele>451</ele>
        <time>2019-02-12T15:02:49.009Z</time>
      </trkpt>
      <trkpt lat="47.75532" lon="5.1953">
        <ele>451</ele>
        <time>2019-02-12T15:02:52.009Z</time>
      </trkpt>
      <trkpt lat="47.75534" lon="5.19536">
        <ele>451</ele>
        <time>2019-02-12T15:02:56.009Z</time>
      </trkpt>
      <trkpt lat="47.75535" lon="5.19541">
        <ele>451</ele>
        <time>2019-02-12T15:02:59.009Z</time>
      </trkpt>
      <trkpt lat="47.75535" lon="5.19548">
        <ele>451</ele>
        <time>2019-02-12T15:03:02.009Z</time>
      </trkpt>
      <trkpt lat="47.75537" lon="5.19553">
        <ele>453</ele>
        <time>2019-02-12T15:03:06.009Z</time>
      </trkpt>
      <trkpt lat="47.75539" lon="5.19558">
        <ele>453</ele>
        <time>2019-02-12T15:03:09.009Z</time>
      </trkpt>
      <trkpt lat="47.7554" lon="5.19566">
        <ele>454</ele>
        <time>2019-02-12T15:03:12.009Z</time>
      </trkpt>
      <trkpt lat="47.7554" lon="5.19572">
        <ele>454</ele>
        <time>2019-02-12T15:03:15.009Z</time>
      </trkpt>
      <trkpt lat="47.7554" lon="5.19579">
        <ele>454</ele>
        <time>2019-02-12T15:03:18.009Z</time>
      </trkpt>
      <trkpt lat="47.75541" lon="5.19585">
        <ele>454</ele>
        <time>2019-02-12T15:03:21.009Z</time>
      </trkpt>
      <trkpt lat="47.75541" lon="5.19591">
        <ele>454.67937873609</ele>
        <time>2019-02-12T15:03:24.009Z</time>
      </trkpt>
      <trkpt lat="47.75541" lon="5.19598">
        <ele>455</ele>
        <time>2019-02-12T15:03:27.009Z</time>
      </trkpt>
      <trkpt lat="47.75539" lon="5.19605">
        <ele>455</ele>
        <time>2019-02-12T15:03:30.009Z</time>
      </trkpt>
      <trkpt lat="47.75538" lon="5.19613">
        <ele>455</ele>
        <time>2019-02-12T15:03:33.009Z</time>
      </trkpt>
      <trkpt lat="47.75535" lon="5.1962">
        <ele>457</ele>
        <time>2019-02-12T15:03:37.009Z</time>
      </trkpt>
      <trkpt lat="47.75533" lon="5.19626">
        <ele>457</ele>
        <time>2019-02-12T15:03:40.009Z</time>
      </trkpt>
      <trkpt lat="47.75532" lon="5.19631">
        <ele>458</ele>
        <time>2019-02-12T15:03:43.009Z</time>
      </trkpt>
      <trkpt lat="47.75531" lon="5.19637">
        <ele>458</ele>
        <time>2019-02-12T15:03:46.009Z</time>
      </trkpt>
      <trkpt lat="47.75529" lon="5.19642">
        <ele>458</ele>
        <time>2019-02-12T15:03:48.009Z</time>
      </trkpt>
      <trkpt lat="47.75529" lon="5.1965">
        <ele>458</ele>
        <time>2019-02-12T15:03:52.009Z</time>
      </trkpt>
      <trkpt lat="47.75529" lon="5.19655">
        <ele>458</ele>
        <time>2019-02-12T15:03:55.009Z</time>
      </trkpt>
      <trkpt lat="47.7553" lon="5.19662">
        <ele>458</ele>
        <time>2019-02-12T15:03:59.009Z</time>
      </trkpt>
      <trkpt lat="47.75528" lon="5.19667">
        <ele>458</ele>
        <time>2019-02-12T15:04:01.009Z</time>
      </trkpt>
      <trkpt lat="47.75527" lon="5.19674">
        <ele>459</ele>
        <time>2019-02-12T15:04:04.009Z</time>
      </trkpt>
      <trkpt lat="47.75525" lon="5.19681">
        <ele>459</ele>
        <time>2019-02-12T15:04:07.009Z</time>
      </trkpt>
      <trkpt lat="47.75524" lon="5.1969">
        <ele>459</ele>
        <time>2019-02-12T15:04:12.009Z</time>
      </trkpt>
      <trkpt lat="47.75524" lon="5.19695">
        <ele>459</ele>
        <time>2019-02-12T15:04:15.009Z</time>
      </trkpt>
      <trkpt lat="47.75522" lon="5.19702">
        <ele>459.69207664816</ele>
        <time>2019-02-12T15:04:18.009Z</time>
      </trkpt>
      <trkpt lat="47.75521" lon="5.19708">
        <ele>460</ele>
        <time>2019-02-12T15:04:21.009Z</time>
      </trkpt>
      <trkpt lat="47.7552" lon="5.19714">
        <ele>460</ele>
        <time>2019-02-12T15:04:24.009Z</time>
      </trkpt>
      <trkpt lat="47.7552" lon="5.1972">
        <ele>461</ele>
        <time>2019-02-12T15:04:27.009Z</time>
      </trkpt>
      <trkpt lat="47.75517" lon="5.19728">
        <ele>461</ele>
        <time>2019-02-12T15:04:31.009Z</time>
      </trkpt>
      <trkpt lat="47.75514" lon="5.19736">
        <ele>461</ele>
        <time>2019-02-12T15:04:34.009Z</time>
      </trkpt>
      <trkpt lat="47.75513" lon="5.19742">
        <ele>461</ele>
        <time>2019-02-12T15:04:36.009Z</time>
      </trkpt>
      <trkpt lat="47.75512" lon="5.19747">
        <ele>461</ele>
        <time>2019-02-12T15:04:38.009Z</time>
      </trkpt>
      <trkpt lat="47.75512" lon="5.19753">
        <ele>461</ele>
        <time>2019-02-12T15:04:40.009Z</time>
      </trkpt>
      <trkpt lat="47.75511" lon="5.19759">
        <ele>461</ele>
        <time>2019-02-12T15:04:43.009Z</time>
      </trkpt>
      <trkpt lat="47.75511" lon="5.19766">
        <ele>461</ele>
        <time>2019-02-12T15:04:46.009Z</time>
      </trkpt>
      <trkpt lat="47.7551" lon="5.19772">
        <ele>461.58059339358</ele>
        <time>2019-02-12T15:04:49.009Z</time>
      </trkpt>
      <trkpt lat="47.75509" lon="5.19779">
        <ele>462</ele>
        <time>2019-02-12T15:04:52.009Z</time>
      </trkpt>
      <trkpt lat="47.75509" lon="5.19785">
        <ele>462</ele>
        <time>2019-02-12T15:04:55.009Z</time>
      </trkpt>
      <trkpt lat="47.75509" lon="5.19791">
        <ele>462</ele>
        <time>2019-02-12T15:04:58.009Z</time>
      </trkpt>
      <trkpt lat="47.7551" lon="5.19797">
        <ele>462</ele>
        <time>2019-02-12T15:05:01.009Z</time>
      </trkpt>
      <trkpt lat="47.7551" lon="5.19803">
        <ele>462</ele>
        <time>2019-02-12T15:05:04.009Z</time>
      </trkpt>
      <trkpt lat="47.75511" lon="5.19809">
        <ele>462</ele>
        <time>2019-02-12T15:05:07.009Z</time>
      </trkpt>
      <trkpt lat="47.75511" lon="5.19815">
        <ele>462</ele>
        <time>2019-02-12T15:05:10.009Z</time>
      </trkpt>
      <trkpt lat="47.75512" lon="5.19821">
        <ele>462</ele>
        <time>2019-02-12T15:05:13.009Z</time>
      </trkpt>
      <trkpt lat="47.75512" lon="5.19827">
        <ele>462</ele>
        <time>2019-02-12T15:05:16.009Z</time>
      </trkpt>
      <trkpt lat="47.75512" lon="5.19835">
        <ele>462</ele>
        <time>2019-02-12T15:05:19.009Z</time>
      </trkpt>
      <trkpt lat="47.75513" lon="5.19841">
        <ele>461</ele>
        <time>2019-02-12T15:05:22.009Z</time>
      </trkpt>
      <trkpt lat="47.75514" lon="5.19848">
        <ele>461</ele>
        <time>2019-02-12T15:05:25.009Z</time>
      </trkpt>
      <trkpt lat="47.75514" lon="5.19854">
        <ele>461</ele>
        <time>2019-02-12T15:05:28.009Z</time>
      </trkpt>
      <trkpt lat="47.75515" lon="5.19861">
        <ele>461</ele>
        <time>2019-02-12T15:05:31.009Z</time>
      </trkpt>
      <trkpt lat="47.75516" lon="5.19867">
        <ele>461</ele>
        <time>2019-02-12T15:05:34.009Z</time>
      </trkpt>
      <trkpt lat="47.75516" lon="5.19873">
        <ele>461</ele>
        <time>2019-02-12T15:05:37.009Z</time>
      </trkpt>
      <trkpt lat="47.75517" lon="5.1988">
        <ele>461</ele>
        <time>2019-02-12T15:05:40.009Z</time>
      </trkpt>
      <trkpt lat="47.75518" lon="5.19886">
        <ele>461</ele>
        <time>2019-02-12T15:05:43.009Z</time>
      </trkpt>
      <trkpt lat="47.75519" lon="5.19892">
        <ele>461</ele>
        <time>2019-02-12T15:05:46.009Z</time>
      </trkpt>
      <trkpt lat="47.75519" lon="5.19899">
        <ele>461</ele>
        <time>2019-02-12T15:05:49.009Z</time>
      </trkpt>
      <trkpt lat="47.7552" lon="5.19905">
        <ele>461</ele>
        <time>2019-02-12T15:05:52.009Z</time>
      </trkpt>
      <trkpt lat="47.75521" lon="5.19912">
        <ele>461</ele>
        <time>2019-02-12T15:05:55.009Z</time>
      </trkpt>
      <trkpt lat="47.75522" lon="5.19918">
        <ele>460</ele>
        <time>2019-02-12T15:05:58.009Z</time>
      </trkpt>
      <trkpt lat="47.75523" lon="5.19924">
        <ele>460</ele>
        <time>2019-02-12T15:06:01.009Z</time>
      </trkpt>
      <trkpt lat="47.75524" lon="5.1993">
        <ele>461</ele>
        <time>2019-02-12T15:06:04.009Z</time>
      </trkpt>
      <trkpt lat="47.75526" lon="5.19937">
        <ele>461</ele>
        <time>2019-02-12T15:06:07.009Z</time>
      </trkpt>
      <trkpt lat="47.75527" lon="5.19943">
        <ele>461</ele>
        <time>2019-02-12T15:06:10.009Z</time>
      </trkpt>
      <trkpt lat="47.75528" lon="5.1995">
        <ele>461</ele>
        <time>2019-02-12T15:06:13.009Z</time>
      </trkpt>
      <trkpt lat="47.75529" lon="5.19956">
        <ele>461</ele>
        <time>2019-02-12T15:06:16.009Z</time>
      </trkpt>
      <trkpt lat="47.75531" lon="5.19963">
        <ele>461</ele>
        <time>2019-02-12T15:06:19.009Z</time>
      </trkpt>
      <trkpt lat="47.75533" lon="5.1997">
        <ele>461</ele>
        <time>2019-02-12T15:06:23.009Z</time>
      </trkpt>
      <trkpt lat="47.75534" lon="5.19976">
        <ele>460</ele>
        <time>2019-02-12T15:06:26.009Z</time>
      </trkpt>
      <trkpt lat="47.75535" lon="5.19982">
        <ele>460</ele>
        <time>2019-02-12T15:06:29.009Z</time>
      </trkpt>
      <trkpt lat="47.75536" lon="5.19989">
        <ele>460</ele>
        <time>2019-02-12T15:06:32.009Z</time>
      </trkpt>
      <trkpt lat="47.75536" lon="5.19996">
        <ele>459.4662806793</ele>
        <time>2019-02-12T15:06:35.009Z</time>
      </trkpt>
      <trkpt lat="47.75537" lon="5.20003">
        <ele>459</ele>
        <time>2019-02-12T15:06:38.009Z</time>
      </trkpt>
      <trkpt lat="47.75537" lon="5.2001">
        <ele>459</ele>
        <time>2019-02-12T15:06:41.009Z</time>
      </trkpt>
      <trkpt lat="47.75537" lon="5.20017">
        <ele>459</ele>
        <time>2019-02-12T15:06:44.009Z</time>
      </trkpt>
      <trkpt lat="47.75538" lon="5.20024">
        <ele>459</ele>
        <time>2019-02-12T15:06:47.009Z</time>
      </trkpt>
      <trkpt lat="47.75538" lon="5.2003">
        <ele>459</ele>
        <time>2019-02-12T15:06:50.009Z</time>
      </trkpt>
      <trkpt lat="47.75538" lon="5.20036">
        <ele>459</ele>
        <time>2019-02-12T15:06:53.009Z</time>
      </trkpt>
      <trkpt lat="47.75538" lon="5.20043">
        <ele>458.46547809524</ele>
        <time>2019-02-12T15:06:56.009Z</time>
      </trkpt>
      <trkpt lat="47.75537" lon="5.20049">
        <ele>458</ele>
        <time>2019-02-12T15:06:59.009Z</time>
      </trkpt>
      <trkpt lat="47.75537" lon="5.20057">
        <ele>458</ele>
        <time>2019-02-12T15:07:02.009Z</time>
      </trkpt>
      <trkpt lat="47.75536" lon="5.20066">
        <ele>458</ele>
        <time>2019-02-12T15:07:06.009Z</time>
      </trkpt>
      <trkpt lat="47.75536" lon="5.20073">
        <ele>458</ele>
        <time>2019-02-12T15:07:09.009Z</time>
      </trkpt>
      <trkpt lat="47.75536" lon="5.2008">
        <ele>458</ele>
        <time>2019-02-12T15:07:12.009Z</time>
      </trkpt>
      <trkpt lat="47.75536" lon="5.20087">
        <ele>458</ele>
        <time>2019-02-12T15:07:15.009Z</time>
      </trkpt>
      <trkpt lat="47.75535" lon="5.20093">
        <ele>458</ele>
        <time>2019-02-12T15:07:18.009Z</time>
      </trkpt>
      <trkpt lat="47.75535" lon="5.20099">
        <ele>457.12924233124</ele>
        <time>2019-02-12T15:07:21.009Z</time>
      </trkpt>
      <trkpt lat="47.75534" lon="5.20105">
        <ele>457</ele>
        <time>2019-02-12T15:07:24.009Z</time>
      </trkpt>
      <trkpt lat="47.75534" lon="5.20112">
        <ele>457</ele>
        <time>2019-02-12T15:07:27.009Z</time>
      </trkpt>
      <trkpt lat="47.75534" lon="5.20119">
        <ele>457</ele>
        <time>2019-02-12T15:07:30.009Z</time>
      </trkpt>
      <trkpt lat="47.75533" lon="5.20126">
        <ele>457</ele>
        <time>2019-02-12T15:07:33.009Z</time>
      </trkpt>
      <trkpt lat="47.75533" lon="5.20133">
        <ele>457</ele>
        <time>2019-02-12T15:07:36.009Z</time>
      </trkpt>
      <trkpt lat="47.75532" lon="5.2014">
        <ele>457</ele>
        <time>2019-02-12T15:07:39.009Z</time>
      </trkpt>
      <trkpt lat="47.75532" lon="5.20146">
        <ele>457</ele>
        <time>2019-02-12T15:07:42.009Z</time>
      </trkpt>
      <trkpt lat="47.75532" lon="5.20153">
        <ele>457</ele>
        <time>2019-02-12T15:07:45.009Z</time>
      </trkpt>
      <trkpt lat="47.75531" lon="5.20162">
        <ele>456</ele>
        <time>2019-02-12T15:07:49.009Z</time>
      </trkpt>
      <trkpt lat="47.75531" lon="5.20168">
        <ele>456</ele>
        <time>2019-02-12T15:07:52.009Z</time>
      </trkpt>
      <trkpt lat="47.7553" lon="5.20177">
        <ele>456</ele>
        <time>2019-02-12T15:07:56.009Z</time>
      </trkpt>
      <trkpt lat="47.7553" lon="5.20184">
        <ele>456</ele>
        <time>2019-02-12T15:07:59.009Z</time>
      </trkpt>
      <trkpt lat="47.75529" lon="5.20191">
        <ele>456</ele>
        <time>2019-02-12T15:08:02.009Z</time>
      </trkpt>
      <trkpt lat="47.75528" lon="5.20197">
        <ele>456</ele>
        <time>2019-02-12T15:08:05.009Z</time>
      </trkpt>
      <trkpt lat="47.75528" lon="5.20204">
        <ele>456</ele>
        <time>2019-02-12T15:08:08.009Z</time>
      </trkpt>
      <trkpt lat="47.75527" lon="5.2021">
        <ele>456</ele>
        <time>2019-02-12T15:08:11.009Z</time>
      </trkpt>
      <trkpt lat="47.75526" lon="5.20217">
        <ele>456</ele>
        <time>2019-02-12T15:08:14.009Z</time>
      </trkpt>
      <trkpt lat="47.75526" lon="5.20223">
        <ele>455</ele>
        <time>2019-02-12T15:08:17.009Z</time>
      </trkpt>
      <trkpt lat="47.75525" lon="5.20229">
        <ele>455</ele>
        <time>2019-02-12T15:08:20.009Z</time>
      </trkpt>
      <trkpt lat="47.75525" lon="5.20235">
        <ele>455</ele>
        <time>2019-02-12T15:08:23.009Z</time>
      </trkpt>
      <trkpt lat="47.75524" lon="5.20241">
        <ele>455</ele>
        <time>2019-02-12T15:08:26.009Z</time>
      </trkpt>
      <trkpt lat="47.75524" lon="5.20248">
        <ele>455</ele>
        <time>2019-02-12T15:08:29.009Z</time>
      </trkpt>
      <trkpt lat="47.75524" lon="5.20254">
        <ele>455</ele>
        <time>2019-02-12T15:08:32.009Z</time>
      </trkpt>
      <trkpt lat="47.75523" lon="5.2026">
        <ele>455.58977454545</ele>
        <time>2019-02-12T15:08:35.009Z</time>
      </trkpt>
      <trkpt lat="47.75522" lon="5.20267">
        <ele>456</ele>
        <time>2019-02-12T15:08:38.009Z</time>
      </trkpt>
      <trkpt lat="47.75522" lon="5.20273">
        <ele>456</ele>
        <time>2019-02-12T15:08:41.009Z</time>
      </trkpt>
      <trkpt lat="47.7552" lon="5.20282">
        <ele>456</ele>
        <time>2019-02-12T15:08:45.009Z</time>
      </trkpt>
      <trkpt lat="47.75519" lon="5.20288">
        <ele>456</ele>
        <time>2019-02-12T15:08:48.009Z</time>
      </trkpt>
      <trkpt lat="47.75518" lon="5.20294">
        <ele>456</ele>
        <time>2019-02-12T15:08:51.009Z</time>
      </trkpt>
      <trkpt lat="47.75517" lon="5.203">
        <ele>456</ele>
        <time>2019-02-12T15:08:54.009Z</time>
      </trkpt>
      <trkpt lat="47.75516" lon="5.20306">
        <ele>456</ele>
        <time>2019-02-12T15:08:57.009Z</time>
      </trkpt>
      <trkpt lat="47.75515" lon="5.20315">
        <ele>456</ele>
        <time>2019-02-12T15:09:01.009Z</time>
      </trkpt>
      <trkpt lat="47.75513" lon="5.20321">
        <ele>455</ele>
        <time>2019-02-12T15:09:04.009Z</time>
      </trkpt>
      <trkpt lat="47.75512" lon="5.20327">
        <ele>455</ele>
        <time>2019-02-12T15:09:07.009Z</time>
      </trkpt>
      <trkpt lat="47.7551" lon="5.20333">
        <ele>455</ele>
        <time>2019-02-12T15:09:10.009Z</time>
      </trkpt>
      <trkpt lat="47.75509" lon="5.2034">
        <ele>455</ele>
        <time>2019-02-12T15:09:13.009Z</time>
      </trkpt>
      <trkpt lat="47.75507" lon="5.20346">
        <ele>455</ele>
        <time>2019-02-12T15:09:16.009Z</time>
      </trkpt>
      <trkpt lat="47.75506" lon="5.20352">
        <ele>455</ele>
        <time>2019-02-12T15:09:19.009Z</time>
      </trkpt>
      <trkpt lat="47.75504" lon="5.20358">
        <ele>454.39541547278</ele>
        <time>2019-02-12T15:09:22.009Z</time>
      </trkpt>
      <trkpt lat="47.75503" lon="5.20364">
        <ele>454</ele>
        <time>2019-02-12T15:09:25.009Z</time>
      </trkpt>
      <trkpt lat="47.75501" lon="5.2037">
        <ele>454</ele>
        <time>2019-02-12T15:09:28.009Z</time>
      </trkpt>
      <trkpt lat="47.755" lon="5.20377">
        <ele>454</ele>
        <time>2019-02-12T15:09:31.009Z</time>
      </trkpt>
      <trkpt lat="47.75498" lon="5.20383">
        <ele>454</ele>
        <time>2019-02-12T15:09:34.009Z</time>
      </trkpt>
      <trkpt lat="47.75496" lon="5.20389">
        <ele>454</ele>
        <time>2019-02-12T15:09:37.009Z</time>
      </trkpt>
      <trkpt lat="47.75494" lon="5.20395">
        <ele>454</ele>
        <time>2019-02-12T15:09:40.009Z</time>
      </trkpt>
      <trkpt lat="47.75493" lon="5.204">
        <ele>454</ele>
        <time>2019-02-12T15:09:43.009Z</time>
      </trkpt>
      <trkpt lat="47.75491" lon="5.20407">
        <ele>454</ele>
        <time>2019-02-12T15:09:46.009Z</time>
      </trkpt>
      <trkpt lat="47.75489" lon="5.20413">
        <ele>454</ele>
        <time>2019-02-12T15:09:49.009Z</time>
      </trkpt>
      <trkpt lat="47.75487" lon="5.20419">
        <ele>454</ele>
        <time>2019-02-12T15:09:52.009Z</time>
      </trkpt>
      <trkpt lat="47.75486" lon="5.20425">
        <ele>454</ele>
        <time>2019-02-12T15:09:55.009Z</time>
      </trkpt>
      <trkpt lat="47.75483" lon="5.20433">
        <ele>453</ele>
        <time>2019-02-12T15:09:59.009Z</time>
      </trkpt>
      <trkpt lat="47.75482" lon="5.20439">
        <ele>453</ele>
        <time>2019-02-12T15:10:02.009Z</time>
      </trkpt>
      <trkpt lat="47.7548" lon="5.20446">
        <ele>453</ele>
        <time>2019-02-12T15:10:05.009Z</time>
      </trkpt>
      <trkpt lat="47.75478" lon="5.20452">
        <ele>454</ele>
        <time>2019-02-12T15:10:08.009Z</time>
      </trkpt>
      <trkpt lat="47.75477" lon="5.20458">
        <ele>454</ele>
        <time>2019-02-12T15:10:11.009Z</time>
      </trkpt>
      <trkpt lat="47.75475" lon="5.20465">
        <ele>454</ele>
        <time>2019-02-12T15:10:14.009Z</time>
      </trkpt>
      <trkpt lat="47.75473" lon="5.20471">
        <ele>454</ele>
        <time>2019-02-12T15:10:17.009Z</time>
      </trkpt>
      <trkpt lat="47.75471" lon="5.20479">
        <ele>454</ele>
        <time>2019-02-12T15:10:21.009Z</time>
      </trkpt>
      <trkpt lat="47.75469" lon="5.20485">
        <ele>454</ele>
        <time>2019-02-12T15:10:24.009Z</time>
      </trkpt>
      <trkpt lat="47.75467" lon="5.20491">
        <ele>453.51684878535</ele>
        <time>2019-02-12T15:10:27.009Z</time>
      </trkpt>
      <trkpt lat="47.75466" lon="5.20497">
        <ele>453</ele>
        <time>2019-02-12T15:10:30.009Z</time>
      </trkpt>
      <trkpt lat="47.75464" lon="5.20503">
        <ele>453</ele>
        <time>2019-02-12T15:10:33.009Z</time>
      </trkpt>
      <trkpt lat="47.75461" lon="5.2051">
        <ele>453</ele>
        <time>2019-02-12T15:10:37.009Z</time>
      </trkpt>
      <trkpt lat="47.75459" lon="5.20516">
        <ele>453</ele>
        <time>2019-02-12T15:10:40.009Z</time>
      </trkpt>
      <trkpt lat="47.75458" lon="5.20521">
        <ele>453</ele>
        <time>2019-02-12T15:10:43.009Z</time>
      </trkpt>
      <trkpt lat="47.75456" lon="5.20527">
        <ele>453</ele>
        <time>2019-02-12T15:10:46.009Z</time>
      </trkpt>
      <trkpt lat="47.75454" lon="5.20533">
        <ele>452.46423293858</ele>
        <time>2019-02-12T15:10:49.009Z</time>
      </trkpt>
      <trkpt lat="47.75452" lon="5.20539">
        <ele>452</ele>
        <time>2019-02-12T15:10:52.009Z</time>
      </trkpt>
      <trkpt lat="47.7545" lon="5.20546">
        <ele>452</ele>
        <time>2019-02-12T15:10:55.009Z</time>
      </trkpt>
      <trkpt lat="47.75449" lon="5.20552">
        <ele>451</ele>
        <time>2019-02-12T15:10:58.009Z</time>
      </trkpt>
      <trkpt lat="47.75447" lon="5.20558">
        <ele>451</ele>
        <time>2019-02-12T15:11:01.009Z</time>
      </trkpt>
      <trkpt lat="47.75445" lon="5.20563">
        <ele>451</ele>
        <time>2019-02-12T15:11:04.009Z</time>
      </trkpt>
      <trkpt lat="47.75443" lon="5.20572">
        <ele>451</ele>
        <time>2019-02-12T15:11:08.009Z</time>
      </trkpt>
      <trkpt lat="47.75441" lon="5.20577">
        <ele>451</ele>
        <time>2019-02-12T15:11:11.009Z</time>
      </trkpt>
      <trkpt lat="47.75439" lon="5.20584">
        <ele>451</ele>
        <time>2019-02-12T15:11:14.009Z</time>
      </trkpt>
      <trkpt lat="47.75437" lon="5.2059">
        <ele>451</ele>
        <time>2019-02-12T15:11:17.009Z</time>
      </trkpt>
      <trkpt lat="47.75435" lon="5.20596">
        <ele>451</ele>
        <time>2019-02-12T15:11:20.009Z</time>
      </trkpt>
      <trkpt lat="47.75433" lon="5.20602">
        <ele>451</ele>
        <time>2019-02-12T15:11:23.009Z</time>
      </trkpt>
      <trkpt lat="47.75432" lon="5.20608">
        <ele>450.46565990898</ele>
        <time>2019-02-12T15:11:26.009Z</time>
      </trkpt>
      <trkpt lat="47.7543" lon="5.20614">
        <ele>450</ele>
        <time>2019-02-12T15:11:29.009Z</time>
      </trkpt>
      <trkpt lat="47.75428" lon="5.2062">
        <ele>450</ele>
        <time>2019-02-12T15:11:32.009Z</time>
      </trkpt>
      <trkpt lat="47.75426" lon="5.20626">
        <ele>450</ele>
        <time>2019-02-12T15:11:35.009Z</time>
      </trkpt>
      <trkpt lat="47.75424" lon="5.20632">
        <ele>450</ele>
        <time>2019-02-12T15:11:38.009Z</time>
      </trkpt>
      <trkpt lat="47.75423" lon="5.20637">
        <ele>450</ele>
        <time>2019-02-12T15:11:41.009Z</time>
      </trkpt>
      <trkpt lat="47.75421" lon="5.20643">
        <ele>450</ele>
        <time>2019-02-12T15:11:44.009Z</time>
      </trkpt>
      <trkpt lat="47.75419" lon="5.20649">
        <ele>450</ele>
        <time>2019-02-12T15:11:47.009Z</time>
      </trkpt>
      <trkpt lat="47.75417" lon="5.20654">
        <ele>450</ele>
        <time>2019-02-12T15:11:50.009Z</time>
      </trkpt>
      <trkpt lat="47.75415" lon="5.2066">
        <ele>450</ele>
        <time>2019-02-12T15:11:53.009Z</time>
      </trkpt>
      <trkpt lat="47.75413" lon="5.20668">
        <ele>450</ele>
        <time>2019-02-12T15:11:57.009Z</time>
      </trkpt>
      <trkpt lat="47.75411" lon="5.20675">
        <ele>450</ele>
        <time>2019-02-12T15:12:00.009Z</time>
      </trkpt>
      <trkpt lat="47.75409" lon="5.2068">
        <ele>449.38750545455</ele>
        <time>2019-02-12T15:12:03.009Z</time>
      </trkpt>
      <trkpt lat="47.75407" lon="5.20686">
        <ele>449</ele>
        <time>2019-02-12T15:12:06.009Z</time>
      </trkpt>
      <trkpt lat="47.75406" lon="5.20692">
        <ele>449</ele>
        <time>2019-02-12T15:12:09.009Z</time>
      </trkpt>
      <trkpt lat="47.75404" lon="5.20698">
        <ele>449</ele>
        <time>2019-02-12T15:12:12.009Z</time>
      </trkpt>
      <trkpt lat="47.75403" lon="5.20703">
        <ele>449</ele>
        <time>2019-02-12T15:12:15.009Z</time>
      </trkpt>
      <trkpt lat="47.75401" lon="5.20709">
        <ele>448.30313333333</ele>
        <time>2019-02-12T15:12:18.009Z</time>
      </trkpt>
      <trkpt lat="47.75399" lon="5.20714">
        <ele>448</ele>
        <time>2019-02-12T15:12:21.009Z</time>
      </trkpt>
      <trkpt lat="47.75397" lon="5.2072">
        <ele>448</ele>
        <time>2019-02-12T15:12:24.009Z</time>
      </trkpt>
      <trkpt lat="47.75395" lon="5.20726">
        <ele>448</ele>
        <time>2019-02-12T15:12:27.009Z</time>
      </trkpt>
      <trkpt lat="47.75393" lon="5.20733">
        <ele>448</ele>
        <time>2019-02-12T15:12:31.009Z</time>
      </trkpt>
      <trkpt lat="47.75391" lon="5.20739">
        <ele>448</ele>
        <time>2019-02-12T15:12:34.009Z</time>
      </trkpt>
      <trkpt lat="47.7539" lon="5.20745">
        <ele>448</ele>
        <time>2019-02-12T15:12:37.009Z</time>
      </trkpt>
      <trkpt lat="47.75388" lon="5.20751">
        <ele>447.64695414634</ele>
        <time>2019-02-12T15:12:40.009Z</time>
      </trkpt>
      <trkpt lat="47.75385" lon="5.20759">
        <ele>447</ele>
        <time>2019-02-12T15:12:44.009Z</time>
      </trkpt>
      <trkpt lat="47.75383" lon="5.20765">
        <ele>447</ele>
        <time>2019-02-12T15:12:47.009Z</time>
      </trkpt>
      <trkpt lat="47.75381" lon="5.20771">
        <ele>447</ele>
        <time>2019-02-12T15:12:50.009Z</time>
      </trkpt>
      <trkpt lat="47.75379" lon="5.20778">
        <ele>447</ele>
        <time>2019-02-12T15:12:54.009Z</time>
      </trkpt>
      <trkpt lat="47.75377" lon="5.20784">
        <ele>447</ele>
        <time>2019-02-12T15:12:57.009Z</time>
      </trkpt>
      <trkpt lat="47.75374" lon="5.20792">
        <ele>446</ele>
        <time>2019-02-12T15:13:01.009Z</time>
      </trkpt>
      <trkpt lat="47.75372" lon="5.20798">
        <ele>446</ele>
        <time>2019-02-12T15:13:04.009Z</time>
      </trkpt>
      <trkpt lat="47.7537" lon="5.20803">
        <ele>446</ele>
        <time>2019-02-12T15:13:07.009Z</time>
      </trkpt>
      <trkpt lat="47.75368" lon="5.20809">
        <ele>446</ele>
        <time>2019-02-12T15:13:10.009Z</time>
      </trkpt>
      <trkpt lat="47.75367" lon="5.20816">
        <ele>446</ele>
        <time>2019-02-12T15:13:13.009Z</time>
      </trkpt>
      <trkpt lat="47.75365" lon="5.20821">
        <ele>446</ele>
        <time>2019-02-12T15:13:16.009Z</time>
      </trkpt>
      <trkpt lat="47.75363" lon="5.20828">
        <ele>446</ele>
        <time>2019-02-12T15:13:19.009Z</time>
      </trkpt>
      <trkpt lat="47.75361" lon="5.20834">
        <ele>446</ele>
        <time>2019-02-12T15:13:22.009Z</time>
      </trkpt>
      <trkpt lat="47.75359" lon="5.20842">
        <ele>445</ele>
        <time>2019-02-12T15:13:26.009Z</time>
      </trkpt>
      <trkpt lat="47.75357" lon="5.20848">
        <ele>445</ele>
        <time>2019-02-12T15:13:29.009Z</time>
      </trkpt>
      <trkpt lat="47.75356" lon="5.20855">
        <ele>445</ele>
        <time>2019-02-12T15:13:32.009Z</time>
      </trkpt>
      <trkpt lat="47.75354" lon="5.20861">
        <ele>444.49100171518</ele>
        <time>2019-02-12T15:13:35.009Z</time>
      </trkpt>
      <trkpt lat="47.75353" lon="5.20868">
        <ele>444</ele>
        <time>2019-02-12T15:13:38.009Z</time>
      </trkpt>
      <trkpt lat="47.75352" lon="5.20873">
        <ele>444</ele>
        <time>2019-02-12T15:13:41.009Z</time>
      </trkpt>
      <trkpt lat="47.7535" lon="5.20879">
        <ele>444</ele>
        <time>2019-02-12T15:13:44.009Z</time>
      </trkpt>
      <trkpt lat="47.75348" lon="5.20885">
        <ele>443</ele>
        <time>2019-02-12T15:13:47.009Z</time>
      </trkpt>
      <trkpt lat="47.75346" lon="5.20891">
        <ele>443</ele>
        <time>2019-02-12T15:13:50.009Z</time>
      </trkpt>
      <trkpt lat="47.75345" lon="5.20897">
        <ele>443</ele>
        <time>2019-02-12T15:13:53.009Z</time>
      </trkpt>
      <trkpt lat="47.75342" lon="5.20903">
        <ele>442.3423584863</ele>
        <time>2019-02-12T15:13:56.009Z</time>
      </trkpt>
      <trkpt lat="47.75341" lon="5.20909">
        <ele>442</ele>
        <time>2019-02-12T15:13:59.009Z</time>
      </trkpt>
      <trkpt lat="47.75339" lon="5.20915">
        <ele>441</ele>
        <time>2019-02-12T15:14:02.009Z</time>
      </trkpt>
      <trkpt lat="47.75337" lon="5.20921">
        <ele>441</ele>
        <time>2019-02-12T15:14:05.009Z</time>
      </trkpt>
      <trkpt lat="47.75336" lon="5.20928">
        <ele>441</ele>
        <time>2019-02-12T15:14:08.009Z</time>
      </trkpt>
      <trkpt lat="47.75335" lon="5.20934">
        <ele>441</ele>
        <time>2019-02-12T15:14:11.009Z</time>
      </trkpt>
      <trkpt lat="47.75333" lon="5.20939">
        <ele>441</ele>
        <time>2019-02-12T15:14:14.009Z</time>
      </trkpt>
      <trkpt lat="47.75332" lon="5.20945">
        <ele>441</ele>
        <time>2019-02-12T15:14:17.009Z</time>
      </trkpt>
      <trkpt lat="47.7533" lon="5.20951">
        <ele>440</ele>
        <time>2019-02-12T15:14:20.009Z</time>
      </trkpt>
      <trkpt lat="47.75329" lon="5.20958">
        <ele>440</ele>
        <time>2019-02-12T15:14:23.009Z</time>
      </trkpt>
      <trkpt lat="47.75328" lon="5.20964">
        <ele>440</ele>
        <time>2019-02-12T15:14:27.009Z</time>
      </trkpt>
      <trkpt lat="47.75327" lon="5.20971">
        <ele>440</ele>
        <time>2019-02-12T15:14:31.009Z</time>
      </trkpt>
      <trkpt lat="47.75325" lon="5.2098">
        <ele>440</ele>
        <time>2019-02-12T15:14:35.009Z</time>
      </trkpt>
      <trkpt lat="47.75323" lon="5.20987">
        <ele>440</ele>
        <time>2019-02-12T15:14:38.009Z</time>
      </trkpt>
      <trkpt lat="47.75321" lon="5.20992">
        <ele>438</ele>
        <time>2019-02-12T15:14:41.009Z</time>
      </trkpt>
      <trkpt lat="47.7532" lon="5.20997">
        <ele>438</ele>
        <time>2019-02-12T15:14:44.009Z</time>
      </trkpt>
      <trkpt lat="47.75317" lon="5.21002">
        <ele>438</ele>
        <time>2019-02-12T15:14:47.009Z</time>
      </trkpt>
      <trkpt lat="47.75315" lon="5.21009">
        <ele>438</ele>
        <time>2019-02-12T15:14:50.009Z</time>
      </trkpt>
      <trkpt lat="47.75314" lon="5.21015">
        <ele>436</ele>
        <time>2019-02-12T15:14:53.009Z</time>
      </trkpt>
      <trkpt lat="47.75311" lon="5.21023">
        <ele>436</ele>
        <time>2019-02-12T15:14:56.009Z</time>
      </trkpt>
      <trkpt lat="47.7531" lon="5.21029">
        <ele>435</ele>
        <time>2019-02-12T15:14:59.009Z</time>
      </trkpt>
      <trkpt lat="47.75309" lon="5.21035">
        <ele>435</ele>
        <time>2019-02-12T15:15:02.009Z</time>
      </trkpt>
      <trkpt lat="47.75309" lon="5.21041">
        <ele>433</ele>
        <time>2019-02-12T15:15:05.009Z</time>
      </trkpt>
      <trkpt lat="47.75307" lon="5.21047">
        <ele>433</ele>
        <time>2019-02-12T15:15:08.009Z</time>
      </trkpt>
      <trkpt lat="47.75305" lon="5.21053">
        <ele>433</ele>
        <time>2019-02-12T15:15:11.009Z</time>
      </trkpt>
      <trkpt lat="47.75303" lon="5.2106">
        <ele>433</ele>
        <time>2019-02-12T15:15:14.009Z</time>
      </trkpt>
      <trkpt lat="47.75301" lon="5.21066">
        <ele>432</ele>
        <time>2019-02-12T15:15:16.009Z</time>
      </trkpt>
      <trkpt lat="47.75299" lon="5.21073">
        <ele>432</ele>
        <time>2019-02-12T15:15:19.009Z</time>
      </trkpt>
      <trkpt lat="47.75298" lon="5.21078">
        <ele>432</ele>
        <time>2019-02-12T15:15:22.009Z</time>
      </trkpt>
      <trkpt lat="47.75295" lon="5.21083">
        <ele>430</ele>
        <time>2019-02-12T15:15:25.009Z</time>
      </trkpt>
      <trkpt lat="47.75293" lon="5.21088">
        <ele>430</ele>
        <time>2019-02-12T15:15:28.009Z</time>
      </trkpt>
      <trkpt lat="47.75291" lon="5.21093">
        <ele>430</ele>
        <time>2019-02-12T15:15:31.009Z</time>
      </trkpt>
      <trkpt lat="47.75287" lon="5.211">
        <ele>429.13703955374</ele>
        <time>2019-02-12T15:15:34.009Z</time>
      </trkpt>
      <trkpt lat="47.75284" lon="5.21106">
        <ele>428</ele>
        <time>2019-02-12T15:15:36.009Z</time>
      </trkpt>
      <trkpt lat="47.75282" lon="5.21111">
        <ele>428</ele>
        <time>2019-02-12T15:15:39.009Z</time>
      </trkpt>
      <trkpt lat="47.75281" lon="5.21117">
        <ele>427</ele>
        <time>2019-02-12T15:15:41.009Z</time>
      </trkpt>
      <trkpt lat="47.75279" lon="5.21121">
        <ele>427</ele>
        <time>2019-02-12T15:15:43.009Z</time>
      </trkpt>
      <trkpt lat="47.75276" lon="5.21125">
        <ele>425</ele>
        <time>2019-02-12T15:15:46.009Z</time>
      </trkpt>
      <trkpt lat="47.75274" lon="5.21131">
        <ele>425</ele>
        <time>2019-02-12T15:15:49.009Z</time>
      </trkpt>
      <trkpt lat="47.75272" lon="5.21136">
        <ele>423.038752</ele>
        <time>2019-02-12T15:15:52.009Z</time>
      </trkpt>
      <trkpt lat="47.75269" lon="5.2114">
        <ele>423</ele>
        <time>2019-02-12T15:15:55.009Z</time>
      </trkpt>
      <trkpt lat="47.75265" lon="5.21145">
        <ele>422</ele>
        <time>2019-02-12T15:15:58.009Z</time>
      </trkpt>
      <trkpt lat="47.75262" lon="5.2115">
        <ele>421</ele>
        <time>2019-02-12T15:16:01.009Z</time>
      </trkpt>
      <trkpt lat="47.75259" lon="5.21155">
        <ele>421</ele>
        <time>2019-02-12T15:16:03.009Z</time>
      </trkpt>
      <trkpt lat="47.75256" lon="5.2116">
        <ele>419</ele>
        <time>2019-02-12T15:16:06.009Z</time>
      </trkpt>
      <trkpt lat="47.75254" lon="5.21166">
        <ele>419</ele>
        <time>2019-02-12T15:16:09.009Z</time>
      </trkpt>
      <trkpt lat="47.75251" lon="5.21171">
        <ele>418</ele>
        <time>2019-02-12T15:16:12.009Z</time>
      </trkpt>
      <trkpt lat="47.75248" lon="5.21177">
        <ele>417</ele>
        <time>2019-02-12T15:16:16.009Z</time>
      </trkpt>
      <trkpt lat="47.75245" lon="5.21181">
        <ele>418</ele>
        <time>2019-02-12T15:16:18.009Z</time>
      </trkpt>
      <trkpt lat="47.75241" lon="5.21185">
        <ele>417</ele>
        <time>2019-02-12T15:16:21.009Z</time>
      </trkpt>
      <trkpt lat="47.75237" lon="5.21188">
        <ele>417</ele>
        <time>2019-02-12T15:16:24.009Z</time>
      </trkpt>
      <trkpt lat="47.75233" lon="5.21191">
        <ele>415</ele>
        <time>2019-02-12T15:16:28.009Z</time>
      </trkpt>
      <trkpt lat="47.75229" lon="5.21191">
        <ele>414</ele>
        <time>2019-02-12T15:16:32.009Z</time>
      </trkpt>
      <trkpt lat="47.75225" lon="5.21193">
        <ele>414</ele>
        <time>2019-02-12T15:16:35.009Z</time>
      </trkpt>
      <trkpt lat="47.7522" lon="5.21191">
        <ele>414</ele>
        <time>2019-02-12T15:16:38.009Z</time>
      </trkpt>
      <trkpt lat="47.75216" lon="5.21191">
        <ele>413</ele>
        <time>2019-02-12T15:16:41.009Z</time>
      </trkpt>
      <trkpt lat="47.75211" lon="5.21191">
        <ele>413</ele>
        <time>2019-02-12T15:16:44.009Z</time>
      </trkpt>
      <trkpt lat="47.75207" lon="5.21192">
        <ele>413.48117639972</ele>
        <time>2019-02-12T15:16:47.009Z</time>
      </trkpt>
      <trkpt lat="47.75203" lon="5.21193">
        <ele>412.93874397472</ele>
        <time>2019-02-12T15:16:50.009Z</time>
      </trkpt>
      <trkpt lat="47.75199" lon="5.21192">
        <ele>412</ele>
        <time>2019-02-12T15:16:53.009Z</time>
      </trkpt>
      <trkpt lat="47.75194" lon="5.21192">
        <ele>412</ele>
        <time>2019-02-12T15:16:57.009Z</time>
      </trkpt>
      <trkpt lat="47.75187" lon="5.21191">
        <ele>409.64339029054</ele>
        <time>2019-02-12T15:17:01.009Z</time>
      </trkpt>
      <trkpt lat="47.75182" lon="5.21192">
        <ele>408</ele>
        <time>2019-02-12T15:17:04.009Z</time>
      </trkpt>
      <trkpt lat="47.75177" lon="5.21193">
        <ele>408</ele>
        <time>2019-02-12T15:17:07.009Z</time>
      </trkpt>
      <trkpt lat="47.75173" lon="5.21193">
        <ele>408</ele>
        <time>2019-02-12T15:17:10.009Z</time>
      </trkpt>
      <trkpt lat="47.75168" lon="5.21193">
        <ele>407.61908856406</ele>
        <time>2019-02-12T15:17:13.009Z</time>
      </trkpt>
      <trkpt lat="47.75164" lon="5.21192">
        <ele>407</ele>
        <time>2019-02-12T15:17:16.009Z</time>
      </trkpt>
      <trkpt lat="47.7516" lon="5.21192">
        <ele>407</ele>
        <time>2019-02-12T15:17:20.009Z</time>
      </trkpt>
      <trkpt lat="47.75155" lon="5.21192">
        <ele>407</ele>
        <time>2019-02-12T15:17:24.009Z</time>
      </trkpt>
      <trkpt lat="47.75151" lon="5.21191">
        <ele>406</ele>
        <time>2019-02-12T15:17:27.009Z</time>
      </trkpt>
      <trkpt lat="47.75146" lon="5.2119">
        <ele>406</ele>
        <time>2019-02-12T15:17:30.009Z</time>
      </trkpt>
      <trkpt lat="47.75141" lon="5.21188">
        <ele>406</ele>
        <time>2019-02-12T15:17:33.009Z</time>
      </trkpt>
      <trkpt lat="47.75138" lon="5.21187">
        <ele>404</ele>
        <time>2019-02-12T15:17:35.009Z</time>
      </trkpt>
      <trkpt lat="47.75133" lon="5.21185">
        <ele>404</ele>
        <time>2019-02-12T15:17:38.009Z</time>
      </trkpt>
      <trkpt lat="47.75129" lon="5.21184">
        <ele>404</ele>
        <time>2019-02-12T15:17:41.009Z</time>
      </trkpt>
      <trkpt lat="47.75124" lon="5.21181">
        <ele>402</ele>
        <time>2019-02-12T15:17:45.009Z</time>
      </trkpt>
      <trkpt lat="47.75119" lon="5.21182">
        <ele>400.70682181818</ele>
        <time>2019-02-12T15:17:49.009Z</time>
      </trkpt>
      <trkpt lat="47.75115" lon="5.21184">
        <ele>400</ele>
        <time>2019-02-12T15:17:52.009Z</time>
      </trkpt>
      <trkpt lat="47.75111" lon="5.21184">
        <ele>400</ele>
        <time>2019-02-12T15:17:56.009Z</time>
      </trkpt>
      <trkpt lat="47.75107" lon="5.21186">
        <ele>400</ele>
        <time>2019-02-12T15:17:59.009Z</time>
      </trkpt>
      <trkpt lat="47.75103" lon="5.21189">
        <ele>400</ele>
        <time>2019-02-12T15:18:02.009Z</time>
      </trkpt>
      <trkpt lat="47.75099" lon="5.2119">
        <ele>398.09480351087</ele>
        <time>2019-02-12T15:18:05.009Z</time>
      </trkpt>
      <trkpt lat="47.75095" lon="5.21192">
        <ele>397</ele>
        <time>2019-02-12T15:18:08.009Z</time>
      </trkpt>
      <trkpt lat="47.7509" lon="5.21194">
        <ele>397</ele>
        <time>2019-02-12T15:18:12.009Z</time>
      </trkpt>
      <trkpt lat="47.75087" lon="5.21195">
        <ele>397</ele>
        <time>2019-02-12T15:18:15.009Z</time>
      </trkpt>
      <trkpt lat="47.75083" lon="5.21194">
        <ele>397</ele>
        <time>2019-02-12T15:18:21.009Z</time>
      </trkpt>
      <trkpt lat="47.75078" lon="5.21193">
        <ele>396</ele>
        <time>2019-02-12T15:18:24.009Z</time>
      </trkpt>
      <trkpt lat="47.75073" lon="5.21191">
        <ele>396</ele>
        <time>2019-02-12T15:18:27.009Z</time>
      </trkpt>
      <trkpt lat="47.75068" lon="5.21189">
        <ele>396</ele>
        <time>2019-02-12T15:18:30.009Z</time>
      </trkpt>
      <trkpt lat="47.75064" lon="5.21186">
        <ele>395.40267428571</ele>
        <time>2019-02-12T15:18:33.009Z</time>
      </trkpt>
      <trkpt lat="47.75061" lon="5.21182">
        <ele>395</ele>
        <time>2019-02-12T15:18:36.009Z</time>
      </trkpt>
      <trkpt lat="47.75057" lon="5.21178">
        <ele>395</ele>
        <time>2019-02-12T15:18:39.009Z</time>
      </trkpt>
      <trkpt lat="47.75054" lon="5.21176">
        <ele>395</ele>
        <time>2019-02-12T15:18:42.009Z</time>
      </trkpt>
      <trkpt lat="47.7505" lon="5.21172">
        <ele>395</ele>
        <time>2019-02-12T15:18:45.009Z</time>
      </trkpt>
      <trkpt lat="47.75047" lon="5.21169">
        <ele>395</ele>
        <time>2019-02-12T15:18:48.009Z</time>
      </trkpt>
      <trkpt lat="47.75044" lon="5.21165">
        <ele>395</ele>
        <time>2019-02-12T15:18:51.009Z</time>
      </trkpt>
      <trkpt lat="47.7504" lon="5.21162">
        <ele>394</ele>
        <time>2019-02-12T15:18:54.009Z</time>
      </trkpt>
      <trkpt lat="47.75036" lon="5.21159">
        <ele>394</ele>
        <time>2019-02-12T15:18:57.009Z</time>
      </trkpt>
      <trkpt lat="47.7503" lon="5.21156">
        <ele>394</ele>
        <time>2019-02-12T15:19:01.009Z</time>
      </trkpt>
      <trkpt lat="47.75026" lon="5.21154">
        <ele>391</ele>
        <time>2019-02-12T15:19:04.009Z</time>
      </trkpt>
      <trkpt lat="47.75022" lon="5.21153">
        <ele>391</ele>
        <time>2019-02-12T15:19:07.009Z</time>
      </trkpt>
      <trkpt lat="47.75018" lon="5.21153">
        <ele>391</ele>
        <time>2019-02-12T15:19:10.009Z</time>
      </trkpt>
      <trkpt lat="47.75014" lon="5.21152">
        <ele>391</ele>
        <time>2019-02-12T15:19:13.009Z</time>
      </trkpt>
      <trkpt lat="47.75008" lon="5.2115">
        <ele>391</ele>
        <time>2019-02-12T15:19:17.009Z</time>
      </trkpt>
      <trkpt lat="47.75004" lon="5.21147">
        <ele>391</ele>
        <time>2019-02-12T15:19:20.009Z</time>
      </trkpt>
      <trkpt lat="47.75001" lon="5.21145">
        <ele>391</ele>
        <time>2019-02-12T15:19:23.009Z</time>
      </trkpt>
      <trkpt lat="47.74997" lon="5.21143">
        <ele>390</ele>
        <time>2019-02-12T15:19:26.009Z</time>
      </trkpt>
      <trkpt lat="47.74994" lon="5.2114">
        <ele>390</ele>
        <time>2019-02-12T15:19:29.009Z</time>
      </trkpt>
      <trkpt lat="47.74989" lon="5.21139">
        <ele>390</ele>
        <time>2019-02-12T15:19:32.009Z</time>
      </trkpt>
      <trkpt lat="47.74985" lon="5.21139">
        <ele>390</ele>
        <time>2019-02-12T15:19:35.009Z</time>
      </trkpt>
      <trkpt lat="47.7498" lon="5.21139">
        <ele>389</ele>
        <time>2019-02-12T15:19:38.009Z</time>
      </trkpt>
      <trkpt lat="47.74976" lon="5.21137">
        <ele>389</ele>
        <time>2019-02-12T15:19:41.009Z</time>
      </trkpt>
      <trkpt lat="47.74971" lon="5.21138">
        <ele>389</ele>
        <time>2019-02-12T15:19:45.009Z</time>
      </trkpt>
      <trkpt lat="47.74967" lon="5.2114">
        <ele>388</ele>
        <time>2019-02-12T15:19:48.009Z</time>
      </trkpt>
      <trkpt lat="47.74963" lon="5.21142">
        <ele>388</ele>
        <time>2019-02-12T15:19:51.009Z</time>
      </trkpt>
      <trkpt lat="47.7496" lon="5.21145">
        <ele>388</ele>
        <time>2019-02-12T15:19:54.009Z</time>
      </trkpt>
      <trkpt lat="47.74957" lon="5.21148">
        <ele>387.18408727273</ele>
        <time>2019-02-12T15:19:57.009Z</time>
      </trkpt>
      <trkpt lat="47.74953" lon="5.21152">
        <ele>384.97607404247</ele>
        <time>2019-02-12T15:20:01.009Z</time>
      </trkpt>
      <trkpt lat="47.7495" lon="5.21155">
        <ele>384</ele>
        <time>2019-02-12T15:20:05.009Z</time>
      </trkpt>
      <trkpt lat="47.74948" lon="5.2116">
        <ele>384</ele>
        <time>2019-02-12T15:20:10.009Z</time>
      </trkpt>
      <trkpt lat="47.74944" lon="5.21163">
        <ele>383.51222391307</ele>
        <time>2019-02-12T15:20:13.009Z</time>
      </trkpt>
      <trkpt lat="47.74939" lon="5.21166">
        <ele>383</ele>
        <time>2019-02-12T15:20:17.009Z</time>
      </trkpt>
      <trkpt lat="47.74935" lon="5.2117">
        <ele>383</ele>
        <time>2019-02-12T15:20:21.009Z</time>
      </trkpt>
      <trkpt lat="47.74932" lon="5.21172">
        <ele>383</ele>
        <time>2019-02-12T15:20:23.009Z</time>
      </trkpt>
      <trkpt lat="47.74927" lon="5.21175">
        <ele>383</ele>
        <time>2019-02-12T15:20:26.009Z</time>
      </trkpt>
      <trkpt lat="47.74923" lon="5.2118">
        <ele>382.50674509578</ele>
        <time>2019-02-12T15:20:30.009Z</time>
      </trkpt>
      <trkpt lat="47.7492" lon="5.21184">
        <ele>382</ele>
        <time>2019-02-12T15:20:33.009Z</time>
      </trkpt>
      <trkpt lat="47.74919" lon="5.21189">
        <ele>382</ele>
        <time>2019-02-12T15:20:36.009Z</time>
      </trkpt>
      <trkpt lat="47.74919" lon="5.21195">
        <ele>381</ele>
        <time>2019-02-12T15:20:39.009Z</time>
      </trkpt>
      <trkpt lat="47.74919" lon="5.21201">
        <ele>381</ele>
        <time>2019-02-12T15:20:42.009Z</time>
      </trkpt>
      <trkpt lat="47.74918" lon="5.21206">
        <ele>381</ele>
        <time>2019-02-12T15:20:45.009Z</time>
      </trkpt>
      <trkpt lat="47.74915" lon="5.2121">
        <ele>381</ele>
        <time>2019-02-12T15:20:48.009Z</time>
      </trkpt>
      <trkpt lat="47.74912" lon="5.21214">
        <ele>380</ele>
        <time>2019-02-12T15:20:51.009Z</time>
      </trkpt>
      <trkpt lat="47.74909" lon="5.21218">
        <ele>380</ele>
        <time>2019-02-12T15:20:54.009Z</time>
      </trkpt>
      <trkpt lat="47.74904" lon="5.21221">
        <ele>380</ele>
        <time>2019-02-12T15:20:58.009Z</time>
      </trkpt>
      <trkpt lat="47.749" lon="5.21225">
        <ele>379</ele>
        <time>2019-02-12T15:21:01.009Z</time>
      </trkpt>
      <trkpt lat="47.74896" lon="5.21229">
        <ele>378.30543304348</ele>
        <time>2019-02-12T15:21:05.009Z</time>
      </trkpt>
      <trkpt lat="47.74892" lon="5.21235">
        <ele>378</ele>
        <time>2019-02-12T15:21:09.009Z</time>
      </trkpt>
      <trkpt lat="47.7489" lon="5.21238">
        <ele>378</ele>
        <time>2019-02-12T15:21:12.009Z</time>
      </trkpt>
      <trkpt lat="47.74886" lon="5.21243">
        <ele>378</ele>
        <time>2019-02-12T15:21:16.009Z</time>
      </trkpt>
      <trkpt lat="47.74884" lon="5.21247">
        <ele>378</ele>
        <time>2019-02-12T15:21:19.009Z</time>
      </trkpt>
      <trkpt lat="47.74881" lon="5.21251">
        <ele>378</ele>
        <time>2019-02-12T15:21:22.009Z</time>
      </trkpt>
      <trkpt lat="47.74876" lon="5.21256">
        <ele>378</ele>
        <time>2019-02-12T15:21:26.009Z</time>
      </trkpt>
      <trkpt lat="47.74873" lon="5.21261">
        <ele>377</ele>
        <time>2019-02-12T15:21:29.009Z</time>
      </trkpt>
      <trkpt lat="47.74869" lon="5.21265">
        <ele>377</ele>
        <time>2019-02-12T15:21:32.009Z</time>
      </trkpt>
      <trkpt lat="47.74864" lon="5.21272">
        <ele>377</ele>
        <time>2019-02-12T15:21:36.009Z</time>
      </trkpt>
      <trkpt lat="47.74861" lon="5.21276">
        <ele>377.6656836663</ele>
        <time>2019-02-12T15:21:39.009Z</time>
      </trkpt>
      <trkpt lat="47.74858" lon="5.2128">
        <ele>378</ele>
        <time>2019-02-12T15:21:42.009Z</time>
      </trkpt>
      <trkpt lat="47.74855" lon="5.21284">
        <ele>378</ele>
        <time>2019-02-12T15:21:45.009Z</time>
      </trkpt>
      <trkpt lat="47.74852" lon="5.21289">
        <ele>378</ele>
        <time>2019-02-12T15:21:48.009Z</time>
      </trkpt>
      <trkpt lat="47.7485" lon="5.21294">
        <ele>378</ele>
        <time>2019-02-12T15:21:51.009Z</time>
      </trkpt>
      <trkpt lat="47.74847" lon="5.213">
        <ele>378</ele>
        <time>2019-02-12T15:21:54.009Z</time>
      </trkpt>
      <trkpt lat="47.74845" lon="5.21305">
        <ele>378</ele>
        <time>2019-02-12T15:21:57.009Z</time>
      </trkpt>
      <trkpt lat="47.74843" lon="5.21311">
        <ele>378</ele>
        <time>2019-02-12T15:22:00.009Z</time>
      </trkpt>
      <trkpt lat="47.7484" lon="5.21315">
        <ele>378</ele>
        <time>2019-02-12T15:22:03.009Z</time>
      </trkpt>
      <trkpt lat="47.74838" lon="5.21321">
        <ele>378</ele>
        <time>2019-02-12T15:22:06.009Z</time>
      </trkpt>
      <trkpt lat="47.74836" lon="5.21326">
        <ele>378</ele>
        <time>2019-02-12T15:22:09.009Z</time>
      </trkpt>
      <trkpt lat="47.74833" lon="5.2133">
        <ele>378</ele>
        <time>2019-02-12T15:22:12.009Z</time>
      </trkpt>
      <trkpt lat="47.7483" lon="5.21334">
        <ele>378.6333028873</ele>
        <time>2019-02-12T15:22:15.009Z</time>
      </trkpt>
      <trkpt lat="47.74826" lon="5.21338">
        <ele>379</ele>
        <time>2019-02-12T15:22:19.009Z</time>
      </trkpt>
      <trkpt lat="47.74823" lon="5.2134">
        <ele>379</ele>
        <time>2019-02-12T15:22:22.009Z</time>
      </trkpt>
      <trkpt lat="47.74818" lon="5.21338">
        <ele>381</ele>
        <time>2019-02-12T15:22:27.009Z</time>
      </trkpt>
      <trkpt lat="47.74814" lon="5.21336">
        <ele>381</ele>
        <time>2019-02-12T15:22:31.009Z</time>
      </trkpt>
      <trkpt lat="47.74812" lon="5.21331">
        <ele>381</ele>
        <time>2019-02-12T15:22:35.009Z</time>
      </trkpt>
      <trkpt lat="47.74809" lon="5.21327">
        <ele>382</ele>
        <time>2019-02-12T15:22:39.009Z</time>
      </trkpt>
      <trkpt lat="47.74806" lon="5.21324">
        <ele>383</ele>
        <time>2019-02-12T15:22:43.009Z</time>
      </trkpt>
      <trkpt lat="47.74802" lon="5.2132">
        <ele>384</ele>
        <time>2019-02-12T15:22:47.009Z</time>
      </trkpt>
      <trkpt lat="47.74799" lon="5.21316">
        <ele>384</ele>
        <time>2019-02-12T15:22:51.009Z</time>
      </trkpt>
      <trkpt lat="47.74796" lon="5.21313">
        <ele>384</ele>
        <time>2019-02-12T15:22:55.009Z</time>
      </trkpt>
      <trkpt lat="47.74792" lon="5.21311">
        <ele>384</ele>
        <time>2019-02-12T15:22:59.009Z</time>
      </trkpt>
      <trkpt lat="47.74789" lon="5.21309">
        <ele>386</ele>
        <time>2019-02-12T15:23:04.009Z</time>
      </trkpt>
      <trkpt lat="47.74784" lon="5.21307">
        <ele>386</ele>
        <time>2019-02-12T15:23:09.009Z</time>
      </trkpt>
      <trkpt lat="47.7478" lon="5.21306">
        <ele>386</ele>
        <time>2019-02-12T15:23:14.009Z</time>
      </trkpt>
      <trkpt lat="47.74776" lon="5.21307">
        <ele>386</ele>
        <time>2019-02-12T15:23:19.009Z</time>
      </trkpt>
      <trkpt lat="47.7477" lon="5.21306">
        <ele>386</ele>
        <time>2019-02-12T15:23:24.009Z</time>
      </trkpt>
      <trkpt lat="47.74767" lon="5.21304">
        <ele>386</ele>
        <time>2019-02-12T15:23:27.009Z</time>
      </trkpt>
      <trkpt lat="47.74763" lon="5.21303">
        <ele>386.57975663896</ele>
        <time>2019-02-12T15:23:30.009Z</time>
      </trkpt>
      <trkpt lat="47.74759" lon="5.21301">
        <ele>388</ele>
        <time>2019-02-12T15:23:33.009Z</time>
      </trkpt>
      <trkpt lat="47.74754" lon="5.21299">
        <ele>388</ele>
        <time>2019-02-12T15:23:37.009Z</time>
      </trkpt>
      <trkpt lat="47.7475" lon="5.21298">
        <ele>388</ele>
        <time>2019-02-12T15:23:40.009Z</time>
      </trkpt>
      <trkpt lat="47.74747" lon="5.21297">
        <ele>388</ele>
        <time>2019-02-12T15:23:43.009Z</time>
      </trkpt>
      <trkpt lat="47.74743" lon="5.21296">
        <ele>390</ele>
        <time>2019-02-12T15:23:46.009Z</time>
      </trkpt>
      <trkpt lat="47.74739" lon="5.21295">
        <ele>390.87414246883</ele>
        <time>2019-02-12T15:23:49.009Z</time>
      </trkpt>
      <trkpt lat="47.74735" lon="5.21294">
        <ele>392</ele>
        <time>2019-02-12T15:23:52.009Z</time>
      </trkpt>
      <trkpt lat="47.74731" lon="5.21293">
        <ele>392</ele>
        <time>2019-02-12T15:23:55.009Z</time>
      </trkpt>
      <trkpt lat="47.74727" lon="5.21292">
        <ele>392.58414373351</ele>
        <time>2019-02-12T15:23:58.009Z</time>
      </trkpt>
      <trkpt lat="47.74722" lon="5.21291">
        <ele>393</ele>
        <time>2019-02-12T15:24:02.009Z</time>
      </trkpt>
      <trkpt lat="47.74718" lon="5.21291">
        <ele>393</ele>
        <time>2019-02-12T15:24:05.009Z</time>
      </trkpt>
      <trkpt lat="47.74714" lon="5.2129">
        <ele>393</ele>
        <time>2019-02-12T15:24:09.009Z</time>
      </trkpt>
      <trkpt lat="47.7471" lon="5.21289">
        <ele>393.59690423721</ele>
        <time>2019-02-12T15:24:12.009Z</time>
      </trkpt>
      <trkpt lat="47.74706" lon="5.21288">
        <ele>394</ele>
        <time>2019-02-12T15:24:15.009Z</time>
      </trkpt>
      <trkpt lat="47.74702" lon="5.21287">
        <ele>394</ele>
        <time>2019-02-12T15:24:19.009Z</time>
      </trkpt>
      <trkpt lat="47.74697" lon="5.21285">
        <ele>395.206971483</ele>
        <time>2019-02-12T15:24:22.009Z</time>
      </trkpt>
      <trkpt lat="47.74693" lon="5.21284">
        <ele>396</ele>
        <time>2019-02-12T15:24:25.009Z</time>
      </trkpt>
      <trkpt lat="47.74689" lon="5.21284">
        <ele>396</ele>
        <time>2019-02-12T15:24:29.009Z</time>
      </trkpt>
      <trkpt lat="47.74685" lon="5.21282">
        <ele>397.21944888889</ele>
        <time>2019-02-12T15:24:32.009Z</time>
      </trkpt>
      <trkpt lat="47.74681" lon="5.21281">
        <ele>398</ele>
        <time>2019-02-12T15:24:35.009Z</time>
      </trkpt>
      <trkpt lat="47.74677" lon="5.21281">
        <ele>398</ele>
        <time>2019-02-12T15:24:38.009Z</time>
      </trkpt>
      <trkpt lat="47.74672" lon="5.21282">
        <ele>399.8935102068</ele>
        <time>2019-02-12T15:24:42.009Z</time>
      </trkpt>
      <trkpt lat="47.74669" lon="5.21282">
        <ele>400.53452190476</ele>
        <time>2019-02-12T15:24:45.009Z</time>
      </trkpt>
      <trkpt lat="47.74664" lon="5.21282">
        <ele>401</ele>
        <time>2019-02-12T15:24:49.009Z</time>
      </trkpt>
      <trkpt lat="47.7466" lon="5.21282">
        <ele>402</ele>
        <time>2019-02-12T15:24:52.009Z</time>
      </trkpt>
      <trkpt lat="47.74655" lon="5.21283">
        <ele>402</ele>
        <time>2019-02-12T15:24:55.009Z</time>
      </trkpt>
      <trkpt lat="47.74651" lon="5.21287">
        <ele>403</ele>
        <time>2019-02-12T15:25:01.009Z</time>
      </trkpt>
      <trkpt lat="47.74648" lon="5.21291">
        <ele>404</ele>
        <time>2019-02-12T15:25:04.009Z</time>
      </trkpt>
      <trkpt lat="47.74644" lon="5.21295">
        <ele>404</ele>
        <time>2019-02-12T15:25:07.009Z</time>
      </trkpt>
      <trkpt lat="47.74642" lon="5.213">
        <ele>404</ele>
        <time>2019-02-12T15:25:10.009Z</time>
      </trkpt>
      <trkpt lat="47.74641" lon="5.21306">
        <ele>404</ele>
        <time>2019-02-12T15:25:13.009Z</time>
      </trkpt>
      <trkpt lat="47.7464" lon="5.21312">
        <ele>405</ele>
        <time>2019-02-12T15:25:17.009Z</time>
      </trkpt>
      <trkpt lat="47.74638" lon="5.21318">
        <ele>407</ele>
        <time>2019-02-12T15:25:21.009Z</time>
      </trkpt>
      <trkpt lat="47.74638" lon="5.21324">
        <ele>407</ele>
        <time>2019-02-12T15:25:24.009Z</time>
      </trkpt>
      <trkpt lat="47.74637" lon="5.21329">
        <ele>407</ele>
        <time>2019-02-12T15:25:27.009Z</time>
      </trkpt>
      <trkpt lat="47.74637" lon="5.21337">
        <ele>407</ele>
        <time>2019-02-12T15:25:30.009Z</time>
      </trkpt>
      <trkpt lat="47.74636" lon="5.21346">
        <ele>407</ele>
        <time>2019-02-12T15:25:34.009Z</time>
      </trkpt>
      <trkpt lat="47.74636" lon="5.21352">
        <ele>408</ele>
        <time>2019-02-12T15:25:37.009Z</time>
      </trkpt>
      <trkpt lat="47.74636" lon="5.21359">
        <ele>408</ele>
        <time>2019-02-12T15:25:40.009Z</time>
      </trkpt>
      <trkpt lat="47.74637" lon="5.21364">
        <ele>408</ele>
        <time>2019-02-12T15:25:43.009Z</time>
      </trkpt>
      <trkpt lat="47.74638" lon="5.21371">
        <ele>409</ele>
        <time>2019-02-12T15:25:47.009Z</time>
      </trkpt>
      <trkpt lat="47.74639" lon="5.21377">
        <ele>409</ele>
        <time>2019-02-12T15:25:50.009Z</time>
      </trkpt>
      <trkpt lat="47.7464" lon="5.21383">
        <ele>409</ele>
        <time>2019-02-12T15:25:53.009Z</time>
      </trkpt>
      <trkpt lat="47.74641" lon="5.2139">
        <ele>410.72588320332</ele>
        <time>2019-02-12T15:25:56.009Z</time>
      </trkpt>
      <trkpt lat="47.74642" lon="5.21397">
        <ele>412</ele>
        <time>2019-02-12T15:26:00.009Z</time>
      </trkpt>
      <trkpt lat="47.74639" lon="5.21413">
        <ele>412</ele>
        <time>2019-02-12T15:26:06.009Z</time>
      </trkpt>
      <trkpt lat="47.74638" lon="5.21421">
        <ele>413</ele>
        <time>2019-02-12T15:26:09.009Z</time>
      </trkpt>
      <trkpt lat="47.74635" lon="5.21424">
        <ele>413</ele>
        <time>2019-02-12T15:26:12.009Z</time>
      </trkpt>
      <trkpt lat="47.74631" lon="5.21427">
        <ele>412.47846635553</ele>
        <time>2019-02-12T15:26:15.009Z</time>
      </trkpt>
      <trkpt lat="47.74627" lon="5.21428">
        <ele>414</ele>
        <time>2019-02-12T15:26:19.009Z</time>
      </trkpt>
      <trkpt lat="47.74622" lon="5.21427">
        <ele>414</ele>
        <time>2019-02-12T15:26:22.009Z</time>
      </trkpt>
      <trkpt lat="47.74619" lon="5.21425">
        <ele>414</ele>
        <time>2019-02-12T15:26:24.009Z</time>
      </trkpt>
      <trkpt lat="47.74615" lon="5.21422">
        <ele>414</ele>
        <time>2019-02-12T15:26:27.009Z</time>
      </trkpt>
      <trkpt lat="47.74612" lon="5.2142">
        <ele>415.66134583943</ele>
        <time>2019-02-12T15:26:29.009Z</time>
      </trkpt>
      <trkpt lat="47.74608" lon="5.21415">
        <ele>417</ele>
        <time>2019-02-12T15:26:32.009Z</time>
      </trkpt>
      <trkpt lat="47.74604" lon="5.21411">
        <ele>417</ele>
        <time>2019-02-12T15:26:35.009Z</time>
      </trkpt>
      <trkpt lat="47.74601" lon="5.21407">
        <ele>417</ele>
        <time>2019-02-12T15:26:39.009Z</time>
      </trkpt>
      <trkpt lat="47.74598" lon="5.21403">
        <ele>418</ele>
        <time>2019-02-12T15:26:42.009Z</time>
      </trkpt>
      <trkpt lat="47.74593" lon="5.21399">
        <ele>418</ele>
        <time>2019-02-12T15:26:46.009Z</time>
      </trkpt>
      <trkpt lat="47.7459" lon="5.21395">
        <ele>420</ele>
        <time>2019-02-12T15:26:49.009Z</time>
      </trkpt>
      <trkpt lat="47.74588" lon="5.2139">
        <ele>420</ele>
        <time>2019-02-12T15:26:53.009Z</time>
      </trkpt>
      <trkpt lat="47.74584" lon="5.21385">
        <ele>420</ele>
        <time>2019-02-12T15:26:56.009Z</time>
      </trkpt>
      <trkpt lat="47.74582" lon="5.21379">
        <ele>422</ele>
        <time>2019-02-12T15:27:00.009Z</time>
      </trkpt>
      <trkpt lat="47.74578" lon="5.21373">
        <ele>422</ele>
        <time>2019-02-12T15:27:04.009Z</time>
      </trkpt>
      <trkpt lat="47.74575" lon="5.2137">
        <ele>423</ele>
        <time>2019-02-12T15:27:06.009Z</time>
      </trkpt>
      <trkpt lat="47.74571" lon="5.21365">
        <ele>423</ele>
        <time>2019-02-12T15:27:09.009Z</time>
      </trkpt>
      <trkpt lat="47.74569" lon="5.2136">
        <ele>424</ele>
        <time>2019-02-12T15:27:13.009Z</time>
      </trkpt>
      <trkpt lat="47.74566" lon="5.21356">
        <ele>426</ele>
        <time>2019-02-12T15:27:18.009Z</time>
      </trkpt>
      <trkpt lat="47.74563" lon="5.21352">
        <ele>427</ele>
        <time>2019-02-12T15:27:23.009Z</time>
      </trkpt>
      <trkpt lat="47.7456" lon="5.21348">
        <ele>428</ele>
        <time>2019-02-12T15:27:27.009Z</time>
      </trkpt>
      <trkpt lat="47.74558" lon="5.21343">
        <ele>428</ele>
        <time>2019-02-12T15:27:31.009Z</time>
      </trkpt>
      <trkpt lat="47.74557" lon="5.21338">
        <ele>428</ele>
        <time>2019-02-12T15:27:33.009Z</time>
      </trkpt>
      <trkpt lat="47.74553" lon="5.21334">
        <ele>429</ele>
        <time>2019-02-12T15:27:36.009Z</time>
      </trkpt>
      <trkpt lat="47.7455" lon="5.21328">
        <ele>429</ele>
        <time>2019-02-12T15:27:39.009Z</time>
      </trkpt>
      <trkpt lat="47.74547" lon="5.21325">
        <ele>429</ele>
        <time>2019-02-12T15:27:41.009Z</time>
      </trkpt>
      <trkpt lat="47.74544" lon="5.21319">
        <ele>429</ele>
        <time>2019-02-12T15:27:44.009Z</time>
      </trkpt>
      <trkpt lat="47.7454" lon="5.21313">
        <ele>430</ele>
        <time>2019-02-12T15:27:47.009Z</time>
      </trkpt>
      <trkpt lat="47.74537" lon="5.2131">
        <ele>430</ele>
        <time>2019-02-12T15:27:49.009Z</time>
      </trkpt>
      <trkpt lat="47.74534" lon="5.21305">
        <ele>430</ele>
        <time>2019-02-12T15:27:52.009Z</time>
      </trkpt>
      <trkpt lat="47.74531" lon="5.21301">
        <ele>433</ele>
        <time>2019-02-12T15:27:55.009Z</time>
      </trkpt>
      <trkpt lat="47.74528" lon="5.21298">
        <ele>433</ele>
        <time>2019-02-12T15:27:57.009Z</time>
      </trkpt>
      <trkpt lat="47.74524" lon="5.21291">
        <ele>433</ele>
        <time>2019-02-12T15:28:01.009Z</time>
      </trkpt>
      <trkpt lat="47.74521" lon="5.21289">
        <ele>434</ele>
        <time>2019-02-12T15:28:03.009Z</time>
      </trkpt>
      <trkpt lat="47.74518" lon="5.21285">
        <ele>434</ele>
        <time>2019-02-12T15:28:05.009Z</time>
      </trkpt>
      <trkpt lat="47.74515" lon="5.21281">
        <ele>434</ele>
        <time>2019-02-12T15:28:07.009Z</time>
      </trkpt>
      <trkpt lat="47.74511" lon="5.21278">
        <ele>435</ele>
        <time>2019-02-12T15:28:10.009Z</time>
      </trkpt>
      <trkpt lat="47.74506" lon="5.21272">
        <ele>436.22905247957</ele>
        <time>2019-02-12T15:28:14.009Z</time>
      </trkpt>
      <trkpt lat="47.74502" lon="5.21266">
        <ele>437</ele>
        <time>2019-02-12T15:28:18.009Z</time>
      </trkpt>
      <trkpt lat="47.74498" lon="5.21262">
        <ele>438</ele>
        <time>2019-02-12T15:28:22.009Z</time>
      </trkpt>
      <trkpt lat="47.74496" lon="5.21256">
        <ele>438.60438795446</ele>
        <time>2019-02-12T15:28:25.009Z</time>
      </trkpt>
      <trkpt lat="47.74493" lon="5.21251">
        <ele>439</ele>
        <time>2019-02-12T15:28:28.009Z</time>
      </trkpt>
      <trkpt lat="47.74492" lon="5.21246">
        <ele>439</ele>
        <time>2019-02-12T15:28:30.009Z</time>
      </trkpt>
      <trkpt lat="47.74488" lon="5.2124">
        <ele>441</ele>
        <time>2019-02-12T15:28:33.009Z</time>
      </trkpt>
      <trkpt lat="47.74486" lon="5.21233">
        <ele>441</ele>
        <time>2019-02-12T15:28:37.009Z</time>
      </trkpt>
      <trkpt lat="47.74483" lon="5.21228">
        <ele>441</ele>
        <time>2019-02-12T15:28:40.009Z</time>
      </trkpt>
      <trkpt lat="47.74481" lon="5.21222">
        <ele>441</ele>
        <time>2019-02-12T15:28:42.009Z</time>
      </trkpt>
      <trkpt lat="47.74477" lon="5.21214">
        <ele>441</ele>
        <time>2019-02-12T15:28:46.009Z</time>
      </trkpt>
      <trkpt lat="47.74475" lon="5.21209">
        <ele>442</ele>
        <time>2019-02-12T15:28:49.009Z</time>
      </trkpt>
      <trkpt lat="47.74471" lon="5.21205">
        <ele>443</ele>
        <time>2019-02-12T15:28:52.009Z</time>
      </trkpt>
      <trkpt lat="47.74469" lon="5.212">
        <ele>443</ele>
        <time>2019-02-12T15:28:55.009Z</time>
      </trkpt>
      <trkpt lat="47.74467" lon="5.21195">
        <ele>443.39117803922</ele>
        <time>2019-02-12T15:28:57.009Z</time>
      </trkpt>
      <trkpt lat="47.74463" lon="5.21188">
        <ele>445</ele>
        <time>2019-02-12T15:29:01.009Z</time>
      </trkpt>
      <trkpt lat="47.74462" lon="5.21182">
        <ele>447</ele>
        <time>2019-02-12T15:29:04.009Z</time>
      </trkpt>
      <trkpt lat="47.7446" lon="5.21176">
        <ele>447</ele>
        <time>2019-02-12T15:29:07.009Z</time>
      </trkpt>
      <trkpt lat="47.74457" lon="5.21171">
        <ele>447</ele>
        <time>2019-02-12T15:29:10.009Z</time>
      </trkpt>
      <trkpt lat="47.74455" lon="5.21166">
        <ele>447</ele>
        <time>2019-02-12T15:29:13.009Z</time>
      </trkpt>
      <trkpt lat="47.74452" lon="5.21161">
        <ele>447</ele>
        <time>2019-02-12T15:29:16.009Z</time>
      </trkpt>
      <trkpt lat="47.74449" lon="5.21154">
        <ele>447</ele>
        <time>2019-02-12T15:29:20.009Z</time>
      </trkpt>
      <trkpt lat="47.74446" lon="5.21149">
        <ele>448</ele>
        <time>2019-02-12T15:29:22.009Z</time>
      </trkpt>
      <trkpt lat="47.74442" lon="5.21142">
        <ele>448</ele>
        <time>2019-02-12T15:29:26.009Z</time>
      </trkpt>
      <trkpt lat="47.74439" lon="5.21137">
        <ele>448</ele>
        <time>2019-02-12T15:29:29.009Z</time>
      </trkpt>
      <trkpt lat="47.74437" lon="5.21131">
        <ele>449</ele>
        <time>2019-02-12T15:29:32.009Z</time>
      </trkpt>
      <trkpt lat="47.74433" lon="5.21127">
        <ele>449</ele>
        <time>2019-02-12T15:29:35.009Z</time>
      </trkpt>
      <trkpt lat="47.7443" lon="5.21122">
        <ele>449</ele>
        <time>2019-02-12T15:29:38.009Z</time>
      </trkpt>
      <trkpt lat="47.74426" lon="5.21115">
        <ele>449.97924238948</ele>
        <time>2019-02-12T15:29:41.009Z</time>
      </trkpt>
      <trkpt lat="47.74424" lon="5.21111">
        <ele>451</ele>
        <time>2019-02-12T15:29:43.009Z</time>
      </trkpt>
      <trkpt lat="47.74421" lon="5.21105">
        <ele>451</ele>
        <time>2019-02-12T15:29:46.009Z</time>
      </trkpt>
      <trkpt lat="47.74418" lon="5.211">
        <ele>451.56509243718</ele>
        <time>2019-02-12T15:29:49.009Z</time>
      </trkpt>
      <trkpt lat="47.74416" lon="5.21095">
        <ele>452</ele>
        <time>2019-02-12T15:29:52.009Z</time>
      </trkpt>
      <trkpt lat="47.74411" lon="5.21087">
        <ele>452</ele>
        <time>2019-02-12T15:30:48.009Z</time>
      </trkpt>
      <trkpt lat="47.74411" lon="5.21087">
        <ele>444.7</ele>
      </trkpt>
      <trkpt lat="47.74404" lon="5.21046">
        <ele>451</ele>
        <time>2019-02-12T15:35:26.009Z</time>
      </trkpt>
      <trkpt lat="47.74402" lon="5.21035">
        <ele>451</ele>
        <time>2019-02-12T15:35:32.009Z</time>
      </trkpt>
      <trkpt lat="47.74401" lon="5.21029">
        <ele>450.39911192669</ele>
        <time>2019-02-12T15:35:35.009Z</time>
      </trkpt>
      <trkpt lat="47.74401" lon="5.21023">
        <ele>450</ele>
        <time>2019-02-12T15:35:38.009Z</time>
      </trkpt>
      <trkpt lat="47.744" lon="5.21016">
        <ele>450</ele>
        <time>2019-02-12T15:35:42.009Z</time>
      </trkpt>
      <trkpt lat="47.744" lon="5.21009">
        <ele>450</ele>
        <time>2019-02-12T15:35:45.009Z</time>
      </trkpt>
      <trkpt lat="47.744" lon="5.21002">
        <ele>450</ele>
        <time>2019-02-12T15:35:48.009Z</time>
      </trkpt>
      <trkpt lat="47.744" lon="5.20996">
        <ele>450</ele>
        <time>2019-02-12T15:35:52.009Z</time>
      </trkpt>
      <trkpt lat="47.74399" lon="5.20988">
        <ele>449</ele>
        <time>2019-02-12T15:35:56.009Z</time>
      </trkpt>
      <trkpt lat="47.74399" lon="5.20982">
        <ele>449</ele>
        <time>2019-02-12T15:36:00.009Z</time>
      </trkpt>
      <trkpt lat="47.74398" lon="5.20976">
        <ele>449</ele>
        <time>2019-02-12T15:36:04.009Z</time>
      </trkpt>
      <trkpt lat="47.74398" lon="5.2097">
        <ele>449</ele>
        <time>2019-02-12T15:36:08.009Z</time>
      </trkpt>
      <trkpt lat="47.74397" lon="5.20964">
        <ele>449</ele>
        <time>2019-02-12T15:36:11.009Z</time>
      </trkpt>
      <trkpt lat="47.74397" lon="5.20958">
        <ele>449.5789952</ele>
        <time>2019-02-12T15:36:15.009Z</time>
      </trkpt>
      <trkpt lat="47.74396" lon="5.20952">
        <ele>450</ele>
        <time>2019-02-12T15:36:18.009Z</time>
      </trkpt>
      <trkpt lat="47.74396" lon="5.20946">
        <ele>450</ele>
        <time>2019-02-12T15:36:22.009Z</time>
      </trkpt>
      <trkpt lat="47.74395" lon="5.20939">
        <ele>450</ele>
        <time>2019-02-12T15:36:26.009Z</time>
      </trkpt>
      <trkpt lat="47.74394" lon="5.20933">
        <ele>450</ele>
        <time>2019-02-12T15:36:30.009Z</time>
      </trkpt>
      <trkpt lat="47.74393" lon="5.20926">
        <ele>450</ele>
        <time>2019-02-12T15:36:34.009Z</time>
      </trkpt>
      <trkpt lat="47.74393" lon="5.2092">
        <ele>450</ele>
        <time>2019-02-12T15:36:38.009Z</time>
      </trkpt>
      <trkpt lat="47.74392" lon="5.20914">
        <ele>450</ele>
        <time>2019-02-12T15:36:42.009Z</time>
      </trkpt>
      <trkpt lat="47.74391" lon="5.20909">
        <ele>450</ele>
        <time>2019-02-12T15:36:47.009Z</time>
      </trkpt>
      <trkpt lat="47.7439" lon="5.20904">
        <ele>450</ele>
        <time>2019-02-12T15:37:01.009Z</time>
      </trkpt>
      <trkpt lat="47.74386" lon="5.20859">
        <ele>449</ele>
        <time>2019-02-12T15:41:13.009Z</time>
      </trkpt>
      <trkpt lat="47.74385" lon="5.20853">
        <ele>449</ele>
        <time>2019-02-12T15:41:17.009Z</time>
      </trkpt>
      <trkpt lat="47.74384" lon="5.20848">
        <ele>449</ele>
        <time>2019-02-12T15:41:20.009Z</time>
      </trkpt>
      <trkpt lat="47.74383" lon="5.20842">
        <ele>449</ele>
        <time>2019-02-12T15:41:24.009Z</time>
      </trkpt>
      <trkpt lat="47.74381" lon="5.20837">
        <ele>450</ele>
        <time>2019-02-12T15:41:27.009Z</time>
      </trkpt>
      <trkpt lat="47.7438" lon="5.2083">
        <ele>450</ele>
        <time>2019-02-12T15:41:31.009Z</time>
      </trkpt>
      <trkpt lat="47.74379" lon="5.20824">
        <ele>450</ele>
        <time>2019-02-12T15:41:35.009Z</time>
      </trkpt>
      <trkpt lat="47.74377" lon="5.20818">
        <ele>450</ele>
        <time>2019-02-12T15:41:39.009Z</time>
      </trkpt>
      <trkpt lat="47.74377" lon="5.20812">
        <ele>450</ele>
        <time>2019-02-12T15:41:43.009Z</time>
      </trkpt>
      <trkpt lat="47.74376" lon="5.20805">
        <ele>451</ele>
        <time>2019-02-12T15:41:47.009Z</time>
      </trkpt>
      <trkpt lat="47.74375" lon="5.208">
        <ele>451</ele>
        <time>2019-02-12T15:41:51.009Z</time>
      </trkpt>
      <trkpt lat="47.74375" lon="5.20794">
        <ele>451</ele>
        <time>2019-02-12T15:41:54.009Z</time>
      </trkpt>
      <trkpt lat="47.74375" lon="5.20787">
        <ele>451</ele>
        <time>2019-02-12T15:41:58.009Z</time>
      </trkpt>
      <trkpt lat="47.74374" lon="5.20782">
        <ele>451</ele>
        <time>2019-02-12T15:42:01.009Z</time>
      </trkpt>
      <trkpt lat="47.74374" lon="5.20775">
        <ele>452</ele>
        <time>2019-02-12T15:42:04.009Z</time>
      </trkpt>
      <trkpt lat="47.74374" lon="5.20768">
        <ele>452</ele>
        <time>2019-02-12T15:42:08.009Z</time>
      </trkpt>
      <trkpt lat="47.74373" lon="5.2076">
        <ele>452</ele>
        <time>2019-02-12T15:42:12.009Z</time>
      </trkpt>
      <trkpt lat="47.74372" lon="5.20752">
        <ele>452</ele>
        <time>2019-02-12T15:42:15.009Z</time>
      </trkpt>
      <trkpt lat="47.74371" lon="5.20745">
        <ele>452</ele>
        <time>2019-02-12T15:42:18.009Z</time>
      </trkpt>
      <trkpt lat="47.74371" lon="5.20737">
        <ele>452</ele>
        <time>2019-02-12T15:42:21.009Z</time>
      </trkpt>
      <trkpt lat="47.74371" lon="5.2073">
        <ele>452</ele>
        <time>2019-02-12T15:42:24.009Z</time>
      </trkpt>
      <trkpt lat="47.7437" lon="5.20723">
        <ele>452</ele>
        <time>2019-02-12T15:42:27.009Z</time>
      </trkpt>
      <trkpt lat="47.7437" lon="5.20716">
        <ele>452</ele>
        <time>2019-02-12T15:42:30.009Z</time>
      </trkpt>
      <trkpt lat="47.74371" lon="5.20709">
        <ele>452</ele>
        <time>2019-02-12T15:42:33.009Z</time>
      </trkpt>
      <trkpt lat="47.74371" lon="5.20702">
        <ele>452</ele>
        <time>2019-02-12T15:42:36.009Z</time>
      </trkpt>
      <trkpt lat="47.74371" lon="5.20695">
        <ele>452</ele>
        <time>2019-02-12T15:42:39.009Z</time>
      </trkpt>
      <trkpt lat="47.74371" lon="5.20687">
        <ele>452</ele>
        <time>2019-02-12T15:42:42.009Z</time>
      </trkpt>
      <trkpt lat="47.74372" lon="5.20679">
        <ele>451.58988190476</ele>
        <time>2019-02-12T15:42:45.009Z</time>
      </trkpt>
      <trkpt lat="47.74372" lon="5.20672">
        <ele>451</ele>
        <time>2019-02-12T15:42:48.009Z</time>
      </trkpt>
      <trkpt lat="47.74373" lon="5.20665">
        <ele>451</ele>
        <time>2019-02-12T15:42:51.009Z</time>
      </trkpt>
      <trkpt lat="47.74374" lon="5.20659">
        <ele>451</ele>
        <time>2019-02-12T15:42:53.009Z</time>
      </trkpt>
      <trkpt lat="47.74375" lon="5.20651">
        <ele>450</ele>
        <time>2019-02-12T15:42:56.009Z</time>
      </trkpt>
      <trkpt lat="47.74376" lon="5.20644">
        <ele>450</ele>
        <time>2019-02-12T15:42:59.009Z</time>
      </trkpt>
      <trkpt lat="47.74378" lon="5.20632">
        <ele>450</ele>
        <time>2019-02-12T15:43:04.009Z</time>
      </trkpt>
      <trkpt lat="47.74379" lon="5.20625">
        <ele>450</ele>
        <time>2019-02-12T15:43:07.009Z</time>
      </trkpt>
      <trkpt lat="47.7438" lon="5.20618">
        <ele>450</ele>
        <time>2019-02-12T15:43:10.009Z</time>
      </trkpt>
      <trkpt lat="47.7438" lon="5.20612">
        <ele>450</ele>
        <time>2019-02-12T15:43:13.009Z</time>
      </trkpt>
      <trkpt lat="47.7438" lon="5.20606">
        <ele>450</ele>
        <time>2019-02-12T15:43:15.009Z</time>
      </trkpt>
      <trkpt lat="47.7438" lon="5.206">
        <ele>450</ele>
        <time>2019-02-12T15:43:17.009Z</time>
      </trkpt>
      <trkpt lat="47.74381" lon="5.20595">
        <ele>450</ele>
        <time>2019-02-12T15:43:19.009Z</time>
      </trkpt>
      <trkpt lat="47.74382" lon="5.20588">
        <ele>450</ele>
        <time>2019-02-12T15:43:24.009Z</time>
      </trkpt>
      <trkpt lat="47.74383" lon="5.20583">
        <ele>448.99080463152</ele>
        <time>2019-02-12T15:43:28.009Z</time>
      </trkpt>
      <trkpt lat="47.74384" lon="5.20576">
        <ele>448</ele>
        <time>2019-02-12T15:43:30.009Z</time>
      </trkpt>
      <trkpt lat="47.74384" lon="5.20569">
        <ele>448</ele>
        <time>2019-02-12T15:43:32.009Z</time>
      </trkpt>
      <trkpt lat="47.74384" lon="5.20563">
        <ele>448</ele>
        <time>2019-02-12T15:43:34.009Z</time>
      </trkpt>
      <trkpt lat="47.74385" lon="5.20557">
        <ele>448</ele>
        <time>2019-02-12T15:43:36.009Z</time>
      </trkpt>
      <trkpt lat="47.74385" lon="5.20551">
        <ele>448</ele>
        <time>2019-02-12T15:43:38.009Z</time>
      </trkpt>
      <trkpt lat="47.74385" lon="5.20543">
        <ele>448</ele>
        <time>2019-02-12T15:43:41.009Z</time>
      </trkpt>
      <trkpt lat="47.74384" lon="5.20535">
        <ele>448</ele>
        <time>2019-02-12T15:43:44.009Z</time>
      </trkpt>
      <trkpt lat="47.74384" lon="5.20528">
        <ele>448</ele>
        <time>2019-02-12T15:43:47.009Z</time>
      </trkpt>
      <trkpt lat="47.74382" lon="5.20521">
        <ele>448</ele>
        <time>2019-02-12T15:43:50.009Z</time>
      </trkpt>
      <trkpt lat="47.74381" lon="5.20513">
        <ele>448</ele>
        <time>2019-02-12T15:43:53.009Z</time>
      </trkpt>
      <trkpt lat="47.7438" lon="5.20506">
        <ele>448</ele>
        <time>2019-02-12T15:43:56.009Z</time>
      </trkpt>
      <trkpt lat="47.7438" lon="5.205">
        <ele>448</ele>
        <time>2019-02-12T15:43:58.009Z</time>
      </trkpt>
      <trkpt lat="47.7438" lon="5.20492">
        <ele>448</ele>
        <time>2019-02-12T15:44:01.009Z</time>
      </trkpt>
      <trkpt lat="47.7438" lon="5.20486">
        <ele>448</ele>
        <time>2019-02-12T15:44:03.009Z</time>
      </trkpt>
      <trkpt lat="47.7438" lon="5.2048">
        <ele>448</ele>
        <time>2019-02-12T15:44:05.009Z</time>
      </trkpt>
      <trkpt lat="47.74379" lon="5.20474">
        <ele>448</ele>
        <time>2019-02-12T15:44:07.009Z</time>
      </trkpt>
      <trkpt lat="47.74378" lon="5.20468">
        <ele>448</ele>
        <time>2019-02-12T15:44:10.009Z</time>
      </trkpt>
      <trkpt lat="47.74376" lon="5.20462">
        <ele>448</ele>
        <time>2019-02-12T15:44:13.009Z</time>
      </trkpt>
      <trkpt lat="47.74374" lon="5.20455">
        <ele>448</ele>
        <time>2019-02-12T15:44:16.009Z</time>
      </trkpt>
      <trkpt lat="47.74372" lon="5.20444">
        <ele>448</ele>
        <time>2019-02-12T15:44:20.009Z</time>
      </trkpt>
      <trkpt lat="47.74371" lon="5.20437">
        <ele>448</ele>
        <time>2019-02-12T15:44:23.009Z</time>
      </trkpt>
      <trkpt lat="47.74369" lon="5.20429">
        <ele>448</ele>
        <time>2019-02-12T15:44:27.009Z</time>
      </trkpt>
      <trkpt lat="47.74369" lon="5.20422">
        <ele>448</ele>
        <time>2019-02-12T15:44:30.009Z</time>
      </trkpt>
      <trkpt lat="47.74368" lon="5.20415">
        <ele>448</ele>
        <time>2019-02-12T15:44:33.009Z</time>
      </trkpt>
      <trkpt lat="47.74367" lon="5.20408">
        <ele>448</ele>
        <time>2019-02-12T15:44:36.009Z</time>
      </trkpt>
      <trkpt lat="47.74367" lon="5.204">
        <ele>448</ele>
        <time>2019-02-12T15:44:39.009Z</time>
      </trkpt>
      <trkpt lat="47.74367" lon="5.20395">
        <ele>448</ele>
        <time>2019-02-12T15:44:42.009Z</time>
      </trkpt>
      <trkpt lat="47.74367" lon="5.20388">
        <ele>448</ele>
        <time>2019-02-12T15:44:45.009Z</time>
      </trkpt>
      <trkpt lat="47.74368" lon="5.20381">
        <ele>448</ele>
        <time>2019-02-12T15:44:48.009Z</time>
      </trkpt>
      <trkpt lat="47.74368" lon="5.20374">
        <ele>448</ele>
        <time>2019-02-12T15:44:51.009Z</time>
      </trkpt>
      <trkpt lat="47.74369" lon="5.20367">
        <ele>448</ele>
        <time>2019-02-12T15:44:54.009Z</time>
      </trkpt>
      <trkpt lat="47.7437" lon="5.2036">
        <ele>448</ele>
        <time>2019-02-12T15:44:57.009Z</time>
      </trkpt>
      <trkpt lat="47.7437" lon="5.20353">
        <ele>448</ele>
        <time>2019-02-12T15:45:00.009Z</time>
      </trkpt>
      <trkpt lat="47.74369" lon="5.20346">
        <ele>448</ele>
        <time>2019-02-12T15:45:03.009Z</time>
      </trkpt>
      <trkpt lat="47.74369" lon="5.20339">
        <ele>448</ele>
        <time>2019-02-12T15:45:06.009Z</time>
      </trkpt>
      <trkpt lat="47.74369" lon="5.20332">
        <ele>448</ele>
        <time>2019-02-12T15:45:09.009Z</time>
      </trkpt>
      <trkpt lat="47.74368" lon="5.20325">
        <ele>448</ele>
        <time>2019-02-12T15:45:12.009Z</time>
      </trkpt>
      <trkpt lat="47.74367" lon="5.20318">
        <ele>448</ele>
        <time>2019-02-12T15:45:15.009Z</time>
      </trkpt>
      <trkpt lat="47.74366" lon="5.20308">
        <ele>448</ele>
        <time>2019-02-12T15:45:19.009Z</time>
      </trkpt>
      <trkpt lat="47.74366" lon="5.20301">
        <ele>448</ele>
        <time>2019-02-12T15:45:22.009Z</time>
      </trkpt>
      <trkpt lat="47.74365" lon="5.20293">
        <ele>448</ele>
        <time>2019-02-12T15:45:25.009Z</time>
      </trkpt>
      <trkpt lat="47.74364" lon="5.20286">
        <ele>448</ele>
        <time>2019-02-12T15:45:28.009Z</time>
      </trkpt>
      <trkpt lat="47.74362" lon="5.20278">
        <ele>448</ele>
        <time>2019-02-12T15:45:31.009Z</time>
      </trkpt>
      <trkpt lat="47.74361" lon="5.20271">
        <ele>448</ele>
        <time>2019-02-12T15:45:34.009Z</time>
      </trkpt>
      <trkpt lat="47.7436" lon="5.20264">
        <ele>448</ele>
        <time>2019-02-12T15:45:37.009Z</time>
      </trkpt>
      <trkpt lat="47.74359" lon="5.20258">
        <ele>448</ele>
        <time>2019-02-12T15:45:39.009Z</time>
      </trkpt>
      <trkpt lat="47.74357" lon="5.20252">
        <ele>448</ele>
        <time>2019-02-12T15:45:42.009Z</time>
      </trkpt>
      <trkpt lat="47.74355" lon="5.20243">
        <ele>453</ele>
        <time>2019-02-12T15:45:46.009Z</time>
      </trkpt>
      <trkpt lat="47.74353" lon="5.20236">
        <ele>453</ele>
        <time>2019-02-12T15:45:49.009Z</time>
      </trkpt>
      <trkpt lat="47.74351" lon="5.2023">
        <ele>454</ele>
        <time>2019-02-12T15:45:52.009Z</time>
      </trkpt>
      <trkpt lat="47.74349" lon="5.20223">
        <ele>454</ele>
        <time>2019-02-12T15:45:55.009Z</time>
      </trkpt>
      <trkpt lat="47.74348" lon="5.20218">
        <ele>454</ele>
        <time>2019-02-12T15:45:58.009Z</time>
      </trkpt>
      <trkpt lat="47.74347" lon="5.20212">
        <ele>455</ele>
        <time>2019-02-12T15:46:08.009Z</time>
      </trkpt>
      <trkpt lat="47.74345" lon="5.20206">
        <ele>455</ele>
        <time>2019-02-12T15:46:11.009Z</time>
      </trkpt>
      <trkpt lat="47.74343" lon="5.202">
        <ele>455</ele>
        <time>2019-02-12T15:46:14.009Z</time>
      </trkpt>
      <trkpt lat="47.74341" lon="5.20194">
        <ele>454</ele>
        <time>2019-02-12T15:46:17.009Z</time>
      </trkpt>
      <trkpt lat="47.74339" lon="5.20188">
        <ele>454</ele>
        <time>2019-02-12T15:46:20.009Z</time>
      </trkpt>
      <trkpt lat="47.74336" lon="5.20183">
        <ele>454</ele>
        <time>2019-02-12T15:46:23.009Z</time>
      </trkpt>
      <trkpt lat="47.74333" lon="5.20177">
        <ele>454</ele>
        <time>2019-02-12T15:46:26.009Z</time>
      </trkpt>
      <trkpt lat="47.74331" lon="5.2017">
        <ele>454</ele>
        <time>2019-02-12T15:46:29.009Z</time>
      </trkpt>
      <trkpt lat="47.74329" lon="5.20163">
        <ele>454</ele>
        <time>2019-02-12T15:46:32.009Z</time>
      </trkpt>
      <trkpt lat="47.74327" lon="5.20157">
        <ele>454</ele>
        <time>2019-02-12T15:46:35.009Z</time>
      </trkpt>
      <trkpt lat="47.74325" lon="5.20151">
        <ele>455</ele>
        <time>2019-02-12T15:46:38.009Z</time>
      </trkpt>
      <trkpt lat="47.74323" lon="5.20145">
        <ele>455</ele>
        <time>2019-02-12T15:46:41.009Z</time>
      </trkpt>
      <trkpt lat="47.74322" lon="5.20138">
        <ele>455</ele>
        <time>2019-02-12T15:46:44.009Z</time>
      </trkpt>
      <trkpt lat="47.74319" lon="5.20133">
        <ele>455.37071542857</ele>
        <time>2019-02-12T15:46:47.009Z</time>
      </trkpt>
      <trkpt lat="47.74318" lon="5.20127">
        <ele>456</ele>
        <time>2019-02-12T15:46:50.009Z</time>
      </trkpt>
      <trkpt lat="47.74316" lon="5.20121">
        <ele>456</ele>
        <time>2019-02-12T15:46:53.009Z</time>
      </trkpt>
      <trkpt lat="47.74314" lon="5.20114">
        <ele>456</ele>
        <time>2019-02-12T15:46:56.009Z</time>
      </trkpt>
      <trkpt lat="47.74312" lon="5.20108">
        <ele>456</ele>
        <time>2019-02-12T15:46:59.009Z</time>
      </trkpt>
      <trkpt lat="47.7431" lon="5.20101">
        <ele>455.34175879821</ele>
        <time>2019-02-12T15:47:02.009Z</time>
      </trkpt>
      <trkpt lat="47.74307" lon="5.20094">
        <ele>455</ele>
        <time>2019-02-12T15:47:05.009Z</time>
      </trkpt>
      <trkpt lat="47.74305" lon="5.20087">
        <ele>455</ele>
        <time>2019-02-12T15:47:08.009Z</time>
      </trkpt>
      <trkpt lat="47.74301" lon="5.20079">
        <ele>455</ele>
        <time>2019-02-12T15:47:12.009Z</time>
      </trkpt>
      <trkpt lat="47.74299" lon="5.20072">
        <ele>455.63221594869</ele>
        <time>2019-02-12T15:47:15.009Z</time>
      </trkpt>
      <trkpt lat="47.74298" lon="5.20067">
        <ele>456</ele>
        <time>2019-02-12T15:47:17.009Z</time>
      </trkpt>
      <trkpt lat="47.74296" lon="5.2006">
        <ele>456</ele>
        <time>2019-02-12T15:47:20.009Z</time>
      </trkpt>
      <trkpt lat="47.74294" lon="5.20054">
        <ele>456</ele>
        <time>2019-02-12T15:47:23.009Z</time>
      </trkpt>
      <trkpt lat="47.74291" lon="5.20047">
        <ele>456</ele>
        <time>2019-02-12T15:47:26.009Z</time>
      </trkpt>
      <trkpt lat="47.74288" lon="5.20039">
        <ele>456</ele>
        <time>2019-02-12T15:47:30.009Z</time>
      </trkpt>
      <trkpt lat="47.74286" lon="5.20033">
        <ele>456</ele>
        <time>2019-02-12T15:47:33.009Z</time>
      </trkpt>
      <trkpt lat="47.74284" lon="5.20029">
        <ele>456</ele>
        <time>2019-02-12T15:47:35.009Z</time>
      </trkpt>
      <trkpt lat="47.74282" lon="5.20024">
        <ele>456</ele>
        <time>2019-02-12T15:47:37.009Z</time>
      </trkpt>
      <trkpt lat="47.74279" lon="5.20017">
        <ele>456</ele>
        <time>2019-02-12T15:47:40.009Z</time>
      </trkpt>
      <trkpt lat="47.74277" lon="5.20011">
        <ele>456</ele>
        <time>2019-02-12T15:47:43.009Z</time>
      </trkpt>
      <trkpt lat="47.74274" lon="5.20005">
        <ele>456</ele>
        <time>2019-02-12T15:47:46.009Z</time>
      </trkpt>
      <trkpt lat="47.74271" lon="5.19998">
        <ele>456</ele>
        <time>2019-02-12T15:47:49.009Z</time>
      </trkpt>
      <trkpt lat="47.74268" lon="5.19992">
        <ele>456</ele>
        <time>2019-02-12T15:47:52.009Z</time>
      </trkpt>
      <trkpt lat="47.74265" lon="5.19986">
        <ele>456</ele>
        <time>2019-02-12T15:47:55.009Z</time>
      </trkpt>
      <trkpt lat="47.74263" lon="5.19982">
        <ele>455</ele>
        <time>2019-02-12T15:47:58.009Z</time>
      </trkpt>
      <trkpt lat="47.7426" lon="5.19976">
        <ele>455</ele>
        <time>2019-02-12T15:48:01.009Z</time>
      </trkpt>
      <trkpt lat="47.74257" lon="5.19971">
        <ele>455</ele>
        <time>2019-02-12T15:48:04.009Z</time>
      </trkpt>
      <trkpt lat="47.74254" lon="5.19966">
        <ele>455</ele>
        <time>2019-02-12T15:48:07.009Z</time>
      </trkpt>
      <trkpt lat="47.7425" lon="5.19959">
        <ele>455</ele>
        <time>2019-02-12T15:48:11.009Z</time>
      </trkpt>
      <trkpt lat="47.74246" lon="5.19954">
        <ele>455</ele>
        <time>2019-02-12T15:48:14.009Z</time>
      </trkpt>
      <trkpt lat="47.74243" lon="5.19949">
        <ele>455.59743342888</ele>
        <time>2019-02-12T15:48:17.009Z</time>
      </trkpt>
      <trkpt lat="47.74239" lon="5.19944">
        <ele>456</ele>
        <time>2019-02-12T15:48:20.009Z</time>
      </trkpt>
      <trkpt lat="47.74235" lon="5.19939">
        <ele>456</ele>
        <time>2019-02-12T15:48:23.009Z</time>
      </trkpt>
      <trkpt lat="47.74232" lon="5.19935">
        <ele>456.57849845683</ele>
        <time>2019-02-12T15:48:26.009Z</time>
      </trkpt>
      <trkpt lat="47.74228" lon="5.19931">
        <ele>457</ele>
        <time>2019-02-12T15:48:29.009Z</time>
      </trkpt>
      <trkpt lat="47.74224" lon="5.19927">
        <ele>457</ele>
        <time>2019-02-12T15:48:32.009Z</time>
      </trkpt>
      <trkpt lat="47.74219" lon="5.19925">
        <ele>457.59438236182</ele>
        <time>2019-02-12T15:48:35.009Z</time>
      </trkpt>
      <trkpt lat="47.74215" lon="5.19921">
        <ele>458</ele>
        <time>2019-02-12T15:48:38.009Z</time>
      </trkpt>
      <trkpt lat="47.74209" lon="5.19918">
        <ele>458</ele>
        <time>2019-02-12T15:48:42.009Z</time>
      </trkpt>
      <trkpt lat="47.74205" lon="5.19915">
        <ele>458</ele>
        <time>2019-02-12T15:48:45.009Z</time>
      </trkpt>
      <trkpt lat="47.74201" lon="5.19911">
        <ele>458</ele>
        <time>2019-02-12T15:48:48.009Z</time>
      </trkpt>
      <trkpt lat="47.74195" lon="5.19905">
        <ele>458</ele>
        <time>2019-02-12T15:48:53.009Z</time>
      </trkpt>
      <trkpt lat="47.74192" lon="5.19901">
        <ele>458</ele>
        <time>2019-02-12T15:48:56.009Z</time>
      </trkpt>
      <trkpt lat="47.74188" lon="5.19897">
        <ele>458</ele>
        <time>2019-02-12T15:48:59.009Z</time>
      </trkpt>
      <trkpt lat="47.74184" lon="5.19893">
        <ele>458.52823540042</ele>
        <time>2019-02-12T15:49:02.009Z</time>
      </trkpt>
      <trkpt lat="47.74179" lon="5.19887">
        <ele>459</ele>
        <time>2019-02-12T15:49:06.009Z</time>
      </trkpt>
      <trkpt lat="47.74176" lon="5.19882">
        <ele>459</ele>
        <time>2019-02-12T15:49:09.009Z</time>
      </trkpt>
      <trkpt lat="47.74173" lon="5.19877">
        <ele>459</ele>
        <time>2019-02-12T15:49:12.009Z</time>
      </trkpt>
      <trkpt lat="47.7417" lon="5.19871">
        <ele>459</ele>
        <time>2019-02-12T15:49:15.009Z</time>
      </trkpt>
      <trkpt lat="47.74167" lon="5.19865">
        <ele>459</ele>
        <time>2019-02-12T15:49:18.009Z</time>
      </trkpt>
      <trkpt lat="47.74165" lon="5.19859">
        <ele>459</ele>
        <time>2019-02-12T15:49:21.009Z</time>
      </trkpt>
      <trkpt lat="47.74164" lon="5.1985">
        <ele>458.42583466667</ele>
        <time>2019-02-12T15:49:25.009Z</time>
      </trkpt>
      <trkpt lat="47.74163" lon="5.19843">
        <ele>458</ele>
        <time>2019-02-12T15:49:28.009Z</time>
      </trkpt>
      <trkpt lat="47.74161" lon="5.19835">
        <ele>458</ele>
        <time>2019-02-12T15:49:32.009Z</time>
      </trkpt>
      <trkpt lat="47.7416" lon="5.19828">
        <ele>457</ele>
        <time>2019-02-12T15:49:35.009Z</time>
      </trkpt>
      <trkpt lat="47.74158" lon="5.19822">
        <ele>457</ele>
        <time>2019-02-12T15:49:38.009Z</time>
      </trkpt>
      <trkpt lat="47.74156" lon="5.19816">
        <ele>457</ele>
        <time>2019-02-12T15:49:41.009Z</time>
      </trkpt>
      <trkpt lat="47.74154" lon="5.1981">
        <ele>457</ele>
        <time>2019-02-12T15:49:44.009Z</time>
      </trkpt>
      <trkpt lat="47.74151" lon="5.19802">
        <ele>457</ele>
        <time>2019-02-12T15:49:48.009Z</time>
      </trkpt>
      <trkpt lat="47.74148" lon="5.19796">
        <ele>457</ele>
        <time>2019-02-12T15:49:51.009Z</time>
      </trkpt>
      <trkpt lat="47.74145" lon="5.19792">
        <ele>457</ele>
        <time>2019-02-12T15:49:54.009Z</time>
      </trkpt>
      <trkpt lat="47.74143" lon="5.19788">
        <ele>456</ele>
        <time>2019-02-12T15:49:57.009Z</time>
      </trkpt>
      <trkpt lat="47.74139" lon="5.19785">
        <ele>456</ele>
        <time>2019-02-12T15:50:01.009Z</time>
      </trkpt>
      <trkpt lat="47.74134" lon="5.19785">
        <ele>456</ele>
        <time>2019-02-12T15:50:06.009Z</time>
      </trkpt>
      <trkpt lat="47.7413" lon="5.19785">
        <ele>456</ele>
        <time>2019-02-12T15:50:09.009Z</time>
      </trkpt>
      <trkpt lat="47.74126" lon="5.19786">
        <ele>456</ele>
        <time>2019-02-12T15:50:12.009Z</time>
      </trkpt>
      <trkpt lat="47.74121" lon="5.19786">
        <ele>458</ele>
        <time>2019-02-12T15:50:15.009Z</time>
      </trkpt>
      <trkpt lat="47.74117" lon="5.19785">
        <ele>458</ele>
        <time>2019-02-12T15:50:18.009Z</time>
      </trkpt>
      <trkpt lat="47.74114" lon="5.19783">
        <ele>458</ele>
        <time>2019-02-12T15:50:21.009Z</time>
      </trkpt>
      <trkpt lat="47.74111" lon="5.19778">
        <ele>458</ele>
        <time>2019-02-12T15:50:25.009Z</time>
      </trkpt>
      <trkpt lat="47.74109" lon="5.19774">
        <ele>458</ele>
        <time>2019-02-12T15:50:28.009Z</time>
      </trkpt>
      <trkpt lat="47.74105" lon="5.19769">
        <ele>458</ele>
        <time>2019-02-12T15:50:32.009Z</time>
      </trkpt>
      <trkpt lat="47.74102" lon="5.19763">
        <ele>458</ele>
        <time>2019-02-12T15:50:36.009Z</time>
      </trkpt>
      <trkpt lat="47.74098" lon="5.19759">
        <ele>458</ele>
        <time>2019-02-12T15:50:39.009Z</time>
      </trkpt>
      <trkpt lat="47.74094" lon="5.19753">
        <ele>458</ele>
        <time>2019-02-12T15:50:43.009Z</time>
      </trkpt>
      <trkpt lat="47.74092" lon="5.19747">
        <ele>459</ele>
        <time>2019-02-12T15:50:46.009Z</time>
      </trkpt>
      <trkpt lat="47.7409" lon="5.19739">
        <ele>459</ele>
        <time>2019-02-12T15:50:50.009Z</time>
      </trkpt>
      <trkpt lat="47.7409" lon="5.19732">
        <ele>459</ele>
        <time>2019-02-12T15:50:53.009Z</time>
      </trkpt>
      <trkpt lat="47.74089" lon="5.19726">
        <ele>459</ele>
        <time>2019-02-12T15:50:57.009Z</time>
      </trkpt>
      <trkpt lat="47.74088" lon="5.1972">
        <ele>459</ele>
        <time>2019-02-12T15:51:02.009Z</time>
      </trkpt>
      <trkpt lat="47.7409" lon="5.19712">
        <ele>459</ele>
        <time>2019-02-12T15:51:05.009Z</time>
      </trkpt>
      <trkpt lat="47.7409" lon="5.19706">
        <ele>459</ele>
        <time>2019-02-12T15:51:08.009Z</time>
      </trkpt>
      <trkpt lat="47.74091" lon="5.19698">
        <ele>459</ele>
        <time>2019-02-12T15:51:12.009Z</time>
      </trkpt>
      <trkpt lat="47.74093" lon="5.19692">
        <ele>457</ele>
        <time>2019-02-12T15:51:15.009Z</time>
      </trkpt>
      <trkpt lat="47.74094" lon="5.19685">
        <ele>457</ele>
        <time>2019-02-12T15:51:18.009Z</time>
      </trkpt>
      <trkpt lat="47.74096" lon="5.1968">
        <ele>455</ele>
        <time>2019-02-12T15:51:21.009Z</time>
      </trkpt>
      <trkpt lat="47.74097" lon="5.19674">
        <ele>454</ele>
        <time>2019-02-12T15:51:25.009Z</time>
      </trkpt>
      <trkpt lat="47.74097" lon="5.19668">
        <ele>452</ele>
        <time>2019-02-12T15:51:30.009Z</time>
      </trkpt>
      <trkpt lat="47.74098" lon="5.19662">
        <ele>452</ele>
        <time>2019-02-12T15:51:34.009Z</time>
      </trkpt>
      <trkpt lat="47.74098" lon="5.19655">
        <ele>452</ele>
        <time>2019-02-12T15:51:38.009Z</time>
      </trkpt>
      <trkpt lat="47.74096" lon="5.19649">
        <ele>450</ele>
        <time>2019-02-12T15:51:42.009Z</time>
      </trkpt>
      <trkpt lat="47.74093" lon="5.19643">
        <ele>449.79306666667</ele>
        <time>2019-02-12T15:51:45.009Z</time>
      </trkpt>
      <trkpt lat="47.74091" lon="5.19638">
        <ele>449</ele>
        <time>2019-02-12T15:51:47.009Z</time>
      </trkpt>
      <trkpt lat="47.74091" lon="5.1963">
        <ele>448.48390246019</ele>
        <time>2019-02-12T15:51:51.009Z</time>
      </trkpt>
      <trkpt lat="47.7409" lon="5.19623">
        <ele>447.51720436027</ele>
        <time>2019-02-12T15:51:54.009Z</time>
      </trkpt>
      <trkpt lat="47.74091" lon="5.19617">
        <ele>447</ele>
        <time>2019-02-12T15:51:57.009Z</time>
      </trkpt>
      <trkpt lat="47.74092" lon="5.1961">
        <ele>446.71326506622</ele>
        <time>2019-02-12T15:52:00.009Z</time>
      </trkpt>
      <trkpt lat="47.74092" lon="5.19605">
        <ele>446.20497008614</ele>
        <time>2019-02-12T15:52:03.009Z</time>
      </trkpt>
      <trkpt lat="47.74093" lon="5.19599">
        <ele>446</ele>
        <time>2019-02-12T15:52:06.009Z</time>
      </trkpt>
      <trkpt lat="47.74093" lon="5.19593">
        <ele>446</ele>
        <time>2019-02-12T15:52:09.009Z</time>
      </trkpt>
      <trkpt lat="47.74092" lon="5.19587">
        <ele>445</ele>
        <time>2019-02-12T15:52:12.009Z</time>
      </trkpt>
      <trkpt lat="47.74092" lon="5.1958">
        <ele>445</ele>
        <time>2019-02-12T15:52:15.009Z</time>
      </trkpt>
      <trkpt lat="47.74091" lon="5.19574">
        <ele>445</ele>
        <time>2019-02-12T15:52:18.009Z</time>
      </trkpt>
      <trkpt lat="47.74091" lon="5.19569">
        <ele>443</ele>
        <time>2019-02-12T15:52:21.009Z</time>
      </trkpt>
      <trkpt lat="47.74092" lon="5.19562">
        <ele>443</ele>
        <time>2019-02-12T15:52:24.009Z</time>
      </trkpt>
      <trkpt lat="47.74092" lon="5.19556">
        <ele>443</ele>
        <time>2019-02-12T15:52:28.009Z</time>
      </trkpt>
      <trkpt lat="47.74092" lon="5.1955">
        <ele>442</ele>
        <time>2019-02-12T15:52:31.009Z</time>
      </trkpt>
      <trkpt lat="47.74093" lon="5.19543">
        <ele>442</ele>
        <time>2019-02-12T15:52:34.009Z</time>
      </trkpt>
      <trkpt lat="47.74096" lon="5.19537">
        <ele>442</ele>
        <time>2019-02-12T15:52:37.009Z</time>
      </trkpt>
      <trkpt lat="47.741" lon="5.19532">
        <ele>442</ele>
        <time>2019-02-12T15:52:40.009Z</time>
      </trkpt>
      <trkpt lat="47.74104" lon="5.19531">
        <ele>441</ele>
        <time>2019-02-12T15:52:44.009Z</time>
      </trkpt>
      <trkpt lat="47.74109" lon="5.19532">
        <ele>441</ele>
        <time>2019-02-12T15:52:47.009Z</time>
      </trkpt>
      <trkpt lat="47.74113" lon="5.19533">
        <ele>441</ele>
        <time>2019-02-12T15:52:50.009Z</time>
      </trkpt>
      <trkpt lat="47.74117" lon="5.19532">
        <ele>440</ele>
        <time>2019-02-12T15:52:53.009Z</time>
      </trkpt>
      <trkpt lat="47.74121" lon="5.19533">
        <ele>440</ele>
        <time>2019-02-12T15:52:56.009Z</time>
      </trkpt>
      <trkpt lat="47.74125" lon="5.19533">
        <ele>439.2142072757</ele>
        <time>2019-02-12T15:52:59.009Z</time>
      </trkpt>
      <trkpt lat="47.7413" lon="5.19533">
        <ele>438</ele>
        <time>2019-02-12T15:53:03.009Z</time>
      </trkpt>
      <trkpt lat="47.74135" lon="5.19533">
        <ele>438</ele>
        <time>2019-02-12T15:53:07.009Z</time>
      </trkpt>
      <trkpt lat="47.74139" lon="5.19534">
        <ele>436.76283685051</ele>
        <time>2019-02-12T15:53:10.009Z</time>
      </trkpt>
      <trkpt lat="47.74143" lon="5.19535">
        <ele>436</ele>
        <time>2019-02-12T15:53:14.009Z</time>
      </trkpt>
      <trkpt lat="47.74148" lon="5.19536">
        <ele>436</ele>
        <time>2019-02-12T15:53:18.009Z</time>
      </trkpt>
      <trkpt lat="47.74152" lon="5.19536">
        <ele>436</ele>
        <time>2019-02-12T15:53:21.009Z</time>
      </trkpt>
      <trkpt lat="47.74156" lon="5.19537">
        <ele>436</ele>
        <time>2019-02-12T15:53:24.009Z</time>
      </trkpt>
      <trkpt lat="47.7416" lon="5.19536">
        <ele>436</ele>
        <time>2019-02-12T15:53:27.009Z</time>
      </trkpt>
      <trkpt lat="47.74164" lon="5.19536">
        <ele>436</ele>
        <time>2019-02-12T15:53:31.009Z</time>
      </trkpt>
      <trkpt lat="47.74169" lon="5.19537">
        <ele>435</ele>
        <time>2019-02-12T15:53:35.009Z</time>
      </trkpt>
      <trkpt lat="47.74173" lon="5.19537">
        <ele>435</ele>
        <time>2019-02-12T15:53:39.009Z</time>
      </trkpt>
      <trkpt lat="47.74177" lon="5.19539">
        <ele>434</ele>
        <time>2019-02-12T15:53:43.009Z</time>
      </trkpt>
      <trkpt lat="47.74181" lon="5.19541">
        <ele>434</ele>
        <time>2019-02-12T15:53:46.009Z</time>
      </trkpt>
      <trkpt lat="47.74185" lon="5.19544">
        <ele>434</ele>
        <time>2019-02-12T15:53:49.009Z</time>
      </trkpt>
      <trkpt lat="47.74188" lon="5.19547">
        <ele>434</ele>
        <time>2019-02-12T15:53:52.009Z</time>
      </trkpt>
      <trkpt lat="47.74191" lon="5.1955">
        <ele>432</ele>
        <time>2019-02-12T15:53:55.009Z</time>
      </trkpt>
      <trkpt lat="47.74195" lon="5.19551">
        <ele>432</ele>
        <time>2019-02-12T15:53:58.009Z</time>
      </trkpt>
      <trkpt lat="47.74199" lon="5.19551">
        <ele>432</ele>
        <time>2019-02-12T15:54:02.009Z</time>
      </trkpt>
      <trkpt lat="47.74203" lon="5.1955">
        <ele>430</ele>
        <time>2019-02-12T15:54:05.009Z</time>
      </trkpt>
      <trkpt lat="47.74208" lon="5.19545">
        <ele>430</ele>
        <time>2019-02-12T15:54:26.009Z</time>
      </trkpt>
      <trkpt lat="47.74206" lon="5.19535">
        <ele>429</ele>
        <time>2019-02-12T15:56:49.009Z</time>
      </trkpt>
      <trkpt lat="47.74203" lon="5.19529">
        <ele>429</ele>
        <time>2019-02-12T15:56:51.009Z</time>
      </trkpt>
      <trkpt lat="47.742" lon="5.19522">
        <ele>429</ele>
        <time>2019-02-12T15:56:53.009Z</time>
      </trkpt>
      <trkpt lat="47.74198" lon="5.19518">
        <ele>430</ele>
        <time>2019-02-12T15:56:55.009Z</time>
      </trkpt>
      <trkpt lat="47.74196" lon="5.19513">
        <ele>430</ele>
        <time>2019-02-12T15:56:57.009Z</time>
      </trkpt>
      <trkpt lat="47.74194" lon="5.19508">
        <ele>430</ele>
        <time>2019-02-12T15:56:59.009Z</time>
      </trkpt>
      <trkpt lat="47.74192" lon="5.19504">
        <ele>430</ele>
        <time>2019-02-12T15:57:03.009Z</time>
      </trkpt>
      <trkpt lat="47.74169" lon="5.19442">
        <ele>430</ele>
        <time>2019-02-12T15:57:28.009Z</time>
      </trkpt>
      <trkpt lat="47.74162" lon="5.19427">
        <ele>430</ele>
        <time>2019-02-12T15:57:34.009Z</time>
      </trkpt>
      <trkpt lat="47.74159" lon="5.19422">
        <ele>430</ele>
        <time>2019-02-12T15:57:36.009Z</time>
      </trkpt>
      <trkpt lat="47.74156" lon="5.19416">
        <ele>430</ele>
        <time>2019-02-12T15:57:39.009Z</time>
      </trkpt>
      <trkpt lat="47.74154" lon="5.19411">
        <ele>430</ele>
        <time>2019-02-12T15:57:41.009Z</time>
      </trkpt>
      <trkpt lat="47.74151" lon="5.19407">
        <ele>430</ele>
        <time>2019-02-12T15:57:43.009Z</time>
      </trkpt>
      <trkpt lat="47.74149" lon="5.19403">
        <ele>430</ele>
        <time>2019-02-12T15:57:45.009Z</time>
      </trkpt>
      <trkpt lat="47.74147" lon="5.19398">
        <ele>430</ele>
        <time>2019-02-12T15:57:47.009Z</time>
      </trkpt>
      <trkpt lat="47.74145" lon="5.19393">
        <ele>430</ele>
        <time>2019-02-12T15:57:49.009Z</time>
      </trkpt>
      <trkpt lat="47.74141" lon="5.19387">
        <ele>430</ele>
        <time>2019-02-12T15:57:52.009Z</time>
      </trkpt>
      <trkpt lat="47.74139" lon="5.19382">
        <ele>430</ele>
        <time>2019-02-12T15:57:54.009Z</time>
      </trkpt>
      <trkpt lat="47.74137" lon="5.19377">
        <ele>429.43069996182</ele>
        <time>2019-02-12T15:57:56.009Z</time>
      </trkpt>
      <trkpt lat="47.74134" lon="5.19369">
        <ele>429</ele>
        <time>2019-02-12T15:57:59.009Z</time>
      </trkpt>
      <trkpt lat="47.74132" lon="5.19363">
        <ele>429</ele>
        <time>2019-02-12T15:58:02.009Z</time>
      </trkpt>
      <trkpt lat="47.74129" lon="5.19356">
        <ele>430</ele>
        <time>2019-02-12T15:58:05.009Z</time>
      </trkpt>
      <trkpt lat="47.74126" lon="5.19349">
        <ele>430</ele>
        <time>2019-02-12T15:58:08.009Z</time>
      </trkpt>
      <trkpt lat="47.74124" lon="5.19344">
        <ele>430</ele>
        <time>2019-02-12T15:58:10.009Z</time>
      </trkpt>
      <trkpt lat="47.74123" lon="5.19339">
        <ele>430</ele>
        <time>2019-02-12T15:58:12.009Z</time>
      </trkpt>
      <trkpt lat="47.74121" lon="5.19334">
        <ele>430</ele>
        <time>2019-02-12T15:58:14.009Z</time>
      </trkpt>
      <trkpt lat="47.74119" lon="5.19329">
        <ele>429.2809984</ele>
        <time>2019-02-12T15:58:16.009Z</time>
      </trkpt>
      <trkpt lat="47.74116" lon="5.19325">
        <ele>429</ele>
        <time>2019-02-12T15:58:18.009Z</time>
      </trkpt>
      <trkpt lat="47.74114" lon="5.1932">
        <ele>429</ele>
        <time>2019-02-12T15:58:20.009Z</time>
      </trkpt>
      <trkpt lat="47.74112" lon="5.19315">
        <ele>429</ele>
        <time>2019-02-12T15:58:22.009Z</time>
      </trkpt>
      <trkpt lat="47.7411" lon="5.19311">
        <ele>429</ele>
        <time>2019-02-12T15:58:24.009Z</time>
      </trkpt>
      <trkpt lat="47.74107" lon="5.19304">
        <ele>428.7102166373</ele>
        <time>2019-02-12T15:58:27.009Z</time>
      </trkpt>
      <trkpt lat="47.74105" lon="5.19299">
        <ele>428</ele>
        <time>2019-02-12T15:58:29.009Z</time>
      </trkpt>
      <trkpt lat="47.74103" lon="5.19294">
        <ele>428</ele>
        <time>2019-02-12T15:58:31.009Z</time>
      </trkpt>
      <trkpt lat="47.741" lon="5.19288">
        <ele>428</ele>
        <time>2019-02-12T15:58:34.009Z</time>
      </trkpt>
      <trkpt lat="47.74098" lon="5.19283">
        <ele>428</ele>
        <time>2019-02-12T15:58:36.009Z</time>
      </trkpt>
      <trkpt lat="47.74096" lon="5.19275">
        <ele>428</ele>
        <time>2019-02-12T15:58:39.009Z</time>
      </trkpt>
      <trkpt lat="47.74095" lon="5.1927">
        <ele>428</ele>
        <time>2019-02-12T15:58:41.009Z</time>
      </trkpt>
      <trkpt lat="47.74093" lon="5.19263">
        <ele>428</ele>
        <time>2019-02-12T15:58:44.009Z</time>
      </trkpt>
      <trkpt lat="47.74091" lon="5.19256">
        <ele>428</ele>
        <time>2019-02-12T15:58:47.009Z</time>
      </trkpt>
      <trkpt lat="47.74088" lon="5.1925">
        <ele>428</ele>
        <time>2019-02-12T15:58:50.009Z</time>
      </trkpt>
      <trkpt lat="47.74086" lon="5.19242">
        <ele>428</ele>
        <time>2019-02-12T15:58:53.009Z</time>
      </trkpt>
      <trkpt lat="47.74084" lon="5.19237">
        <ele>428</ele>
        <time>2019-02-12T15:58:56.009Z</time>
      </trkpt>
      <trkpt lat="47.74081" lon="5.1923">
        <ele>427</ele>
        <time>2019-02-12T15:59:00.009Z</time>
      </trkpt>
      <trkpt lat="47.74077" lon="5.19223">
        <ele>427</ele>
        <time>2019-02-12T15:59:04.009Z</time>
      </trkpt>
      <trkpt lat="47.74074" lon="5.19217">
        <ele>427</ele>
        <time>2019-02-12T15:59:07.009Z</time>
      </trkpt>
      <trkpt lat="47.74072" lon="5.19211">
        <ele>427</ele>
        <time>2019-02-12T15:59:10.009Z</time>
      </trkpt>
      <trkpt lat="47.74069" lon="5.19205">
        <ele>427</ele>
        <time>2019-02-12T15:59:13.009Z</time>
      </trkpt>
      <trkpt lat="47.74066" lon="5.19199">
        <ele>427</ele>
        <time>2019-02-12T15:59:16.009Z</time>
      </trkpt>
      <trkpt lat="47.74063" lon="5.19192">
        <ele>427</ele>
        <time>2019-02-12T15:59:19.009Z</time>
      </trkpt>
      <trkpt lat="47.74061" lon="5.19186">
        <ele>427</ele>
        <time>2019-02-12T15:59:22.009Z</time>
      </trkpt>
      <trkpt lat="47.74059" lon="5.19181">
        <ele>427</ele>
        <time>2019-02-12T15:59:24.009Z</time>
      </trkpt>
      <trkpt lat="47.74058" lon="5.19175">
        <ele>427.67282086956</ele>
        <time>2019-02-12T15:59:26.009Z</time>
      </trkpt>
      <trkpt lat="47.74056" lon="5.19167">
        <ele>428</ele>
        <time>2019-02-12T15:59:29.009Z</time>
      </trkpt>
      <trkpt lat="47.74055" lon="5.19162">
        <ele>428</ele>
        <time>2019-02-12T15:59:31.009Z</time>
      </trkpt>
      <trkpt lat="47.74054" lon="5.19155">
        <ele>428</ele>
        <time>2019-02-12T15:59:34.009Z</time>
      </trkpt>
      <trkpt lat="47.74052" lon="5.19149">
        <ele>428</ele>
        <time>2019-02-12T15:59:36.009Z</time>
      </trkpt>
      <trkpt lat="47.74054" lon="5.19143">
        <ele>428</ele>
        <time>2019-02-12T15:59:39.009Z</time>
      </trkpt>
      <trkpt lat="47.74054" lon="5.19138">
        <ele>428</ele>
        <time>2019-02-12T15:59:42.009Z</time>
      </trkpt>
      <trkpt lat="47.74055" lon="5.19131">
        <ele>428</ele>
        <time>2019-02-12T15:59:46.009Z</time>
      </trkpt>
      <trkpt lat="47.74055" lon="5.19125">
        <ele>428.88611555556</ele>
        <time>2019-02-12T15:59:49.009Z</time>
      </trkpt>
      <trkpt lat="47.74055" lon="5.19118">
        <ele>430</ele>
        <time>2019-02-12T15:59:52.009Z</time>
      </trkpt>
      <trkpt lat="47.74055" lon="5.19112">
        <ele>430</ele>
        <time>2019-02-12T15:59:55.009Z</time>
      </trkpt>
      <trkpt lat="47.74055" lon="5.19106">
        <ele>430</ele>
        <time>2019-02-12T15:59:58.009Z</time>
      </trkpt>
      <trkpt lat="47.74055" lon="5.19099">
        <ele>430</ele>
        <time>2019-02-12T16:00:01.009Z</time>
      </trkpt>
      <trkpt lat="47.74055" lon="5.19091">
        <ele>430</ele>
        <time>2019-02-12T16:00:04.009Z</time>
      </trkpt>
      <trkpt lat="47.74056" lon="5.19086">
        <ele>430</ele>
        <time>2019-02-12T16:00:06.009Z</time>
      </trkpt>
      <trkpt lat="47.74058" lon="5.19073">
        <ele>430</ele>
        <time>2019-02-12T16:00:11.009Z</time>
      </trkpt>
      <trkpt lat="47.7406" lon="5.19068">
        <ele>430</ele>
        <time>2019-02-12T16:00:13.009Z</time>
      </trkpt>
      <trkpt lat="47.74063" lon="5.19051">
        <ele>430</ele>
        <time>2019-02-12T16:00:21.009Z</time>
      </trkpt>
      <trkpt lat="47.74064" lon="5.19045">
        <ele>430</ele>
        <time>2019-02-12T16:00:24.009Z</time>
      </trkpt>
      <trkpt lat="47.74065" lon="5.19039">
        <ele>431</ele>
        <time>2019-02-12T16:00:27.009Z</time>
      </trkpt>
      <trkpt lat="47.74066" lon="5.19034">
        <ele>431</ele>
        <time>2019-02-12T16:00:30.009Z</time>
      </trkpt>
      <trkpt lat="47.74067" lon="5.19028">
        <ele>431</ele>
        <time>2019-02-12T16:00:33.009Z</time>
      </trkpt>
      <trkpt lat="47.74068" lon="5.19021">
        <ele>431</ele>
        <time>2019-02-12T16:00:36.009Z</time>
      </trkpt>
      <trkpt lat="47.74069" lon="5.19015">
        <ele>431</ele>
        <time>2019-02-12T16:00:39.009Z</time>
      </trkpt>
      <trkpt lat="47.74071" lon="5.19006">
        <ele>431</ele>
        <time>2019-02-12T16:00:42.009Z</time>
      </trkpt>
      <trkpt lat="47.74071" lon="5.18996">
        <ele>431</ele>
        <time>2019-02-12T16:00:46.009Z</time>
      </trkpt>
      <trkpt lat="47.74071" lon="5.18989">
        <ele>431</ele>
        <time>2019-02-12T16:00:49.009Z</time>
      </trkpt>
      <trkpt lat="47.74071" lon="5.18981">
        <ele>431</ele>
        <time>2019-02-12T16:00:52.009Z</time>
      </trkpt>
      <trkpt lat="47.74071" lon="5.18974">
        <ele>431</ele>
        <time>2019-02-12T16:00:55.009Z</time>
      </trkpt>
      <trkpt lat="47.74071" lon="5.18966">
        <ele>431.56809931035</ele>
        <time>2019-02-12T16:00:58.009Z</time>
      </trkpt>
      <trkpt lat="47.74071" lon="5.1896">
        <ele>432</ele>
        <time>2019-02-12T16:01:00.009Z</time>
      </trkpt>
      <trkpt lat="47.74072" lon="5.18954">
        <ele>432</ele>
        <time>2019-02-12T16:01:02.009Z</time>
      </trkpt>
      <trkpt lat="47.74073" lon="5.18949">
        <ele>432</ele>
        <time>2019-02-12T16:01:04.009Z</time>
      </trkpt>
      <trkpt lat="47.74073" lon="5.18942">
        <ele>432</ele>
        <time>2019-02-12T16:01:07.009Z</time>
      </trkpt>
      <trkpt lat="47.74074" lon="5.18936">
        <ele>432</ele>
        <time>2019-02-12T16:01:10.009Z</time>
      </trkpt>
      <trkpt lat="47.74074" lon="5.1893">
        <ele>432</ele>
        <time>2019-02-12T16:01:13.009Z</time>
      </trkpt>
      <trkpt lat="47.74074" lon="5.18924">
        <ele>433</ele>
        <time>2019-02-12T16:01:16.009Z</time>
      </trkpt>
      <trkpt lat="47.74075" lon="5.18916">
        <ele>433</ele>
        <time>2019-02-12T16:01:19.009Z</time>
      </trkpt>
      <trkpt lat="47.74075" lon="5.18909">
        <ele>433</ele>
        <time>2019-02-12T16:01:22.009Z</time>
      </trkpt>
      <trkpt lat="47.74076" lon="5.18901">
        <ele>433.41727079139</ele>
        <time>2019-02-12T16:01:25.009Z</time>
      </trkpt>
      <trkpt lat="47.74076" lon="5.18895">
        <ele>434</ele>
        <time>2019-02-12T16:01:27.009Z</time>
      </trkpt>
      <trkpt lat="47.74076" lon="5.18889">
        <ele>434</ele>
        <time>2019-02-12T16:01:29.009Z</time>
      </trkpt>
      <trkpt lat="47.74077" lon="5.18882">
        <ele>434</ele>
        <time>2019-02-12T16:01:32.009Z</time>
      </trkpt>
      <trkpt lat="47.74077" lon="5.18873">
        <ele>434</ele>
        <time>2019-02-12T16:01:35.009Z</time>
      </trkpt>
      <trkpt lat="47.74075" lon="5.18868">
        <ele>435</ele>
        <time>2019-02-12T16:01:37.009Z</time>
      </trkpt>
      <trkpt lat="47.74075" lon="5.18861">
        <ele>435</ele>
        <time>2019-02-12T16:01:39.009Z</time>
      </trkpt>
      <trkpt lat="47.74074" lon="5.18855">
        <ele>435</ele>
        <time>2019-02-12T16:01:41.009Z</time>
      </trkpt>
      <trkpt lat="47.74072" lon="5.18848">
        <ele>435</ele>
        <time>2019-02-12T16:01:45.009Z</time>
      </trkpt>
      <trkpt lat="47.74072" lon="5.18843">
        <ele>436</ele>
        <time>2019-02-12T16:01:47.009Z</time>
      </trkpt>
      <trkpt lat="47.74072" lon="5.18836">
        <ele>436</ele>
        <time>2019-02-12T16:01:50.009Z</time>
      </trkpt>
      <trkpt lat="47.74072" lon="5.18828">
        <ele>436</ele>
        <time>2019-02-12T16:01:53.009Z</time>
      </trkpt>
      <trkpt lat="47.74073" lon="5.18821">
        <ele>436.6131571265</ele>
        <time>2019-02-12T16:01:56.009Z</time>
      </trkpt>
      <trkpt lat="47.74073" lon="5.18815">
        <ele>437</ele>
        <time>2019-02-12T16:01:59.009Z</time>
      </trkpt>
      <trkpt lat="47.74073" lon="5.18808">
        <ele>437</ele>
        <time>2019-02-12T16:02:02.009Z</time>
      </trkpt>
      <trkpt lat="47.74072" lon="5.18802">
        <ele>437</ele>
        <time>2019-02-12T16:02:05.009Z</time>
      </trkpt>
      <trkpt lat="47.74073" lon="5.18796">
        <ele>437</ele>
        <time>2019-02-12T16:02:07.009Z</time>
      </trkpt>
      <trkpt lat="47.74073" lon="5.18791">
        <ele>437</ele>
        <time>2019-02-12T16:02:09.009Z</time>
      </trkpt>
      <trkpt lat="47.74074" lon="5.18784">
        <ele>437</ele>
        <time>2019-02-12T16:02:12.009Z</time>
      </trkpt>
      <trkpt lat="47.74076" lon="5.18776">
        <ele>437</ele>
        <time>2019-02-12T16:02:15.009Z</time>
      </trkpt>
      <trkpt lat="47.74078" lon="5.18768">
        <ele>437</ele>
        <time>2019-02-12T16:02:19.009Z</time>
      </trkpt>
      <trkpt lat="47.74079" lon="5.18762">
        <ele>437</ele>
        <time>2019-02-12T16:02:22.009Z</time>
      </trkpt>
      <trkpt lat="47.74081" lon="5.18756">
        <ele>438.27045818182</ele>
        <time>2019-02-12T16:02:25.009Z</time>
      </trkpt>
      <trkpt lat="47.74083" lon="5.18749">
        <ele>439</ele>
        <time>2019-02-12T16:02:28.009Z</time>
      </trkpt>
      <trkpt lat="47.74085" lon="5.18741">
        <ele>439</ele>
        <time>2019-02-12T16:02:32.009Z</time>
      </trkpt>
      <trkpt lat="47.74088" lon="5.18735">
        <ele>439</ele>
        <time>2019-02-12T16:02:35.009Z</time>
      </trkpt>
      <trkpt lat="47.7409" lon="5.18728">
        <ele>441</ele>
        <time>2019-02-12T16:02:38.009Z</time>
      </trkpt>
      <trkpt lat="47.74092" lon="5.18721">
        <ele>441</ele>
        <time>2019-02-12T16:02:41.009Z</time>
      </trkpt>
      <trkpt lat="47.74093" lon="5.18715">
        <ele>441</ele>
        <time>2019-02-12T16:02:44.009Z</time>
      </trkpt>
      <trkpt lat="47.74095" lon="5.18708">
        <ele>441</ele>
        <time>2019-02-12T16:02:47.009Z</time>
      </trkpt>
      <trkpt lat="47.74098" lon="5.18697">
        <ele>440</ele>
        <time>2019-02-12T16:02:52.009Z</time>
      </trkpt>
      <trkpt lat="47.741" lon="5.18691">
        <ele>440.51866263888</ele>
        <time>2019-02-12T16:02:55.009Z</time>
      </trkpt>
      <trkpt lat="47.74103" lon="5.18685">
        <ele>441</ele>
        <time>2019-02-12T16:02:58.009Z</time>
      </trkpt>
      <trkpt lat="47.74105" lon="5.1868">
        <ele>441</ele>
        <time>2019-02-12T16:03:01.009Z</time>
      </trkpt>
      <trkpt lat="47.74109" lon="5.18676">
        <ele>441.56434486443</ele>
        <time>2019-02-12T16:03:04.009Z</time>
      </trkpt>
      <trkpt lat="47.74113" lon="5.1867">
        <ele>442</ele>
        <time>2019-02-12T16:03:09.009Z</time>
      </trkpt>
      <trkpt lat="47.74116" lon="5.18665">
        <ele>442</ele>
        <time>2019-02-12T16:03:13.009Z</time>
      </trkpt>
      <trkpt lat="47.7412" lon="5.18662">
        <ele>443.11311153778</ele>
        <time>2019-02-12T16:03:16.009Z</time>
      </trkpt>
      <trkpt lat="47.74125" lon="5.18657">
        <ele>444</ele>
        <time>2019-02-12T16:03:19.009Z</time>
      </trkpt>
      <trkpt lat="47.7413" lon="5.18652">
        <ele>444</ele>
        <time>2019-02-12T16:03:23.009Z</time>
      </trkpt>
      <trkpt lat="47.74134" lon="5.18649">
        <ele>444</ele>
        <time>2019-02-12T16:03:26.009Z</time>
      </trkpt>
      <trkpt lat="47.74137" lon="5.18646">
        <ele>444</ele>
        <time>2019-02-12T16:03:29.009Z</time>
      </trkpt>
      <trkpt lat="47.74141" lon="5.18641">
        <ele>444</ele>
        <time>2019-02-12T16:03:32.009Z</time>
      </trkpt>
      <trkpt lat="47.74144" lon="5.18638">
        <ele>444</ele>
        <time>2019-02-12T16:03:35.009Z</time>
      </trkpt>
      <trkpt lat="47.74147" lon="5.18634">
        <ele>444</ele>
        <time>2019-02-12T16:03:38.009Z</time>
      </trkpt>
      <trkpt lat="47.74151" lon="5.1863">
        <ele>444.50421051213</ele>
        <time>2019-02-12T16:03:41.009Z</time>
      </trkpt>
      <trkpt lat="47.74154" lon="5.18625">
        <ele>445</ele>
        <time>2019-02-12T16:03:44.009Z</time>
      </trkpt>
      <trkpt lat="47.74156" lon="5.1862">
        <ele>445</ele>
        <time>2019-02-12T16:03:47.009Z</time>
      </trkpt>
      <trkpt lat="47.74158" lon="5.18613">
        <ele>447</ele>
        <time>2019-02-12T16:03:50.009Z</time>
      </trkpt>
      <trkpt lat="47.74161" lon="5.18605">
        <ele>447</ele>
        <time>2019-02-12T16:03:54.009Z</time>
      </trkpt>
      <trkpt lat="47.74162" lon="5.18599">
        <ele>447</ele>
        <time>2019-02-12T16:03:58.009Z</time>
      </trkpt>
      <trkpt lat="47.74164" lon="5.18591">
        <ele>447</ele>
        <time>2019-02-12T16:04:02.009Z</time>
      </trkpt>
      <trkpt lat="47.74166" lon="5.18585">
        <ele>447</ele>
        <time>2019-02-12T16:04:06.009Z</time>
      </trkpt>
      <trkpt lat="47.74167" lon="5.18579">
        <ele>447</ele>
        <time>2019-02-12T16:04:09.009Z</time>
      </trkpt>
      <trkpt lat="47.74168" lon="5.18572">
        <ele>447</ele>
        <time>2019-02-12T16:04:12.009Z</time>
      </trkpt>
      <trkpt lat="47.74168" lon="5.18564">
        <ele>449</ele>
        <time>2019-02-12T16:04:15.009Z</time>
      </trkpt>
      <trkpt lat="47.74169" lon="5.18558">
        <ele>449</ele>
        <time>2019-02-12T16:04:18.009Z</time>
      </trkpt>
      <trkpt lat="47.7417" lon="5.18552">
        <ele>450</ele>
        <time>2019-02-12T16:04:21.009Z</time>
      </trkpt>
      <trkpt lat="47.7417" lon="5.18546">
        <ele>450</ele>
        <time>2019-02-12T16:04:23.009Z</time>
      </trkpt>
      <trkpt lat="47.74172" lon="5.18541">
        <ele>450</ele>
        <time>2019-02-12T16:04:26.009Z</time>
      </trkpt>
      <trkpt lat="47.74173" lon="5.18532">
        <ele>450</ele>
        <time>2019-02-12T16:04:30.009Z</time>
      </trkpt>
      <trkpt lat="47.74175" lon="5.18526">
        <ele>450</ele>
        <time>2019-02-12T16:04:33.009Z</time>
      </trkpt>
      <trkpt lat="47.74176" lon="5.1852">
        <ele>450</ele>
        <time>2019-02-12T16:04:36.009Z</time>
      </trkpt>
      <trkpt lat="47.74177" lon="5.18515">
        <ele>451</ele>
        <time>2019-02-12T16:04:39.009Z</time>
      </trkpt>
      <trkpt lat="47.74178" lon="5.1851">
        <ele>451</ele>
        <time>2019-02-12T16:04:42.009Z</time>
      </trkpt>
      <trkpt lat="47.74179" lon="5.18503">
        <ele>451</ele>
        <time>2019-02-12T16:04:45.009Z</time>
      </trkpt>
      <trkpt lat="47.7418" lon="5.18496">
        <ele>451</ele>
        <time>2019-02-12T16:04:48.009Z</time>
      </trkpt>
      <trkpt lat="47.74181" lon="5.18489">
        <ele>452</ele>
        <time>2019-02-12T16:04:51.009Z</time>
      </trkpt>
      <trkpt lat="47.74182" lon="5.18482">
        <ele>452</ele>
        <time>2019-02-12T16:04:54.009Z</time>
      </trkpt>
      <trkpt lat="47.74183" lon="5.18475">
        <ele>452</ele>
        <time>2019-02-12T16:04:57.009Z</time>
      </trkpt>
      <trkpt lat="47.74184" lon="5.18469">
        <ele>452.67666007708</ele>
        <time>2019-02-12T16:05:00.009Z</time>
      </trkpt>
      <trkpt lat="47.74181" lon="5.18465">
        <ele>453</ele>
        <time>2019-02-12T16:05:05.009Z</time>
      </trkpt>
      <trkpt lat="47.74177" lon="5.18466">
        <ele>453</ele>
        <time>2019-02-12T16:05:09.009Z</time>
      </trkpt>
      <trkpt lat="47.74172" lon="5.18467">
        <ele>453</ele>
        <time>2019-02-12T16:05:12.009Z</time>
      </trkpt>
      <trkpt lat="47.74168" lon="5.18468">
        <ele>453</ele>
        <time>2019-02-12T16:05:15.009Z</time>
      </trkpt>
      <trkpt lat="47.74164" lon="5.18468">
        <ele>453</ele>
        <time>2019-02-12T16:05:19.009Z</time>
      </trkpt>
      <trkpt lat="47.74159" lon="5.18469">
        <ele>453</ele>
        <time>2019-02-12T16:05:23.009Z</time>
      </trkpt>
      <trkpt lat="47.74156" lon="5.18469">
        <ele>453</ele>
        <time>2019-02-12T16:05:26.009Z</time>
      </trkpt>
      <trkpt lat="47.74151" lon="5.18469">
        <ele>455</ele>
        <time>2019-02-12T16:05:30.009Z</time>
      </trkpt>
      <trkpt lat="47.74146" lon="5.18469">
        <ele>455</ele>
        <time>2019-02-12T16:05:33.009Z</time>
      </trkpt>
      <trkpt lat="47.74142" lon="5.18471">
        <ele>456</ele>
        <time>2019-02-12T16:05:37.009Z</time>
      </trkpt>
      <trkpt lat="47.74138" lon="5.18472">
        <ele>456</ele>
        <time>2019-02-12T16:05:40.009Z</time>
      </trkpt>
      <trkpt lat="47.74134" lon="5.18474">
        <ele>456</ele>
        <time>2019-02-12T16:05:43.009Z</time>
      </trkpt>
      <trkpt lat="47.7413" lon="5.18472">
        <ele>456</ele>
        <time>2019-02-12T16:05:46.009Z</time>
      </trkpt>
      <trkpt lat="47.74124" lon="5.18473">
        <ele>456</ele>
        <time>2019-02-12T16:05:50.009Z</time>
      </trkpt>
      <trkpt lat="47.7412" lon="5.18472">
        <ele>456</ele>
        <time>2019-02-12T16:05:53.009Z</time>
      </trkpt>
      <trkpt lat="47.74117" lon="5.18471">
        <ele>457</ele>
        <time>2019-02-12T16:05:56.009Z</time>
      </trkpt>
      <trkpt lat="47.74112" lon="5.1847">
        <ele>457</ele>
        <time>2019-02-12T16:05:59.009Z</time>
      </trkpt>
      <trkpt lat="47.74109" lon="5.18469">
        <ele>457</ele>
        <time>2019-02-12T16:06:02.009Z</time>
      </trkpt>
      <trkpt lat="47.74105" lon="5.18467">
        <ele>457.49417788217</ele>
        <time>2019-02-12T16:06:05.009Z</time>
      </trkpt>
      <trkpt lat="47.74101" lon="5.18467">
        <ele>458</ele>
        <time>2019-02-12T16:06:08.009Z</time>
      </trkpt>
      <trkpt lat="47.74097" lon="5.18465">
        <ele>458</ele>
        <time>2019-02-12T16:06:11.009Z</time>
      </trkpt>
      <trkpt lat="47.74093" lon="5.18462">
        <ele>458</ele>
        <time>2019-02-12T16:06:14.009Z</time>
      </trkpt>
      <trkpt lat="47.74092" lon="5.18457">
        <ele>458</ele>
        <time>2019-02-12T16:06:17.009Z</time>
      </trkpt>
      <trkpt lat="47.7409" lon="5.18452">
        <ele>458</ele>
        <time>2019-02-12T16:06:20.009Z</time>
      </trkpt>
      <trkpt lat="47.74089" lon="5.18445">
        <ele>458</ele>
        <time>2019-02-12T16:06:24.009Z</time>
      </trkpt>
      <trkpt lat="47.74087" lon="5.18438">
        <ele>459</ele>
        <time>2019-02-12T16:06:27.009Z</time>
      </trkpt>
      <trkpt lat="47.74085" lon="5.18432">
        <ele>459</ele>
        <time>2019-02-12T16:06:30.009Z</time>
      </trkpt>
      <trkpt lat="47.74083" lon="5.18428">
        <ele>458</ele>
        <time>2019-02-12T16:06:33.009Z</time>
      </trkpt>
      <trkpt lat="47.74083" lon="5.18421">
        <ele>459</ele>
        <time>2019-02-12T16:06:38.009Z</time>
      </trkpt>
      <trkpt lat="47.74083" lon="5.1842">
        <ele>459</ele>
        <time>2019-02-12T16:06:39.009Z</time>
      </trkpt>
      <trkpt lat="47.74073" lon="5.18395">
        <ele>452.1</ele>
      </trkpt>
      <trkpt lat="47.74073" lon="5.18395">
        <ele>452.1</ele>
      </trkpt>
      <trkpt lat="47.74048" lon="5.18337">
        <ele>457</ele>
        <time>2019-02-12T13:04:11.009Z</time>
      </trkpt>
      <trkpt lat="47.7404" lon="5.18317">
        <ele>456</ele>
        <time>2019-02-12T13:04:25.009Z</time>
      </trkpt>
      <trkpt lat="47.74033" lon="5.18301">
        <ele>456</ele>
        <time>2019-02-12T13:04:35.009Z</time>
      </trkpt>
      <trkpt lat="47.74026" lon="5.1827">
        <ele>455</ele>
        <time>2019-02-12T13:04:55.009Z</time>
      </trkpt>
      <trkpt lat="47.74023" lon="5.18254">
        <ele>456</ele>
        <time>2019-02-12T13:05:24.009Z</time>
      </trkpt>
      <trkpt lat="47.74034" lon="5.18227">
        <ele>456</ele>
        <time>2019-02-12T13:06:09.009Z</time>
      </trkpt>
      <trkpt lat="47.74046" lon="5.18199">
        <ele>450</ele>
      </trkpt>
      <trkpt lat="47.74059" lon="5.18201">
        <ele>455</ele>
        <time>2019-02-12T13:07:07.009Z</time>
      </trkpt>
      <trkpt lat="47.74071" lon="5.1821">
        <ele>456</ele>
        <time>2019-02-12T13:08:04.009Z</time>
      </trkpt>
      <trkpt lat="47.74074" lon="5.18214">
        <ele>456</ele>
        <time>2019-02-12T13:08:07.009Z</time>
      </trkpt>
      <trkpt lat="47.74082" lon="5.18221">
        <ele>456</ele>
        <time>2019-02-12T13:08:13.009Z</time>
      </trkpt>
      <trkpt lat="47.74085" lon="5.18225">
        <ele>456</ele>
        <time>2019-02-12T13:08:16.009Z</time>
      </trkpt>
      <trkpt lat="47.74092" lon="5.18232">
        <ele>456</ele>
        <time>2019-02-12T13:08:22.009Z</time>
      </trkpt>
      <trkpt lat="47.74097" lon="5.18234">
        <ele>456</ele>
        <time>2019-02-12T13:08:25.009Z</time>
      </trkpt>
      <trkpt lat="47.74101" lon="5.18236">
        <ele>456</ele>
        <time>2019-02-12T13:08:28.009Z</time>
      </trkpt>
      <trkpt lat="47.74119" lon="5.1825">
        <ele>456</ele>
        <time>2019-02-12T13:08:45.009Z</time>
      </trkpt>
      <trkpt lat="47.74122" lon="5.18245">
        <ele>456</ele>
        <time>2019-02-12T13:08:51.009Z</time>
      </trkpt>
      <trkpt lat="47.74123" lon="5.18239">
        <ele>456</ele>
        <time>2019-02-12T13:08:55.009Z</time>
      </trkpt>
      <trkpt lat="47.74124" lon="5.18233">
        <ele>456</ele>
        <time>2019-02-12T13:08:58.009Z</time>
      </trkpt>
      <trkpt lat="47.74125" lon="5.18227">
        <ele>456</ele>
        <time>2019-02-12T13:09:01.009Z</time>
      </trkpt>
      <trkpt lat="47.74125" lon="5.18218">
        <ele>456</ele>
        <time>2019-02-12T13:09:05.009Z</time>
      </trkpt>
      <trkpt lat="47.74126" lon="5.18212">
        <ele>456</ele>
        <time>2019-02-12T13:09:08.009Z</time>
      </trkpt>
      <trkpt lat="47.74126" lon="5.18206">
        <ele>456</ele>
        <time>2019-02-12T13:09:11.009Z</time>
      </trkpt>
      <trkpt lat="47.74126" lon="5.18197">
        <ele>456</ele>
        <time>2019-02-12T13:09:15.009Z</time>
      </trkpt>
      <trkpt lat="47.74126" lon="5.1819">
        <ele>456</ele>
        <time>2019-02-12T13:09:18.009Z</time>
      </trkpt>
      <trkpt lat="47.74127" lon="5.18184">
        <ele>456</ele>
        <time>2019-02-12T13:09:21.009Z</time>
      </trkpt>
      <trkpt lat="47.74127" lon="5.18177">
        <ele>456</ele>
        <time>2019-02-12T13:09:24.009Z</time>
      </trkpt>
      <trkpt lat="47.74128" lon="5.18171">
        <ele>456</ele>
        <time>2019-02-12T13:09:27.009Z</time>
      </trkpt>
      <trkpt lat="47.74128" lon="5.18166">
        <ele>456</ele>
        <time>2019-02-12T13:09:30.009Z</time>
      </trkpt>
      <trkpt lat="47.74128" lon="5.1816">
        <ele>456</ele>
        <time>2019-02-12T13:09:33.009Z</time>
      </trkpt>
      <trkpt lat="47.74128" lon="5.18154">
        <ele>456</ele>
        <time>2019-02-12T13:09:36.009Z</time>
      </trkpt>
      <trkpt lat="47.74128" lon="5.18147">
        <ele>456</ele>
        <time>2019-02-12T13:09:39.009Z</time>
      </trkpt>
      <trkpt lat="47.74128" lon="5.1814">
        <ele>456</ele>
        <time>2019-02-12T13:09:42.009Z</time>
      </trkpt>
      <trkpt lat="47.74129" lon="5.18135">
        <ele>456</ele>
        <time>2019-02-12T13:09:45.009Z</time>
      </trkpt>
      <trkpt lat="47.74129" lon="5.1813">
        <ele>456</ele>
        <time>2019-02-12T13:09:48.009Z</time>
      </trkpt>
      <trkpt lat="47.74129" lon="5.18124">
        <ele>456</ele>
        <time>2019-02-12T13:09:51.009Z</time>
      </trkpt>
      <trkpt lat="47.7413" lon="5.18117">
        <ele>456</ele>
        <time>2019-02-12T13:09:54.009Z</time>
      </trkpt>
      <trkpt lat="47.7413" lon="5.18111">
        <ele>456</ele>
        <time>2019-02-12T13:09:57.009Z</time>
      </trkpt>
      <trkpt lat="47.7413" lon="5.18105">
        <ele>456</ele>
        <time>2019-02-12T13:10:00.009Z</time>
      </trkpt>
      <trkpt lat="47.74131" lon="5.18098">
        <ele>456</ele>
        <time>2019-02-12T13:10:03.009Z</time>
      </trkpt>
      <trkpt lat="47.74131" lon="5.18092">
        <ele>456</ele>
        <time>2019-02-12T13:10:06.009Z</time>
      </trkpt>
      <trkpt lat="47.74131" lon="5.18087">
        <ele>456</ele>
        <time>2019-02-12T13:10:09.009Z</time>
      </trkpt>
      <trkpt lat="47.74132" lon="5.18082">
        <ele>456</ele>
        <time>2019-02-12T13:10:12.009Z</time>
      </trkpt>
      <trkpt lat="47.74133" lon="5.18076">
        <ele>456</ele>
        <time>2019-02-12T13:10:15.009Z</time>
      </trkpt>
      <trkpt lat="47.74134" lon="5.18069">
        <ele>456</ele>
        <time>2019-02-12T13:10:18.009Z</time>
      </trkpt>
      <trkpt lat="47.74134" lon="5.18063">
        <ele>456</ele>
        <time>2019-02-12T13:10:21.009Z</time>
      </trkpt>
      <trkpt lat="47.74135" lon="5.18056">
        <ele>456</ele>
        <time>2019-02-12T13:10:24.009Z</time>
      </trkpt>
      <trkpt lat="47.74136" lon="5.1805">
        <ele>456</ele>
        <time>2019-02-12T13:10:27.009Z</time>
      </trkpt>
      <trkpt lat="47.74136" lon="5.18045">
        <ele>456</ele>
        <time>2019-02-12T13:10:30.009Z</time>
      </trkpt>
      <trkpt lat="47.74137" lon="5.18038">
        <ele>456</ele>
        <time>2019-02-12T13:10:33.009Z</time>
      </trkpt>
      <trkpt lat="47.74138" lon="5.18033">
        <ele>461</ele>
        <time>2019-02-12T13:10:36.009Z</time>
      </trkpt>
      <trkpt lat="47.74139" lon="5.18027">
        <ele>461</ele>
        <time>2019-02-12T13:10:39.009Z</time>
      </trkpt>
      <trkpt lat="47.74139" lon="5.18021">
        <ele>461</ele>
        <time>2019-02-12T13:10:42.009Z</time>
      </trkpt>
      <trkpt lat="47.74141" lon="5.18016">
        <ele>461</ele>
        <time>2019-02-12T13:10:45.009Z</time>
      </trkpt>
      <trkpt lat="47.74142" lon="5.1801">
        <ele>461</ele>
        <time>2019-02-12T13:10:48.009Z</time>
      </trkpt>
      <trkpt lat="47.74143" lon="5.18004">
        <ele>461</ele>
        <time>2019-02-12T13:10:51.009Z</time>
      </trkpt>
      <trkpt lat="47.74144" lon="5.17997">
        <ele>461</ele>
        <time>2019-02-12T13:10:55.009Z</time>
      </trkpt>
      <trkpt lat="47.74145" lon="5.17992">
        <ele>463</ele>
        <time>2019-02-12T13:10:58.009Z</time>
      </trkpt>
      <trkpt lat="47.74146" lon="5.17986">
        <ele>463</ele>
        <time>2019-02-12T13:11:01.009Z</time>
      </trkpt>
      <trkpt lat="47.74147" lon="5.1798">
        <ele>462</ele>
        <time>2019-02-12T13:11:04.009Z</time>
      </trkpt>
      <trkpt lat="47.74148" lon="5.17974">
        <ele>462</ele>
        <time>2019-02-12T13:11:07.009Z</time>
      </trkpt>
      <trkpt lat="47.74149" lon="5.17968">
        <ele>462</ele>
        <time>2019-02-12T13:11:10.009Z</time>
      </trkpt>
      <trkpt lat="47.7415" lon="5.17963">
        <ele>462</ele>
        <time>2019-02-12T13:11:13.009Z</time>
      </trkpt>
      <trkpt lat="47.74151" lon="5.17957">
        <ele>462</ele>
        <time>2019-02-12T13:11:16.009Z</time>
      </trkpt>
      <trkpt lat="47.74152" lon="5.17951">
        <ele>462</ele>
        <time>2019-02-12T13:11:19.009Z</time>
      </trkpt>
      <trkpt lat="47.74153" lon="5.17945">
        <ele>462</ele>
        <time>2019-02-12T13:11:22.009Z</time>
      </trkpt>
      <trkpt lat="47.74152" lon="5.17938">
        <ele>462.55566155072</ele>
        <time>2019-02-12T13:11:25.009Z</time>
      </trkpt>
      <trkpt lat="47.74154" lon="5.17933">
        <ele>463</ele>
        <time>2019-02-12T13:11:28.009Z</time>
      </trkpt>
      <trkpt lat="47.74156" lon="5.17927">
        <ele>463</ele>
        <time>2019-02-12T13:11:31.009Z</time>
      </trkpt>
      <trkpt lat="47.74158" lon="5.1792">
        <ele>463</ele>
        <time>2019-02-12T13:11:34.009Z</time>
      </trkpt>
      <trkpt lat="47.7416" lon="5.17915">
        <ele>463</ele>
        <time>2019-02-12T13:11:37.009Z</time>
      </trkpt>
      <trkpt lat="47.74162" lon="5.1791">
        <ele>463</ele>
        <time>2019-02-12T13:11:40.009Z</time>
      </trkpt>
      <trkpt lat="47.74163" lon="5.17904">
        <ele>463</ele>
        <time>2019-02-12T13:11:43.009Z</time>
      </trkpt>
      <trkpt lat="47.74164" lon="5.17899">
        <ele>463</ele>
        <time>2019-02-12T13:11:46.009Z</time>
      </trkpt>
      <trkpt lat="47.74166" lon="5.17893">
        <ele>463</ele>
        <time>2019-02-12T13:11:50.009Z</time>
      </trkpt>
      <trkpt lat="47.74165" lon="5.17887">
        <ele>463</ele>
        <time>2019-02-12T13:11:53.009Z</time>
      </trkpt>
      <trkpt lat="47.74165" lon="5.1788">
        <ele>464</ele>
        <time>2019-02-12T13:11:57.009Z</time>
      </trkpt>
      <trkpt lat="47.74167" lon="5.17873">
        <ele>464</ele>
        <time>2019-02-12T13:12:00.009Z</time>
      </trkpt>
      <trkpt lat="47.74168" lon="5.17868">
        <ele>464</ele>
        <time>2019-02-12T13:12:03.009Z</time>
      </trkpt>
      <trkpt lat="47.7417" lon="5.17862">
        <ele>464</ele>
        <time>2019-02-12T13:12:06.009Z</time>
      </trkpt>
      <trkpt lat="47.74171" lon="5.17856">
        <ele>464</ele>
        <time>2019-02-12T13:12:09.009Z</time>
      </trkpt>
      <trkpt lat="47.74173" lon="5.17851">
        <ele>464</ele>
        <time>2019-02-12T13:12:12.009Z</time>
      </trkpt>
      <trkpt lat="47.74175" lon="5.17845">
        <ele>464</ele>
        <time>2019-02-12T13:12:15.009Z</time>
      </trkpt>
      <trkpt lat="47.74178" lon="5.1784">
        <ele>464</ele>
        <time>2019-02-12T13:12:18.009Z</time>
      </trkpt>
      <trkpt lat="47.7418" lon="5.17833">
        <ele>464</ele>
        <time>2019-02-12T13:12:21.009Z</time>
      </trkpt>
      <trkpt lat="47.74182" lon="5.17826">
        <ele>465</ele>
        <time>2019-02-12T13:12:24.009Z</time>
      </trkpt>
      <trkpt lat="47.74184" lon="5.17821">
        <ele>465</ele>
        <time>2019-02-12T13:12:27.009Z</time>
      </trkpt>
      <trkpt lat="47.74186" lon="5.17815">
        <ele>465</ele>
        <time>2019-02-12T13:12:30.009Z</time>
      </trkpt>
      <trkpt lat="47.74188" lon="5.1781">
        <ele>465</ele>
        <time>2019-02-12T13:12:33.009Z</time>
      </trkpt>
      <trkpt lat="47.74189" lon="5.17803">
        <ele>465</ele>
        <time>2019-02-12T13:12:36.009Z</time>
      </trkpt>
      <trkpt lat="47.74189" lon="5.17798">
        <ele>465</ele>
        <time>2019-02-12T13:12:39.009Z</time>
      </trkpt>
      <trkpt lat="47.7419" lon="5.17792">
        <ele>465</ele>
        <time>2019-02-12T13:12:42.009Z</time>
      </trkpt>
      <trkpt lat="47.74191" lon="5.17787">
        <ele>466</ele>
        <time>2019-02-12T13:12:45.009Z</time>
      </trkpt>
      <trkpt lat="47.74193" lon="5.17782">
        <ele>466</ele>
        <time>2019-02-12T13:12:48.009Z</time>
      </trkpt>
      <trkpt lat="47.74195" lon="5.17775">
        <ele>466</ele>
        <time>2019-02-12T13:12:52.009Z</time>
      </trkpt>
      <trkpt lat="47.74196" lon="5.17769">
        <ele>467</ele>
        <time>2019-02-12T13:12:55.009Z</time>
      </trkpt>
      <trkpt lat="47.74198" lon="5.17763">
        <ele>467</ele>
        <time>2019-02-12T13:12:58.009Z</time>
      </trkpt>
      <trkpt lat="47.742" lon="5.17757">
        <ele>467</ele>
        <time>2019-02-12T13:13:01.009Z</time>
      </trkpt>
      <trkpt lat="47.74202" lon="5.17751">
        <ele>468</ele>
        <time>2019-02-12T13:13:04.009Z</time>
      </trkpt>
      <trkpt lat="47.74203" lon="5.17744">
        <ele>468</ele>
        <time>2019-02-12T13:13:07.009Z</time>
      </trkpt>
      <trkpt lat="47.74205" lon="5.17739">
        <ele>468</ele>
        <time>2019-02-12T13:13:10.009Z</time>
      </trkpt>
      <trkpt lat="47.74205" lon="5.17734">
        <ele>468</ele>
        <time>2019-02-12T13:13:13.009Z</time>
      </trkpt>
      <trkpt lat="47.74205" lon="5.17728">
        <ele>469</ele>
        <time>2019-02-12T13:13:16.009Z</time>
      </trkpt>
      <trkpt lat="47.74206" lon="5.17723">
        <ele>469</ele>
        <time>2019-02-12T13:13:19.009Z</time>
      </trkpt>
      <trkpt lat="47.74208" lon="5.17717">
        <ele>469</ele>
        <time>2019-02-12T13:13:22.009Z</time>
      </trkpt>
      <trkpt lat="47.74209" lon="5.17711">
        <ele>469</ele>
        <time>2019-02-12T13:13:25.009Z</time>
      </trkpt>
      <trkpt lat="47.7421" lon="5.17705">
        <ele>469</ele>
        <time>2019-02-12T13:13:28.009Z</time>
      </trkpt>
      <trkpt lat="47.74212" lon="5.17699">
        <ele>469</ele>
        <time>2019-02-12T13:13:31.009Z</time>
      </trkpt>
      <trkpt lat="47.74212" lon="5.17694">
        <ele>469</ele>
        <time>2019-02-12T13:13:34.009Z</time>
      </trkpt>
      <trkpt lat="47.74214" lon="5.17689">
        <ele>469</ele>
        <time>2019-02-12T13:13:37.009Z</time>
      </trkpt>
      <trkpt lat="47.74215" lon="5.17683">
        <ele>469</ele>
        <time>2019-02-12T13:13:40.009Z</time>
      </trkpt>
      <trkpt lat="47.74217" lon="5.17677">
        <ele>470.14948800166</ele>
        <time>2019-02-12T13:13:43.009Z</time>
      </trkpt>
      <trkpt lat="47.74218" lon="5.17671">
        <ele>471</ele>
        <time>2019-02-12T13:13:46.009Z</time>
      </trkpt>
      <trkpt lat="47.74219" lon="5.17666">
        <ele>471</ele>
        <time>2019-02-12T13:13:49.009Z</time>
      </trkpt>
      <trkpt lat="47.7422" lon="5.1766">
        <ele>471</ele>
        <time>2019-02-12T13:13:52.009Z</time>
      </trkpt>
      <trkpt lat="47.74221" lon="5.17655">
        <ele>471</ele>
        <time>2019-02-12T13:13:55.009Z</time>
      </trkpt>
      <trkpt lat="47.74223" lon="5.17649">
        <ele>471</ele>
        <time>2019-02-12T13:13:58.009Z</time>
      </trkpt>
      <trkpt lat="47.74224" lon="5.17644">
        <ele>471</ele>
        <time>2019-02-12T13:14:01.009Z</time>
      </trkpt>
      <trkpt lat="47.74226" lon="5.17638">
        <ele>473</ele>
        <time>2019-02-12T13:14:04.009Z</time>
      </trkpt>
      <trkpt lat="47.74227" lon="5.17633">
        <ele>473</ele>
        <time>2019-02-12T13:14:07.009Z</time>
      </trkpt>
      <trkpt lat="47.74228" lon="5.17627">
        <ele>473</ele>
        <time>2019-02-12T13:14:10.009Z</time>
      </trkpt>
      <trkpt lat="47.7423" lon="5.17621">
        <ele>473</ele>
        <time>2019-02-12T13:14:13.009Z</time>
      </trkpt>
      <trkpt lat="47.74231" lon="5.17616">
        <ele>474</ele>
        <time>2019-02-12T13:14:18.009Z</time>
      </trkpt>
      <trkpt lat="47.74232" lon="5.1761">
        <ele>474</ele>
        <time>2019-02-12T13:14:21.009Z</time>
      </trkpt>
      <trkpt lat="47.74234" lon="5.17604">
        <ele>474.52230635172</ele>
        <time>2019-02-12T13:14:24.009Z</time>
      </trkpt>
      <trkpt lat="47.74236" lon="5.17598">
        <ele>475</ele>
        <time>2019-02-12T13:14:27.009Z</time>
      </trkpt>
      <trkpt lat="47.74237" lon="5.17592">
        <ele>475.62386909091</ele>
        <time>2019-02-12T13:14:30.009Z</time>
      </trkpt>
      <trkpt lat="47.74238" lon="5.17586">
        <ele>476</ele>
        <time>2019-02-12T13:14:33.009Z</time>
      </trkpt>
      <trkpt lat="47.74239" lon="5.17579">
        <ele>476</ele>
        <time>2019-02-12T13:14:36.009Z</time>
      </trkpt>
      <trkpt lat="47.74241" lon="5.17573">
        <ele>476.60127672842</ele>
        <time>2019-02-12T13:14:39.009Z</time>
      </trkpt>
      <trkpt lat="47.74241" lon="5.17566">
        <ele>477</ele>
        <time>2019-02-12T13:14:42.009Z</time>
      </trkpt>
      <trkpt lat="47.74243" lon="5.1756">
        <ele>477</ele>
        <time>2019-02-12T13:14:45.009Z</time>
      </trkpt>
      <trkpt lat="47.74244" lon="5.17555">
        <ele>477</ele>
        <time>2019-02-12T13:14:48.009Z</time>
      </trkpt>
      <trkpt lat="47.74245" lon="5.17548">
        <ele>477</ele>
        <time>2019-02-12T13:14:52.009Z</time>
      </trkpt>
      <trkpt lat="47.74246" lon="5.17542">
        <ele>477</ele>
        <time>2019-02-12T13:14:55.009Z</time>
      </trkpt>
      <trkpt lat="47.74246" lon="5.17536">
        <ele>477</ele>
        <time>2019-02-12T13:14:58.009Z</time>
      </trkpt>
      <trkpt lat="47.74247" lon="5.1753">
        <ele>479</ele>
        <time>2019-02-12T13:15:01.009Z</time>
      </trkpt>
      <trkpt lat="47.74248" lon="5.17523">
        <ele>478</ele>
        <time>2019-02-12T13:15:04.009Z</time>
      </trkpt>
      <trkpt lat="47.74249" lon="5.17517">
        <ele>478</ele>
        <time>2019-02-12T13:15:07.009Z</time>
      </trkpt>
      <trkpt lat="47.74249" lon="5.17511">
        <ele>478</ele>
        <time>2019-02-12T13:15:10.009Z</time>
      </trkpt>
      <trkpt lat="47.74249" lon="5.17505">
        <ele>478</ele>
        <time>2019-02-12T13:15:13.009Z</time>
      </trkpt>
      <trkpt lat="47.74249" lon="5.175">
        <ele>479.13267692308</ele>
        <time>2019-02-12T13:15:16.009Z</time>
      </trkpt>
      <trkpt lat="47.74249" lon="5.17493">
        <ele>480</ele>
        <time>2019-02-12T13:15:19.009Z</time>
      </trkpt>
      <trkpt lat="47.74249" lon="5.17487">
        <ele>480</ele>
        <time>2019-02-12T13:15:22.009Z</time>
      </trkpt>
      <trkpt lat="47.74248" lon="5.1748">
        <ele>480</ele>
        <time>2019-02-12T13:15:25.009Z</time>
      </trkpt>
      <trkpt lat="47.74248" lon="5.17474">
        <ele>481</ele>
        <time>2019-02-12T13:15:28.009Z</time>
      </trkpt>
      <trkpt lat="47.74248" lon="5.17468">
        <ele>481</ele>
        <time>2019-02-12T13:15:31.009Z</time>
      </trkpt>
      <trkpt lat="47.74248" lon="5.17462">
        <ele>481</ele>
        <time>2019-02-12T13:15:34.009Z</time>
      </trkpt>
      <trkpt lat="47.74248" lon="5.17456">
        <ele>481</ele>
        <time>2019-02-12T13:15:37.009Z</time>
      </trkpt>
      <trkpt lat="47.74247" lon="5.1745">
        <ele>481</ele>
        <time>2019-02-12T13:15:40.009Z</time>
      </trkpt>
      <trkpt lat="47.74247" lon="5.17444">
        <ele>481</ele>
        <time>2019-02-12T13:15:43.009Z</time>
      </trkpt>
      <trkpt lat="47.74247" lon="5.17437">
        <ele>483</ele>
        <time>2019-02-12T13:15:46.009Z</time>
      </trkpt>
      <trkpt lat="47.74247" lon="5.1743">
        <ele>483</ele>
        <time>2019-02-12T13:15:49.009Z</time>
      </trkpt>
      <trkpt lat="47.74247" lon="5.17423">
        <ele>483</ele>
        <time>2019-02-12T13:15:52.009Z</time>
      </trkpt>
      <trkpt lat="47.74247" lon="5.17417">
        <ele>484</ele>
        <time>2019-02-12T13:15:55.009Z</time>
      </trkpt>
      <trkpt lat="47.74247" lon="5.17411">
        <ele>484</ele>
        <time>2019-02-12T13:15:58.009Z</time>
      </trkpt>
      <trkpt lat="47.74248" lon="5.17402">
        <ele>484</ele>
        <time>2019-02-12T13:16:02.009Z</time>
      </trkpt>
      <trkpt lat="47.74248" lon="5.17396">
        <ele>484.40833185185</ele>
        <time>2019-02-12T13:16:05.009Z</time>
      </trkpt>
      <trkpt lat="47.74247" lon="5.1739">
        <ele>484</ele>
        <time>2019-02-12T13:16:08.009Z</time>
      </trkpt>
      <trkpt lat="47.74247" lon="5.17385">
        <ele>484</ele>
        <time>2019-02-12T13:16:11.009Z</time>
      </trkpt>
      <trkpt lat="47.74248" lon="5.17378">
        <ele>484</ele>
        <time>2019-02-12T13:16:14.009Z</time>
      </trkpt>
      <trkpt lat="47.74249" lon="5.17372">
        <ele>484</ele>
        <time>2019-02-12T13:16:17.009Z</time>
      </trkpt>
      <trkpt lat="47.74249" lon="5.17365">
        <ele>484</ele>
        <time>2019-02-12T13:16:20.009Z</time>
      </trkpt>
      <trkpt lat="47.7425" lon="5.17359">
        <ele>484</ele>
        <time>2019-02-12T13:16:23.009Z</time>
      </trkpt>
      <trkpt lat="47.74251" lon="5.17351">
        <ele>486</ele>
        <time>2019-02-12T13:16:27.009Z</time>
      </trkpt>
      <trkpt lat="47.74252" lon="5.17344">
        <ele>486</ele>
        <time>2019-02-12T13:16:30.009Z</time>
      </trkpt>
      <trkpt lat="47.74253" lon="5.17338">
        <ele>486</ele>
        <time>2019-02-12T13:16:33.009Z</time>
      </trkpt>
      <trkpt lat="47.74253" lon="5.17331">
        <ele>487</ele>
        <time>2019-02-12T13:16:36.009Z</time>
      </trkpt>
      <trkpt lat="47.74254" lon="5.17325">
        <ele>487</ele>
        <time>2019-02-12T13:16:39.009Z</time>
      </trkpt>
      <trkpt lat="47.74255" lon="5.17319">
        <ele>487</ele>
        <time>2019-02-12T13:16:42.009Z</time>
      </trkpt>
      <trkpt lat="47.74255" lon="5.17312">
        <ele>487</ele>
        <time>2019-02-12T13:16:45.009Z</time>
      </trkpt>
      <trkpt lat="47.74256" lon="5.17306">
        <ele>487</ele>
        <time>2019-02-12T13:16:48.009Z</time>
      </trkpt>
      <trkpt lat="47.74257" lon="5.173">
        <ele>487</ele>
        <time>2019-02-12T13:16:51.009Z</time>
      </trkpt>
      <trkpt lat="47.74259" lon="5.17294">
        <ele>487</ele>
        <time>2019-02-12T13:16:54.009Z</time>
      </trkpt>
      <trkpt lat="47.7426" lon="5.17288">
        <ele>487</ele>
        <time>2019-02-12T13:16:57.009Z</time>
      </trkpt>
      <trkpt lat="47.74261" lon="5.17281">
        <ele>487.4654110446</ele>
        <time>2019-02-12T13:17:00.009Z</time>
      </trkpt>
      <trkpt lat="47.74262" lon="5.17275">
        <ele>487.5110016</ele>
        <time>2019-02-12T13:17:03.009Z</time>
      </trkpt>
      <trkpt lat="47.74262" lon="5.17269">
        <ele>487</ele>
        <time>2019-02-12T13:17:06.009Z</time>
      </trkpt>
      <trkpt lat="47.74263" lon="5.17263">
        <ele>487</ele>
        <time>2019-02-12T13:17:09.009Z</time>
      </trkpt>
      <trkpt lat="47.74264" lon="5.17257">
        <ele>487</ele>
        <time>2019-02-12T13:17:12.009Z</time>
      </trkpt>
      <trkpt lat="47.74265" lon="5.17251">
        <ele>488</ele>
        <time>2019-02-12T13:17:15.009Z</time>
      </trkpt>
      <trkpt lat="47.74265" lon="5.17245">
        <ele>488</ele>
        <time>2019-02-12T13:17:18.009Z</time>
      </trkpt>
      <trkpt lat="47.74267" lon="5.17237">
        <ele>488</ele>
        <time>2019-02-12T13:17:21.009Z</time>
      </trkpt>
      <trkpt lat="47.74268" lon="5.17231">
        <ele>488</ele>
        <time>2019-02-12T13:17:24.009Z</time>
      </trkpt>
      <trkpt lat="47.7427" lon="5.17224">
        <ele>489</ele>
        <time>2019-02-12T13:17:27.009Z</time>
      </trkpt>
      <trkpt lat="47.74271" lon="5.17218">
        <ele>489</ele>
        <time>2019-02-12T13:17:30.009Z</time>
      </trkpt>
      <trkpt lat="47.74273" lon="5.17212">
        <ele>489</ele>
        <time>2019-02-12T13:17:33.009Z</time>
      </trkpt>
      <trkpt lat="47.74274" lon="5.17205">
        <ele>489</ele>
        <time>2019-02-12T13:17:36.009Z</time>
      </trkpt>
      <trkpt lat="47.74275" lon="5.17199">
        <ele>489</ele>
        <time>2019-02-12T13:17:39.009Z</time>
      </trkpt>
      <trkpt lat="47.74277" lon="5.17193">
        <ele>489</ele>
        <time>2019-02-12T13:17:42.009Z</time>
      </trkpt>
      <trkpt lat="47.74278" lon="5.17187">
        <ele>489</ele>
        <time>2019-02-12T13:17:45.009Z</time>
      </trkpt>
      <trkpt lat="47.7428" lon="5.17181">
        <ele>489</ele>
        <time>2019-02-12T13:17:48.009Z</time>
      </trkpt>
      <trkpt lat="47.74282" lon="5.17175">
        <ele>489</ele>
        <time>2019-02-12T13:17:51.009Z</time>
      </trkpt>
      <trkpt lat="47.74283" lon="5.17169">
        <ele>489</ele>
        <time>2019-02-12T13:17:54.009Z</time>
      </trkpt>
      <trkpt lat="47.74285" lon="5.17163">
        <ele>489</ele>
        <time>2019-02-12T13:17:57.009Z</time>
      </trkpt>
      <trkpt lat="47.74287" lon="5.17157">
        <ele>489</ele>
        <time>2019-02-12T13:18:00.009Z</time>
      </trkpt>
      <trkpt lat="47.74291" lon="5.17147">
        <ele>489</ele>
        <time>2019-02-12T13:18:05.009Z</time>
      </trkpt>
      <trkpt lat="47.74293" lon="5.1714">
        <ele>489</ele>
        <time>2019-02-12T13:18:09.009Z</time>
      </trkpt>
      <trkpt lat="47.74295" lon="5.17134">
        <ele>489</ele>
        <time>2019-02-12T13:18:12.009Z</time>
      </trkpt>
      <trkpt lat="47.74298" lon="5.17129">
        <ele>489</ele>
        <time>2019-02-12T13:18:15.009Z</time>
      </trkpt>
      <trkpt lat="47.743" lon="5.17124">
        <ele>489</ele>
        <time>2019-02-12T13:18:18.009Z</time>
      </trkpt>
      <trkpt lat="47.74303" lon="5.17118">
        <ele>489</ele>
        <time>2019-02-12T13:18:21.009Z</time>
      </trkpt>
      <trkpt lat="47.74305" lon="5.17113">
        <ele>489</ele>
        <time>2019-02-12T13:18:24.009Z</time>
      </trkpt>
      <trkpt lat="47.74308" lon="5.17108">
        <ele>490</ele>
        <time>2019-02-12T13:18:27.009Z</time>
      </trkpt>
      <trkpt lat="47.7431" lon="5.17102">
        <ele>490</ele>
        <time>2019-02-12T13:18:30.009Z</time>
      </trkpt>
      <trkpt lat="47.74313" lon="5.17096">
        <ele>490</ele>
        <time>2019-02-12T13:18:33.009Z</time>
      </trkpt>
      <trkpt lat="47.74315" lon="5.17091">
        <ele>491</ele>
        <time>2019-02-12T13:18:36.009Z</time>
      </trkpt>
      <trkpt lat="47.74318" lon="5.17086">
        <ele>491</ele>
        <time>2019-02-12T13:18:39.009Z</time>
      </trkpt>
      <trkpt lat="47.7432" lon="5.17081">
        <ele>491</ele>
        <time>2019-02-12T13:18:42.009Z</time>
      </trkpt>
      <trkpt lat="47.74323" lon="5.17076">
        <ele>491</ele>
        <time>2019-02-12T13:18:45.009Z</time>
      </trkpt>
      <trkpt lat="47.74325" lon="5.17071">
        <ele>491</ele>
        <time>2019-02-12T13:18:48.009Z</time>
      </trkpt>
      <trkpt lat="47.74328" lon="5.17066">
        <ele>491</ele>
        <time>2019-02-12T13:18:51.009Z</time>
      </trkpt>
      <trkpt lat="47.74331" lon="5.17061">
        <ele>491</ele>
        <time>2019-02-12T13:18:54.009Z</time>
      </trkpt>
      <trkpt lat="47.74335" lon="5.17054">
        <ele>493</ele>
        <time>2019-02-12T13:18:58.009Z</time>
      </trkpt>
      <trkpt lat="47.74337" lon="5.17049">
        <ele>493</ele>
        <time>2019-02-12T13:19:01.009Z</time>
      </trkpt>
      <trkpt lat="47.7434" lon="5.17045">
        <ele>493</ele>
        <time>2019-02-12T13:19:04.009Z</time>
      </trkpt>
      <trkpt lat="47.74344" lon="5.17039">
        <ele>493</ele>
        <time>2019-02-12T13:19:08.009Z</time>
      </trkpt>
      <trkpt lat="47.74347" lon="5.17035">
        <ele>493</ele>
        <time>2019-02-12T13:19:11.009Z</time>
      </trkpt>
      <trkpt lat="47.7435" lon="5.1703">
        <ele>493</ele>
        <time>2019-02-12T13:19:14.009Z</time>
      </trkpt>
      <trkpt lat="47.74353" lon="5.17024">
        <ele>495</ele>
        <time>2019-02-12T13:19:18.009Z</time>
      </trkpt>
      <trkpt lat="47.74356" lon="5.17018">
        <ele>495</ele>
        <time>2019-02-12T13:19:21.009Z</time>
      </trkpt>
      <trkpt lat="47.74359" lon="5.17015">
        <ele>495</ele>
        <time>2019-02-12T13:19:24.009Z</time>
      </trkpt>
      <trkpt lat="47.74363" lon="5.17011">
        <ele>495</ele>
        <time>2019-02-12T13:19:27.009Z</time>
      </trkpt>
      <trkpt lat="47.74366" lon="5.17006">
        <ele>495</ele>
        <time>2019-02-12T13:19:30.009Z</time>
      </trkpt>
      <trkpt lat="47.74369" lon="5.17002">
        <ele>495</ele>
        <time>2019-02-12T13:19:33.009Z</time>
      </trkpt>
      <trkpt lat="47.74372" lon="5.16998">
        <ele>496</ele>
        <time>2019-02-12T13:19:36.009Z</time>
      </trkpt>
      <trkpt lat="47.74376" lon="5.16994">
        <ele>496</ele>
        <time>2019-02-12T13:19:39.009Z</time>
      </trkpt>
      <trkpt lat="47.74379" lon="5.16991">
        <ele>496</ele>
        <time>2019-02-12T13:19:42.009Z</time>
      </trkpt>
      <trkpt lat="47.74382" lon="5.16986">
        <ele>496.62972358999</ele>
        <time>2019-02-12T13:19:45.009Z</time>
      </trkpt>
      <trkpt lat="47.74385" lon="5.16982">
        <ele>497</ele>
        <time>2019-02-12T13:19:48.009Z</time>
      </trkpt>
      <trkpt lat="47.74388" lon="5.16978">
        <ele>497</ele>
        <time>2019-02-12T13:19:51.009Z</time>
      </trkpt>
      <trkpt lat="47.74392" lon="5.16974">
        <ele>497</ele>
        <time>2019-02-12T13:19:54.009Z</time>
      </trkpt>
      <trkpt lat="47.74395" lon="5.1697">
        <ele>497</ele>
        <time>2019-02-12T13:19:57.009Z</time>
      </trkpt>
      <trkpt lat="47.74399" lon="5.16966">
        <ele>497</ele>
        <time>2019-02-12T13:20:00.009Z</time>
      </trkpt>
      <trkpt lat="47.74402" lon="5.1696">
        <ele>498</ele>
        <time>2019-02-12T13:20:03.009Z</time>
      </trkpt>
      <trkpt lat="47.74406" lon="5.16957">
        <ele>498</ele>
        <time>2019-02-12T13:20:06.009Z</time>
      </trkpt>
      <trkpt lat="47.7441" lon="5.16953">
        <ele>498</ele>
        <time>2019-02-12T13:20:09.009Z</time>
      </trkpt>
      <trkpt lat="47.74413" lon="5.16949">
        <ele>498</ele>
        <time>2019-02-12T13:20:12.009Z</time>
      </trkpt>
      <trkpt lat="47.74416" lon="5.16945">
        <ele>499</ele>
        <time>2019-02-12T13:20:15.009Z</time>
      </trkpt>
      <trkpt lat="47.7442" lon="5.16942">
        <ele>499</ele>
        <time>2019-02-12T13:20:18.009Z</time>
      </trkpt>
      <trkpt lat="47.74423" lon="5.16939">
        <ele>499</ele>
        <time>2019-02-12T13:20:21.009Z</time>
      </trkpt>
      <trkpt lat="47.74427" lon="5.16937">
        <ele>499</ele>
        <time>2019-02-12T13:20:24.009Z</time>
      </trkpt>
      <trkpt lat="47.74431" lon="5.16934">
        <ele>499</ele>
        <time>2019-02-12T13:20:27.009Z</time>
      </trkpt>
      <trkpt lat="47.74435" lon="5.16932">
        <ele>499</ele>
        <time>2019-02-12T13:20:30.009Z</time>
      </trkpt>
      <trkpt lat="47.7444" lon="5.16931">
        <ele>499</ele>
        <time>2019-02-12T13:20:33.009Z</time>
      </trkpt>
      <trkpt lat="47.74444" lon="5.1693">
        <ele>498</ele>
        <time>2019-02-12T13:20:36.009Z</time>
      </trkpt>
      <trkpt lat="47.74448" lon="5.16928">
        <ele>498</ele>
        <time>2019-02-12T13:20:39.009Z</time>
      </trkpt>
      <trkpt lat="47.74451" lon="5.16925">
        <ele>498</ele>
        <time>2019-02-12T13:20:42.009Z</time>
      </trkpt>
      <trkpt lat="47.74456" lon="5.16923">
        <ele>498</ele>
        <time>2019-02-12T13:20:45.009Z</time>
      </trkpt>
      <trkpt lat="47.7446" lon="5.16922">
        <ele>498</ele>
        <time>2019-02-12T13:20:48.009Z</time>
      </trkpt>
      <trkpt lat="47.74464" lon="5.1692">
        <ele>498</ele>
        <time>2019-02-12T13:20:51.009Z</time>
      </trkpt>
      <trkpt lat="47.74468" lon="5.16919">
        <ele>498</ele>
        <time>2019-02-12T13:20:54.009Z</time>
      </trkpt>
      <trkpt lat="47.74472" lon="5.16917">
        <ele>498</ele>
        <time>2019-02-12T13:20:57.009Z</time>
      </trkpt>
      <trkpt lat="47.74476" lon="5.16915">
        <ele>498</ele>
        <time>2019-02-12T13:21:00.009Z</time>
      </trkpt>
      <trkpt lat="47.74481" lon="5.16913">
        <ele>497</ele>
        <time>2019-02-12T13:21:03.009Z</time>
      </trkpt>
      <trkpt lat="47.74486" lon="5.16911">
        <ele>497</ele>
        <time>2019-02-12T13:21:07.009Z</time>
      </trkpt>
      <trkpt lat="47.7449" lon="5.1691">
        <ele>497</ele>
        <time>2019-02-12T13:21:10.009Z</time>
      </trkpt>
      <trkpt lat="47.74495" lon="5.16909">
        <ele>497</ele>
        <time>2019-02-12T13:21:13.009Z</time>
      </trkpt>
      <trkpt lat="47.74499" lon="5.16909">
        <ele>497</ele>
        <time>2019-02-12T13:21:16.009Z</time>
      </trkpt>
      <trkpt lat="47.74503" lon="5.1691">
        <ele>497</ele>
        <time>2019-02-12T13:21:19.009Z</time>
      </trkpt>
      <trkpt lat="47.74509" lon="5.16912">
        <ele>497</ele>
        <time>2019-02-12T13:21:23.009Z</time>
      </trkpt>
      <trkpt lat="47.74513" lon="5.16914">
        <ele>497</ele>
        <time>2019-02-12T13:21:26.009Z</time>
      </trkpt>
      <trkpt lat="47.74517" lon="5.16917">
        <ele>497</ele>
        <time>2019-02-12T13:21:29.009Z</time>
      </trkpt>
      <trkpt lat="47.74521" lon="5.16919">
        <ele>497</ele>
        <time>2019-02-12T13:21:32.009Z</time>
      </trkpt>
      <trkpt lat="47.74526" lon="5.16921">
        <ele>497</ele>
        <time>2019-02-12T13:21:35.009Z</time>
      </trkpt>
      <trkpt lat="47.7453" lon="5.16922">
        <ele>497</ele>
        <time>2019-02-12T13:21:38.009Z</time>
      </trkpt>
      <trkpt lat="47.74534" lon="5.16923">
        <ele>497</ele>
        <time>2019-02-12T13:21:41.009Z</time>
      </trkpt>
      <trkpt lat="47.74538" lon="5.16924">
        <ele>497.33809436735</ele>
        <time>2019-02-12T13:21:44.009Z</time>
      </trkpt>
      <trkpt lat="47.74544" lon="5.16926">
        <ele>498</ele>
        <time>2019-02-12T13:21:48.009Z</time>
      </trkpt>
      <trkpt lat="47.74548" lon="5.16927">
        <ele>498</ele>
        <time>2019-02-12T13:21:51.009Z</time>
      </trkpt>
      <trkpt lat="47.74553" lon="5.16927">
        <ele>498</ele>
        <time>2019-02-12T13:21:54.009Z</time>
      </trkpt>
      <trkpt lat="47.74557" lon="5.16928">
        <ele>498</ele>
        <time>2019-02-12T13:21:57.009Z</time>
      </trkpt>
      <trkpt lat="47.74561" lon="5.16928">
        <ele>498</ele>
        <time>2019-02-12T13:22:00.009Z</time>
      </trkpt>
      <trkpt lat="47.74565" lon="5.16928">
        <ele>498.968128</ele>
        <time>2019-02-12T13:22:03.009Z</time>
      </trkpt>
      <trkpt lat="47.74569" lon="5.16928">
        <ele>499</ele>
        <time>2019-02-12T13:22:06.009Z</time>
      </trkpt>
      <trkpt lat="47.74574" lon="5.16929">
        <ele>499</ele>
        <time>2019-02-12T13:22:09.009Z</time>
      </trkpt>
      <trkpt lat="47.74578" lon="5.1693">
        <ele>499</ele>
        <time>2019-02-12T13:22:12.009Z</time>
      </trkpt>
      <trkpt lat="47.74583" lon="5.16931">
        <ele>499</ele>
        <time>2019-02-12T13:22:15.009Z</time>
      </trkpt>
      <trkpt lat="47.74587" lon="5.16932">
        <ele>499</ele>
        <time>2019-02-12T13:22:18.009Z</time>
      </trkpt>
      <trkpt lat="47.74593" lon="5.16931">
        <ele>499</ele>
        <time>2019-02-12T13:22:23.009Z</time>
      </trkpt>
      <trkpt lat="47.74596" lon="5.16929">
        <ele>501</ele>
        <time>2019-02-12T13:22:26.009Z</time>
      </trkpt>
      <trkpt lat="47.746" lon="5.16929">
        <ele>501</ele>
        <time>2019-02-12T13:22:29.009Z</time>
      </trkpt>
      <trkpt lat="47.74605" lon="5.16927">
        <ele>502.28861452713</ele>
        <time>2019-02-12T13:22:33.009Z</time>
      </trkpt>
      <trkpt lat="47.74608" lon="5.16927">
        <ele>503</ele>
        <time>2019-02-12T13:22:36.009Z</time>
      </trkpt>
      <trkpt lat="47.74612" lon="5.16925">
        <ele>503</ele>
        <time>2019-02-12T13:22:40.009Z</time>
      </trkpt>
      <trkpt lat="47.74616" lon="5.16924">
        <ele>503</ele>
        <time>2019-02-12T13:22:43.009Z</time>
      </trkpt>
      <trkpt lat="47.74621" lon="5.16925">
        <ele>505</ele>
        <time>2019-02-12T13:22:46.009Z</time>
      </trkpt>
      <trkpt lat="47.74625" lon="5.16923">
        <ele>505</ele>
        <time>2019-02-12T13:22:49.009Z</time>
      </trkpt>
      <trkpt lat="47.74629" lon="5.16921">
        <ele>505</ele>
        <time>2019-02-12T13:22:52.009Z</time>
      </trkpt>
      <trkpt lat="47.74633" lon="5.16918">
        <ele>505</ele>
        <time>2019-02-12T13:22:56.009Z</time>
      </trkpt>
      <trkpt lat="47.74637" lon="5.16915">
        <ele>505</ele>
        <time>2019-02-12T13:22:59.009Z</time>
      </trkpt>
      <trkpt lat="47.7464" lon="5.16911">
        <ele>505.43135149208</ele>
        <time>2019-02-12T13:23:02.009Z</time>
      </trkpt>
      <trkpt lat="47.74641" lon="5.16906">
        <ele>506</ele>
        <time>2019-02-12T13:23:07.009Z</time>
      </trkpt>
      <trkpt lat="47.74645" lon="5.16901">
        <ele>506</ele>
        <time>2019-02-12T13:23:10.009Z</time>
      </trkpt>
      <trkpt lat="47.74649" lon="5.16899">
        <ele>506</ele>
        <time>2019-02-12T13:23:13.009Z</time>
      </trkpt>
      <trkpt lat="47.74652" lon="5.16896">
        <ele>508</ele>
        <time>2019-02-12T13:23:16.009Z</time>
      </trkpt>
      <trkpt lat="47.74656" lon="5.16892">
        <ele>508.64478666667</ele>
        <time>2019-02-12T13:23:19.009Z</time>
      </trkpt>
      <trkpt lat="47.74661" lon="5.16887">
        <ele>509</ele>
        <time>2019-02-12T13:23:23.009Z</time>
      </trkpt>
      <trkpt lat="47.74665" lon="5.16884">
        <ele>509</ele>
        <time>2019-02-12T13:23:26.009Z</time>
      </trkpt>
      <trkpt lat="47.74669" lon="5.16881">
        <ele>509</ele>
        <time>2019-02-12T13:23:29.009Z</time>
      </trkpt>
      <trkpt lat="47.74673" lon="5.16877">
        <ele>509</ele>
        <time>2019-02-12T13:23:32.009Z</time>
      </trkpt>
      <trkpt lat="47.74678" lon="5.16876">
        <ele>509</ele>
        <time>2019-02-12T13:23:35.009Z</time>
      </trkpt>
      <trkpt lat="47.74681" lon="5.16873">
        <ele>509</ele>
        <time>2019-02-12T13:23:38.009Z</time>
      </trkpt>
      <trkpt lat="47.74684" lon="5.16869">
        <ele>509</ele>
        <time>2019-02-12T13:23:41.009Z</time>
      </trkpt>
      <trkpt lat="47.74689" lon="5.16867">
        <ele>509</ele>
        <time>2019-02-12T13:23:44.009Z</time>
      </trkpt>
      <trkpt lat="47.74693" lon="5.16865">
        <ele>509</ele>
        <time>2019-02-12T13:23:47.009Z</time>
      </trkpt>
      <trkpt lat="47.74698" lon="5.16862">
        <ele>509</ele>
        <time>2019-02-12T13:23:50.009Z</time>
      </trkpt>
      <trkpt lat="47.74701" lon="5.1686">
        <ele>509</ele>
        <time>2019-02-12T13:23:53.009Z</time>
      </trkpt>
      <trkpt lat="47.74705" lon="5.16858">
        <ele>509</ele>
        <time>2019-02-12T13:23:56.009Z</time>
      </trkpt>
      <trkpt lat="47.74708" lon="5.16855">
        <ele>509</ele>
        <time>2019-02-12T13:23:59.009Z</time>
      </trkpt>
      <trkpt lat="47.74714" lon="5.16852">
        <ele>509</ele>
        <time>2019-02-12T13:24:03.009Z</time>
      </trkpt>
      <trkpt lat="47.74719" lon="5.1685">
        <ele>509</ele>
        <time>2019-02-12T13:24:06.009Z</time>
      </trkpt>
      <trkpt lat="47.74723" lon="5.16849">
        <ele>509</ele>
        <time>2019-02-12T13:24:08.009Z</time>
      </trkpt>
      <trkpt lat="47.74726" lon="5.16847">
        <ele>509</ele>
        <time>2019-02-12T13:24:11.009Z</time>
      </trkpt>
      <trkpt lat="47.7473" lon="5.16846">
        <ele>509</ele>
        <time>2019-02-12T13:24:13.009Z</time>
      </trkpt>
      <trkpt lat="47.74734" lon="5.16845">
        <ele>509</ele>
        <time>2019-02-12T13:24:16.009Z</time>
      </trkpt>
      <trkpt lat="47.74738" lon="5.16847">
        <ele>509</ele>
        <time>2019-02-12T13:24:19.009Z</time>
      </trkpt>
      <trkpt lat="47.74742" lon="5.16848">
        <ele>509</ele>
        <time>2019-02-12T13:24:22.009Z</time>
      </trkpt>
      <trkpt lat="47.74746" lon="5.16846">
        <ele>509</ele>
        <time>2019-02-12T13:24:27.009Z</time>
      </trkpt>
      <trkpt lat="47.7475" lon="5.16845">
        <ele>509</ele>
        <time>2019-02-12T13:24:29.009Z</time>
      </trkpt>
      <trkpt lat="47.74754" lon="5.16843">
        <ele>509</ele>
        <time>2019-02-12T13:24:32.009Z</time>
      </trkpt>
      <trkpt lat="47.74759" lon="5.16842">
        <ele>509</ele>
        <time>2019-02-12T13:24:35.009Z</time>
      </trkpt>
      <trkpt lat="47.74764" lon="5.1684">
        <ele>509</ele>
        <time>2019-02-12T13:24:38.009Z</time>
      </trkpt>
      <trkpt lat="47.7477" lon="5.16838">
        <ele>509</ele>
        <time>2019-02-12T13:24:42.009Z</time>
      </trkpt>
      <trkpt lat="47.74774" lon="5.16836">
        <ele>509</ele>
        <time>2019-02-12T13:24:45.009Z</time>
      </trkpt>
      <trkpt lat="47.74778" lon="5.16835">
        <ele>509</ele>
        <time>2019-02-12T13:24:48.009Z</time>
      </trkpt>
      <trkpt lat="47.74784" lon="5.16833">
        <ele>509</ele>
        <time>2019-02-12T13:24:51.009Z</time>
      </trkpt>
      <trkpt lat="47.74788" lon="5.16833">
        <ele>509</ele>
        <time>2019-02-12T13:24:53.009Z</time>
      </trkpt>
      <trkpt lat="47.74792" lon="5.16833">
        <ele>509</ele>
        <time>2019-02-12T13:24:56.009Z</time>
      </trkpt>
      <trkpt lat="47.74797" lon="5.16834">
        <ele>509</ele>
        <time>2019-02-12T13:24:59.009Z</time>
      </trkpt>
      <trkpt lat="47.74801" lon="5.16833">
        <ele>509</ele>
        <time>2019-02-12T13:25:02.009Z</time>
      </trkpt>
      <trkpt lat="47.74806" lon="5.16832">
        <ele>509</ele>
        <time>2019-02-12T13:25:06.009Z</time>
      </trkpt>
      <trkpt lat="47.7481" lon="5.1683">
        <ele>509</ele>
        <time>2019-02-12T13:25:10.009Z</time>
      </trkpt>
      <trkpt lat="47.74814" lon="5.1683">
        <ele>509</ele>
        <time>2019-02-12T13:25:13.009Z</time>
      </trkpt>
      <trkpt lat="47.74819" lon="5.16831">
        <ele>508</ele>
        <time>2019-02-12T13:25:16.009Z</time>
      </trkpt>
      <trkpt lat="47.74822" lon="5.1683">
        <ele>508</ele>
        <time>2019-02-12T13:25:20.009Z</time>
      </trkpt>
      <trkpt lat="47.74827" lon="5.16829">
        <ele>508</ele>
        <time>2019-02-12T13:25:23.009Z</time>
      </trkpt>
      <trkpt lat="47.74831" lon="5.16828">
        <ele>509</ele>
        <time>2019-02-12T13:25:26.009Z</time>
      </trkpt>
      <trkpt lat="47.74836" lon="5.16827">
        <ele>509</ele>
        <time>2019-02-12T13:25:29.009Z</time>
      </trkpt>
      <trkpt lat="47.74839" lon="5.16827">
        <ele>509</ele>
        <time>2019-02-12T13:25:31.009Z</time>
      </trkpt>
      <trkpt lat="47.74845" lon="5.16827">
        <ele>509</ele>
        <time>2019-02-12T13:25:34.009Z</time>
      </trkpt>
      <trkpt lat="47.74852" lon="5.1683">
        <ele>509</ele>
        <time>2019-02-12T13:25:39.009Z</time>
      </trkpt>
      <trkpt lat="47.74855" lon="5.16834">
        <ele>509</ele>
        <time>2019-02-12T13:25:43.009Z</time>
      </trkpt>
      <trkpt lat="47.74858" lon="5.16837">
        <ele>509</ele>
        <time>2019-02-12T13:25:46.009Z</time>
      </trkpt>
      <trkpt lat="47.74863" lon="5.16841">
        <ele>509</ele>
        <time>2019-02-12T13:25:49.009Z</time>
      </trkpt>
      <trkpt lat="47.74867" lon="5.16845">
        <ele>509</ele>
        <time>2019-02-12T13:25:51.009Z</time>
      </trkpt>
      <trkpt lat="47.74871" lon="5.16847">
        <ele>509</ele>
        <time>2019-02-12T13:25:53.009Z</time>
      </trkpt>
      <trkpt lat="47.74874" lon="5.16848">
        <ele>509</ele>
        <time>2019-02-12T13:25:55.009Z</time>
      </trkpt>
      <trkpt lat="47.74879" lon="5.1685">
        <ele>509</ele>
        <time>2019-02-12T13:25:59.009Z</time>
      </trkpt>
      <trkpt lat="47.74882" lon="5.16852">
        <ele>509</ele>
        <time>2019-02-12T13:26:01.009Z</time>
      </trkpt>
      <trkpt lat="47.74887" lon="5.16853">
        <ele>509</ele>
        <time>2019-02-12T13:26:04.009Z</time>
      </trkpt>
      <trkpt lat="47.74891" lon="5.16855">
        <ele>509</ele>
        <time>2019-02-12T13:26:07.009Z</time>
      </trkpt>
      <trkpt lat="47.74894" lon="5.16857">
        <ele>509</ele>
        <time>2019-02-12T13:26:10.009Z</time>
      </trkpt>
      <trkpt lat="47.74899" lon="5.16857">
        <ele>509</ele>
        <time>2019-02-12T13:26:13.009Z</time>
      </trkpt>
      <trkpt lat="47.74903" lon="5.16857">
        <ele>509</ele>
        <time>2019-02-12T13:26:16.009Z</time>
      </trkpt>
      <trkpt lat="47.74907" lon="5.16856">
        <ele>509</ele>
        <time>2019-02-12T13:26:18.009Z</time>
      </trkpt>
      <trkpt lat="47.74911" lon="5.16857">
        <ele>509</ele>
        <time>2019-02-12T13:26:20.009Z</time>
      </trkpt>
      <trkpt lat="47.74914" lon="5.16858">
        <ele>509</ele>
        <time>2019-02-12T13:26:24.009Z</time>
      </trkpt>
      <trkpt lat="47.74918" lon="5.16859">
        <ele>509</ele>
        <time>2019-02-12T13:26:27.009Z</time>
      </trkpt>
      <trkpt lat="47.74922" lon="5.16859">
        <ele>509</ele>
        <time>2019-02-12T13:26:30.009Z</time>
      </trkpt>
      <trkpt lat="47.74926" lon="5.16861">
        <ele>509</ele>
        <time>2019-02-12T13:26:34.009Z</time>
      </trkpt>
      <trkpt lat="47.7493" lon="5.16862">
        <ele>509</ele>
        <time>2019-02-12T13:26:38.009Z</time>
      </trkpt>
      <trkpt lat="47.74934" lon="5.16865">
        <ele>509</ele>
        <time>2019-02-12T13:26:42.009Z</time>
      </trkpt>
      <trkpt lat="47.74933" lon="5.16871">
        <ele>509</ele>
        <time>2019-02-12T13:26:44.009Z</time>
      </trkpt>
      <trkpt lat="47.74933" lon="5.16876">
        <ele>509</ele>
        <time>2019-02-12T13:26:47.009Z</time>
      </trkpt>
      <trkpt lat="47.74934" lon="5.16882">
        <ele>509</ele>
        <time>2019-02-12T13:26:50.009Z</time>
      </trkpt>
      <trkpt lat="47.74938" lon="5.16885">
        <ele>510.68315390938</ele>
        <time>2019-02-12T13:26:54.009Z</time>
      </trkpt>
      <trkpt lat="47.74941" lon="5.16881">
        <ele>511</ele>
        <time>2019-02-12T13:26:58.009Z</time>
      </trkpt>
      <trkpt lat="47.74944" lon="5.16877">
        <ele>511</ele>
        <time>2019-02-12T13:27:01.009Z</time>
      </trkpt>
      <trkpt lat="47.74948" lon="5.16876">
        <ele>511</ele>
        <time>2019-02-12T13:27:04.009Z</time>
      </trkpt>
      <trkpt lat="47.74952" lon="5.16875">
        <ele>511</ele>
        <time>2019-02-12T13:27:07.009Z</time>
      </trkpt>
      <trkpt lat="47.74953" lon="5.1687">
        <ele>511</ele>
        <time>2019-02-12T13:27:13.009Z</time>
      </trkpt>
      <trkpt lat="47.74954" lon="5.16864">
        <ele>511</ele>
        <time>2019-02-12T13:27:16.009Z</time>
      </trkpt>
      <trkpt lat="47.74958" lon="5.16861">
        <ele>511</ele>
        <time>2019-02-12T13:27:19.009Z</time>
      </trkpt>
      <trkpt lat="47.74961" lon="5.1686">
        <ele>511</ele>
        <time>2019-02-12T13:27:21.009Z</time>
      </trkpt>
      <trkpt lat="47.74965" lon="5.16858">
        <ele>511</ele>
        <time>2019-02-12T13:27:24.009Z</time>
      </trkpt>
      <trkpt lat="47.74969" lon="5.16858">
        <ele>511</ele>
        <time>2019-02-12T13:27:27.009Z</time>
      </trkpt>
      <trkpt lat="47.74973" lon="5.16857">
        <ele>511</ele>
        <time>2019-02-12T13:27:31.009Z</time>
      </trkpt>
      <trkpt lat="47.74978" lon="5.16854">
        <ele>511</ele>
        <time>2019-02-12T13:27:35.009Z</time>
      </trkpt>
      <trkpt lat="47.74981" lon="5.16851">
        <ele>511</ele>
        <time>2019-02-12T13:27:39.009Z</time>
      </trkpt>
      <trkpt lat="47.74985" lon="5.1685">
        <ele>511</ele>
        <time>2019-02-12T13:27:42.009Z</time>
      </trkpt>
      <trkpt lat="47.74989" lon="5.16849">
        <ele>511</ele>
        <time>2019-02-12T13:27:45.009Z</time>
      </trkpt>
      <trkpt lat="47.74994" lon="5.16847">
        <ele>511</ele>
        <time>2019-02-12T13:27:49.009Z</time>
      </trkpt>
      <trkpt lat="47.74997" lon="5.16842">
        <ele>511</ele>
        <time>2019-02-12T13:27:52.009Z</time>
      </trkpt>
      <trkpt lat="47.75001" lon="5.16838">
        <ele>510.30214985686</ele>
        <time>2019-02-12T13:27:55.009Z</time>
      </trkpt>
      <trkpt lat="47.75005" lon="5.16835">
        <ele>510</ele>
        <time>2019-02-12T13:27:58.009Z</time>
      </trkpt>
      <trkpt lat="47.75009" lon="5.16831">
        <ele>510</ele>
        <time>2019-02-12T13:28:02.009Z</time>
      </trkpt>
      <trkpt lat="47.75012" lon="5.16829">
        <ele>510</ele>
        <time>2019-02-12T13:28:07.009Z</time>
      </trkpt>
      <trkpt lat="47.75016" lon="5.16827">
        <ele>510</ele>
        <time>2019-02-12T13:28:11.009Z</time>
      </trkpt>
      <trkpt lat="47.7502" lon="5.16823">
        <ele>510</ele>
        <time>2019-02-12T13:28:14.009Z</time>
      </trkpt>
      <trkpt lat="47.75024" lon="5.16821">
        <ele>510</ele>
        <time>2019-02-12T13:28:16.009Z</time>
      </trkpt>
      <trkpt lat="47.75027" lon="5.16817">
        <ele>510</ele>
        <time>2019-02-12T13:28:19.009Z</time>
      </trkpt>
      <trkpt lat="47.75031" lon="5.16814">
        <ele>510</ele>
        <time>2019-02-12T13:28:22.009Z</time>
      </trkpt>
      <trkpt lat="47.75035" lon="5.16813">
        <ele>510</ele>
        <time>2019-02-12T13:28:26.009Z</time>
      </trkpt>
      <trkpt lat="47.75041" lon="5.16813">
        <ele>510</ele>
        <time>2019-02-12T13:28:30.009Z</time>
      </trkpt>
      <trkpt lat="47.75046" lon="5.16812">
        <ele>510</ele>
        <time>2019-02-12T13:28:33.009Z</time>
      </trkpt>
      <trkpt lat="47.75051" lon="5.16813">
        <ele>510</ele>
        <time>2019-02-12T13:28:37.009Z</time>
      </trkpt>
      <trkpt lat="47.75054" lon="5.16813">
        <ele>510</ele>
        <time>2019-02-12T13:28:40.009Z</time>
      </trkpt>
      <trkpt lat="47.75059" lon="5.16812">
        <ele>510</ele>
        <time>2019-02-12T13:28:43.009Z</time>
      </trkpt>
      <trkpt lat="47.75064" lon="5.16814">
        <ele>510</ele>
        <time>2019-02-12T13:28:46.009Z</time>
      </trkpt>
      <trkpt lat="47.7507" lon="5.16815">
        <ele>510</ele>
        <time>2019-02-12T13:28:50.009Z</time>
      </trkpt>
      <trkpt lat="47.75074" lon="5.16815">
        <ele>510</ele>
        <time>2019-02-12T13:28:53.009Z</time>
      </trkpt>
      <trkpt lat="47.75078" lon="5.16814">
        <ele>510</ele>
        <time>2019-02-12T13:28:56.009Z</time>
      </trkpt>
      <trkpt lat="47.75083" lon="5.16814">
        <ele>510</ele>
        <time>2019-02-12T13:29:00.009Z</time>
      </trkpt>
      <trkpt lat="47.75087" lon="5.16815">
        <ele>510</ele>
        <time>2019-02-12T13:29:02.009Z</time>
      </trkpt>
      <trkpt lat="47.75092" lon="5.16816">
        <ele>509</ele>
        <time>2019-02-12T13:29:05.009Z</time>
      </trkpt>
      <trkpt lat="47.75095" lon="5.16818">
        <ele>509</ele>
        <time>2019-02-12T13:29:08.009Z</time>
      </trkpt>
      <trkpt lat="47.75099" lon="5.16819">
        <ele>509</ele>
        <time>2019-02-12T13:29:12.009Z</time>
      </trkpt>
      <trkpt lat="47.75104" lon="5.16819">
        <ele>509</ele>
        <time>2019-02-12T13:29:15.009Z</time>
      </trkpt>
      <trkpt lat="47.75107" lon="5.16821">
        <ele>509</ele>
        <time>2019-02-12T13:29:17.009Z</time>
      </trkpt>
      <trkpt lat="47.75111" lon="5.16824">
        <ele>509</ele>
        <time>2019-02-12T13:29:19.009Z</time>
      </trkpt>
      <trkpt lat="47.75114" lon="5.16829">
        <ele>509</ele>
        <time>2019-02-12T13:29:22.009Z</time>
      </trkpt>
      <trkpt lat="47.75116" lon="5.16833">
        <ele>509.50412372494</ele>
        <time>2019-02-12T13:29:25.009Z</time>
      </trkpt>
      <trkpt lat="47.75119" lon="5.16837">
        <ele>510</ele>
        <time>2019-02-12T13:29:28.009Z</time>
      </trkpt>
      <trkpt lat="47.75123" lon="5.1684">
        <ele>510</ele>
        <time>2019-02-12T13:29:30.009Z</time>
      </trkpt>
      <trkpt lat="47.75126" lon="5.16843">
        <ele>510</ele>
        <time>2019-02-12T13:29:33.009Z</time>
      </trkpt>
      <trkpt lat="47.7513" lon="5.16846">
        <ele>509</ele>
        <time>2019-02-12T13:29:36.009Z</time>
      </trkpt>
      <trkpt lat="47.75133" lon="5.16849">
        <ele>509</ele>
        <time>2019-02-12T13:29:40.009Z</time>
      </trkpt>
      <trkpt lat="47.75137" lon="5.16854">
        <ele>508.40724594665</ele>
        <time>2019-02-12T13:29:44.009Z</time>
      </trkpt>
      <trkpt lat="47.75141" lon="5.16859">
        <ele>508</ele>
        <time>2019-02-12T13:29:49.009Z</time>
      </trkpt>
      <trkpt lat="47.75144" lon="5.16864">
        <ele>508</ele>
        <time>2019-02-12T13:29:53.009Z</time>
      </trkpt>
      <trkpt lat="47.75148" lon="5.16864">
        <ele>508</ele>
        <time>2019-02-12T13:29:56.009Z</time>
      </trkpt>
      <trkpt lat="47.75152" lon="5.16867">
        <ele>508</ele>
        <time>2019-02-12T13:29:59.009Z</time>
      </trkpt>
      <trkpt lat="47.75157" lon="5.16871">
        <ele>508</ele>
        <time>2019-02-12T13:30:02.009Z</time>
      </trkpt>
      <trkpt lat="47.75161" lon="5.16875">
        <ele>508</ele>
        <time>2019-02-12T13:30:05.009Z</time>
      </trkpt>
      <trkpt lat="47.75163" lon="5.1688">
        <ele>508</ele>
        <time>2019-02-12T13:30:08.009Z</time>
      </trkpt>
      <trkpt lat="47.75167" lon="5.1688">
        <ele>508</ele>
        <time>2019-02-12T13:30:12.009Z</time>
      </trkpt>
      <trkpt lat="47.75173" lon="5.1688">
        <ele>507.44428393798</ele>
        <time>2019-02-12T13:30:16.009Z</time>
      </trkpt>
      <trkpt lat="47.75177" lon="5.16882">
        <ele>507</ele>
        <time>2019-02-12T13:30:19.009Z</time>
      </trkpt>
      <trkpt lat="47.75181" lon="5.16885">
        <ele>507</ele>
        <time>2019-02-12T13:30:23.009Z</time>
      </trkpt>
      <trkpt lat="47.75183" lon="5.16889">
        <ele>508</ele>
        <time>2019-02-12T13:30:27.009Z</time>
      </trkpt>
      <trkpt lat="47.75186" lon="5.16892">
        <ele>508</ele>
        <time>2019-02-12T13:30:31.009Z</time>
      </trkpt>
      <trkpt lat="47.75189" lon="5.16897">
        <ele>508</ele>
        <time>2019-02-12T13:30:36.009Z</time>
      </trkpt>
      <trkpt lat="47.75193" lon="5.169">
        <ele>508</ele>
        <time>2019-02-12T13:30:41.009Z</time>
      </trkpt>
      <trkpt lat="47.75197" lon="5.169">
        <ele>508</ele>
        <time>2019-02-12T13:30:45.009Z</time>
      </trkpt>
      <trkpt lat="47.75202" lon="5.169">
        <ele>508</ele>
        <time>2019-02-12T13:30:48.009Z</time>
      </trkpt>
      <trkpt lat="47.75207" lon="5.16898">
        <ele>508</ele>
        <time>2019-02-12T13:30:51.009Z</time>
      </trkpt>
      <trkpt lat="47.75211" lon="5.16898">
        <ele>508</ele>
        <time>2019-02-12T13:30:54.009Z</time>
      </trkpt>
      <trkpt lat="47.75214" lon="5.16901">
        <ele>508</ele>
        <time>2019-02-12T13:30:58.009Z</time>
      </trkpt>
      <trkpt lat="47.75216" lon="5.16909">
        <ele>508</ele>
        <time>2019-02-12T13:31:02.009Z</time>
      </trkpt>
      <trkpt lat="47.75218" lon="5.16916">
        <ele>509</ele>
        <time>2019-02-12T13:31:05.009Z</time>
      </trkpt>
      <trkpt lat="47.7522" lon="5.16923">
        <ele>509</ele>
        <time>2019-02-12T13:31:08.009Z</time>
      </trkpt>
      <trkpt lat="47.7522" lon="5.16928">
        <ele>509</ele>
        <time>2019-02-12T13:31:10.009Z</time>
      </trkpt>
      <trkpt lat="47.75221" lon="5.16934">
        <ele>509</ele>
        <time>2019-02-12T13:31:13.009Z</time>
      </trkpt>
      <trkpt lat="47.75221" lon="5.16942">
        <ele>509</ele>
        <time>2019-02-12T13:31:17.009Z</time>
      </trkpt>
      <trkpt lat="47.75221" lon="5.16948">
        <ele>509</ele>
        <time>2019-02-12T13:31:21.009Z</time>
      </trkpt>
      <trkpt lat="47.75223" lon="5.16954">
        <ele>509</ele>
        <time>2019-02-12T13:31:24.009Z</time>
      </trkpt>
      <trkpt lat="47.75224" lon="5.16959">
        <ele>509</ele>
        <time>2019-02-12T13:31:27.009Z</time>
      </trkpt>
      <trkpt lat="47.75225" lon="5.16964">
        <ele>509</ele>
        <time>2019-02-12T13:31:30.009Z</time>
      </trkpt>
      <trkpt lat="47.75224" lon="5.1697">
        <ele>509</ele>
        <time>2019-02-12T13:31:33.009Z</time>
      </trkpt>
      <trkpt lat="47.75223" lon="5.16976">
        <ele>511</ele>
        <time>2019-02-12T13:31:37.009Z</time>
      </trkpt>
      <trkpt lat="47.75224" lon="5.16982">
        <ele>511</ele>
        <time>2019-02-12T13:31:40.009Z</time>
      </trkpt>
      <trkpt lat="47.75227" lon="5.16987">
        <ele>511</ele>
        <time>2019-02-12T13:31:43.009Z</time>
      </trkpt>
      <trkpt lat="47.75228" lon="5.16994">
        <ele>512</ele>
        <time>2019-02-12T13:31:47.009Z</time>
      </trkpt>
      <trkpt lat="47.75229" lon="5.17">
        <ele>512</ele>
        <time>2019-02-12T13:31:50.009Z</time>
      </trkpt>
      <trkpt lat="47.75229" lon="5.17007">
        <ele>512</ele>
        <time>2019-02-12T13:31:53.009Z</time>
      </trkpt>
      <trkpt lat="47.7523" lon="5.17013">
        <ele>512</ele>
        <time>2019-02-12T13:31:56.009Z</time>
      </trkpt>
      <trkpt lat="47.75232" lon="5.17019">
        <ele>512</ele>
        <time>2019-02-12T13:31:59.009Z</time>
      </trkpt>
      <trkpt lat="47.75232" lon="5.17025">
        <ele>512</ele>
        <time>2019-02-12T13:32:02.009Z</time>
      </trkpt>
      <trkpt lat="47.75233" lon="5.17031">
        <ele>512</ele>
        <time>2019-02-12T13:32:05.009Z</time>
      </trkpt>
      <trkpt lat="47.75233" lon="5.17036">
        <ele>512</ele>
        <time>2019-02-12T13:32:08.009Z</time>
      </trkpt>
      <trkpt lat="47.75234" lon="5.17043">
        <ele>512</ele>
        <time>2019-02-12T13:32:12.009Z</time>
      </trkpt>
      <trkpt lat="47.75235" lon="5.17048">
        <ele>512</ele>
        <time>2019-02-12T13:32:15.009Z</time>
      </trkpt>
      <trkpt lat="47.75235" lon="5.17053">
        <ele>512</ele>
        <time>2019-02-12T13:32:18.009Z</time>
      </trkpt>
      <trkpt lat="47.75236" lon="5.17063">
        <ele>512</ele>
        <time>2019-02-12T13:32:23.009Z</time>
      </trkpt>
      <trkpt lat="47.75237" lon="5.17068">
        <ele>512</ele>
        <time>2019-02-12T13:32:26.009Z</time>
      </trkpt>
      <trkpt lat="47.75238" lon="5.17075">
        <ele>512</ele>
        <time>2019-02-12T13:32:29.009Z</time>
      </trkpt>
      <trkpt lat="47.75239" lon="5.17082">
        <ele>512</ele>
        <time>2019-02-12T13:32:32.009Z</time>
      </trkpt>
      <trkpt lat="47.7524" lon="5.17087">
        <ele>512</ele>
        <time>2019-02-12T13:32:35.009Z</time>
      </trkpt>
      <trkpt lat="47.75241" lon="5.17093">
        <ele>512</ele>
        <time>2019-02-12T13:32:38.009Z</time>
      </trkpt>
      <trkpt lat="47.75243" lon="5.17099">
        <ele>512</ele>
        <time>2019-02-12T13:32:41.009Z</time>
      </trkpt>
      <trkpt lat="47.75262" lon="5.17089">
        <ele>513</ele>
        <time>2019-02-12T13:38:01.009Z</time>
      </trkpt>
      <trkpt lat="47.75277" lon="5.17081">
        <ele>513</ele>
        <time>2019-02-12T13:38:10.009Z</time>
      </trkpt>
      <trkpt lat="47.75285" lon="5.17076">
        <ele>513</ele>
        <time>2019-02-12T13:38:16.009Z</time>
      </trkpt>
      <trkpt lat="47.75289" lon="5.17074">
        <ele>513</ele>
        <time>2019-02-12T13:38:19.009Z</time>
      </trkpt>
      <trkpt lat="47.75294" lon="5.17074">
        <ele>513</ele>
        <time>2019-02-12T13:38:22.009Z</time>
      </trkpt>
      <trkpt lat="47.75299" lon="5.17074">
        <ele>513</ele>
        <time>2019-02-12T13:38:25.009Z</time>
      </trkpt>
      <trkpt lat="47.75304" lon="5.17073">
        <ele>512</ele>
        <time>2019-02-12T13:38:28.009Z</time>
      </trkpt>
      <trkpt lat="47.75309" lon="5.17071">
        <ele>512</ele>
        <time>2019-02-12T13:38:31.009Z</time>
      </trkpt>
      <trkpt lat="47.75313" lon="5.17068">
        <ele>512</ele>
        <time>2019-02-12T13:38:33.009Z</time>
      </trkpt>
      <trkpt lat="47.75316" lon="5.17066">
        <ele>512</ele>
        <time>2019-02-12T13:38:35.009Z</time>
      </trkpt>
      <trkpt lat="47.7532" lon="5.17064">
        <ele>512</ele>
        <time>2019-02-12T13:38:37.009Z</time>
      </trkpt>
      <trkpt lat="47.75324" lon="5.17062">
        <ele>512</ele>
        <time>2019-02-12T13:38:41.009Z</time>
      </trkpt>
      <trkpt lat="47.75329" lon="5.17061">
        <ele>512</ele>
        <time>2019-02-12T13:38:45.009Z</time>
      </trkpt>
      <trkpt lat="47.75333" lon="5.17063">
        <ele>512</ele>
        <time>2019-02-12T13:38:48.009Z</time>
      </trkpt>
      <trkpt lat="47.75339" lon="5.17059">
        <ele>512</ele>
        <time>2019-02-12T13:38:53.009Z</time>
      </trkpt>
      <trkpt lat="47.75343" lon="5.17057">
        <ele>512</ele>
        <time>2019-02-12T13:38:56.009Z</time>
      </trkpt>
      <trkpt lat="47.75347" lon="5.17054">
        <ele>512</ele>
        <time>2019-02-12T13:39:00.009Z</time>
      </trkpt>
      <trkpt lat="47.75351" lon="5.17052">
        <ele>512</ele>
        <time>2019-02-12T13:39:03.009Z</time>
      </trkpt>
      <trkpt lat="47.75356" lon="5.17049">
        <ele>512</ele>
        <time>2019-02-12T13:39:06.009Z</time>
      </trkpt>
      <trkpt lat="47.75359" lon="5.17047">
        <ele>512</ele>
        <time>2019-02-12T13:39:08.009Z</time>
      </trkpt>
      <trkpt lat="47.75364" lon="5.17045">
        <ele>512</ele>
        <time>2019-02-12T13:39:11.009Z</time>
      </trkpt>
      <trkpt lat="47.75369" lon="5.17044">
        <ele>512</ele>
        <time>2019-02-12T13:39:14.009Z</time>
      </trkpt>
      <trkpt lat="47.75373" lon="5.17043">
        <ele>512</ele>
        <time>2019-02-12T13:39:16.009Z</time>
      </trkpt>
      <trkpt lat="47.75376" lon="5.17044">
        <ele>512</ele>
        <time>2019-02-12T13:39:18.009Z</time>
      </trkpt>
      <trkpt lat="47.75381" lon="5.17043">
        <ele>512</ele>
        <time>2019-02-12T13:39:21.009Z</time>
      </trkpt>
      <trkpt lat="47.75386" lon="5.17043">
        <ele>512</ele>
        <time>2019-02-12T13:39:24.009Z</time>
      </trkpt>
      <trkpt lat="47.75391" lon="5.17041">
        <ele>511.43378537328</ele>
        <time>2019-02-12T13:39:27.009Z</time>
      </trkpt>
      <trkpt lat="47.75395" lon="5.1704">
        <ele>511</ele>
        <time>2019-02-12T13:39:30.009Z</time>
      </trkpt>
      <trkpt lat="47.754" lon="5.17038">
        <ele>511</ele>
        <time>2019-02-12T13:39:33.009Z</time>
      </trkpt>
      <trkpt lat="47.75405" lon="5.17037">
        <ele>510.43263089816</ele>
        <time>2019-02-12T13:39:36.009Z</time>
      </trkpt>
      <trkpt lat="47.75408" lon="5.17036">
        <ele>510</ele>
        <time>2019-02-12T13:39:39.009Z</time>
      </trkpt>
      <trkpt lat="47.75413" lon="5.17034">
        <ele>510</ele>
        <time>2019-02-12T13:39:42.009Z</time>
      </trkpt>
      <trkpt lat="47.75418" lon="5.17033">
        <ele>510</ele>
        <time>2019-02-12T13:39:45.009Z</time>
      </trkpt>
      <trkpt lat="47.75423" lon="5.17033">
        <ele>510</ele>
        <time>2019-02-12T13:39:48.009Z</time>
      </trkpt>
      <trkpt lat="47.75427" lon="5.17032">
        <ele>510</ele>
        <time>2019-02-12T13:39:51.009Z</time>
      </trkpt>
      <trkpt lat="47.75433" lon="5.17028">
        <ele>510</ele>
        <time>2019-02-12T13:39:56.009Z</time>
      </trkpt>
      <trkpt lat="47.75438" lon="5.17026">
        <ele>510</ele>
        <time>2019-02-12T13:39:59.009Z</time>
      </trkpt>
      <trkpt lat="47.75441" lon="5.17025">
        <ele>510</ele>
        <time>2019-02-12T13:40:01.009Z</time>
      </trkpt>
      <trkpt lat="47.75446" lon="5.17023">
        <ele>510</ele>
        <time>2019-02-12T13:40:04.009Z</time>
      </trkpt>
      <trkpt lat="47.7545" lon="5.17021">
        <ele>510</ele>
        <time>2019-02-12T13:40:07.009Z</time>
      </trkpt>
      <trkpt lat="47.75454" lon="5.17019">
        <ele>510</ele>
        <time>2019-02-12T13:40:10.009Z</time>
      </trkpt>
      <trkpt lat="47.75459" lon="5.17018">
        <ele>510</ele>
        <time>2019-02-12T13:40:13.009Z</time>
      </trkpt>
      <trkpt lat="47.75463" lon="5.17017">
        <ele>509.29100427514</ele>
        <time>2019-02-12T13:40:16.009Z</time>
      </trkpt>
      <trkpt lat="47.75472" lon="5.17017">
        <ele>509</ele>
        <time>2019-02-12T13:40:24.009Z</time>
      </trkpt>
      <trkpt lat="47.75476" lon="5.17015">
        <ele>509</ele>
        <time>2019-02-12T13:40:27.009Z</time>
      </trkpt>
      <trkpt lat="47.75481" lon="5.17011">
        <ele>509</ele>
        <time>2019-02-12T13:40:30.009Z</time>
      </trkpt>
      <trkpt lat="47.75486" lon="5.17008">
        <ele>509</ele>
        <time>2019-02-12T13:40:34.009Z</time>
      </trkpt>
      <trkpt lat="47.75489" lon="5.17006">
        <ele>509</ele>
        <time>2019-02-12T13:40:37.009Z</time>
      </trkpt>
      <trkpt lat="47.75493" lon="5.17005">
        <ele>509</ele>
        <time>2019-02-12T13:40:39.009Z</time>
      </trkpt>
      <trkpt lat="47.75498" lon="5.17005">
        <ele>509</ele>
        <time>2019-02-12T13:40:42.009Z</time>
      </trkpt>
      <trkpt lat="47.75501" lon="5.17004">
        <ele>509</ele>
        <time>2019-02-12T13:40:44.009Z</time>
      </trkpt>
      <trkpt lat="47.75506" lon="5.17002">
        <ele>509</ele>
        <time>2019-02-12T13:40:46.009Z</time>
      </trkpt>
      <trkpt lat="47.7551" lon="5.17002">
        <ele>508</ele>
        <time>2019-02-12T13:40:48.009Z</time>
      </trkpt>
      <trkpt lat="47.75514" lon="5.17001">
        <ele>508</ele>
        <time>2019-02-12T13:40:50.009Z</time>
      </trkpt>
      <trkpt lat="47.75517" lon="5.17001">
        <ele>508</ele>
        <time>2019-02-12T13:40:52.009Z</time>
      </trkpt>
      <trkpt lat="47.75521" lon="5.17">
        <ele>508</ele>
        <time>2019-02-12T13:40:54.009Z</time>
      </trkpt>
      <trkpt lat="47.75525" lon="5.16999">
        <ele>508</ele>
        <time>2019-02-12T13:40:56.009Z</time>
      </trkpt>
      <trkpt lat="47.75529" lon="5.16996">
        <ele>508</ele>
        <time>2019-02-12T13:40:59.009Z</time>
      </trkpt>
      <trkpt lat="47.75534" lon="5.16994">
        <ele>507.49134769231</ele>
        <time>2019-02-12T13:41:03.009Z</time>
      </trkpt>
      <trkpt lat="47.75539" lon="5.16993">
        <ele>507</ele>
        <time>2019-02-12T13:41:06.009Z</time>
      </trkpt>
      <trkpt lat="47.75543" lon="5.16992">
        <ele>507</ele>
        <time>2019-02-12T13:41:09.009Z</time>
      </trkpt>
      <trkpt lat="47.75546" lon="5.16991">
        <ele>507</ele>
        <time>2019-02-12T13:41:12.009Z</time>
      </trkpt>
      <trkpt lat="47.7555" lon="5.16988">
        <ele>507</ele>
        <time>2019-02-12T13:41:15.009Z</time>
      </trkpt>
      <trkpt lat="47.75554" lon="5.16986">
        <ele>507</ele>
        <time>2019-02-12T13:41:18.009Z</time>
      </trkpt>
      <trkpt lat="47.75558" lon="5.16984">
        <ele>507</ele>
        <time>2019-02-12T13:41:21.009Z</time>
      </trkpt>
      <trkpt lat="47.75565" lon="5.16983">
        <ele>507</ele>
        <time>2019-02-12T13:41:26.009Z</time>
      </trkpt>
      <trkpt lat="47.75569" lon="5.16982">
        <ele>507</ele>
        <time>2019-02-12T13:41:30.009Z</time>
      </trkpt>
      <trkpt lat="47.75573" lon="5.16981">
        <ele>507</ele>
        <time>2019-02-12T13:41:33.009Z</time>
      </trkpt>
      <trkpt lat="47.75577" lon="5.1698">
        <ele>507</ele>
        <time>2019-02-12T13:41:37.009Z</time>
      </trkpt>
      <trkpt lat="47.75582" lon="5.16977">
        <ele>507</ele>
        <time>2019-02-12T13:41:40.009Z</time>
      </trkpt>
      <trkpt lat="47.75587" lon="5.16975">
        <ele>507</ele>
        <time>2019-02-12T13:41:43.009Z</time>
      </trkpt>
      <trkpt lat="47.75592" lon="5.16973">
        <ele>507</ele>
        <time>2019-02-12T13:41:46.009Z</time>
      </trkpt>
      <trkpt lat="47.75597" lon="5.16972">
        <ele>507</ele>
        <time>2019-02-12T13:41:49.009Z</time>
      </trkpt>
      <trkpt lat="47.75601" lon="5.16971">
        <ele>507</ele>
        <time>2019-02-12T13:41:52.009Z</time>
      </trkpt>
      <trkpt lat="47.75605" lon="5.16969">
        <ele>507</ele>
        <time>2019-02-12T13:41:55.009Z</time>
      </trkpt>
      <trkpt lat="47.7561" lon="5.16967">
        <ele>507</ele>
        <time>2019-02-12T13:41:58.009Z</time>
      </trkpt>
      <trkpt lat="47.75614" lon="5.16966">
        <ele>507</ele>
        <time>2019-02-12T13:42:01.009Z</time>
      </trkpt>
      <trkpt lat="47.75619" lon="5.16966">
        <ele>507</ele>
        <time>2019-02-12T13:42:04.009Z</time>
      </trkpt>
      <trkpt lat="47.75625" lon="5.16965">
        <ele>507</ele>
        <time>2019-02-12T13:42:08.009Z</time>
      </trkpt>
      <trkpt lat="47.7563" lon="5.16965">
        <ele>507</ele>
        <time>2019-02-12T13:42:11.009Z</time>
      </trkpt>
      <trkpt lat="47.75634" lon="5.16964">
        <ele>507</ele>
        <time>2019-02-12T13:42:14.009Z</time>
      </trkpt>
      <trkpt lat="47.75638" lon="5.16964">
        <ele>507</ele>
        <time>2019-02-12T13:42:17.009Z</time>
      </trkpt>
      <trkpt lat="47.75643" lon="5.16962">
        <ele>507</ele>
        <time>2019-02-12T13:42:20.009Z</time>
      </trkpt>
      <trkpt lat="47.75649" lon="5.16958">
        <ele>507</ele>
        <time>2019-02-12T13:42:24.009Z</time>
      </trkpt>
      <trkpt lat="47.75652" lon="5.16957">
        <ele>507</ele>
        <time>2019-02-12T13:42:26.009Z</time>
      </trkpt>
      <trkpt lat="47.75657" lon="5.16954">
        <ele>507</ele>
        <time>2019-02-12T13:42:30.009Z</time>
      </trkpt>
      <trkpt lat="47.7566" lon="5.16951">
        <ele>507</ele>
        <time>2019-02-12T13:42:33.009Z</time>
      </trkpt>
      <trkpt lat="47.75664" lon="5.1695">
        <ele>507</ele>
        <time>2019-02-12T13:42:36.009Z</time>
      </trkpt>
      <trkpt lat="47.75668" lon="5.16948">
        <ele>507</ele>
        <time>2019-02-12T13:42:39.009Z</time>
      </trkpt>
      <trkpt lat="47.75673" lon="5.16947">
        <ele>507</ele>
        <time>2019-02-12T13:42:42.009Z</time>
      </trkpt>
      <trkpt lat="47.75677" lon="5.16945">
        <ele>508</ele>
        <time>2019-02-12T13:42:45.009Z</time>
      </trkpt>
      <trkpt lat="47.75681" lon="5.16944">
        <ele>508</ele>
        <time>2019-02-12T13:42:48.009Z</time>
      </trkpt>
      <trkpt lat="47.75686" lon="5.16944">
        <ele>508</ele>
        <time>2019-02-12T13:42:51.009Z</time>
      </trkpt>
      <trkpt lat="47.75692" lon="5.16941">
        <ele>508</ele>
        <time>2019-02-12T13:42:56.009Z</time>
      </trkpt>
      <trkpt lat="47.75696" lon="5.1694">
        <ele>508</ele>
        <time>2019-02-12T13:42:59.009Z</time>
      </trkpt>
      <trkpt lat="47.75701" lon="5.16937">
        <ele>508</ele>
        <time>2019-02-12T13:43:02.009Z</time>
      </trkpt>
      <trkpt lat="47.75706" lon="5.16936">
        <ele>508</ele>
        <time>2019-02-12T13:43:05.009Z</time>
      </trkpt>
      <trkpt lat="47.75711" lon="5.16934">
        <ele>508</ele>
        <time>2019-02-12T13:43:08.009Z</time>
      </trkpt>
      <trkpt lat="47.75715" lon="5.16933">
        <ele>508</ele>
        <time>2019-02-12T13:43:11.009Z</time>
      </trkpt>
      <trkpt lat="47.7572" lon="5.16931">
        <ele>508</ele>
        <time>2019-02-12T13:43:14.009Z</time>
      </trkpt>
      <trkpt lat="47.75724" lon="5.1693">
        <ele>508</ele>
        <time>2019-02-12T13:43:17.009Z</time>
      </trkpt>
      <trkpt lat="47.75728" lon="5.16928">
        <ele>508</ele>
        <time>2019-02-12T13:43:21.009Z</time>
      </trkpt>
      <trkpt lat="47.75732" lon="5.16927">
        <ele>508</ele>
        <time>2019-02-12T13:43:24.009Z</time>
      </trkpt>
      <trkpt lat="47.75735" lon="5.16926">
        <ele>508</ele>
        <time>2019-02-12T13:43:28.009Z</time>
      </trkpt>
      <trkpt lat="47.7574" lon="5.16929">
        <ele>508</ele>
        <time>2019-02-12T13:43:32.009Z</time>
      </trkpt>
      <trkpt lat="47.75744" lon="5.16926">
        <ele>508.32297234186</ele>
        <time>2019-02-12T13:43:35.009Z</time>
      </trkpt>
      <trkpt lat="47.75749" lon="5.16923">
        <ele>509</ele>
        <time>2019-02-12T13:43:38.009Z</time>
      </trkpt>
      <trkpt lat="47.75754" lon="5.16922">
        <ele>509</ele>
        <time>2019-02-12T13:43:41.009Z</time>
      </trkpt>
      <trkpt lat="47.75758" lon="5.16919">
        <ele>509</ele>
        <time>2019-02-12T13:43:44.009Z</time>
      </trkpt>
      <trkpt lat="47.75763" lon="5.16917">
        <ele>509</ele>
        <time>2019-02-12T13:43:47.009Z</time>
      </trkpt>
      <trkpt lat="47.75767" lon="5.16915">
        <ele>509</ele>
        <time>2019-02-12T13:43:50.009Z</time>
      </trkpt>
      <trkpt lat="47.75772" lon="5.16913">
        <ele>509</ele>
        <time>2019-02-12T13:43:53.009Z</time>
      </trkpt>
      <trkpt lat="47.75777" lon="5.16911">
        <ele>508.04969256261</ele>
        <time>2019-02-12T13:43:56.009Z</time>
      </trkpt>
      <trkpt lat="47.7578" lon="5.16909">
        <ele>508</ele>
        <time>2019-02-12T13:43:59.009Z</time>
      </trkpt>
      <trkpt lat="47.75785" lon="5.16908">
        <ele>508</ele>
        <time>2019-02-12T13:44:02.009Z</time>
      </trkpt>
      <trkpt lat="47.75789" lon="5.16907">
        <ele>508</ele>
        <time>2019-02-12T13:44:05.009Z</time>
      </trkpt>
      <trkpt lat="47.75794" lon="5.16906">
        <ele>508</ele>
        <time>2019-02-12T13:44:08.009Z</time>
      </trkpt>
      <trkpt lat="47.75798" lon="5.16905">
        <ele>508</ele>
        <time>2019-02-12T13:44:11.009Z</time>
      </trkpt>
      <trkpt lat="47.75803" lon="5.16904">
        <ele>508</ele>
        <time>2019-02-12T13:44:14.009Z</time>
      </trkpt>
      <trkpt lat="47.7581" lon="5.16902">
        <ele>508</ele>
        <time>2019-02-12T13:44:20.009Z</time>
      </trkpt>
      <trkpt lat="47.75814" lon="5.16899">
        <ele>508</ele>
        <time>2019-02-12T13:44:23.009Z</time>
      </trkpt>
      <trkpt lat="47.75818" lon="5.16897">
        <ele>508</ele>
        <time>2019-02-12T13:44:26.009Z</time>
      </trkpt>
      <trkpt lat="47.75822" lon="5.16894">
        <ele>508</ele>
        <time>2019-02-12T13:44:29.009Z</time>
      </trkpt>
      <trkpt lat="47.75827" lon="5.16893">
        <ele>508</ele>
        <time>2019-02-12T13:44:32.009Z</time>
      </trkpt>
      <trkpt lat="47.75832" lon="5.1689">
        <ele>508</ele>
        <time>2019-02-12T13:44:36.009Z</time>
      </trkpt>
      <trkpt lat="47.75836" lon="5.16888">
        <ele>507</ele>
        <time>2019-02-12T13:44:38.009Z</time>
      </trkpt>
      <trkpt lat="47.7584" lon="5.16886">
        <ele>507</ele>
        <time>2019-02-12T13:44:41.009Z</time>
      </trkpt>
      <trkpt lat="47.75844" lon="5.16884">
        <ele>507</ele>
        <time>2019-02-12T13:44:44.009Z</time>
      </trkpt>
      <trkpt lat="47.75848" lon="5.16883">
        <ele>507</ele>
        <time>2019-02-12T13:44:47.009Z</time>
      </trkpt>
      <trkpt lat="47.75853" lon="5.16882">
        <ele>507</ele>
        <time>2019-02-12T13:44:50.009Z</time>
      </trkpt>
      <trkpt lat="47.75859" lon="5.16883">
        <ele>507</ele>
        <time>2019-02-12T13:44:54.009Z</time>
      </trkpt>
      <trkpt lat="47.75863" lon="5.16881">
        <ele>507</ele>
        <time>2019-02-12T13:44:57.009Z</time>
      </trkpt>
      <trkpt lat="47.75868" lon="5.16878">
        <ele>507</ele>
        <time>2019-02-12T13:45:00.009Z</time>
      </trkpt>
      <trkpt lat="47.75875" lon="5.16875">
        <ele>507</ele>
        <time>2019-02-12T13:45:04.009Z</time>
      </trkpt>
      <trkpt lat="47.75879" lon="5.16873">
        <ele>507</ele>
        <time>2019-02-12T13:45:07.009Z</time>
      </trkpt>
      <trkpt lat="47.75884" lon="5.16871">
        <ele>507</ele>
        <time>2019-02-12T13:45:10.009Z</time>
      </trkpt>
      <trkpt lat="47.75888" lon="5.16869">
        <ele>507</ele>
        <time>2019-02-12T13:45:13.009Z</time>
      </trkpt>
      <trkpt lat="47.75892" lon="5.16867">
        <ele>507</ele>
        <time>2019-02-12T13:45:16.009Z</time>
      </trkpt>
      <trkpt lat="47.75897" lon="5.16867">
        <ele>507</ele>
        <time>2019-02-12T13:45:19.009Z</time>
      </trkpt>
      <trkpt lat="47.759" lon="5.16866">
        <ele>507</ele>
        <time>2019-02-12T13:45:22.009Z</time>
      </trkpt>
      <trkpt lat="47.75904" lon="5.16864">
        <ele>507</ele>
        <time>2019-02-12T13:45:25.009Z</time>
      </trkpt>
      <trkpt lat="47.75908" lon="5.16862">
        <ele>507</ele>
        <time>2019-02-12T13:45:28.009Z</time>
      </trkpt>
      <trkpt lat="47.75912" lon="5.16861">
        <ele>507</ele>
        <time>2019-02-12T13:45:31.009Z</time>
      </trkpt>
      <trkpt lat="47.75916" lon="5.16862">
        <ele>507</ele>
        <time>2019-02-12T13:45:34.009Z</time>
      </trkpt>
      <trkpt lat="47.7592" lon="5.16863">
        <ele>508</ele>
        <time>2019-02-12T13:45:37.009Z</time>
      </trkpt>
      <trkpt lat="47.75924" lon="5.16862">
        <ele>508</ele>
        <time>2019-02-12T13:45:40.009Z</time>
      </trkpt>
      <trkpt lat="47.75928" lon="5.16861">
        <ele>508</ele>
        <time>2019-02-12T13:45:42.009Z</time>
      </trkpt>
      <trkpt lat="47.75934" lon="5.16858">
        <ele>507.45083733333</ele>
        <time>2019-02-12T13:45:46.009Z</time>
      </trkpt>
      <trkpt lat="47.75938" lon="5.16855">
        <ele>507</ele>
        <time>2019-02-12T13:45:48.009Z</time>
      </trkpt>
      <trkpt lat="47.75941" lon="5.16851">
        <ele>507</ele>
        <time>2019-02-12T13:45:51.009Z</time>
      </trkpt>
      <trkpt lat="47.75945" lon="5.16848">
        <ele>507</ele>
        <time>2019-02-12T13:45:54.009Z</time>
      </trkpt>
      <trkpt lat="47.75948" lon="5.16846">
        <ele>506</ele>
        <time>2019-02-12T13:45:57.009Z</time>
      </trkpt>
      <trkpt lat="47.75953" lon="5.16844">
        <ele>506</ele>
        <time>2019-02-12T13:46:00.009Z</time>
      </trkpt>
      <trkpt lat="47.75957" lon="5.16841">
        <ele>505</ele>
        <time>2019-02-12T13:46:03.009Z</time>
      </trkpt>
      <trkpt lat="47.75961" lon="5.16839">
        <ele>505</ele>
        <time>2019-02-12T13:46:06.009Z</time>
      </trkpt>
      <trkpt lat="47.75964" lon="5.16841">
        <ele>505</ele>
        <time>2019-02-12T13:46:11.009Z</time>
      </trkpt>
      <trkpt lat="47.75968" lon="5.16841">
        <ele>505</ele>
        <time>2019-02-12T13:46:14.009Z</time>
      </trkpt>
      <trkpt lat="47.75973" lon="5.1684">
        <ele>505</ele>
        <time>2019-02-12T13:46:17.009Z</time>
      </trkpt>
      <trkpt lat="47.75976" lon="5.16841">
        <ele>505</ele>
        <time>2019-02-12T13:46:19.009Z</time>
      </trkpt>
      <trkpt lat="47.75981" lon="5.16841">
        <ele>505</ele>
        <time>2019-02-12T13:46:22.009Z</time>
      </trkpt>
      <trkpt lat="47.75986" lon="5.16838">
        <ele>505</ele>
        <time>2019-02-12T13:46:25.009Z</time>
      </trkpt>
      <trkpt lat="47.75992" lon="5.16835">
        <ele>505</ele>
        <time>2019-02-12T13:46:28.009Z</time>
      </trkpt>
      <trkpt lat="47.75995" lon="5.16832">
        <ele>505</ele>
        <time>2019-02-12T13:46:30.009Z</time>
      </trkpt>
      <trkpt lat="47.75999" lon="5.16833">
        <ele>505</ele>
        <time>2019-02-12T13:46:33.009Z</time>
      </trkpt>
      <trkpt lat="47.76003" lon="5.16835">
        <ele>505</ele>
        <time>2019-02-12T13:46:36.009Z</time>
      </trkpt>
      <trkpt lat="47.76006" lon="5.16844">
        <ele>505</ele>
        <time>2019-02-12T13:46:40.009Z</time>
      </trkpt>
      <trkpt lat="47.76009" lon="5.1685">
        <ele>505</ele>
        <time>2019-02-12T13:46:43.009Z</time>
      </trkpt>
      <trkpt lat="47.76012" lon="5.16853">
        <ele>505.6223534018</ele>
        <time>2019-02-12T13:46:45.009Z</time>
      </trkpt>
      <trkpt lat="47.76015" lon="5.16857">
        <ele>506</ele>
        <time>2019-02-12T13:46:47.009Z</time>
      </trkpt>
      <trkpt lat="47.7602" lon="5.16862">
        <ele>506</ele>
        <time>2019-02-12T13:46:50.009Z</time>
      </trkpt>
      <trkpt lat="47.76022" lon="5.16868">
        <ele>506</ele>
        <time>2019-02-12T13:46:54.009Z</time>
      </trkpt>
      <trkpt lat="47.76025" lon="5.16871">
        <ele>506</ele>
        <time>2019-02-12T13:46:57.009Z</time>
      </trkpt>
      <trkpt lat="47.76028" lon="5.16876">
        <ele>506</ele>
        <time>2019-02-12T13:47:00.009Z</time>
      </trkpt>
      <trkpt lat="47.76032" lon="5.1688">
        <ele>507</ele>
        <time>2019-02-12T13:47:03.009Z</time>
      </trkpt>
      <trkpt lat="47.76035" lon="5.16883">
        <ele>507</ele>
        <time>2019-02-12T13:47:06.009Z</time>
      </trkpt>
      <trkpt lat="47.76039" lon="5.16887">
        <ele>507</ele>
        <time>2019-02-12T13:47:09.009Z</time>
      </trkpt>
      <trkpt lat="47.76043" lon="5.16892">
        <ele>507</ele>
        <time>2019-02-12T13:47:13.009Z</time>
      </trkpt>
      <trkpt lat="47.76044" lon="5.16897">
        <ele>508</ele>
        <time>2019-02-12T13:47:16.009Z</time>
      </trkpt>
      <trkpt lat="47.76048" lon="5.16902">
        <ele>508</ele>
        <time>2019-02-12T13:47:20.009Z</time>
      </trkpt>
      <trkpt lat="47.7605" lon="5.16906">
        <ele>508</ele>
        <time>2019-02-12T13:47:23.009Z</time>
      </trkpt>
      <trkpt lat="47.7605" lon="5.16914">
        <ele>508</ele>
        <time>2019-02-12T13:47:26.009Z</time>
      </trkpt>
      <trkpt lat="47.76054" lon="5.16918">
        <ele>508</ele>
        <time>2019-02-12T13:47:29.009Z</time>
      </trkpt>
      <trkpt lat="47.76057" lon="5.16921">
        <ele>508</ele>
        <time>2019-02-12T13:47:32.009Z</time>
      </trkpt>
      <trkpt lat="47.76061" lon="5.16926">
        <ele>508</ele>
        <time>2019-02-12T13:47:35.009Z</time>
      </trkpt>
      <trkpt lat="47.76063" lon="5.16929">
        <ele>508</ele>
        <time>2019-02-12T13:47:37.009Z</time>
      </trkpt>
      <trkpt lat="47.76066" lon="5.16934">
        <ele>508</ele>
        <time>2019-02-12T13:47:40.009Z</time>
      </trkpt>
      <trkpt lat="47.76068" lon="5.16939">
        <ele>508</ele>
        <time>2019-02-12T13:47:42.009Z</time>
      </trkpt>
      <trkpt lat="47.76072" lon="5.16944">
        <ele>508</ele>
        <time>2019-02-12T13:47:45.009Z</time>
      </trkpt>
      <trkpt lat="47.76077" lon="5.1695">
        <ele>508</ele>
        <time>2019-02-12T13:47:50.009Z</time>
      </trkpt>
      <trkpt lat="47.76081" lon="5.16953">
        <ele>508</ele>
        <time>2019-02-12T13:47:53.009Z</time>
      </trkpt>
      <trkpt lat="47.76083" lon="5.16959">
        <ele>509</ele>
        <time>2019-02-12T13:47:57.009Z</time>
      </trkpt>
      <trkpt lat="47.76086" lon="5.16966">
        <ele>509</ele>
        <time>2019-02-12T13:48:00.009Z</time>
      </trkpt>
      <trkpt lat="47.7609" lon="5.16971">
        <ele>509</ele>
        <time>2019-02-12T13:48:03.009Z</time>
      </trkpt>
      <trkpt lat="47.76094" lon="5.16977">
        <ele>509</ele>
        <time>2019-02-12T13:48:06.009Z</time>
      </trkpt>
      <trkpt lat="47.76097" lon="5.16982">
        <ele>509</ele>
        <time>2019-02-12T13:48:09.009Z</time>
      </trkpt>
      <trkpt lat="47.76099" lon="5.16987">
        <ele>509</ele>
        <time>2019-02-12T13:48:12.009Z</time>
      </trkpt>
      <trkpt lat="47.76102" lon="5.16991">
        <ele>509</ele>
        <time>2019-02-12T13:48:15.009Z</time>
      </trkpt>
      <trkpt lat="47.76104" lon="5.16994">
        <ele>509</ele>
        <time>2019-02-12T13:48:18.009Z</time>
      </trkpt>
      <trkpt lat="47.76108" lon="5.17">
        <ele>509</ele>
        <time>2019-02-12T13:48:22.009Z</time>
      </trkpt>
      <trkpt lat="47.76111" lon="5.17005">
        <ele>509</ele>
        <time>2019-02-12T13:48:25.009Z</time>
      </trkpt>
      <trkpt lat="47.76113" lon="5.17009">
        <ele>509</ele>
        <time>2019-02-12T13:48:28.009Z</time>
      </trkpt>
      <trkpt lat="47.76115" lon="5.17014">
        <ele>509</ele>
        <time>2019-02-12T13:48:31.009Z</time>
      </trkpt>
      <trkpt lat="47.76118" lon="5.1702">
        <ele>509</ele>
        <time>2019-02-12T13:48:34.009Z</time>
      </trkpt>
      <trkpt lat="47.7612" lon="5.17025">
        <ele>509</ele>
        <time>2019-02-12T13:48:37.009Z</time>
      </trkpt>
      <trkpt lat="47.76124" lon="5.17029">
        <ele>509</ele>
        <time>2019-02-12T13:48:40.009Z</time>
      </trkpt>
      <trkpt lat="47.76126" lon="5.17034">
        <ele>509</ele>
        <time>2019-02-12T13:48:44.009Z</time>
      </trkpt>
      <trkpt lat="47.76128" lon="5.17038">
        <ele>509</ele>
        <time>2019-02-12T13:48:47.009Z</time>
      </trkpt>
      <trkpt lat="47.76132" lon="5.17044">
        <ele>509</ele>
        <time>2019-02-12T13:48:50.009Z</time>
      </trkpt>
      <trkpt lat="47.76134" lon="5.17048">
        <ele>509</ele>
        <time>2019-02-12T13:48:53.009Z</time>
      </trkpt>
      <trkpt lat="47.76138" lon="5.17053">
        <ele>509</ele>
        <time>2019-02-12T13:48:58.009Z</time>
      </trkpt>
      <trkpt lat="47.76141" lon="5.17059">
        <ele>509</ele>
        <time>2019-02-12T13:49:01.009Z</time>
      </trkpt>
      <trkpt lat="47.76144" lon="5.17064">
        <ele>509</ele>
        <time>2019-02-12T13:49:04.009Z</time>
      </trkpt>
      <trkpt lat="47.76147" lon="5.17069">
        <ele>509</ele>
        <time>2019-02-12T13:49:08.009Z</time>
      </trkpt>
      <trkpt lat="47.76149" lon="5.17074">
        <ele>509</ele>
        <time>2019-02-12T13:49:11.009Z</time>
      </trkpt>
      <trkpt lat="47.76153" lon="5.1708">
        <ele>509</ele>
        <time>2019-02-12T13:49:14.009Z</time>
      </trkpt>
      <trkpt lat="47.76155" lon="5.17084">
        <ele>509</ele>
        <time>2019-02-12T13:49:17.009Z</time>
      </trkpt>
      <trkpt lat="47.76159" lon="5.17088">
        <ele>509</ele>
        <time>2019-02-12T13:49:20.009Z</time>
      </trkpt>
      <trkpt lat="47.76163" lon="5.17093">
        <ele>509</ele>
        <time>2019-02-12T13:49:23.009Z</time>
      </trkpt>
      <trkpt lat="47.76166" lon="5.17098">
        <ele>509</ele>
        <time>2019-02-12T13:49:26.009Z</time>
      </trkpt>
      <trkpt lat="47.76168" lon="5.17103">
        <ele>509</ele>
        <time>2019-02-12T13:49:28.009Z</time>
      </trkpt>
      <trkpt lat="47.76171" lon="5.17108">
        <ele>509</ele>
        <time>2019-02-12T13:49:31.009Z</time>
      </trkpt>
      <trkpt lat="47.76173" lon="5.17112">
        <ele>509</ele>
        <time>2019-02-12T13:49:34.009Z</time>
      </trkpt>
      <trkpt lat="47.76174" lon="5.17118">
        <ele>509</ele>
        <time>2019-02-12T13:49:37.009Z</time>
      </trkpt>
      <trkpt lat="47.76177" lon="5.17123">
        <ele>509</ele>
        <time>2019-02-12T13:49:39.009Z</time>
      </trkpt>
      <trkpt lat="47.76181" lon="5.17127">
        <ele>509</ele>
        <time>2019-02-12T13:49:41.009Z</time>
      </trkpt>
      <trkpt lat="47.76184" lon="5.17131">
        <ele>509</ele>
        <time>2019-02-12T13:49:43.009Z</time>
      </trkpt>
      <trkpt lat="47.76188" lon="5.17135">
        <ele>509</ele>
        <time>2019-02-12T13:49:46.009Z</time>
      </trkpt>
      <trkpt lat="47.76191" lon="5.17139">
        <ele>509</ele>
        <time>2019-02-12T13:49:49.009Z</time>
      </trkpt>
      <trkpt lat="47.76192" lon="5.17144">
        <ele>509</ele>
        <time>2019-02-12T13:49:52.009Z</time>
      </trkpt>
      <trkpt lat="47.76194" lon="5.17149">
        <ele>508</ele>
        <time>2019-02-12T13:49:55.009Z</time>
      </trkpt>
      <trkpt lat="47.76197" lon="5.17154">
        <ele>508</ele>
        <time>2019-02-12T13:49:57.009Z</time>
      </trkpt>
      <trkpt lat="47.76199" lon="5.17159">
        <ele>508</ele>
        <time>2019-02-12T13:50:00.009Z</time>
      </trkpt>
      <trkpt lat="47.762" lon="5.17165">
        <ele>508</ele>
        <time>2019-02-12T13:50:03.009Z</time>
      </trkpt>
      <trkpt lat="47.76203" lon="5.17168">
        <ele>508</ele>
        <time>2019-02-12T13:50:06.009Z</time>
      </trkpt>
      <trkpt lat="47.76207" lon="5.17172">
        <ele>508</ele>
        <time>2019-02-12T13:50:09.009Z</time>
      </trkpt>
      <trkpt lat="47.76212" lon="5.17174">
        <ele>508</ele>
        <time>2019-02-12T13:50:13.009Z</time>
      </trkpt>
      <trkpt lat="47.76215" lon="5.17171">
        <ele>507</ele>
        <time>2019-02-12T13:50:16.009Z</time>
      </trkpt>
      <trkpt lat="47.76218" lon="5.17167">
        <ele>507</ele>
        <time>2019-02-12T13:50:20.009Z</time>
      </trkpt>
      <trkpt lat="47.76222" lon="5.17164">
        <ele>507</ele>
        <time>2019-02-12T13:50:23.009Z</time>
      </trkpt>
      <trkpt lat="47.76225" lon="5.1716">
        <ele>507</ele>
        <time>2019-02-12T13:50:27.009Z</time>
      </trkpt>
      <trkpt lat="47.76229" lon="5.17157">
        <ele>507</ele>
        <time>2019-02-12T13:50:31.009Z</time>
      </trkpt>
      <trkpt lat="47.76233" lon="5.17156">
        <ele>507</ele>
        <time>2019-02-12T13:50:35.009Z</time>
      </trkpt>
      <trkpt lat="47.76238" lon="5.17155">
        <ele>507</ele>
        <time>2019-02-12T13:50:38.009Z</time>
      </trkpt>
      <trkpt lat="47.76242" lon="5.17154">
        <ele>507</ele>
        <time>2019-02-12T13:50:41.009Z</time>
      </trkpt>
      <trkpt lat="47.76245" lon="5.17153">
        <ele>507</ele>
        <time>2019-02-12T13:50:44.009Z</time>
      </trkpt>
      <trkpt lat="47.7625" lon="5.17152">
        <ele>507</ele>
        <time>2019-02-12T13:50:47.009Z</time>
      </trkpt>
      <trkpt lat="47.76257" lon="5.17149">
        <ele>507</ele>
        <time>2019-02-12T13:50:51.009Z</time>
      </trkpt>
      <trkpt lat="47.76261" lon="5.17148">
        <ele>507</ele>
        <time>2019-02-12T13:50:53.009Z</time>
      </trkpt>
      <trkpt lat="47.76265" lon="5.17147">
        <ele>507</ele>
        <time>2019-02-12T13:50:56.009Z</time>
      </trkpt>
      <trkpt lat="47.76269" lon="5.17147">
        <ele>507</ele>
        <time>2019-02-12T13:50:58.009Z</time>
      </trkpt>
      <trkpt lat="47.76274" lon="5.17143">
        <ele>507</ele>
        <time>2019-02-12T13:51:02.009Z</time>
      </trkpt>
      <trkpt lat="47.76277" lon="5.17141">
        <ele>507</ele>
        <time>2019-02-12T13:51:05.009Z</time>
      </trkpt>
      <trkpt lat="47.76281" lon="5.17139">
        <ele>507</ele>
        <time>2019-02-12T13:51:09.009Z</time>
      </trkpt>
      <trkpt lat="47.76285" lon="5.17137">
        <ele>507</ele>
        <time>2019-02-12T13:51:13.009Z</time>
      </trkpt>
      <trkpt lat="47.7629" lon="5.17134">
        <ele>507</ele>
        <time>2019-02-12T13:51:17.009Z</time>
      </trkpt>
      <trkpt lat="47.76294" lon="5.17132">
        <ele>507</ele>
        <time>2019-02-12T13:51:20.009Z</time>
      </trkpt>
      <trkpt lat="47.76299" lon="5.17129">
        <ele>507</ele>
        <time>2019-02-12T13:51:23.009Z</time>
      </trkpt>
      <trkpt lat="47.76302" lon="5.17127">
        <ele>507</ele>
        <time>2019-02-12T13:51:25.009Z</time>
      </trkpt>
      <trkpt lat="47.76307" lon="5.17125">
        <ele>507</ele>
        <time>2019-02-12T13:51:29.009Z</time>
      </trkpt>
      <trkpt lat="47.7631" lon="5.17121">
        <ele>507</ele>
        <time>2019-02-12T13:51:32.009Z</time>
      </trkpt>
      <trkpt lat="47.76314" lon="5.17117">
        <ele>507</ele>
        <time>2019-02-12T13:51:36.009Z</time>
      </trkpt>
      <trkpt lat="47.76319" lon="5.17116">
        <ele>507</ele>
        <time>2019-02-12T13:51:39.009Z</time>
      </trkpt>
      <trkpt lat="47.76323" lon="5.17113">
        <ele>507</ele>
        <time>2019-02-12T13:51:42.009Z</time>
      </trkpt>
      <trkpt lat="47.76327" lon="5.17109">
        <ele>507</ele>
        <time>2019-02-12T13:51:45.009Z</time>
      </trkpt>
      <trkpt lat="47.7633" lon="5.17105">
        <ele>507</ele>
        <time>2019-02-12T13:51:48.009Z</time>
      </trkpt>
      <trkpt lat="47.76336" lon="5.17102">
        <ele>507</ele>
        <time>2019-02-12T13:51:52.009Z</time>
      </trkpt>
      <trkpt lat="47.76341" lon="5.17097">
        <ele>507</ele>
        <time>2019-02-12T13:51:57.009Z</time>
      </trkpt>
      <trkpt lat="47.76344" lon="5.17095">
        <ele>507</ele>
        <time>2019-02-12T13:52:00.009Z</time>
      </trkpt>
      <trkpt lat="47.76347" lon="5.17091">
        <ele>507</ele>
        <time>2019-02-12T13:52:04.009Z</time>
      </trkpt>
      <trkpt lat="47.76351" lon="5.17089">
        <ele>507</ele>
        <time>2019-02-12T13:52:08.009Z</time>
      </trkpt>
      <trkpt lat="47.76355" lon="5.17086">
        <ele>507</ele>
        <time>2019-02-12T13:52:10.009Z</time>
      </trkpt>
      <trkpt lat="47.76358" lon="5.17083">
        <ele>507</ele>
        <time>2019-02-12T13:52:13.009Z</time>
      </trkpt>
      <trkpt lat="47.76363" lon="5.1708">
        <ele>507</ele>
        <time>2019-02-12T13:52:17.009Z</time>
      </trkpt>
      <trkpt lat="47.76367" lon="5.17077">
        <ele>507</ele>
        <time>2019-02-12T13:52:20.009Z</time>
      </trkpt>
      <trkpt lat="47.76371" lon="5.1707">
        <ele>507</ele>
        <time>2019-02-12T13:52:24.009Z</time>
      </trkpt>
      <trkpt lat="47.76374" lon="5.17064">
        <ele>507</ele>
        <time>2019-02-12T13:52:27.009Z</time>
      </trkpt>
      <trkpt lat="47.76377" lon="5.17061">
        <ele>507</ele>
        <time>2019-02-12T13:52:31.009Z</time>
      </trkpt>
      <trkpt lat="47.76376" lon="5.17054">
        <ele>507</ele>
        <time>2019-02-12T13:52:35.009Z</time>
      </trkpt>
      <trkpt lat="47.76376" lon="5.17048">
        <ele>507</ele>
        <time>2019-02-12T13:52:38.009Z</time>
      </trkpt>
      <trkpt lat="47.76377" lon="5.17041">
        <ele>507</ele>
        <time>2019-02-12T13:52:42.009Z</time>
      </trkpt>
      <trkpt lat="47.7638" lon="5.17035">
        <ele>507</ele>
        <time>2019-02-12T13:52:46.009Z</time>
      </trkpt>
      <trkpt lat="47.76384" lon="5.17033">
        <ele>507</ele>
        <time>2019-02-12T13:52:48.009Z</time>
      </trkpt>
      <trkpt lat="47.76388" lon="5.17036">
        <ele>507</ele>
        <time>2019-02-12T13:52:50.009Z</time>
      </trkpt>
      <trkpt lat="47.76392" lon="5.17041">
        <ele>507</ele>
        <time>2019-02-12T13:52:53.009Z</time>
      </trkpt>
      <trkpt lat="47.76396" lon="5.17046">
        <ele>507</ele>
        <time>2019-02-12T13:52:56.009Z</time>
      </trkpt>
      <trkpt lat="47.76399" lon="5.17051">
        <ele>507</ele>
        <time>2019-02-12T13:52:59.009Z</time>
      </trkpt>
      <trkpt lat="47.76404" lon="5.17054">
        <ele>507</ele>
        <time>2019-02-12T13:53:02.009Z</time>
      </trkpt>
      <trkpt lat="47.76408" lon="5.17056">
        <ele>507</ele>
        <time>2019-02-12T13:53:05.009Z</time>
      </trkpt>
      <trkpt lat="47.76413" lon="5.17058">
        <ele>507</ele>
        <time>2019-02-12T13:53:08.009Z</time>
      </trkpt>
      <trkpt lat="47.76413" lon="5.17064">
        <ele>507</ele>
        <time>2019-02-12T13:53:12.009Z</time>
      </trkpt>
      <trkpt lat="47.76411" lon="5.1707">
        <ele>505</ele>
        <time>2019-02-12T13:53:15.009Z</time>
      </trkpt>
      <trkpt lat="47.76409" lon="5.17076">
        <ele>505</ele>
        <time>2019-02-12T13:53:18.009Z</time>
      </trkpt>
      <trkpt lat="47.76407" lon="5.17079">
        <ele>505</ele>
        <time>2019-02-12T13:53:20.009Z</time>
      </trkpt>
      <trkpt lat="47.76403" lon="5.17083">
        <ele>505</ele>
        <time>2019-02-12T13:53:22.009Z</time>
      </trkpt>
      <trkpt lat="47.764" lon="5.17086">
        <ele>504</ele>
        <time>2019-02-12T13:53:25.009Z</time>
      </trkpt>
      <trkpt lat="47.76398" lon="5.17093">
        <ele>504</ele>
        <time>2019-02-12T13:53:29.009Z</time>
      </trkpt>
      <trkpt lat="47.76397" lon="5.17099">
        <ele>504</ele>
        <time>2019-02-12T13:53:33.009Z</time>
      </trkpt>
      <trkpt lat="47.76396" lon="5.17105">
        <ele>504</ele>
        <time>2019-02-12T13:53:36.009Z</time>
      </trkpt>
      <trkpt lat="47.76394" lon="5.17111">
        <ele>504</ele>
        <time>2019-02-12T13:53:39.009Z</time>
      </trkpt>
      <trkpt lat="47.76391" lon="5.17116">
        <ele>504</ele>
        <time>2019-02-12T13:53:42.009Z</time>
      </trkpt>
      <trkpt lat="47.76389" lon="5.17123">
        <ele>504</ele>
        <time>2019-02-12T13:53:46.009Z</time>
      </trkpt>
      <trkpt lat="47.76388" lon="5.17129">
        <ele>504</ele>
        <time>2019-02-12T13:53:49.009Z</time>
      </trkpt>
      <trkpt lat="47.76386" lon="5.17133">
        <ele>504</ele>
        <time>2019-02-12T13:53:52.009Z</time>
      </trkpt>
      <trkpt lat="47.76384" lon="5.1714">
        <ele>503</ele>
        <time>2019-02-12T13:53:55.009Z</time>
      </trkpt>
      <trkpt lat="47.76383" lon="5.17146">
        <ele>503</ele>
        <time>2019-02-12T13:53:57.009Z</time>
      </trkpt>
      <trkpt lat="47.76381" lon="5.17151">
        <ele>503</ele>
        <time>2019-02-12T13:53:59.009Z</time>
      </trkpt>
      <trkpt lat="47.76379" lon="5.17156">
        <ele>503</ele>
        <time>2019-02-12T13:54:02.009Z</time>
      </trkpt>
      <trkpt lat="47.76377" lon="5.17162">
        <ele>503</ele>
        <time>2019-02-12T13:54:06.009Z</time>
      </trkpt>
      <trkpt lat="47.76374" lon="5.17166">
        <ele>503</ele>
        <time>2019-02-12T13:54:09.009Z</time>
      </trkpt>
      <trkpt lat="47.76373" lon="5.17175">
        <ele>502.42085333333</ele>
        <time>2019-02-12T13:54:13.009Z</time>
      </trkpt>
      <trkpt lat="47.76371" lon="5.17181">
        <ele>500</ele>
        <time>2019-02-12T13:54:16.009Z</time>
      </trkpt>
      <trkpt lat="47.76369" lon="5.17186">
        <ele>499.39053342136</ele>
        <time>2019-02-12T13:54:20.009Z</time>
      </trkpt>
      <trkpt lat="47.76368" lon="5.17193">
        <ele>499</ele>
        <time>2019-02-12T13:54:24.009Z</time>
      </trkpt>
      <trkpt lat="47.76366" lon="5.17199">
        <ele>499</ele>
        <time>2019-02-12T13:54:28.009Z</time>
      </trkpt>
      <trkpt lat="47.76364" lon="5.17204">
        <ele>499</ele>
        <time>2019-02-12T13:54:31.009Z</time>
      </trkpt>
      <trkpt lat="47.76363" lon="5.1721">
        <ele>498</ele>
        <time>2019-02-12T13:54:35.009Z</time>
      </trkpt>
      <trkpt lat="47.76361" lon="5.17217">
        <ele>498</ele>
        <time>2019-02-12T13:54:38.009Z</time>
      </trkpt>
      <trkpt lat="47.76357" lon="5.17223">
        <ele>498</ele>
        <time>2019-02-12T13:54:41.009Z</time>
      </trkpt>
      <trkpt lat="47.76355" lon="5.17228">
        <ele>497</ele>
        <time>2019-02-12T13:54:45.009Z</time>
      </trkpt>
      <trkpt lat="47.76354" lon="5.17233">
        <ele>497</ele>
        <time>2019-02-12T13:54:49.009Z</time>
      </trkpt>
      <trkpt lat="47.76352" lon="5.17239">
        <ele>497</ele>
        <time>2019-02-12T13:54:52.009Z</time>
      </trkpt>
      <trkpt lat="47.7635" lon="5.17248">
        <ele>497</ele>
        <time>2019-02-12T13:54:56.009Z</time>
      </trkpt>
      <trkpt lat="47.76349" lon="5.17254">
        <ele>497</ele>
        <time>2019-02-12T13:55:00.009Z</time>
      </trkpt>
      <trkpt lat="47.76348" lon="5.17259">
        <ele>496.45463902561</ele>
        <time>2019-02-12T13:55:03.009Z</time>
      </trkpt>
      <trkpt lat="47.76345" lon="5.17265">
        <ele>496</ele>
        <time>2019-02-12T13:55:06.009Z</time>
      </trkpt>
      <trkpt lat="47.76342" lon="5.1727">
        <ele>496</ele>
        <time>2019-02-12T13:55:09.009Z</time>
      </trkpt>
      <trkpt lat="47.7634" lon="5.17275">
        <ele>496</ele>
        <time>2019-02-12T13:55:13.009Z</time>
      </trkpt>
      <trkpt lat="47.76337" lon="5.17282">
        <ele>495</ele>
        <time>2019-02-12T13:55:17.009Z</time>
      </trkpt>
      <trkpt lat="47.76335" lon="5.17288">
        <ele>495</ele>
        <time>2019-02-12T13:55:21.009Z</time>
      </trkpt>
      <trkpt lat="47.76333" lon="5.17293">
        <ele>495</ele>
        <time>2019-02-12T13:55:24.009Z</time>
      </trkpt>
      <trkpt lat="47.76331" lon="5.17298">
        <ele>495</ele>
        <time>2019-02-12T13:55:27.009Z</time>
      </trkpt>
      <trkpt lat="47.76329" lon="5.17303">
        <ele>495</ele>
        <time>2019-02-12T13:55:29.009Z</time>
      </trkpt>
      <trkpt lat="47.76326" lon="5.17309">
        <ele>495</ele>
        <time>2019-02-12T13:55:32.009Z</time>
      </trkpt>
      <trkpt lat="47.76324" lon="5.17313">
        <ele>495</ele>
        <time>2019-02-12T13:55:35.009Z</time>
      </trkpt>
      <trkpt lat="47.76321" lon="5.17319">
        <ele>494</ele>
        <time>2019-02-12T13:55:38.009Z</time>
      </trkpt>
      <trkpt lat="47.7632" lon="5.17326">
        <ele>494</ele>
        <time>2019-02-12T13:55:41.009Z</time>
      </trkpt>
      <trkpt lat="47.7632" lon="5.17334">
        <ele>494</ele>
        <time>2019-02-12T13:55:45.009Z</time>
      </trkpt>
      <trkpt lat="47.76318" lon="5.1734">
        <ele>492</ele>
        <time>2019-02-12T13:55:48.009Z</time>
      </trkpt>
      <trkpt lat="47.76317" lon="5.17345">
        <ele>492</ele>
        <time>2019-02-12T13:55:51.009Z</time>
      </trkpt>
      <trkpt lat="47.76315" lon="5.17349">
        <ele>492</ele>
        <time>2019-02-12T13:55:54.009Z</time>
      </trkpt>
      <trkpt lat="47.76314" lon="5.17355">
        <ele>491</ele>
        <time>2019-02-12T13:55:57.009Z</time>
      </trkpt>
      <trkpt lat="47.76312" lon="5.17362">
        <ele>491</ele>
        <time>2019-02-12T13:56:01.009Z</time>
      </trkpt>
      <trkpt lat="47.76309" lon="5.17368">
        <ele>491</ele>
        <time>2019-02-12T13:56:04.009Z</time>
      </trkpt>
      <trkpt lat="47.76307" lon="5.17373">
        <ele>491</ele>
        <time>2019-02-12T13:56:07.009Z</time>
      </trkpt>
      <trkpt lat="47.76304" lon="5.17379">
        <ele>491</ele>
        <time>2019-02-12T13:56:10.009Z</time>
      </trkpt>
      <trkpt lat="47.76302" lon="5.17385">
        <ele>491</ele>
        <time>2019-02-12T13:56:13.009Z</time>
      </trkpt>
      <trkpt lat="47.763" lon="5.17392">
        <ele>491</ele>
        <time>2019-02-12T13:56:16.009Z</time>
      </trkpt>
      <trkpt lat="47.76298" lon="5.17399">
        <ele>491</ele>
        <time>2019-02-12T13:56:19.009Z</time>
      </trkpt>
      <trkpt lat="47.76295" lon="5.17405">
        <ele>491</ele>
        <time>2019-02-12T13:56:22.009Z</time>
      </trkpt>
      <trkpt lat="47.76293" lon="5.17411">
        <ele>490.35803428571</ele>
        <time>2019-02-12T13:56:25.009Z</time>
      </trkpt>
      <trkpt lat="47.76292" lon="5.17417">
        <ele>490</ele>
        <time>2019-02-12T13:56:29.009Z</time>
      </trkpt>
      <trkpt lat="47.76291" lon="5.17422">
        <ele>490</ele>
        <time>2019-02-12T13:56:32.009Z</time>
      </trkpt>
      <trkpt lat="47.76289" lon="5.17427">
        <ele>490</ele>
        <time>2019-02-12T13:56:35.009Z</time>
      </trkpt>
      <trkpt lat="47.76287" lon="5.17434">
        <ele>490</ele>
        <time>2019-02-12T13:56:39.009Z</time>
      </trkpt>
      <trkpt lat="47.76286" lon="5.1744">
        <ele>490</ele>
        <time>2019-02-12T13:56:42.009Z</time>
      </trkpt>
      <trkpt lat="47.76284" lon="5.17446">
        <ele>490</ele>
        <time>2019-02-12T13:56:46.009Z</time>
      </trkpt>
      <trkpt lat="47.76282" lon="5.17453">
        <ele>490</ele>
        <time>2019-02-12T13:56:50.009Z</time>
      </trkpt>
      <trkpt lat="47.7628" lon="5.17458">
        <ele>490</ele>
        <time>2019-02-12T13:56:53.009Z</time>
      </trkpt>
      <trkpt lat="47.76278" lon="5.17463">
        <ele>489</ele>
        <time>2019-02-12T13:56:56.009Z</time>
      </trkpt>
      <trkpt lat="47.76276" lon="5.1747">
        <ele>489</ele>
        <time>2019-02-12T13:56:59.009Z</time>
      </trkpt>
      <trkpt lat="47.76274" lon="5.17475">
        <ele>489</ele>
        <time>2019-02-12T13:57:02.009Z</time>
      </trkpt>
      <trkpt lat="47.76272" lon="5.17479">
        <ele>489</ele>
        <time>2019-02-12T13:57:05.009Z</time>
      </trkpt>
      <trkpt lat="47.76269" lon="5.17489">
        <ele>489</ele>
        <time>2019-02-12T13:57:11.009Z</time>
      </trkpt>
      <trkpt lat="47.76267" lon="5.17495">
        <ele>489</ele>
        <time>2019-02-12T13:57:14.009Z</time>
      </trkpt>
      <trkpt lat="47.76266" lon="5.17501">
        <ele>488</ele>
        <time>2019-02-12T13:57:17.009Z</time>
      </trkpt>
      <trkpt lat="47.76265" lon="5.17508">
        <ele>488</ele>
        <time>2019-02-12T13:57:20.009Z</time>
      </trkpt>
      <trkpt lat="47.76263" lon="5.17513">
        <ele>488</ele>
        <time>2019-02-12T13:57:23.009Z</time>
      </trkpt>
      <trkpt lat="47.76261" lon="5.17518">
        <ele>488</ele>
        <time>2019-02-12T13:57:26.009Z</time>
      </trkpt>
      <trkpt lat="47.76259" lon="5.17524">
        <ele>488</ele>
        <time>2019-02-12T13:57:30.009Z</time>
      </trkpt>
      <trkpt lat="47.76257" lon="5.1753">
        <ele>488</ele>
        <time>2019-02-12T13:57:33.009Z</time>
      </trkpt>
      <trkpt lat="47.76254" lon="5.17536">
        <ele>487</ele>
        <time>2019-02-12T13:57:36.009Z</time>
      </trkpt>
      <trkpt lat="47.76251" lon="5.17541">
        <ele>487</ele>
        <time>2019-02-12T13:57:39.009Z</time>
      </trkpt>
      <trkpt lat="47.76248" lon="5.17546">
        <ele>487</ele>
        <time>2019-02-12T13:57:42.009Z</time>
      </trkpt>
      <trkpt lat="47.76247" lon="5.17551">
        <ele>487</ele>
        <time>2019-02-12T13:57:44.009Z</time>
      </trkpt>
      <trkpt lat="47.76244" lon="5.17557">
        <ele>487</ele>
        <time>2019-02-12T13:57:47.009Z</time>
      </trkpt>
      <trkpt lat="47.76243" lon="5.17564">
        <ele>487</ele>
        <time>2019-02-12T13:57:51.009Z</time>
      </trkpt>
      <trkpt lat="47.76241" lon="5.17569">
        <ele>487</ele>
        <time>2019-02-12T13:57:54.009Z</time>
      </trkpt>
      <trkpt lat="47.76241" lon="5.17575">
        <ele>487</ele>
        <time>2019-02-12T13:57:57.009Z</time>
      </trkpt>
      <trkpt lat="47.7624" lon="5.17582">
        <ele>487</ele>
        <time>2019-02-12T13:58:00.009Z</time>
      </trkpt>
      <trkpt lat="47.76238" lon="5.17588">
        <ele>486.00691526188</ele>
        <time>2019-02-12T13:58:04.009Z</time>
      </trkpt>
      <trkpt lat="47.76236" lon="5.17593">
        <ele>486</ele>
        <time>2019-02-12T13:58:07.009Z</time>
      </trkpt>
      <trkpt lat="47.76233" lon="5.17599">
        <ele>486</ele>
        <time>2019-02-12T13:58:10.009Z</time>
      </trkpt>
      <trkpt lat="47.76231" lon="5.17605">
        <ele>486</ele>
        <time>2019-02-12T13:58:13.009Z</time>
      </trkpt>
      <trkpt lat="47.76228" lon="5.1761">
        <ele>485.51146666667</ele>
        <time>2019-02-12T13:58:15.009Z</time>
      </trkpt>
      <trkpt lat="47.76226" lon="5.17619">
        <ele>485</ele>
        <time>2019-02-12T13:58:19.009Z</time>
      </trkpt>
      <trkpt lat="47.76224" lon="5.17625">
        <ele>485</ele>
        <time>2019-02-12T13:58:22.009Z</time>
      </trkpt>
      <trkpt lat="47.76221" lon="5.17632">
        <ele>485</ele>
        <time>2019-02-12T13:58:25.009Z</time>
      </trkpt>
      <trkpt lat="47.76218" lon="5.17638">
        <ele>484</ele>
        <time>2019-02-12T13:58:28.009Z</time>
      </trkpt>
      <trkpt lat="47.76216" lon="5.17644">
        <ele>484</ele>
        <time>2019-02-12T13:58:32.009Z</time>
      </trkpt>
      <trkpt lat="47.76215" lon="5.1765">
        <ele>484</ele>
        <time>2019-02-12T13:58:35.009Z</time>
      </trkpt>
      <trkpt lat="47.76214" lon="5.17657">
        <ele>483</ele>
        <time>2019-02-12T13:58:39.009Z</time>
      </trkpt>
      <trkpt lat="47.76213" lon="5.17663">
        <ele>483</ele>
        <time>2019-02-12T13:58:42.009Z</time>
      </trkpt>
      <trkpt lat="47.7621" lon="5.17668">
        <ele>483</ele>
        <time>2019-02-12T13:58:45.009Z</time>
      </trkpt>
      <trkpt lat="47.76209" lon="5.17674">
        <ele>482.63818101422</ele>
        <time>2019-02-12T13:58:48.009Z</time>
      </trkpt>
      <trkpt lat="47.76207" lon="5.17681">
        <ele>482</ele>
        <time>2019-02-12T13:58:51.009Z</time>
      </trkpt>
      <trkpt lat="47.76205" lon="5.17687">
        <ele>482</ele>
        <time>2019-02-12T13:58:54.009Z</time>
      </trkpt>
      <trkpt lat="47.76203" lon="5.17691">
        <ele>482</ele>
        <time>2019-02-12T13:58:56.009Z</time>
      </trkpt>
      <trkpt lat="47.762" lon="5.17699">
        <ele>481</ele>
        <time>2019-02-12T13:59:00.009Z</time>
      </trkpt>
      <trkpt lat="47.76197" lon="5.17704">
        <ele>481</ele>
        <time>2019-02-12T13:59:03.009Z</time>
      </trkpt>
      <trkpt lat="47.76194" lon="5.17709">
        <ele>480</ele>
        <time>2019-02-12T13:59:06.009Z</time>
      </trkpt>
      <trkpt lat="47.76192" lon="5.17715">
        <ele>480</ele>
        <time>2019-02-12T13:59:09.009Z</time>
      </trkpt>
      <trkpt lat="47.7619" lon="5.17721">
        <ele>480</ele>
        <time>2019-02-12T13:59:12.009Z</time>
      </trkpt>
      <trkpt lat="47.76188" lon="5.17727">
        <ele>480</ele>
        <time>2019-02-12T13:59:15.009Z</time>
      </trkpt>
      <trkpt lat="47.76187" lon="5.17734">
        <ele>477</ele>
        <time>2019-02-12T13:59:18.009Z</time>
      </trkpt>
      <trkpt lat="47.76185" lon="5.17739">
        <ele>476.57412794601</ele>
        <time>2019-02-12T13:59:20.009Z</time>
      </trkpt>
      <trkpt lat="47.76183" lon="5.17744">
        <ele>476</ele>
        <time>2019-02-12T13:59:22.009Z</time>
      </trkpt>
      <trkpt lat="47.76181" lon="5.17749">
        <ele>476</ele>
        <time>2019-02-12T13:59:25.009Z</time>
      </trkpt>
      <trkpt lat="47.7618" lon="5.17755">
        <ele>476</ele>
        <time>2019-02-12T13:59:28.009Z</time>
      </trkpt>
      <trkpt lat="47.7618" lon="5.17761">
        <ele>476</ele>
        <time>2019-02-12T13:59:31.009Z</time>
      </trkpt>
      <trkpt lat="47.76177" lon="5.17768">
        <ele>477</ele>
        <time>2019-02-12T13:59:35.009Z</time>
      </trkpt>
      <trkpt lat="47.76174" lon="5.17773">
        <ele>477</ele>
        <time>2019-02-12T13:59:38.009Z</time>
      </trkpt>
      <trkpt lat="47.76171" lon="5.1778">
        <ele>478.197504</ele>
        <time>2019-02-12T13:59:42.009Z</time>
      </trkpt>
      <trkpt lat="47.76169" lon="5.17785">
        <ele>479</ele>
        <time>2019-02-12T13:59:45.009Z</time>
      </trkpt>
      <trkpt lat="47.76165" lon="5.17792">
        <ele>479</ele>
        <time>2019-02-12T13:59:48.009Z</time>
      </trkpt>
      <trkpt lat="47.76163" lon="5.17798">
        <ele>481</ele>
        <time>2019-02-12T13:59:51.009Z</time>
      </trkpt>
      <trkpt lat="47.76161" lon="5.17803">
        <ele>481</ele>
        <time>2019-02-12T13:59:53.009Z</time>
      </trkpt>
      <trkpt lat="47.7616" lon="5.1781">
        <ele>481</ele>
        <time>2019-02-12T13:59:56.009Z</time>
      </trkpt>
      <trkpt lat="47.76158" lon="5.17816">
        <ele>481</ele>
        <time>2019-02-12T14:00:00.009Z</time>
      </trkpt>
      <trkpt lat="47.76156" lon="5.17821">
        <ele>481</ele>
        <time>2019-02-12T14:00:04.009Z</time>
      </trkpt>
      <trkpt lat="47.76154" lon="5.17828">
        <ele>482</ele>
        <time>2019-02-12T14:00:07.009Z</time>
      </trkpt>
      <trkpt lat="47.76151" lon="5.17834">
        <ele>482</ele>
        <time>2019-02-12T14:00:10.009Z</time>
      </trkpt>
      <trkpt lat="47.76149" lon="5.1784">
        <ele>482</ele>
        <time>2019-02-12T14:00:13.009Z</time>
      </trkpt>
      <trkpt lat="47.76148" lon="5.17845">
        <ele>482</ele>
        <time>2019-02-12T14:00:16.009Z</time>
      </trkpt>
      <trkpt lat="47.76146" lon="5.17851">
        <ele>483</ele>
        <time>2019-02-12T14:00:19.009Z</time>
      </trkpt>
      <trkpt lat="47.76144" lon="5.17857">
        <ele>483</ele>
        <time>2019-02-12T14:00:22.009Z</time>
      </trkpt>
      <trkpt lat="47.76142" lon="5.17863">
        <ele>483</ele>
        <time>2019-02-12T14:00:25.009Z</time>
      </trkpt>
      <trkpt lat="47.76141" lon="5.17868">
        <ele>483</ele>
        <time>2019-02-12T14:00:28.009Z</time>
      </trkpt>
      <trkpt lat="47.7614" lon="5.17875">
        <ele>483</ele>
        <time>2019-02-12T14:00:32.009Z</time>
      </trkpt>
      <trkpt lat="47.76136" lon="5.17881">
        <ele>483</ele>
        <time>2019-02-12T14:00:35.009Z</time>
      </trkpt>
      <trkpt lat="47.76133" lon="5.17887">
        <ele>483</ele>
        <time>2019-02-12T14:00:38.009Z</time>
      </trkpt>
      <trkpt lat="47.76133" lon="5.17892">
        <ele>483</ele>
        <time>2019-02-12T14:00:41.009Z</time>
      </trkpt>
      <trkpt lat="47.76133" lon="5.17898">
        <ele>483</ele>
        <time>2019-02-12T14:00:45.009Z</time>
      </trkpt>
      <trkpt lat="47.76138" lon="5.17902">
        <ele>483</ele>
        <time>2019-02-12T14:00:51.009Z</time>
      </trkpt>
      <trkpt lat="47.76141" lon="5.17907">
        <ele>483</ele>
        <time>2019-02-12T14:00:54.009Z</time>
      </trkpt>
      <trkpt lat="47.76145" lon="5.17912">
        <ele>483</ele>
        <time>2019-02-12T14:00:58.009Z</time>
      </trkpt>
      <trkpt lat="47.76147" lon="5.17918">
        <ele>483</ele>
        <time>2019-02-12T14:01:01.009Z</time>
      </trkpt>
      <trkpt lat="47.76149" lon="5.17924">
        <ele>482.0293148347</ele>
        <time>2019-02-12T14:01:04.009Z</time>
      </trkpt>
      <trkpt lat="47.76149" lon="5.1793">
        <ele>482</ele>
        <time>2019-02-12T14:01:07.009Z</time>
      </trkpt>
      <trkpt lat="47.76148" lon="5.17936">
        <ele>482</ele>
        <time>2019-02-12T14:01:10.009Z</time>
      </trkpt>
      <trkpt lat="47.76148" lon="5.17942">
        <ele>482</ele>
        <time>2019-02-12T14:01:13.009Z</time>
      </trkpt>
      <trkpt lat="47.76148" lon="5.17948">
        <ele>483</ele>
        <time>2019-02-12T14:01:16.009Z</time>
      </trkpt>
      <trkpt lat="47.76149" lon="5.17954">
        <ele>483</ele>
        <time>2019-02-12T14:01:19.009Z</time>
      </trkpt>
      <trkpt lat="47.76149" lon="5.17961">
        <ele>483</ele>
        <time>2019-02-12T14:01:22.009Z</time>
      </trkpt>
      <trkpt lat="47.7615" lon="5.17967">
        <ele>483</ele>
        <time>2019-02-12T14:01:25.009Z</time>
      </trkpt>
      <trkpt lat="47.7615" lon="5.17973">
        <ele>483</ele>
        <time>2019-02-12T14:01:28.009Z</time>
      </trkpt>
      <trkpt lat="47.7615" lon="5.17979">
        <ele>483</ele>
        <time>2019-02-12T14:01:31.009Z</time>
      </trkpt>
      <trkpt lat="47.76151" lon="5.17985">
        <ele>483</ele>
        <time>2019-02-12T14:01:34.009Z</time>
      </trkpt>
      <trkpt lat="47.76151" lon="5.17991">
        <ele>483</ele>
        <time>2019-02-12T14:01:37.009Z</time>
      </trkpt>
      <trkpt lat="47.76152" lon="5.17997">
        <ele>483</ele>
        <time>2019-02-12T14:01:40.009Z</time>
      </trkpt>
      <trkpt lat="47.7615" lon="5.18003">
        <ele>483</ele>
        <time>2019-02-12T14:01:43.009Z</time>
      </trkpt>
      <trkpt lat="47.76151" lon="5.18009">
        <ele>482</ele>
        <time>2019-02-12T14:01:46.009Z</time>
      </trkpt>
      <trkpt lat="47.76152" lon="5.18015">
        <ele>482</ele>
        <time>2019-02-12T14:01:49.009Z</time>
      </trkpt>
      <trkpt lat="47.76153" lon="5.18022">
        <ele>482</ele>
        <time>2019-02-12T14:01:52.009Z</time>
      </trkpt>
      <trkpt lat="47.76152" lon="5.18027">
        <ele>482</ele>
        <time>2019-02-12T14:01:54.009Z</time>
      </trkpt>
      <trkpt lat="47.76151" lon="5.18035">
        <ele>482</ele>
        <time>2019-02-12T14:01:57.009Z</time>
      </trkpt>
      <trkpt lat="47.76152" lon="5.18042">
        <ele>482</ele>
        <time>2019-02-12T14:02:01.009Z</time>
      </trkpt>
      <trkpt lat="47.76152" lon="5.1805">
        <ele>482</ele>
        <time>2019-02-12T14:02:04.009Z</time>
      </trkpt>
      <trkpt lat="47.76153" lon="5.18056">
        <ele>482</ele>
        <time>2019-02-12T14:02:07.009Z</time>
      </trkpt>
      <trkpt lat="47.76155" lon="5.18062">
        <ele>482</ele>
        <time>2019-02-12T14:02:11.009Z</time>
      </trkpt>
      <trkpt lat="47.76158" lon="5.18068">
        <ele>482</ele>
        <time>2019-02-12T14:02:14.009Z</time>
      </trkpt>
      <trkpt lat="47.7616" lon="5.18073">
        <ele>482</ele>
        <time>2019-02-12T14:02:16.009Z</time>
      </trkpt>
      <trkpt lat="47.76162" lon="5.18079">
        <ele>482</ele>
        <time>2019-02-12T14:02:19.009Z</time>
      </trkpt>
      <trkpt lat="47.76164" lon="5.18085">
        <ele>482</ele>
        <time>2019-02-12T14:02:22.009Z</time>
      </trkpt>
      <trkpt lat="47.76165" lon="5.18091">
        <ele>481</ele>
        <time>2019-02-12T14:02:26.009Z</time>
      </trkpt>
      <trkpt lat="47.76159" lon="5.18107">
        <ele>481</ele>
        <time>2019-02-12T14:11:45.009Z</time>
      </trkpt>
      <trkpt lat="47.76163" lon="5.18111">
        <ele>481</ele>
        <time>2019-02-12T14:11:48.009Z</time>
      </trkpt>
      <trkpt lat="47.76166" lon="5.18113">
        <ele>481</ele>
        <time>2019-02-12T14:11:50.009Z</time>
      </trkpt>
      <trkpt lat="47.76172" lon="5.18115">
        <ele>481</ele>
        <time>2019-02-12T14:11:53.009Z</time>
      </trkpt>
      <trkpt lat="47.76175" lon="5.18119">
        <ele>480</ele>
        <time>2019-02-12T14:11:55.009Z</time>
      </trkpt>
      <trkpt lat="47.7618" lon="5.18121">
        <ele>480</ele>
        <time>2019-02-12T14:11:58.009Z</time>
      </trkpt>
      <trkpt lat="47.76184" lon="5.18123">
        <ele>480</ele>
        <time>2019-02-12T14:12:00.009Z</time>
      </trkpt>
      <trkpt lat="47.76188" lon="5.18125">
        <ele>480</ele>
        <time>2019-02-12T14:12:03.009Z</time>
      </trkpt>
      <trkpt lat="47.76191" lon="5.18128">
        <ele>479</ele>
        <time>2019-02-12T14:12:05.009Z</time>
      </trkpt>
      <trkpt lat="47.76197" lon="5.18134">
        <ele>479</ele>
        <time>2019-02-12T14:12:08.009Z</time>
      </trkpt>
      <trkpt lat="47.76201" lon="5.18139">
        <ele>479</ele>
        <time>2019-02-12T14:12:11.009Z</time>
      </trkpt>
      <trkpt lat="47.76204" lon="5.18144">
        <ele>478.52301174658</ele>
        <time>2019-02-12T14:12:14.009Z</time>
      </trkpt>
      <trkpt lat="47.76207" lon="5.18149">
        <ele>478</ele>
        <time>2019-02-12T14:12:17.009Z</time>
      </trkpt>
      <trkpt lat="47.7621" lon="5.18154">
        <ele>478</ele>
        <time>2019-02-12T14:12:20.009Z</time>
      </trkpt>
      <trkpt lat="47.76213" lon="5.18158">
        <ele>478</ele>
        <time>2019-02-12T14:12:22.009Z</time>
      </trkpt>
      <trkpt lat="47.76216" lon="5.18165">
        <ele>476.92562228264</ele>
        <time>2019-02-12T14:12:25.009Z</time>
      </trkpt>
      <trkpt lat="47.76217" lon="5.1817">
        <ele>476</ele>
        <time>2019-02-12T14:12:28.009Z</time>
      </trkpt>
      <trkpt lat="47.76218" lon="5.18176">
        <ele>476</ele>
        <time>2019-02-12T14:12:31.009Z</time>
      </trkpt>
      <trkpt lat="47.7622" lon="5.18181">
        <ele>476</ele>
        <time>2019-02-12T14:12:34.009Z</time>
      </trkpt>
      <trkpt lat="47.76221" lon="5.18187">
        <ele>476</ele>
        <time>2019-02-12T14:12:37.009Z</time>
      </trkpt>
      <trkpt lat="47.76224" lon="5.18191">
        <ele>476</ele>
        <time>2019-02-12T14:12:40.009Z</time>
      </trkpt>
      <trkpt lat="47.76227" lon="5.18197">
        <ele>476</ele>
        <time>2019-02-12T14:12:43.009Z</time>
      </trkpt>
      <trkpt lat="47.7623" lon="5.18202">
        <ele>476</ele>
        <time>2019-02-12T14:12:46.009Z</time>
      </trkpt>
      <trkpt lat="47.76231" lon="5.18208">
        <ele>476</ele>
        <time>2019-02-12T14:12:49.009Z</time>
      </trkpt>
      <trkpt lat="47.76233" lon="5.18213">
        <ele>476</ele>
        <time>2019-02-12T14:12:52.009Z</time>
      </trkpt>
      <trkpt lat="47.76236" lon="5.18217">
        <ele>475</ele>
        <time>2019-02-12T14:12:55.009Z</time>
      </trkpt>
      <trkpt lat="47.7624" lon="5.18223">
        <ele>475</ele>
        <time>2019-02-12T14:12:58.009Z</time>
      </trkpt>
      <trkpt lat="47.76242" lon="5.18227">
        <ele>475</ele>
        <time>2019-02-12T14:13:00.009Z</time>
      </trkpt>
      <trkpt lat="47.76246" lon="5.18231">
        <ele>475</ele>
        <time>2019-02-12T14:13:03.009Z</time>
      </trkpt>
      <trkpt lat="47.76248" lon="5.18234">
        <ele>474.44166768256</ele>
        <time>2019-02-12T14:13:05.009Z</time>
      </trkpt>
      <trkpt lat="47.76252" lon="5.1824">
        <ele>474</ele>
        <time>2019-02-12T14:13:08.009Z</time>
      </trkpt>
      <trkpt lat="47.76255" lon="5.18243">
        <ele>474</ele>
        <time>2019-02-12T14:13:11.009Z</time>
      </trkpt>
      <trkpt lat="47.76258" lon="5.18247">
        <ele>472.85808831813</ele>
        <time>2019-02-12T14:13:14.009Z</time>
      </trkpt>
      <trkpt lat="47.7626" lon="5.18252">
        <ele>472</ele>
        <time>2019-02-12T14:13:16.009Z</time>
      </trkpt>
      <trkpt lat="47.76262" lon="5.18258">
        <ele>472</ele>
        <time>2019-02-12T14:13:19.009Z</time>
      </trkpt>
      <trkpt lat="47.76266" lon="5.18264">
        <ele>472</ele>
        <time>2019-02-12T14:13:23.009Z</time>
      </trkpt>
      <trkpt lat="47.76268" lon="5.1827">
        <ele>472</ele>
        <time>2019-02-12T14:13:26.009Z</time>
      </trkpt>
      <trkpt lat="47.76271" lon="5.18273">
        <ele>471.65683615123</ele>
        <time>2019-02-12T14:13:30.009Z</time>
      </trkpt>
      <trkpt lat="47.76276" lon="5.18278">
        <ele>471</ele>
        <time>2019-02-12T14:13:34.009Z</time>
      </trkpt>
      <trkpt lat="47.7628" lon="5.18282">
        <ele>471</ele>
        <time>2019-02-12T14:13:37.009Z</time>
      </trkpt>
      <trkpt lat="47.76283" lon="5.18287">
        <ele>471</ele>
        <time>2019-02-12T14:13:40.009Z</time>
      </trkpt>
      <trkpt lat="47.76285" lon="5.18292">
        <ele>471</ele>
        <time>2019-02-12T14:13:43.009Z</time>
      </trkpt>
      <trkpt lat="47.76288" lon="5.18296">
        <ele>471</ele>
        <time>2019-02-12T14:13:46.009Z</time>
      </trkpt>
      <trkpt lat="47.76292" lon="5.183">
        <ele>469</ele>
        <time>2019-02-12T14:13:50.009Z</time>
      </trkpt>
      <trkpt lat="47.76294" lon="5.18304">
        <ele>469</ele>
        <time>2019-02-12T14:13:52.009Z</time>
      </trkpt>
      <trkpt lat="47.76297" lon="5.18308">
        <ele>469</ele>
        <time>2019-02-12T14:13:54.009Z</time>
      </trkpt>
      <trkpt lat="47.763" lon="5.18312">
        <ele>469</ele>
        <time>2019-02-12T14:13:56.009Z</time>
      </trkpt>
      <trkpt lat="47.76303" lon="5.18317">
        <ele>469</ele>
        <time>2019-02-12T14:13:59.009Z</time>
      </trkpt>
      <trkpt lat="47.76305" lon="5.18321">
        <ele>469</ele>
        <time>2019-02-12T14:14:01.009Z</time>
      </trkpt>
      <trkpt lat="47.76309" lon="5.18327">
        <ele>469</ele>
        <time>2019-02-12T14:14:04.009Z</time>
      </trkpt>
      <trkpt lat="47.76313" lon="5.18331">
        <ele>469</ele>
        <time>2019-02-12T14:14:09.009Z</time>
      </trkpt>
      <trkpt lat="47.76318" lon="5.18332">
        <ele>469</ele>
        <time>2019-02-12T14:14:12.009Z</time>
      </trkpt>
      <trkpt lat="47.76321" lon="5.18336">
        <ele>468.41221982023</ele>
        <time>2019-02-12T14:14:15.009Z</time>
      </trkpt>
      <trkpt lat="47.76324" lon="5.18342">
        <ele>468</ele>
        <time>2019-02-12T14:14:18.009Z</time>
      </trkpt>
      <trkpt lat="47.76327" lon="5.18346">
        <ele>468</ele>
        <time>2019-02-12T14:14:21.009Z</time>
      </trkpt>
      <trkpt lat="47.7633" lon="5.18352">
        <ele>467.35225267819</ele>
        <time>2019-02-12T14:14:24.009Z</time>
      </trkpt>
      <trkpt lat="47.76333" lon="5.18355">
        <ele>467</ele>
        <time>2019-02-12T14:14:27.009Z</time>
      </trkpt>
      <trkpt lat="47.76338" lon="5.18361">
        <ele>467</ele>
        <time>2019-02-12T14:14:31.009Z</time>
      </trkpt>
      <trkpt lat="47.76341" lon="5.18365">
        <ele>467</ele>
        <time>2019-02-12T14:14:34.009Z</time>
      </trkpt>
      <trkpt lat="47.76345" lon="5.18368">
        <ele>467</ele>
        <time>2019-02-12T14:14:37.009Z</time>
      </trkpt>
      <trkpt lat="47.76348" lon="5.18372">
        <ele>467</ele>
        <time>2019-02-12T14:14:40.009Z</time>
      </trkpt>
      <trkpt lat="47.76351" lon="5.18374">
        <ele>467</ele>
        <time>2019-02-12T14:14:42.009Z</time>
      </trkpt>
      <trkpt lat="47.76355" lon="5.18376">
        <ele>467</ele>
        <time>2019-02-12T14:14:45.009Z</time>
      </trkpt>
      <trkpt lat="47.7636" lon="5.18379">
        <ele>466</ele>
        <time>2019-02-12T14:14:49.009Z</time>
      </trkpt>
      <trkpt lat="47.76362" lon="5.18384">
        <ele>466</ele>
        <time>2019-02-12T14:14:52.009Z</time>
      </trkpt>
      <trkpt lat="47.76364" lon="5.1839">
        <ele>466</ele>
        <time>2019-02-12T14:14:55.009Z</time>
      </trkpt>
      <trkpt lat="47.76366" lon="5.18396">
        <ele>466</ele>
        <time>2019-02-12T14:14:58.009Z</time>
      </trkpt>
      <trkpt lat="47.7637" lon="5.18402">
        <ele>466</ele>
        <time>2019-02-12T14:15:02.009Z</time>
      </trkpt>
      <trkpt lat="47.76373" lon="5.18406">
        <ele>465.35213377271</ele>
        <time>2019-02-12T14:15:05.009Z</time>
      </trkpt>
      <trkpt lat="47.76377" lon="5.18408">
        <ele>465</ele>
        <time>2019-02-12T14:15:07.009Z</time>
      </trkpt>
      <trkpt lat="47.76382" lon="5.18411">
        <ele>465</ele>
        <time>2019-02-12T14:15:10.009Z</time>
      </trkpt>
      <trkpt lat="47.76386" lon="5.18414">
        <ele>465</ele>
        <time>2019-02-12T14:15:13.009Z</time>
      </trkpt>
      <trkpt lat="47.76389" lon="5.18419">
        <ele>465</ele>
        <time>2019-02-12T14:15:16.009Z</time>
      </trkpt>
      <trkpt lat="47.76392" lon="5.18424">
        <ele>465</ele>
        <time>2019-02-12T14:15:19.009Z</time>
      </trkpt>
      <trkpt lat="47.76395" lon="5.1843">
        <ele>465</ele>
        <time>2019-02-12T14:15:22.009Z</time>
      </trkpt>
      <trkpt lat="47.76399" lon="5.18435">
        <ele>465</ele>
        <time>2019-02-12T14:15:25.009Z</time>
      </trkpt>
      <trkpt lat="47.76402" lon="5.1844">
        <ele>465</ele>
        <time>2019-02-12T14:15:28.009Z</time>
      </trkpt>
      <trkpt lat="47.76407" lon="5.18446">
        <ele>465</ele>
        <time>2019-02-12T14:15:32.009Z</time>
      </trkpt>
      <trkpt lat="47.76409" lon="5.18452">
        <ele>465</ele>
        <time>2019-02-12T14:15:35.009Z</time>
      </trkpt>
      <trkpt lat="47.76412" lon="5.18456">
        <ele>465</ele>
        <time>2019-02-12T14:15:37.009Z</time>
      </trkpt>
      <trkpt lat="47.76414" lon="5.18462">
        <ele>464</ele>
        <time>2019-02-12T14:15:40.009Z</time>
      </trkpt>
      <trkpt lat="47.76417" lon="5.18466">
        <ele>464</ele>
        <time>2019-02-12T14:15:43.009Z</time>
      </trkpt>
      <trkpt lat="47.7642" lon="5.1847">
        <ele>464</ele>
        <time>2019-02-12T14:15:46.009Z</time>
      </trkpt>
      <trkpt lat="47.76422" lon="5.18475">
        <ele>464</ele>
        <time>2019-02-12T14:15:49.009Z</time>
      </trkpt>
      <trkpt lat="47.76426" lon="5.18482">
        <ele>464</ele>
        <time>2019-02-12T14:15:53.009Z</time>
      </trkpt>
      <trkpt lat="47.76429" lon="5.18487">
        <ele>464</ele>
        <time>2019-02-12T14:15:56.009Z</time>
      </trkpt>
      <trkpt lat="47.76432" lon="5.18492">
        <ele>464</ele>
        <time>2019-02-12T14:15:59.009Z</time>
      </trkpt>
      <trkpt lat="47.76434" lon="5.18498">
        <ele>464</ele>
        <time>2019-02-12T14:16:02.009Z</time>
      </trkpt>
      <trkpt lat="47.76437" lon="5.18503">
        <ele>463</ele>
        <time>2019-02-12T14:16:05.009Z</time>
      </trkpt>
      <trkpt lat="47.76439" lon="5.18509">
        <ele>463</ele>
        <time>2019-02-12T14:16:08.009Z</time>
      </trkpt>
      <trkpt lat="47.76441" lon="5.18515">
        <ele>463</ele>
        <time>2019-02-12T14:16:11.009Z</time>
      </trkpt>
      <trkpt lat="47.76445" lon="5.18522">
        <ele>463</ele>
        <time>2019-02-12T14:16:15.009Z</time>
      </trkpt>
      <trkpt lat="47.76448" lon="5.18527">
        <ele>463</ele>
        <time>2019-02-12T14:16:18.009Z</time>
      </trkpt>
      <trkpt lat="47.76451" lon="5.18533">
        <ele>463</ele>
        <time>2019-02-12T14:16:21.009Z</time>
      </trkpt>
      <trkpt lat="47.76455" lon="5.18539">
        <ele>463</ele>
        <time>2019-02-12T14:16:25.009Z</time>
      </trkpt>
      <trkpt lat="47.76458" lon="5.18543">
        <ele>463</ele>
        <time>2019-02-12T14:16:28.009Z</time>
      </trkpt>
      <trkpt lat="47.76462" lon="5.18547">
        <ele>463</ele>
        <time>2019-02-12T14:16:31.009Z</time>
      </trkpt>
      <trkpt lat="47.76466" lon="5.18553">
        <ele>462.74799467522</ele>
        <time>2019-02-12T14:16:35.009Z</time>
      </trkpt>
      <trkpt lat="47.76469" lon="5.18557">
        <ele>462</ele>
        <time>2019-02-12T14:16:38.009Z</time>
      </trkpt>
      <trkpt lat="47.76473" lon="5.18561">
        <ele>462</ele>
        <time>2019-02-12T14:16:41.009Z</time>
      </trkpt>
      <trkpt lat="47.76476" lon="5.18565">
        <ele>462</ele>
        <time>2019-02-12T14:16:44.009Z</time>
      </trkpt>
      <trkpt lat="47.7648" lon="5.18568">
        <ele>462</ele>
        <time>2019-02-12T14:16:47.009Z</time>
      </trkpt>
      <trkpt lat="47.76484" lon="5.18571">
        <ele>462</ele>
        <time>2019-02-12T14:16:50.009Z</time>
      </trkpt>
      <trkpt lat="47.76487" lon="5.18575">
        <ele>462</ele>
        <time>2019-02-12T14:16:53.009Z</time>
      </trkpt>
      <trkpt lat="47.76491" lon="5.1858">
        <ele>461</ele>
        <time>2019-02-12T14:16:57.009Z</time>
      </trkpt>
      <trkpt lat="47.76495" lon="5.18584">
        <ele>461</ele>
        <time>2019-02-12T14:17:00.009Z</time>
      </trkpt>
      <trkpt lat="47.76498" lon="5.18588">
        <ele>460.36835283062</ele>
        <time>2019-02-12T14:17:03.009Z</time>
      </trkpt>
      <trkpt lat="47.76501" lon="5.18592">
        <ele>460</ele>
        <time>2019-02-12T14:17:06.009Z</time>
      </trkpt>
      <trkpt lat="47.76504" lon="5.18596">
        <ele>460</ele>
        <time>2019-02-12T14:17:09.009Z</time>
      </trkpt>
      <trkpt lat="47.76508" lon="5.186">
        <ele>460</ele>
        <time>2019-02-12T14:17:12.009Z</time>
      </trkpt>
      <trkpt lat="47.76512" lon="5.18604">
        <ele>460</ele>
        <time>2019-02-12T14:17:15.009Z</time>
      </trkpt>
      <trkpt lat="47.76516" lon="5.18608">
        <ele>460</ele>
        <time>2019-02-12T14:17:18.009Z</time>
      </trkpt>
      <trkpt lat="47.76519" lon="5.18613">
        <ele>460</ele>
        <time>2019-02-12T14:17:22.009Z</time>
      </trkpt>
      <trkpt lat="47.76523" lon="5.18618">
        <ele>460</ele>
        <time>2019-02-12T14:17:25.009Z</time>
      </trkpt>
      <trkpt lat="47.76526" lon="5.18623">
        <ele>460</ele>
        <time>2019-02-12T14:17:28.009Z</time>
      </trkpt>
      <trkpt lat="47.76529" lon="5.18627">
        <ele>460</ele>
        <time>2019-02-12T14:17:31.009Z</time>
      </trkpt>
      <trkpt lat="47.76533" lon="5.1863">
        <ele>460</ele>
        <time>2019-02-12T14:17:34.009Z</time>
      </trkpt>
      <trkpt lat="47.76536" lon="5.18633">
        <ele>459.3831528383</ele>
        <time>2019-02-12T14:17:37.009Z</time>
      </trkpt>
      <trkpt lat="47.76539" lon="5.18636">
        <ele>459</ele>
        <time>2019-02-12T14:17:40.009Z</time>
      </trkpt>
      <trkpt lat="47.76542" lon="5.18641">
        <ele>458.70714263946</ele>
        <time>2019-02-12T14:17:44.009Z</time>
      </trkpt>
      <trkpt lat="47.7654" lon="5.18646">
        <ele>458</ele>
        <time>2019-02-12T14:17:49.009Z</time>
      </trkpt>
      <trkpt lat="47.76559" lon="5.18632">
        <ele>450</ele>
      </trkpt>
    </trkseg>
  </trk>
</gpx>